<?xml version="1.0" encoding="UTF-8" standalone="no" ?>
<gpx xmlns="http://www.topografix.com/GPX/1/1" xmlns:xsi="http://www.w3.org/2001/XMLSchema-instance" xsi:schemaLocation="http://www.topografix.com/GPX/1/1 http://www.topografix.com/GPX/1/1/gpx.xsd" version="1.1" creator="VisuGPX - https://www.visugpx.com">
  <metadata>
    <name>jour4</name>
  </metadata>
  <trk>
    <name><![CDATA[J4]]></name>
    <extensions>
      <line xmlns="http://www.topografix.com/GPX/gpx_style/0/2">
        <color>0000FF</color>
        <width>4</width>
      </line>
    </extensions>
    <trkseg>
      <trkpt lat="42.28826" lon="0.5343">
        <ele>750.13</ele>
        <time>2021-08-02T08:42:58Z</time>
      </trkpt>
      <trkpt lat="42.28826" lon="0.5343">
        <ele>750.13</ele>
        <time>2021-08-02T08:42:58Z</time>
      </trkpt>
      <trkpt lat="42.28819" lon="0.53433">
        <ele>749.77</ele>
        <time>2021-08-02T08:42:59Z</time>
      </trkpt>
      <trkpt lat="42.2875" lon="0.53442">
        <ele>748.95</ele>
        <time>2021-08-02T08:43:05Z</time>
      </trkpt>
      <trkpt lat="42.28596" lon="0.53457">
        <ele>749</ele>
        <time>2021-08-02T08:43:13Z</time>
      </trkpt>
      <trkpt lat="42.28555" lon="0.53463">
        <ele>748.12</ele>
        <time>2021-08-02T08:43:15Z</time>
      </trkpt>
      <trkpt lat="42.28484" lon="0.53514">
        <ele>744.16</ele>
        <time>2021-08-02T08:43:19Z</time>
      </trkpt>
      <trkpt lat="42.28453" lon="0.53547">
        <ele>741.51</ele>
        <time>2021-08-02T08:43:21Z</time>
      </trkpt>
      <trkpt lat="42.28402" lon="0.53572">
        <ele>736.49</ele>
        <time>2021-08-02T08:43:24Z</time>
      </trkpt>
      <trkpt lat="42.28366" lon="0.53569">
        <ele>732.41</ele>
        <time>2021-08-02T08:43:26Z</time>
      </trkpt>
      <trkpt lat="42.28336" lon="0.53552">
        <ele>728.32</ele>
        <time>2021-08-02T08:43:28Z</time>
      </trkpt>
      <trkpt lat="42.28313" lon="0.53524">
        <ele>724.24</ele>
        <time>2021-08-02T08:43:30Z</time>
      </trkpt>
      <trkpt lat="42.28294" lon="0.5349">
        <ele>720.32</ele>
        <time>2021-08-02T08:43:32Z</time>
      </trkpt>
      <trkpt lat="42.28286" lon="0.5347">
        <ele>718.47</ele>
        <time>2021-08-02T08:43:33Z</time>
      </trkpt>
      <trkpt lat="42.28263" lon="0.53405">
        <ele>713.35</ele>
        <time>2021-08-02T08:43:36Z</time>
      </trkpt>
      <trkpt lat="42.28237" lon="0.53342">
        <ele>709.08</ele>
        <time>2021-08-02T08:43:39Z</time>
      </trkpt>
      <trkpt lat="42.28211" lon="0.53278">
        <ele>705.18</ele>
        <time>2021-08-02T08:43:42Z</time>
      </trkpt>
      <trkpt lat="42.28186" lon="0.53218">
        <ele>700.95</ele>
        <time>2021-08-02T08:43:45Z</time>
      </trkpt>
      <trkpt lat="42.28163" lon="0.5316">
        <ele>696.73</ele>
        <time>2021-08-02T08:43:48Z</time>
      </trkpt>
      <trkpt lat="42.28138" lon="0.53101">
        <ele>692.76</ele>
        <time>2021-08-02T08:43:51Z</time>
      </trkpt>
      <trkpt lat="42.28114" lon="0.53042">
        <ele>689.43</ele>
        <time>2021-08-02T08:43:54Z</time>
      </trkpt>
      <trkpt lat="42.28098" lon="0.53005">
        <ele>687.32</ele>
        <time>2021-08-02T08:43:56Z</time>
      </trkpt>
      <trkpt lat="42.28056" lon="0.52947">
        <ele>683.2</ele>
        <time>2021-08-02T08:44:00Z</time>
      </trkpt>
      <trkpt lat="42.27976" lon="0.52922">
        <ele>680.54</ele>
        <time>2021-08-02T08:44:05Z</time>
      </trkpt>
      <trkpt lat="42.27929" lon="0.5294">
        <ele>680.01</ele>
        <time>2021-08-02T08:44:08Z</time>
      </trkpt>
      <trkpt lat="42.2787" lon="0.52979">
        <ele>679.11</ele>
        <time>2021-08-02T08:44:12Z</time>
      </trkpt>
      <trkpt lat="42.27807" lon="0.5306">
        <ele>678.73</ele>
        <time>2021-08-02T08:44:17Z</time>
      </trkpt>
      <trkpt lat="42.27741" lon="0.53191">
        <ele>678.77</ele>
        <time>2021-08-02T08:44:24Z</time>
      </trkpt>
      <trkpt lat="42.27657" lon="0.5323">
        <ele>678.7</ele>
        <time>2021-08-02T08:44:30Z</time>
      </trkpt>
      <trkpt lat="42.27625" lon="0.5322">
        <ele>678.66</ele>
        <time>2021-08-02T08:44:32Z</time>
      </trkpt>
      <trkpt lat="42.27474" lon="0.5316">
        <ele>678.84</ele>
        <time>2021-08-02T08:44:41Z</time>
      </trkpt>
      <trkpt lat="42.27418" lon="0.53106">
        <ele>677.78</ele>
        <time>2021-08-02T08:44:45Z</time>
      </trkpt>
      <trkpt lat="42.27269" lon="0.5287">
        <ele>674.31</ele>
        <time>2021-08-02T08:44:57Z</time>
      </trkpt>
      <trkpt lat="42.27142" lon="0.52675">
        <ele>672.03</ele>
        <time>2021-08-02T08:45:07Z</time>
      </trkpt>
      <trkpt lat="42.2702" lon="0.52552">
        <ele>669.85</ele>
        <time>2021-08-02T08:45:15Z</time>
      </trkpt>
      <trkpt lat="42.26912" lon="0.52405">
        <ele>671.43</ele>
        <time>2021-08-02T08:45:23Z</time>
      </trkpt>
      <trkpt lat="42.26833" lon="0.52346">
        <ele>672.17</ele>
        <time>2021-08-02T08:45:28Z</time>
      </trkpt>
      <trkpt lat="42.26747" lon="0.52327">
        <ele>672.36</ele>
        <time>2021-08-02T08:45:33Z</time>
      </trkpt>
      <trkpt lat="42.2663" lon="0.52238">
        <ele>673.42</ele>
        <time>2021-08-02T08:45:41Z</time>
      </trkpt>
      <trkpt lat="42.26604" lon="0.5221">
        <ele>673.54</ele>
        <time>2021-08-02T08:45:43Z</time>
      </trkpt>
      <trkpt lat="42.26536" lon="0.52066">
        <ele>673.39</ele>
        <time>2021-08-02T08:45:50Z</time>
      </trkpt>
      <trkpt lat="42.26496" lon="0.51984">
        <ele>673.05</ele>
        <time>2021-08-02T08:45:54Z</time>
      </trkpt>
      <trkpt lat="42.26324" lon="0.51791">
        <ele>669.87</ele>
        <time>2021-08-02T08:46:06Z</time>
      </trkpt>
      <trkpt lat="42.26263" lon="0.51726">
        <ele>667.48</ele>
        <time>2021-08-02T08:46:10Z</time>
      </trkpt>
      <trkpt lat="42.2619" lon="0.51695">
        <ele>665.18</ele>
        <time>2021-08-02T08:46:14Z</time>
      </trkpt>
      <trkpt lat="42.26071" lon="0.51708">
        <ele>662.25</ele>
        <time>2021-08-02T08:46:20Z</time>
      </trkpt>
      <trkpt lat="42.25955" lon="0.51775">
        <ele>658.37</ele>
        <time>2021-08-02T08:46:27Z</time>
      </trkpt>
      <trkpt lat="42.2594" lon="0.51784">
        <ele>657.78</ele>
        <time>2021-08-02T08:46:28Z</time>
      </trkpt>
      <trkpt lat="42.25869" lon="0.51785">
        <ele>656.15</ele>
        <time>2021-08-02T08:46:32Z</time>
      </trkpt>
      <trkpt lat="42.25781" lon="0.51748">
        <ele>655.3</ele>
        <time>2021-08-02T08:46:37Z</time>
      </trkpt>
      <trkpt lat="42.2567" lon="0.51659">
        <ele>652.63</ele>
        <time>2021-08-02T08:46:45Z</time>
      </trkpt>
      <trkpt lat="42.25657" lon="0.51628">
        <ele>648.14</ele>
        <time>2021-08-02T08:46:49Z</time>
      </trkpt>
      <trkpt lat="42.25655" lon="0.5158">
        <ele>642.58</ele>
        <time>2021-08-02T08:46:55Z</time>
      </trkpt>
      <trkpt lat="42.25654" lon="0.51564">
        <ele>641.55</ele>
        <time>2021-08-02T08:46:57Z</time>
      </trkpt>
      <trkpt lat="42.25663" lon="0.51513">
        <ele>640.38</ele>
        <time>2021-08-02T08:47:02Z</time>
      </trkpt>
      <trkpt lat="42.25697" lon="0.51388">
        <ele>640.25</ele>
        <time>2021-08-02T08:47:13Z</time>
      </trkpt>
      <trkpt lat="42.25714" lon="0.51352">
        <ele>640.28</ele>
        <time>2021-08-02T08:47:18Z</time>
      </trkpt>
      <trkpt lat="42.25701" lon="0.51331">
        <ele>640.28</ele>
        <time>2021-08-02T08:47:24Z</time>
      </trkpt>
      <trkpt lat="42.25689" lon="0.5134">
        <ele>640.3</ele>
        <time>2021-08-02T08:47:26Z</time>
      </trkpt>
      <trkpt lat="42.25638" lon="0.51403">
        <ele>643.5</ele>
        <time>2021-08-02T08:47:35Z</time>
      </trkpt>
      <trkpt lat="42.25622" lon="0.51428">
        <ele>645.69</ele>
        <time>2021-08-02T08:47:38Z</time>
      </trkpt>
      <trkpt lat="42.25585" lon="0.51441">
        <ele>650.18</ele>
        <time>2021-08-02T08:47:43Z</time>
      </trkpt>
      <trkpt lat="42.25557" lon="0.51439">
        <ele>652.95</ele>
        <time>2021-08-02T08:47:46Z</time>
      </trkpt>
      <trkpt lat="42.25513" lon="0.51425">
        <ele>657.76</ele>
        <time>2021-08-02T08:47:51Z</time>
      </trkpt>
      <trkpt lat="42.2549" lon="0.51385">
        <ele>661.92</ele>
        <time>2021-08-02T08:47:56Z</time>
      </trkpt>
      <trkpt lat="42.25474" lon="0.51368">
        <ele>665.01</ele>
        <time>2021-08-02T08:48:00Z</time>
      </trkpt>
      <trkpt lat="42.2545" lon="0.51395">
        <ele>668.39</ele>
        <time>2021-08-02T08:48:05Z</time>
      </trkpt>
      <trkpt lat="42.25446" lon="0.51403">
        <ele>669.09</ele>
        <time>2021-08-02T08:48:06Z</time>
      </trkpt>
      <trkpt lat="42.25419" lon="0.51445">
        <ele>672.84</ele>
        <time>2021-08-02T08:48:11Z</time>
      </trkpt>
      <trkpt lat="42.25412" lon="0.5145">
        <ele>673.34</ele>
        <time>2021-08-02T08:48:12Z</time>
      </trkpt>
      <trkpt lat="42.25405" lon="0.51453">
        <ele>673.75</ele>
        <time>2021-08-02T08:48:13Z</time>
      </trkpt>
      <trkpt lat="42.25398" lon="0.51454">
        <ele>674.04</ele>
        <time>2021-08-02T08:48:14Z</time>
      </trkpt>
      <trkpt lat="42.25391" lon="0.51454">
        <ele>674.35</ele>
        <time>2021-08-02T08:48:15Z</time>
      </trkpt>
      <trkpt lat="42.25384" lon="0.51454">
        <ele>674.76</ele>
        <time>2021-08-02T08:48:16Z</time>
      </trkpt>
      <trkpt lat="42.25377" lon="0.51451">
        <ele>675.21</ele>
        <time>2021-08-02T08:48:17Z</time>
      </trkpt>
      <trkpt lat="42.25359" lon="0.51432">
        <ele>676.59</ele>
        <time>2021-08-02T08:48:20Z</time>
      </trkpt>
      <trkpt lat="42.25322" lon="0.51376">
        <ele>680.25</ele>
        <time>2021-08-02T08:48:26Z</time>
      </trkpt>
      <trkpt lat="42.25303" lon="0.51351">
        <ele>681.65</ele>
        <time>2021-08-02T08:48:29Z</time>
      </trkpt>
      <trkpt lat="42.25288" lon="0.51309">
        <ele>682.97</ele>
        <time>2021-08-02T08:48:33Z</time>
      </trkpt>
      <trkpt lat="42.25258" lon="0.51277">
        <ele>684.28</ele>
        <time>2021-08-02T08:48:39Z</time>
      </trkpt>
      <trkpt lat="42.2525" lon="0.51281">
        <ele>684.34</ele>
        <time>2021-08-02T08:48:40Z</time>
      </trkpt>
      <trkpt lat="42.25205" lon="0.51286">
        <ele>685.4</ele>
        <time>2021-08-02T08:48:45Z</time>
      </trkpt>
      <trkpt lat="42.25165" lon="0.51233">
        <ele>688.89</ele>
        <time>2021-08-02T08:48:52Z</time>
      </trkpt>
      <trkpt lat="42.25162" lon="0.51218">
        <ele>690.17</ele>
        <time>2021-08-02T08:48:54Z</time>
      </trkpt>
      <trkpt lat="42.25161" lon="0.51214">
        <ele>690.95</ele>
        <time>2021-08-02T08:48:56Z</time>
      </trkpt>
      <trkpt lat="42.25163" lon="0.51189">
        <ele>691.18</ele>
        <time>2021-08-02T08:49:01Z</time>
      </trkpt>
      <trkpt lat="42.25141" lon="0.51135">
        <ele>690.5</ele>
        <time>2021-08-02T08:49:08Z</time>
      </trkpt>
      <trkpt lat="42.25142" lon="0.51126">
        <ele>690.33</ele>
        <time>2021-08-02T08:49:09Z</time>
      </trkpt>
      <trkpt lat="42.25118" lon="0.51057">
        <ele>688.9</ele>
        <time>2021-08-02T08:49:16Z</time>
      </trkpt>
      <trkpt lat="42.25094" lon="0.51032">
        <ele>688.64</ele>
        <time>2021-08-02T08:49:19Z</time>
      </trkpt>
      <trkpt lat="42.25052" lon="0.50984">
        <ele>688.58</ele>
        <time>2021-08-02T08:49:25Z</time>
      </trkpt>
      <trkpt lat="42.25042" lon="0.50924">
        <ele>687.19</ele>
        <time>2021-08-02T08:49:31Z</time>
      </trkpt>
      <trkpt lat="42.25049" lon="0.50863">
        <ele>685.44</ele>
        <time>2021-08-02T08:49:36Z</time>
      </trkpt>
      <trkpt lat="42.25048" lon="0.50797">
        <ele>683.22</ele>
        <time>2021-08-02T08:49:41Z</time>
      </trkpt>
      <trkpt lat="42.25045" lon="0.50783">
        <ele>683.02</ele>
        <time>2021-08-02T08:49:42Z</time>
      </trkpt>
      <trkpt lat="42.25039" lon="0.50755">
        <ele>682.56</ele>
        <time>2021-08-02T08:49:44Z</time>
      </trkpt>
      <trkpt lat="42.25014" lon="0.50714">
        <ele>680.72</ele>
        <time>2021-08-02T08:49:48Z</time>
      </trkpt>
      <trkpt lat="42.24975" lon="0.50668">
        <ele>679.01</ele>
        <time>2021-08-02T08:49:53Z</time>
      </trkpt>
      <trkpt lat="42.24944" lon="0.50598">
        <ele>676.46</ele>
        <time>2021-08-02T08:49:58Z</time>
      </trkpt>
      <trkpt lat="42.24929" lon="0.50573">
        <ele>674.91</ele>
        <time>2021-08-02T08:50:00Z</time>
      </trkpt>
      <trkpt lat="42.24916" lon="0.5052">
        <ele>670.92</ele>
        <time>2021-08-02T08:50:04Z</time>
      </trkpt>
      <trkpt lat="42.24927" lon="0.50453">
        <ele>664.84</ele>
        <time>2021-08-02T08:50:09Z</time>
      </trkpt>
      <trkpt lat="42.24943" lon="0.50377">
        <ele>658.79</ele>
        <time>2021-08-02T08:50:14Z</time>
      </trkpt>
      <trkpt lat="42.24945" lon="0.50363">
        <ele>657.39</ele>
        <time>2021-08-02T08:50:15Z</time>
      </trkpt>
      <trkpt lat="42.24962" lon="0.50312">
        <ele>652.02</ele>
        <time>2021-08-02T08:50:19Z</time>
      </trkpt>
      <trkpt lat="42.2497" lon="0.50293">
        <ele>649.47</ele>
        <time>2021-08-02T08:50:21Z</time>
      </trkpt>
      <trkpt lat="42.24969" lon="0.50255">
        <ele>644.56</ele>
        <time>2021-08-02T08:50:25Z</time>
      </trkpt>
      <trkpt lat="42.24939" lon="0.50256">
        <ele>640.88</ele>
        <time>2021-08-02T08:50:29Z</time>
      </trkpt>
      <trkpt lat="42.24914" lon="0.5027">
        <ele>639.62</ele>
        <time>2021-08-02T08:50:32Z</time>
      </trkpt>
      <trkpt lat="42.24906" lon="0.50275">
        <ele>639.51</ele>
        <time>2021-08-02T08:50:33Z</time>
      </trkpt>
      <trkpt lat="42.24881" lon="0.50281">
        <ele>640.06</ele>
        <time>2021-08-02T08:50:36Z</time>
      </trkpt>
      <trkpt lat="42.24851" lon="0.50296">
        <ele>642.36</ele>
        <time>2021-08-02T08:50:40Z</time>
      </trkpt>
      <trkpt lat="42.24796" lon="0.50307">
        <ele>646.91</ele>
        <time>2021-08-02T08:50:46Z</time>
      </trkpt>
      <trkpt lat="42.24788" lon="0.50306">
        <ele>647.68</ele>
        <time>2021-08-02T08:50:47Z</time>
      </trkpt>
      <trkpt lat="42.24756" lon="0.50288">
        <ele>650.41</ele>
        <time>2021-08-02T08:50:52Z</time>
      </trkpt>
      <trkpt lat="42.24755" lon="0.50255">
        <ele>650.54</ele>
        <time>2021-08-02T08:50:55Z</time>
      </trkpt>
      <trkpt lat="42.24735" lon="0.50209">
        <ele>647.56</ele>
        <time>2021-08-02T08:51:01Z</time>
      </trkpt>
      <trkpt lat="42.24704" lon="0.50245">
        <ele>644.32</ele>
        <time>2021-08-02T08:51:06Z</time>
      </trkpt>
      <trkpt lat="42.24693" lon="0.50305">
        <ele>643.06</ele>
        <time>2021-08-02T08:51:11Z</time>
      </trkpt>
      <trkpt lat="42.24683" lon="0.50368">
        <ele>643.66</ele>
        <time>2021-08-02T08:51:16Z</time>
      </trkpt>
      <trkpt lat="42.24664" lon="0.50409">
        <ele>646.02</ele>
        <time>2021-08-02T08:51:20Z</time>
      </trkpt>
      <trkpt lat="42.24626" lon="0.50415">
        <ele>649.8</ele>
        <time>2021-08-02T08:51:25Z</time>
      </trkpt>
      <trkpt lat="42.24616" lon="0.5041">
        <ele>650.51</ele>
        <time>2021-08-02T08:51:26Z</time>
      </trkpt>
      <trkpt lat="42.24594" lon="0.504">
        <ele>652.21</ele>
        <time>2021-08-02T08:51:28Z</time>
      </trkpt>
      <trkpt lat="42.24548" lon="0.50402">
        <ele>655.69</ele>
        <time>2021-08-02T08:51:32Z</time>
      </trkpt>
      <trkpt lat="42.24485" lon="0.50419">
        <ele>660.02</ele>
        <time>2021-08-02T08:51:37Z</time>
      </trkpt>
      <trkpt lat="42.24449" lon="0.50418">
        <ele>664.03</ele>
        <time>2021-08-02T08:51:43Z</time>
      </trkpt>
      <trkpt lat="42.24428" lon="0.5039">
        <ele>667.01</ele>
        <time>2021-08-02T08:51:50Z</time>
      </trkpt>
      <trkpt lat="42.24431" lon="0.50383">
        <ele>667.28</ele>
        <time>2021-08-02T08:51:51Z</time>
      </trkpt>
      <trkpt lat="42.24436" lon="0.50377">
        <ele>667.5</ele>
        <time>2021-08-02T08:51:52Z</time>
      </trkpt>
      <trkpt lat="42.24443" lon="0.5037">
        <ele>667.68</ele>
        <time>2021-08-02T08:51:53Z</time>
      </trkpt>
      <trkpt lat="42.24452" lon="0.50362">
        <ele>667.88</ele>
        <time>2021-08-02T08:51:54Z</time>
      </trkpt>
      <trkpt lat="42.24502" lon="0.50306">
        <ele>669.76</ele>
        <time>2021-08-02T08:52:00Z</time>
      </trkpt>
      <trkpt lat="42.24517" lon="0.5026">
        <ele>671.16</ele>
        <time>2021-08-02T08:52:04Z</time>
      </trkpt>
      <trkpt lat="42.24538" lon="0.5022">
        <ele>672.19</ele>
        <time>2021-08-02T08:52:08Z</time>
      </trkpt>
      <trkpt lat="42.24608" lon="0.50096">
        <ele>674.1</ele>
        <time>2021-08-02T08:52:17Z</time>
      </trkpt>
      <trkpt lat="42.24614" lon="0.50085">
        <ele>674.31</ele>
        <time>2021-08-02T08:52:18Z</time>
      </trkpt>
      <trkpt lat="42.24634" lon="0.50034">
        <ele>675.42</ele>
        <time>2021-08-02T08:52:22Z</time>
      </trkpt>
      <trkpt lat="42.24667" lon="0.5">
        <ele>677.07</ele>
        <time>2021-08-02T08:52:27Z</time>
      </trkpt>
      <trkpt lat="42.24683" lon="0.49993">
        <ele>678.11</ele>
        <time>2021-08-02T08:52:29Z</time>
      </trkpt>
      <trkpt lat="42.24709" lon="0.49945">
        <ele>682.17</ele>
        <time>2021-08-02T08:52:35Z</time>
      </trkpt>
      <trkpt lat="42.24716" lon="0.49924">
        <ele>683.4</ele>
        <time>2021-08-02T08:52:37Z</time>
      </trkpt>
      <trkpt lat="42.24732" lon="0.49889">
        <ele>687.36</ele>
        <time>2021-08-02T08:52:44Z</time>
      </trkpt>
      <trkpt lat="42.24745" lon="0.49859">
        <ele>689.72</ele>
        <time>2021-08-02T08:52:56Z</time>
      </trkpt>
      <trkpt lat="42.24749" lon="0.49851">
        <ele>689.9</ele>
        <time>2021-08-02T08:52:57Z</time>
      </trkpt>
      <trkpt lat="42.24741" lon="0.49782">
        <ele>691.61</ele>
        <time>2021-08-02T08:53:03Z</time>
      </trkpt>
      <trkpt lat="42.24743" lon="0.49728">
        <ele>692.47</ele>
        <time>2021-08-02T08:53:07Z</time>
      </trkpt>
      <trkpt lat="42.2475" lon="0.49699">
        <ele>692.98</ele>
        <time>2021-08-02T08:53:09Z</time>
      </trkpt>
      <trkpt lat="42.24808" lon="0.49605">
        <ele>694.02</ele>
        <time>2021-08-02T08:53:16Z</time>
      </trkpt>
      <trkpt lat="42.24834" lon="0.49557">
        <ele>693.81</ele>
        <time>2021-08-02T08:53:20Z</time>
      </trkpt>
      <trkpt lat="42.24859" lon="0.49504">
        <ele>691.74</ele>
        <time>2021-08-02T08:53:25Z</time>
      </trkpt>
      <trkpt lat="42.24882" lon="0.49448">
        <ele>689.9</ele>
        <time>2021-08-02T08:53:30Z</time>
      </trkpt>
      <trkpt lat="42.2489" lon="0.49492">
        <ele>688.47</ele>
        <time>2021-08-02T08:53:35Z</time>
      </trkpt>
      <trkpt lat="42.24884" lon="0.49579">
        <ele>689.61</ele>
        <time>2021-08-02T08:53:40Z</time>
      </trkpt>
      <trkpt lat="42.24909" lon="0.49629">
        <ele>693.54</ele>
        <time>2021-08-02T08:53:46Z</time>
      </trkpt>
      <trkpt lat="42.24932" lon="0.49582">
        <ele>695.95</ele>
        <time>2021-08-02T08:53:50Z</time>
      </trkpt>
      <trkpt lat="42.24964" lon="0.49506">
        <ele>700.15</ele>
        <time>2021-08-02T08:53:55Z</time>
      </trkpt>
      <trkpt lat="42.24971" lon="0.49489">
        <ele>701.22</ele>
        <time>2021-08-02T08:53:56Z</time>
      </trkpt>
      <trkpt lat="42.24985" lon="0.49397">
        <ele>706.07</ele>
        <time>2021-08-02T08:54:01Z</time>
      </trkpt>
      <trkpt lat="42.24981" lon="0.49343">
        <ele>708.9</ele>
        <time>2021-08-02T08:54:04Z</time>
      </trkpt>
      <trkpt lat="42.2496" lon="0.49271">
        <ele>713.16</ele>
        <time>2021-08-02T08:54:09Z</time>
      </trkpt>
      <trkpt lat="42.24961" lon="0.49213">
        <ele>716.66</ele>
        <time>2021-08-02T08:54:13Z</time>
      </trkpt>
      <trkpt lat="42.24969" lon="0.49186">
        <ele>718.78</ele>
        <time>2021-08-02T08:54:15Z</time>
      </trkpt>
      <trkpt lat="42.24977" lon="0.49162">
        <ele>720.87</ele>
        <time>2021-08-02T08:54:17Z</time>
      </trkpt>
      <trkpt lat="42.24984" lon="0.49119">
        <ele>724.38</ele>
        <time>2021-08-02T08:54:21Z</time>
      </trkpt>
      <trkpt lat="42.24996" lon="0.49064">
        <ele>728.42</ele>
        <time>2021-08-02T08:54:29Z</time>
      </trkpt>
      <trkpt lat="42.24997" lon="0.4905">
        <ele>729.13</ele>
        <time>2021-08-02T08:54:31Z</time>
      </trkpt>
      <trkpt lat="42.25007" lon="0.48959">
        <ele>732.51</ele>
        <time>2021-08-02T08:54:43Z</time>
      </trkpt>
      <trkpt lat="42.25008" lon="0.4895">
        <ele>733.23</ele>
        <time>2021-08-02T08:54:44Z</time>
      </trkpt>
      <trkpt lat="42.24984" lon="0.48877">
        <ele>736.37</ele>
        <time>2021-08-02T08:54:51Z</time>
      </trkpt>
      <trkpt lat="42.24975" lon="0.48869">
        <ele>736.98</ele>
        <time>2021-08-02T08:54:52Z</time>
      </trkpt>
      <trkpt lat="42.24956" lon="0.48852">
        <ele>738.25</ele>
        <time>2021-08-02T08:54:54Z</time>
      </trkpt>
      <trkpt lat="42.2494" lon="0.48797">
        <ele>741.88</ele>
        <time>2021-08-02T08:54:59Z</time>
      </trkpt>
      <trkpt lat="42.24945" lon="0.48772">
        <ele>743.7</ele>
        <time>2021-08-02T08:55:01Z</time>
      </trkpt>
      <trkpt lat="42.24959" lon="0.4872">
        <ele>746.57</ele>
        <time>2021-08-02T08:55:05Z</time>
      </trkpt>
      <trkpt lat="42.24952" lon="0.4865">
        <ele>750.71</ele>
        <time>2021-08-02T08:55:11Z</time>
      </trkpt>
      <trkpt lat="42.2494" lon="0.48596">
        <ele>754.11</ele>
        <time>2021-08-02T08:55:15Z</time>
      </trkpt>
      <trkpt lat="42.24946" lon="0.48559">
        <ele>756.61</ele>
        <time>2021-08-02T08:55:18Z</time>
      </trkpt>
      <trkpt lat="42.24962" lon="0.48497">
        <ele>761.12</ele>
        <time>2021-08-02T08:55:23Z</time>
      </trkpt>
      <trkpt lat="42.24982" lon="0.48463">
        <ele>763.53</ele>
        <time>2021-08-02T08:55:26Z</time>
      </trkpt>
      <trkpt lat="42.25023" lon="0.48417">
        <ele>767.17</ele>
        <time>2021-08-02T08:55:32Z</time>
      </trkpt>
      <trkpt lat="42.25059" lon="0.48337">
        <ele>770.7</ele>
        <time>2021-08-02T08:55:38Z</time>
      </trkpt>
      <trkpt lat="42.25095" lon="0.48266">
        <ele>774.02</ele>
        <time>2021-08-02T08:55:45Z</time>
      </trkpt>
      <trkpt lat="42.25097" lon="0.4826">
        <ele>774.5</ele>
        <time>2021-08-02T08:55:46Z</time>
      </trkpt>
      <trkpt lat="42.25099" lon="0.48248">
        <ele>775.56</ele>
        <time>2021-08-02T08:55:48Z</time>
      </trkpt>
      <trkpt lat="42.25099" lon="0.48243">
        <ele>776.03</ele>
        <time>2021-08-02T08:55:49Z</time>
      </trkpt>
      <trkpt lat="42.251" lon="0.48237">
        <ele>776.39</ele>
        <time>2021-08-02T08:55:50Z</time>
      </trkpt>
      <trkpt lat="42.25133" lon="0.48226">
        <ele>777.6</ele>
        <time>2021-08-02T08:55:55Z</time>
      </trkpt>
      <trkpt lat="42.25176" lon="0.48245">
        <ele>779.54</ele>
        <time>2021-08-02T08:56:00Z</time>
      </trkpt>
      <trkpt lat="42.25212" lon="0.48279">
        <ele>781.21</ele>
        <time>2021-08-02T08:56:04Z</time>
      </trkpt>
      <trkpt lat="42.25232" lon="0.48309">
        <ele>781.81</ele>
        <time>2021-08-02T08:56:07Z</time>
      </trkpt>
      <trkpt lat="42.25311" lon="0.48347">
        <ele>783.47</ele>
        <time>2021-08-02T08:56:15Z</time>
      </trkpt>
      <trkpt lat="42.25335" lon="0.48352">
        <ele>784.17</ele>
        <time>2021-08-02T08:56:17Z</time>
      </trkpt>
      <trkpt lat="42.25442" lon="0.48369">
        <ele>783.94</ele>
        <time>2021-08-02T08:56:27Z</time>
      </trkpt>
      <trkpt lat="42.25544" lon="0.48378">
        <ele>781.99</ele>
        <time>2021-08-02T08:56:37Z</time>
      </trkpt>
      <trkpt lat="42.25608" lon="0.48383">
        <ele>778.88</ele>
        <time>2021-08-02T08:56:43Z</time>
      </trkpt>
      <trkpt lat="42.25618" lon="0.48384">
        <ele>778.05</ele>
        <time>2021-08-02T08:56:44Z</time>
      </trkpt>
      <trkpt lat="42.25653" lon="0.48377">
        <ele>775.26</ele>
        <time>2021-08-02T08:56:48Z</time>
      </trkpt>
      <trkpt lat="42.25691" lon="0.48357">
        <ele>771.47</ele>
        <time>2021-08-02T08:56:57Z</time>
      </trkpt>
      <trkpt lat="42.25717" lon="0.48354">
        <ele>772.55</ele>
        <time>2021-08-02T08:57:03Z</time>
      </trkpt>
      <trkpt lat="42.25765" lon="0.48341">
        <ele>776.28</ele>
        <time>2021-08-02T08:57:10Z</time>
      </trkpt>
      <trkpt lat="42.25803" lon="0.48343">
        <ele>779.51</ele>
        <time>2021-08-02T08:57:15Z</time>
      </trkpt>
      <trkpt lat="42.25813" lon="0.48345">
        <ele>780.24</ele>
        <time>2021-08-02T08:57:16Z</time>
      </trkpt>
      <trkpt lat="42.25828" lon="0.48372">
        <ele>782.91</ele>
        <time>2021-08-02T08:57:20Z</time>
      </trkpt>
      <trkpt lat="42.25825" lon="0.4838">
        <ele>783.57</ele>
        <time>2021-08-02T08:57:21Z</time>
      </trkpt>
      <trkpt lat="42.25821" lon="0.48389">
        <ele>784.28</ele>
        <time>2021-08-02T08:57:22Z</time>
      </trkpt>
      <trkpt lat="42.25829" lon="0.48419">
        <ele>787.56</ele>
        <time>2021-08-02T08:57:26Z</time>
      </trkpt>
      <trkpt lat="42.25856" lon="0.48407">
        <ele>791.32</ele>
        <time>2021-08-02T08:57:30Z</time>
      </trkpt>
      <trkpt lat="42.25861" lon="0.48384">
        <ele>793.19</ele>
        <time>2021-08-02T08:57:32Z</time>
      </trkpt>
      <trkpt lat="42.25891" lon="0.48318">
        <ele>798.64</ele>
        <time>2021-08-02T08:57:38Z</time>
      </trkpt>
      <trkpt lat="42.25901" lon="0.48311">
        <ele>799.56</ele>
        <time>2021-08-02T08:57:39Z</time>
      </trkpt>
      <trkpt lat="42.25932" lon="0.48295">
        <ele>802.68</ele>
        <time>2021-08-02T08:57:42Z</time>
      </trkpt>
      <trkpt lat="42.25963" lon="0.48291">
        <ele>806.15</ele>
        <time>2021-08-02T08:57:45Z</time>
      </trkpt>
      <trkpt lat="42.25984" lon="0.48269">
        <ele>809.78</ele>
        <time>2021-08-02T08:57:48Z</time>
      </trkpt>
      <trkpt lat="42.25987" lon="0.4824">
        <ele>812.31</ele>
        <time>2021-08-02T08:57:50Z</time>
      </trkpt>
      <trkpt lat="42.2601" lon="0.48167">
        <ele>817.67</ele>
        <time>2021-08-02T08:57:55Z</time>
      </trkpt>
      <trkpt lat="42.26019" lon="0.48155">
        <ele>818.76</ele>
        <time>2021-08-02T08:57:56Z</time>
      </trkpt>
      <trkpt lat="42.26051" lon="0.48126">
        <ele>823.48</ele>
        <time>2021-08-02T08:57:59Z</time>
      </trkpt>
      <trkpt lat="42.26063" lon="0.48118">
        <ele>823.48</ele>
        <time>2021-08-02T08:58:00Z</time>
      </trkpt>
      <trkpt lat="42.26088" lon="0.48103">
        <ele>827.59</ele>
        <time>2021-08-02T08:58:02Z</time>
      </trkpt>
      <trkpt lat="42.26125" lon="0.48081">
        <ele>831.82</ele>
        <time>2021-08-02T08:58:05Z</time>
      </trkpt>
      <trkpt lat="42.26136" lon="0.48073">
        <ele>833.24</ele>
        <time>2021-08-02T08:58:06Z</time>
      </trkpt>
      <trkpt lat="42.26168" lon="0.48047">
        <ele>837.84</ele>
        <time>2021-08-02T08:58:09Z</time>
      </trkpt>
      <trkpt lat="42.26191" lon="0.48036">
        <ele>840.99</ele>
        <time>2021-08-02T08:58:11Z</time>
      </trkpt>
      <trkpt lat="42.26228" lon="0.48017">
        <ele>845.37</ele>
        <time>2021-08-02T08:58:14Z</time>
      </trkpt>
      <trkpt lat="42.26266" lon="0.48002">
        <ele>849.78</ele>
        <time>2021-08-02T08:58:17Z</time>
      </trkpt>
      <trkpt lat="42.26292" lon="0.47991">
        <ele>852.91</ele>
        <time>2021-08-02T08:58:19Z</time>
      </trkpt>
      <trkpt lat="42.26305" lon="0.47985">
        <ele>854.43</ele>
        <time>2021-08-02T08:58:20Z</time>
      </trkpt>
      <trkpt lat="42.26337" lon="0.47954">
        <ele>859.13</ele>
        <time>2021-08-02T08:58:23Z</time>
      </trkpt>
      <trkpt lat="42.26352" lon="0.47924">
        <ele>862.35</ele>
        <time>2021-08-02T08:58:25Z</time>
      </trkpt>
      <trkpt lat="42.26365" lon="0.47891">
        <ele>865.49</ele>
        <time>2021-08-02T08:58:27Z</time>
      </trkpt>
      <trkpt lat="42.26392" lon="0.47851">
        <ele>870.12</ele>
        <time>2021-08-02T08:58:30Z</time>
      </trkpt>
      <trkpt lat="42.26413" lon="0.47833">
        <ele>873.27</ele>
        <time>2021-08-02T08:58:32Z</time>
      </trkpt>
      <trkpt lat="42.26437" lon="0.47829">
        <ele>876.43</ele>
        <time>2021-08-02T08:58:34Z</time>
      </trkpt>
      <trkpt lat="42.26461" lon="0.47831">
        <ele>879.68</ele>
        <time>2021-08-02T08:58:36Z</time>
      </trkpt>
      <trkpt lat="42.26487" lon="0.4783">
        <ele>882.92</ele>
        <time>2021-08-02T08:58:38Z</time>
      </trkpt>
      <trkpt lat="42.26526" lon="0.47824">
        <ele>888.02</ele>
        <time>2021-08-02T08:58:41Z</time>
      </trkpt>
      <trkpt lat="42.26552" lon="0.47818">
        <ele>891.6</ele>
        <time>2021-08-02T08:58:43Z</time>
      </trkpt>
      <trkpt lat="42.26577" lon="0.47813">
        <ele>895.25</ele>
        <time>2021-08-02T08:58:45Z</time>
      </trkpt>
      <trkpt lat="42.266" lon="0.47809">
        <ele>899.04</ele>
        <time>2021-08-02T08:58:47Z</time>
      </trkpt>
      <trkpt lat="42.26623" lon="0.47793">
        <ele>904.38</ele>
        <time>2021-08-02T08:58:50Z</time>
      </trkpt>
      <trkpt lat="42.26621" lon="0.47769">
        <ele>908.39</ele>
        <time>2021-08-02T08:58:53Z</time>
      </trkpt>
      <trkpt lat="42.26595" lon="0.47745">
        <ele>911.48</ele>
        <time>2021-08-02T08:58:58Z</time>
      </trkpt>
      <trkpt lat="42.26591" lon="0.47736">
        <ele>911.91</ele>
        <time>2021-08-02T08:58:59Z</time>
      </trkpt>
      <trkpt lat="42.26559" lon="0.47621">
        <ele>913.43</ele>
        <time>2021-08-02T08:59:08Z</time>
      </trkpt>
      <trkpt lat="42.26553" lon="0.47597">
        <ele>913.49</ele>
        <time>2021-08-02T08:59:10Z</time>
      </trkpt>
      <trkpt lat="42.26556" lon="0.4754">
        <ele>913.26</ele>
        <time>2021-08-02T08:59:15Z</time>
      </trkpt>
      <trkpt lat="42.26573" lon="0.47488">
        <ele>912.25</ele>
        <time>2021-08-02T08:59:19Z</time>
      </trkpt>
      <trkpt lat="42.26617" lon="0.4743">
        <ele>910.55</ele>
        <time>2021-08-02T08:59:25Z</time>
      </trkpt>
      <trkpt lat="42.2664" lon="0.47397">
        <ele>907.07</ele>
        <time>2021-08-02T08:59:31Z</time>
      </trkpt>
      <trkpt lat="42.26625" lon="0.47356">
        <ele>905.06</ele>
        <time>2021-08-02T08:59:35Z</time>
      </trkpt>
      <trkpt lat="42.26646" lon="0.47312">
        <ele>906.15</ele>
        <time>2021-08-02T08:59:40Z</time>
      </trkpt>
      <trkpt lat="42.26661" lon="0.47298">
        <ele>906.97</ele>
        <time>2021-08-02T08:59:42Z</time>
      </trkpt>
      <trkpt lat="42.26687" lon="0.47255">
        <ele>908.98</ele>
        <time>2021-08-02T08:59:46Z</time>
      </trkpt>
      <trkpt lat="42.26709" lon="0.47188">
        <ele>913.06</ele>
        <time>2021-08-02T08:59:51Z</time>
      </trkpt>
      <trkpt lat="42.26718" lon="0.47141">
        <ele>916.25</ele>
        <time>2021-08-02T08:59:54Z</time>
      </trkpt>
      <trkpt lat="42.26738" lon="0.47082">
        <ele>921.06</ele>
        <time>2021-08-02T08:59:58Z</time>
      </trkpt>
      <trkpt lat="42.26762" lon="0.47058">
        <ele>924.27</ele>
        <time>2021-08-02T09:00:01Z</time>
      </trkpt>
      <trkpt lat="42.26789" lon="0.47055">
        <ele>927.78</ele>
        <time>2021-08-02T09:00:04Z</time>
      </trkpt>
      <trkpt lat="42.26815" lon="0.47026">
        <ele>933.17</ele>
        <time>2021-08-02T09:00:11Z</time>
      </trkpt>
      <trkpt lat="42.26819" lon="0.47006">
        <ele>934.4</ele>
        <time>2021-08-02T09:00:13Z</time>
      </trkpt>
      <trkpt lat="42.26843" lon="0.46937">
        <ele>937.66</ele>
        <time>2021-08-02T09:00:18Z</time>
      </trkpt>
      <trkpt lat="42.26853" lon="0.46873">
        <ele>939.9</ele>
        <time>2021-08-02T09:00:22Z</time>
      </trkpt>
      <trkpt lat="42.26884" lon="0.46824">
        <ele>944.11</ele>
        <time>2021-08-02T09:00:28Z</time>
      </trkpt>
      <trkpt lat="42.26909" lon="0.46806">
        <ele>947.87</ele>
        <time>2021-08-02T09:00:32Z</time>
      </trkpt>
      <trkpt lat="42.26955" lon="0.46786">
        <ele>952.56</ele>
        <time>2021-08-02T09:00:37Z</time>
      </trkpt>
      <trkpt lat="42.2698" lon="0.46767">
        <ele>955.44</ele>
        <time>2021-08-02T09:00:40Z</time>
      </trkpt>
      <trkpt lat="42.27012" lon="0.46729">
        <ele>960.85</ele>
        <time>2021-08-02T09:00:46Z</time>
      </trkpt>
      <trkpt lat="42.2701" lon="0.46705">
        <ele>962.55</ele>
        <time>2021-08-02T09:00:48Z</time>
      </trkpt>
      <trkpt lat="42.27003" lon="0.46653">
        <ele>965.64</ele>
        <time>2021-08-02T09:00:52Z</time>
      </trkpt>
      <trkpt lat="42.27007" lon="0.46608">
        <ele>970.14</ele>
        <time>2021-08-02T09:00:57Z</time>
      </trkpt>
      <trkpt lat="42.2701" lon="0.46599">
        <ele>971.03</ele>
        <time>2021-08-02T09:00:58Z</time>
      </trkpt>
      <trkpt lat="42.2704" lon="0.46539">
        <ele>973.96</ele>
        <time>2021-08-02T09:01:03Z</time>
      </trkpt>
      <trkpt lat="42.27068" lon="0.4642">
        <ele>973.73</ele>
        <time>2021-08-02T09:01:11Z</time>
      </trkpt>
      <trkpt lat="42.27084" lon="0.46397">
        <ele>973.31</ele>
        <time>2021-08-02T09:01:14Z</time>
      </trkpt>
      <trkpt lat="42.27106" lon="0.46348">
        <ele>972.14</ele>
        <time>2021-08-02T09:01:19Z</time>
      </trkpt>
      <trkpt lat="42.27102" lon="0.46283">
        <ele>970.52</ele>
        <time>2021-08-02T09:01:24Z</time>
      </trkpt>
      <trkpt lat="42.27097" lon="0.46198">
        <ele>967.33</ele>
        <time>2021-08-02T09:01:30Z</time>
      </trkpt>
      <trkpt lat="42.27089" lon="0.46183">
        <ele>966.63</ele>
        <time>2021-08-02T09:01:32Z</time>
      </trkpt>
      <trkpt lat="42.27074" lon="0.46172">
        <ele>966.4</ele>
        <time>2021-08-02T09:01:34Z</time>
      </trkpt>
      <trkpt lat="42.27058" lon="0.4616">
        <ele>966.37</ele>
        <time>2021-08-02T09:01:36Z</time>
      </trkpt>
      <trkpt lat="42.27041" lon="0.46149">
        <ele>966.69</ele>
        <time>2021-08-02T09:01:38Z</time>
      </trkpt>
      <trkpt lat="42.27017" lon="0.46091">
        <ele>967.35</ele>
        <time>2021-08-02T09:01:46Z</time>
      </trkpt>
      <trkpt lat="42.27017" lon="0.46079">
        <ele>967.34</ele>
        <time>2021-08-02T09:01:47Z</time>
      </trkpt>
      <trkpt lat="42.2702" lon="0.46039">
        <ele>967.5</ele>
        <time>2021-08-02T09:01:50Z</time>
      </trkpt>
      <trkpt lat="42.27013" lon="0.45997">
        <ele>968.33</ele>
        <time>2021-08-02T09:01:53Z</time>
      </trkpt>
      <trkpt lat="42.27012" lon="0.45909">
        <ele>969.22</ele>
        <time>2021-08-02T09:01:58Z</time>
      </trkpt>
      <trkpt lat="42.26999" lon="0.4584">
        <ele>969.73</ele>
        <time>2021-08-02T09:02:02Z</time>
      </trkpt>
      <trkpt lat="42.26952" lon="0.45774">
        <ele>971.54</ele>
        <time>2021-08-02T09:02:08Z</time>
      </trkpt>
      <trkpt lat="42.26933" lon="0.45736">
        <ele>974.99</ele>
        <time>2021-08-02T09:02:13Z</time>
      </trkpt>
      <trkpt lat="42.26932" lon="0.45717">
        <ele>976.13</ele>
        <time>2021-08-02T09:02:15Z</time>
      </trkpt>
      <trkpt lat="42.2693" lon="0.457">
        <ele>977.41</ele>
        <time>2021-08-02T09:02:17Z</time>
      </trkpt>
      <trkpt lat="42.26945" lon="0.45609">
        <ele>980.2</ele>
        <time>2021-08-02T09:02:25Z</time>
      </trkpt>
      <trkpt lat="42.26965" lon="0.45559">
        <ele>976.93</ele>
        <time>2021-08-02T09:02:30Z</time>
      </trkpt>
      <trkpt lat="42.26978" lon="0.45528">
        <ele>973.86</ele>
        <time>2021-08-02T09:02:33Z</time>
      </trkpt>
      <trkpt lat="42.26992" lon="0.45488">
        <ele>970.73</ele>
        <time>2021-08-02T09:02:36Z</time>
      </trkpt>
      <trkpt lat="42.27009" lon="0.4545">
        <ele>967.26</ele>
        <time>2021-08-02T09:02:39Z</time>
      </trkpt>
      <trkpt lat="42.2702" lon="0.45429">
        <ele>965.07</ele>
        <time>2021-08-02T09:02:41Z</time>
      </trkpt>
      <trkpt lat="42.27055" lon="0.45398">
        <ele>960.33</ele>
        <time>2021-08-02T09:02:46Z</time>
      </trkpt>
      <trkpt lat="42.27064" lon="0.45395">
        <ele>959.44</ele>
        <time>2021-08-02T09:02:47Z</time>
      </trkpt>
      <trkpt lat="42.27095" lon="0.45389">
        <ele>957.24</ele>
        <time>2021-08-02T09:02:50Z</time>
      </trkpt>
      <trkpt lat="42.27125" lon="0.45367">
        <ele>954.15</ele>
        <time>2021-08-02T09:02:54Z</time>
      </trkpt>
      <trkpt lat="42.27165" lon="0.45344">
        <ele>949.45</ele>
        <time>2021-08-02T09:02:59Z</time>
      </trkpt>
      <trkpt lat="42.27174" lon="0.45342">
        <ele>948.66</ele>
        <time>2021-08-02T09:03:00Z</time>
      </trkpt>
      <trkpt lat="42.27215" lon="0.45354">
        <ele>944.31</ele>
        <time>2021-08-02T09:03:05Z</time>
      </trkpt>
      <trkpt lat="42.27233" lon="0.45329">
        <ele>940.85</ele>
        <time>2021-08-02T09:03:10Z</time>
      </trkpt>
      <trkpt lat="42.27231" lon="0.45321">
        <ele>940.27</ele>
        <time>2021-08-02T09:03:11Z</time>
      </trkpt>
      <trkpt lat="42.27228" lon="0.45251">
        <ele>939.1</ele>
        <time>2021-08-02T09:03:17Z</time>
      </trkpt>
      <trkpt lat="42.27226" lon="0.45224">
        <ele>939.39</ele>
        <time>2021-08-02T09:03:19Z</time>
      </trkpt>
      <trkpt lat="42.27247" lon="0.4516">
        <ele>940.07</ele>
        <time>2021-08-02T09:03:25Z</time>
      </trkpt>
      <trkpt lat="42.27301" lon="0.45073">
        <ele>940.13</ele>
        <time>2021-08-02T09:03:33Z</time>
      </trkpt>
      <trkpt lat="42.2731" lon="0.45047">
        <ele>939.77</ele>
        <time>2021-08-02T09:03:35Z</time>
      </trkpt>
      <trkpt lat="42.27357" lon="0.4495">
        <ele>936.99</ele>
        <time>2021-08-02T09:03:42Z</time>
      </trkpt>
      <trkpt lat="42.27377" lon="0.44859">
        <ele>932.92</ele>
        <time>2021-08-02T09:03:48Z</time>
      </trkpt>
      <trkpt lat="42.27405" lon="0.44801">
        <ele>929.65</ele>
        <time>2021-08-02T09:03:53Z</time>
      </trkpt>
      <trkpt lat="42.27422" lon="0.44779">
        <ele>928.36</ele>
        <time>2021-08-02T09:03:55Z</time>
      </trkpt>
      <trkpt lat="42.27482" lon="0.44752">
        <ele>925.26</ele>
        <time>2021-08-02T09:04:02Z</time>
      </trkpt>
      <trkpt lat="42.27497" lon="0.44764">
        <ele>925.08</ele>
        <time>2021-08-02T09:04:04Z</time>
      </trkpt>
      <trkpt lat="42.27511" lon="0.44776">
        <ele>925.04</ele>
        <time>2021-08-02T09:04:06Z</time>
      </trkpt>
      <trkpt lat="42.27529" lon="0.44789">
        <ele>925.11</ele>
        <time>2021-08-02T09:04:09Z</time>
      </trkpt>
      <trkpt lat="42.27545" lon="0.44808">
        <ele>925.44</ele>
        <time>2021-08-02T09:04:13Z</time>
      </trkpt>
      <trkpt lat="42.27591" lon="0.44878">
        <ele>927.45</ele>
        <time>2021-08-02T09:04:22Z</time>
      </trkpt>
      <trkpt lat="42.27602" lon="0.44893">
        <ele>927.97</ele>
        <time>2021-08-02T09:04:24Z</time>
      </trkpt>
      <trkpt lat="42.2763" lon="0.44871">
        <ele>929.01</ele>
        <time>2021-08-02T09:04:30Z</time>
      </trkpt>
      <trkpt lat="42.27628" lon="0.44853">
        <ele>929.19</ele>
        <time>2021-08-02T09:04:31Z</time>
      </trkpt>
      <trkpt lat="42.27627" lon="0.44806">
        <ele>929.71</ele>
        <time>2021-08-02T09:04:34Z</time>
      </trkpt>
      <trkpt lat="42.27624" lon="0.44747">
        <ele>930.68</ele>
        <time>2021-08-02T09:04:38Z</time>
      </trkpt>
      <trkpt lat="42.27626" lon="0.44721">
        <ele>930.75</ele>
        <time>2021-08-02T09:04:40Z</time>
      </trkpt>
      <trkpt lat="42.276" lon="0.44669">
        <ele>930.37</ele>
        <time>2021-08-02T09:04:46Z</time>
      </trkpt>
      <trkpt lat="42.27597" lon="0.44611">
        <ele>929.36</ele>
        <time>2021-08-02T09:04:52Z</time>
      </trkpt>
      <trkpt lat="42.27613" lon="0.44557">
        <ele>927.99</ele>
        <time>2021-08-02T09:04:57Z</time>
      </trkpt>
      <trkpt lat="42.2762" lon="0.445">
        <ele>926.5</ele>
        <time>2021-08-02T09:05:02Z</time>
      </trkpt>
      <trkpt lat="42.27603" lon="0.44434">
        <ele>924.78</ele>
        <time>2021-08-02T09:05:10Z</time>
      </trkpt>
      <trkpt lat="42.27578" lon="0.44417">
        <ele>924.86</ele>
        <time>2021-08-02T09:05:13Z</time>
      </trkpt>
      <trkpt lat="42.27533" lon="0.44363">
        <ele>926.2</ele>
        <time>2021-08-02T09:05:20Z</time>
      </trkpt>
      <trkpt lat="42.27539" lon="0.44302">
        <ele>927.22</ele>
        <time>2021-08-02T09:05:26Z</time>
      </trkpt>
      <trkpt lat="42.27568" lon="0.44244">
        <ele>928.46</ele>
        <time>2021-08-02T09:05:31Z</time>
      </trkpt>
      <trkpt lat="42.27567" lon="0.44179">
        <ele>932.08</ele>
        <time>2021-08-02T09:05:38Z</time>
      </trkpt>
      <trkpt lat="42.27536" lon="0.44117">
        <ele>936.09</ele>
        <time>2021-08-02T09:05:45Z</time>
      </trkpt>
      <trkpt lat="42.27492" lon="0.44007">
        <ele>938.35</ele>
        <time>2021-08-02T09:05:54Z</time>
      </trkpt>
      <trkpt lat="42.27472" lon="0.43958">
        <ele>937.96</ele>
        <time>2021-08-02T09:05:59Z</time>
      </trkpt>
      <trkpt lat="42.27473" lon="0.4392">
        <ele>937.78</ele>
        <time>2021-08-02T09:06:03Z</time>
      </trkpt>
      <trkpt lat="42.2748" lon="0.43892">
        <ele>937.68</ele>
        <time>2021-08-02T09:06:06Z</time>
      </trkpt>
      <trkpt lat="42.27499" lon="0.43855">
        <ele>937.42</ele>
        <time>2021-08-02T09:06:10Z</time>
      </trkpt>
      <trkpt lat="42.27505" lon="0.43792">
        <ele>937.43</ele>
        <time>2021-08-02T09:06:16Z</time>
      </trkpt>
      <trkpt lat="42.27467" lon="0.43703">
        <ele>935.4</ele>
        <time>2021-08-02T09:06:25Z</time>
      </trkpt>
      <trkpt lat="42.2743" lon="0.43653">
        <ele>933.5</ele>
        <time>2021-08-02T09:06:30Z</time>
      </trkpt>
      <trkpt lat="42.27366" lon="0.43601">
        <ele>930.62</ele>
        <time>2021-08-02T09:06:37Z</time>
      </trkpt>
      <trkpt lat="42.2734" lon="0.43549">
        <ele>927.5</ele>
        <time>2021-08-02T09:06:43Z</time>
      </trkpt>
      <trkpt lat="42.27322" lon="0.43459">
        <ele>923.81</ele>
        <time>2021-08-02T09:06:51Z</time>
      </trkpt>
      <trkpt lat="42.27278" lon="0.43401">
        <ele>920</ele>
        <time>2021-08-02T09:06:58Z</time>
      </trkpt>
      <trkpt lat="42.27273" lon="0.43388">
        <ele>919.57</ele>
        <time>2021-08-02T09:06:59Z</time>
      </trkpt>
      <trkpt lat="42.27261" lon="0.43347">
        <ele>918.26</ele>
        <time>2021-08-02T09:07:02Z</time>
      </trkpt>
      <trkpt lat="42.27268" lon="0.43294">
        <ele>916.04</ele>
        <time>2021-08-02T09:07:06Z</time>
      </trkpt>
      <trkpt lat="42.27257" lon="0.43213">
        <ele>912.41</ele>
        <time>2021-08-02T09:07:12Z</time>
      </trkpt>
      <trkpt lat="42.2724" lon="0.43179">
        <ele>911.03</ele>
        <time>2021-08-02T09:07:15Z</time>
      </trkpt>
      <trkpt lat="42.27219" lon="0.43147">
        <ele>909.65</ele>
        <time>2021-08-02T09:07:18Z</time>
      </trkpt>
      <trkpt lat="42.27197" lon="0.43092">
        <ele>907.7</ele>
        <time>2021-08-02T09:07:22Z</time>
      </trkpt>
      <trkpt lat="42.27193" lon="0.43039">
        <ele>905.17</ele>
        <time>2021-08-02T09:07:26Z</time>
      </trkpt>
      <trkpt lat="42.27167" lon="0.42928">
        <ele>901.55</ele>
        <time>2021-08-02T09:07:34Z</time>
      </trkpt>
      <trkpt lat="42.27163" lon="0.42915">
        <ele>901.4</ele>
        <time>2021-08-02T09:07:35Z</time>
      </trkpt>
      <trkpt lat="42.27154" lon="0.42893">
        <ele>901.14</ele>
        <time>2021-08-02T09:07:37Z</time>
      </trkpt>
      <trkpt lat="42.27147" lon="0.42841">
        <ele>900.71</ele>
        <time>2021-08-02T09:07:41Z</time>
      </trkpt>
      <trkpt lat="42.27145" lon="0.42815">
        <ele>900.19</ele>
        <time>2021-08-02T09:07:43Z</time>
      </trkpt>
      <trkpt lat="42.27102" lon="0.42775">
        <ele>897.92</ele>
        <time>2021-08-02T09:07:48Z</time>
      </trkpt>
      <trkpt lat="42.27045" lon="0.42739">
        <ele>896.19</ele>
        <time>2021-08-02T09:07:54Z</time>
      </trkpt>
      <trkpt lat="42.27034" lon="0.42692">
        <ele>893.82</ele>
        <time>2021-08-02T09:07:59Z</time>
      </trkpt>
      <trkpt lat="42.27021" lon="0.42606">
        <ele>890.3</ele>
        <time>2021-08-02T09:08:06Z</time>
      </trkpt>
      <trkpt lat="42.26981" lon="0.42577">
        <ele>887.83</ele>
        <time>2021-08-02T09:08:10Z</time>
      </trkpt>
      <trkpt lat="42.26945" lon="0.42558">
        <ele>885.42</ele>
        <time>2021-08-02T09:08:14Z</time>
      </trkpt>
      <trkpt lat="42.26912" lon="0.42523">
        <ele>883.34</ele>
        <time>2021-08-02T09:08:18Z</time>
      </trkpt>
      <trkpt lat="42.26875" lon="0.42474">
        <ele>881.14</ele>
        <time>2021-08-02T09:08:22Z</time>
      </trkpt>
      <trkpt lat="42.26825" lon="0.42422">
        <ele>876.62</ele>
        <time>2021-08-02T09:08:27Z</time>
      </trkpt>
      <trkpt lat="42.26779" lon="0.4235">
        <ele>872.08</ele>
        <time>2021-08-02T09:08:33Z</time>
      </trkpt>
      <trkpt lat="42.2673" lon="0.42299">
        <ele>868.64</ele>
        <time>2021-08-02T09:08:38Z</time>
      </trkpt>
      <trkpt lat="42.26684" lon="0.42255">
        <ele>865.09</ele>
        <time>2021-08-02T09:08:42Z</time>
      </trkpt>
      <trkpt lat="42.26647" lon="0.42224">
        <ele>861.83</ele>
        <time>2021-08-02T09:08:45Z</time>
      </trkpt>
      <trkpt lat="42.26603" lon="0.42171">
        <ele>857.21</ele>
        <time>2021-08-02T09:08:49Z</time>
      </trkpt>
      <trkpt lat="42.2657" lon="0.4213">
        <ele>853.4</ele>
        <time>2021-08-02T09:08:52Z</time>
      </trkpt>
      <trkpt lat="42.26558" lon="0.42117">
        <ele>852.24</ele>
        <time>2021-08-02T09:08:53Z</time>
      </trkpt>
      <trkpt lat="42.26506" lon="0.42089">
        <ele>847.23</ele>
        <time>2021-08-02T09:08:57Z</time>
      </trkpt>
      <trkpt lat="42.26469" lon="0.4205">
        <ele>841.71</ele>
        <time>2021-08-02T09:09:01Z</time>
      </trkpt>
      <trkpt lat="42.26454" lon="0.42023">
        <ele>839.14</ele>
        <time>2021-08-02T09:09:03Z</time>
      </trkpt>
      <trkpt lat="42.26411" lon="0.41989">
        <ele>834.49</ele>
        <time>2021-08-02T09:09:07Z</time>
      </trkpt>
      <trkpt lat="42.26372" lon="0.41984">
        <ele>831</ele>
        <time>2021-08-02T09:09:10Z</time>
      </trkpt>
      <trkpt lat="42.26333" lon="0.41982">
        <ele>827.8</ele>
        <time>2021-08-02T09:09:13Z</time>
      </trkpt>
      <trkpt lat="42.263" lon="0.41981">
        <ele>825.23</ele>
        <time>2021-08-02T09:09:16Z</time>
      </trkpt>
      <trkpt lat="42.26258" lon="0.41953">
        <ele>820.99</ele>
        <time>2021-08-02T09:09:21Z</time>
      </trkpt>
      <trkpt lat="42.26245" lon="0.41915">
        <ele>817.99</ele>
        <time>2021-08-02T09:09:25Z</time>
      </trkpt>
      <trkpt lat="42.26246" lon="0.41893">
        <ele>816.65</ele>
        <time>2021-08-02T09:09:27Z</time>
      </trkpt>
      <trkpt lat="42.26255" lon="0.4182">
        <ele>812.55</ele>
        <time>2021-08-02T09:09:34Z</time>
      </trkpt>
      <trkpt lat="42.26257" lon="0.41766">
        <ele>809.35</ele>
        <time>2021-08-02T09:09:39Z</time>
      </trkpt>
      <trkpt lat="42.26259" lon="0.41725">
        <ele>806.21</ele>
        <time>2021-08-02T09:09:43Z</time>
      </trkpt>
      <trkpt lat="42.26246" lon="0.41684">
        <ele>802</ele>
        <time>2021-08-02T09:09:48Z</time>
      </trkpt>
      <trkpt lat="42.26251" lon="0.41654">
        <ele>798.14</ele>
        <time>2021-08-02T09:09:53Z</time>
      </trkpt>
      <trkpt lat="42.26264" lon="0.41666">
        <ele>796.53</ele>
        <time>2021-08-02T09:09:55Z</time>
      </trkpt>
      <trkpt lat="42.26294" lon="0.41668">
        <ele>792.6</ele>
        <time>2021-08-02T09:10:02Z</time>
      </trkpt>
      <trkpt lat="42.26281" lon="0.4161">
        <ele>789.48</ele>
        <time>2021-08-02T09:10:08Z</time>
      </trkpt>
      <trkpt lat="42.26277" lon="0.41591">
        <ele>788.09</ele>
        <time>2021-08-02T09:10:10Z</time>
      </trkpt>
      <trkpt lat="42.26272" lon="0.41524">
        <ele>783.74</ele>
        <time>2021-08-02T09:10:16Z</time>
      </trkpt>
      <trkpt lat="42.26265" lon="0.41448">
        <ele>780.15</ele>
        <time>2021-08-02T09:10:21Z</time>
      </trkpt>
      <trkpt lat="42.26256" lon="0.41381">
        <ele>777.13</ele>
        <time>2021-08-02T09:10:25Z</time>
      </trkpt>
      <trkpt lat="42.2625" lon="0.41313">
        <ele>773.39</ele>
        <time>2021-08-02T09:10:29Z</time>
      </trkpt>
      <trkpt lat="42.26246" lon="0.41251">
        <ele>769.44</ele>
        <time>2021-08-02T09:10:33Z</time>
      </trkpt>
      <trkpt lat="42.26246" lon="0.41238">
        <ele>768.4</ele>
        <time>2021-08-02T09:10:34Z</time>
      </trkpt>
      <trkpt lat="42.26255" lon="0.41203">
        <ele>763.87</ele>
        <time>2021-08-02T09:10:38Z</time>
      </trkpt>
      <trkpt lat="42.26281" lon="0.41212">
        <ele>760.35</ele>
        <time>2021-08-02T09:10:41Z</time>
      </trkpt>
      <trkpt lat="42.26301" lon="0.41222">
        <ele>757.57</ele>
        <time>2021-08-02T09:10:44Z</time>
      </trkpt>
      <trkpt lat="42.26326" lon="0.41193">
        <ele>753.43</ele>
        <time>2021-08-02T09:10:50Z</time>
      </trkpt>
      <trkpt lat="42.26317" lon="0.41145">
        <ele>750.98</ele>
        <time>2021-08-02T09:10:54Z</time>
      </trkpt>
      <trkpt lat="42.26315" lon="0.41063">
        <ele>746.31</ele>
        <time>2021-08-02T09:11:01Z</time>
      </trkpt>
      <trkpt lat="42.2632" lon="0.41003">
        <ele>742.68</ele>
        <time>2021-08-02T09:11:06Z</time>
      </trkpt>
      <trkpt lat="42.26322" lon="0.40956">
        <ele>739.85</ele>
        <time>2021-08-02T09:11:10Z</time>
      </trkpt>
      <trkpt lat="42.2632" lon="0.4094">
        <ele>738.59</ele>
        <time>2021-08-02T09:11:12Z</time>
      </trkpt>
      <trkpt lat="42.26315" lon="0.4092">
        <ele>735.09</ele>
        <time>2021-08-02T09:11:17Z</time>
      </trkpt>
      <trkpt lat="42.26314" lon="0.40912">
        <ele>732.06</ele>
        <time>2021-08-02T09:11:27Z</time>
      </trkpt>
      <trkpt lat="42.26314" lon="0.40905">
        <ele>731.3</ele>
        <time>2021-08-02T09:11:39Z</time>
      </trkpt>
      <trkpt lat="42.26304" lon="0.40897">
        <ele>731.19</ele>
        <time>2021-08-02T09:11:45Z</time>
      </trkpt>
      <trkpt lat="42.26313" lon="0.4091">
        <ele>731.09</ele>
        <time>2021-08-02T09:11:48Z</time>
      </trkpt>
      <trkpt lat="42.26324" lon="0.40906">
        <ele>731.04</ele>
        <time>2021-08-02T09:11:54Z</time>
      </trkpt>
      <trkpt lat="42.26331" lon="0.40788">
        <ele>730.29</ele>
        <time>2021-08-02T09:12:05Z</time>
      </trkpt>
      <trkpt lat="42.26331" lon="0.40688">
        <ele>726.73</ele>
        <time>2021-08-02T09:12:13Z</time>
      </trkpt>
      <trkpt lat="42.26332" lon="0.40618">
        <ele>723.32</ele>
        <time>2021-08-02T09:12:18Z</time>
      </trkpt>
      <trkpt lat="42.26331" lon="0.40549">
        <ele>719.55</ele>
        <time>2021-08-02T09:12:23Z</time>
      </trkpt>
      <trkpt lat="42.26331" lon="0.40534">
        <ele>718.63</ele>
        <time>2021-08-02T09:12:24Z</time>
      </trkpt>
      <trkpt lat="42.2634" lon="0.40481">
        <ele>715.15</ele>
        <time>2021-08-02T09:12:28Z</time>
      </trkpt>
      <trkpt lat="42.26337" lon="0.40426">
        <ele>710.76</ele>
        <time>2021-08-02T09:12:33Z</time>
      </trkpt>
      <trkpt lat="42.26306" lon="0.40394">
        <ele>707</ele>
        <time>2021-08-02T09:12:37Z</time>
      </trkpt>
      <trkpt lat="42.26285" lon="0.40348">
        <ele>703.12</ele>
        <time>2021-08-02T09:12:41Z</time>
      </trkpt>
      <trkpt lat="42.2628" lon="0.40295">
        <ele>699.33</ele>
        <time>2021-08-02T09:12:45Z</time>
      </trkpt>
      <trkpt lat="42.26266" lon="0.40233">
        <ele>696.27</ele>
        <time>2021-08-02T09:12:50Z</time>
      </trkpt>
      <trkpt lat="42.26252" lon="0.40172">
        <ele>692.65</ele>
        <time>2021-08-02T09:12:55Z</time>
      </trkpt>
      <trkpt lat="42.26259" lon="0.40114">
        <ele>688.57</ele>
        <time>2021-08-02T09:13:00Z</time>
      </trkpt>
      <trkpt lat="42.26264" lon="0.40087">
        <ele>685.88</ele>
        <time>2021-08-02T09:13:03Z</time>
      </trkpt>
      <trkpt lat="42.26254" lon="0.40052">
        <ele>681.4</ele>
        <time>2021-08-02T09:13:08Z</time>
      </trkpt>
      <trkpt lat="42.26247" lon="0.40012">
        <ele>677.86</ele>
        <time>2021-08-02T09:13:13Z</time>
      </trkpt>
      <trkpt lat="42.26285" lon="0.3997">
        <ele>674.56</ele>
        <time>2021-08-02T09:13:19Z</time>
      </trkpt>
      <trkpt lat="42.2631" lon="0.39942">
        <ele>672.45</ele>
        <time>2021-08-02T09:13:24Z</time>
      </trkpt>
      <trkpt lat="42.26345" lon="0.39855">
        <ele>669.38</ele>
        <time>2021-08-02T09:13:32Z</time>
      </trkpt>
      <trkpt lat="42.26351" lon="0.39831">
        <ele>668.41</ele>
        <time>2021-08-02T09:13:34Z</time>
      </trkpt>
      <trkpt lat="42.2637" lon="0.39793">
        <ele>665.56</ele>
        <time>2021-08-02T09:13:38Z</time>
      </trkpt>
      <trkpt lat="42.26388" lon="0.3977">
        <ele>662.46</ele>
        <time>2021-08-02T09:13:43Z</time>
      </trkpt>
      <trkpt lat="42.26414" lon="0.39776">
        <ele>660.52</ele>
        <time>2021-08-02T09:13:47Z</time>
      </trkpt>
      <trkpt lat="42.26497" lon="0.39769">
        <ele>656.87</ele>
        <time>2021-08-02T09:13:55Z</time>
      </trkpt>
      <trkpt lat="42.26554" lon="0.39771">
        <ele>653.7</ele>
        <time>2021-08-02T09:14:00Z</time>
      </trkpt>
      <trkpt lat="42.26576" lon="0.39774">
        <ele>652.19</ele>
        <time>2021-08-02T09:14:02Z</time>
      </trkpt>
      <trkpt lat="42.26612" lon="0.398">
        <ele>648.34</ele>
        <time>2021-08-02T09:14:06Z</time>
      </trkpt>
      <trkpt lat="42.26652" lon="0.39804">
        <ele>642.94</ele>
        <time>2021-08-02T09:14:11Z</time>
      </trkpt>
      <trkpt lat="42.26685" lon="0.39793">
        <ele>640.15</ele>
        <time>2021-08-02T09:14:14Z</time>
      </trkpt>
      <trkpt lat="42.26706" lon="0.39787">
        <ele>638.4</ele>
        <time>2021-08-02T09:14:16Z</time>
      </trkpt>
      <trkpt lat="42.26767" lon="0.39748">
        <ele>635.81</ele>
        <time>2021-08-02T09:14:22Z</time>
      </trkpt>
      <trkpt lat="42.26814" lon="0.39707">
        <ele>634.7</ele>
        <time>2021-08-02T09:14:27Z</time>
      </trkpt>
      <trkpt lat="42.26859" lon="0.39744">
        <ele>632.33</ele>
        <time>2021-08-02T09:14:33Z</time>
      </trkpt>
      <trkpt lat="42.26866" lon="0.39759">
        <ele>631.95</ele>
        <time>2021-08-02T09:14:34Z</time>
      </trkpt>
      <trkpt lat="42.26902" lon="0.39853">
        <ele>627.63</ele>
        <time>2021-08-02T09:14:40Z</time>
      </trkpt>
      <trkpt lat="42.26922" lon="0.39924">
        <ele>624.04</ele>
        <time>2021-08-02T09:14:44Z</time>
      </trkpt>
      <trkpt lat="42.26957" lon="0.39996">
        <ele>619.18</ele>
        <time>2021-08-02T09:14:49Z</time>
      </trkpt>
      <trkpt lat="42.2697" lon="0.40032">
        <ele>616.86</ele>
        <time>2021-08-02T09:14:53Z</time>
      </trkpt>
      <trkpt lat="42.26991" lon="0.40069">
        <ele>616.36</ele>
        <time>2021-08-02T09:14:57Z</time>
      </trkpt>
      <trkpt lat="42.27027" lon="0.40107">
        <ele>616.58</ele>
        <time>2021-08-02T09:15:02Z</time>
      </trkpt>
      <trkpt lat="42.27062" lon="0.40129">
        <ele>616.9</ele>
        <time>2021-08-02T09:15:06Z</time>
      </trkpt>
      <trkpt lat="42.27087" lon="0.40173">
        <ele>617.28</ele>
        <time>2021-08-02T09:15:11Z</time>
      </trkpt>
      <trkpt lat="42.27122" lon="0.40231">
        <ele>617.02</ele>
        <time>2021-08-02T09:15:18Z</time>
      </trkpt>
      <trkpt lat="42.27161" lon="0.40234">
        <ele>615.38</ele>
        <time>2021-08-02T09:15:22Z</time>
      </trkpt>
      <trkpt lat="42.27199" lon="0.40224">
        <ele>613.59</ele>
        <time>2021-08-02T09:15:26Z</time>
      </trkpt>
      <trkpt lat="42.27223" lon="0.40205">
        <ele>612.81</ele>
        <time>2021-08-02T09:15:30Z</time>
      </trkpt>
      <trkpt lat="42.27264" lon="0.40204">
        <ele>612.27</ele>
        <time>2021-08-02T09:15:37Z</time>
      </trkpt>
      <trkpt lat="42.27276" lon="0.40197">
        <ele>614.79</ele>
        <time>2021-08-02T09:15:44Z</time>
      </trkpt>
      <trkpt lat="42.27265" lon="0.40187">
        <ele>615.29</ele>
        <time>2021-08-02T09:15:45Z</time>
      </trkpt>
      <trkpt lat="42.27223" lon="0.40149">
        <ele>617.54</ele>
        <time>2021-08-02T09:15:49Z</time>
      </trkpt>
      <trkpt lat="42.27187" lon="0.401">
        <ele>620.22</ele>
        <time>2021-08-02T09:15:53Z</time>
      </trkpt>
      <trkpt lat="42.27155" lon="0.40043">
        <ele>623.05</ele>
        <time>2021-08-02T09:15:57Z</time>
      </trkpt>
      <trkpt lat="42.27143" lon="0.39986">
        <ele>625.52</ele>
        <time>2021-08-02T09:16:01Z</time>
      </trkpt>
      <trkpt lat="42.27129" lon="0.39824">
        <ele>628.76</ele>
        <time>2021-08-02T09:16:11Z</time>
      </trkpt>
      <trkpt lat="42.27125" lon="0.39793">
        <ele>628.79</ele>
        <time>2021-08-02T09:16:13Z</time>
      </trkpt>
      <trkpt lat="42.27153" lon="0.39692">
        <ele>629.87</ele>
        <time>2021-08-02T09:16:20Z</time>
      </trkpt>
      <trkpt lat="42.27164" lon="0.39663">
        <ele>630.67</ele>
        <time>2021-08-02T09:16:22Z</time>
      </trkpt>
      <trkpt lat="42.27221" lon="0.3964">
        <ele>631.76</ele>
        <time>2021-08-02T09:16:28Z</time>
      </trkpt>
      <trkpt lat="42.27273" lon="0.39641">
        <ele>631.93</ele>
        <time>2021-08-02T09:16:32Z</time>
      </trkpt>
      <trkpt lat="42.2736" lon="0.39612">
        <ele>632.09</ele>
        <time>2021-08-02T09:16:39Z</time>
      </trkpt>
      <trkpt lat="42.27382" lon="0.39589">
        <ele>631.86</ele>
        <time>2021-08-02T09:16:42Z</time>
      </trkpt>
      <trkpt lat="42.27426" lon="0.39588">
        <ele>631.68</ele>
        <time>2021-08-02T09:16:47Z</time>
      </trkpt>
      <trkpt lat="42.2745" lon="0.39563">
        <ele>635.69</ele>
        <time>2021-08-02T09:16:54Z</time>
      </trkpt>
      <trkpt lat="42.27438" lon="0.39548">
        <ele>636.43</ele>
        <time>2021-08-02T09:16:55Z</time>
      </trkpt>
      <trkpt lat="42.27415" lon="0.39514">
        <ele>638.76</ele>
        <time>2021-08-02T09:16:58Z</time>
      </trkpt>
      <trkpt lat="42.27418" lon="0.39469">
        <ele>641.53</ele>
        <time>2021-08-02T09:17:02Z</time>
      </trkpt>
      <trkpt lat="42.27452" lon="0.39409">
        <ele>645.1</ele>
        <time>2021-08-02T09:17:07Z</time>
      </trkpt>
      <trkpt lat="42.2751" lon="0.39395">
        <ele>646.43</ele>
        <time>2021-08-02T09:17:13Z</time>
      </trkpt>
      <trkpt lat="42.2752" lon="0.394">
        <ele>646.43</ele>
        <time>2021-08-02T09:17:14Z</time>
      </trkpt>
      <trkpt lat="42.27548" lon="0.39418">
        <ele>645.92</ele>
        <time>2021-08-02T09:17:17Z</time>
      </trkpt>
      <trkpt lat="42.27616" lon="0.394">
        <ele>644.34</ele>
        <time>2021-08-02T09:17:24Z</time>
      </trkpt>
      <trkpt lat="42.27656" lon="0.3938">
        <ele>643.29</ele>
        <time>2021-08-02T09:17:29Z</time>
      </trkpt>
      <trkpt lat="42.27677" lon="0.39382">
        <ele>642.86</ele>
        <time>2021-08-02T09:17:31Z</time>
      </trkpt>
      <trkpt lat="42.2774" lon="0.39343">
        <ele>641.85</ele>
        <time>2021-08-02T09:17:37Z</time>
      </trkpt>
      <trkpt lat="42.27757" lon="0.39318">
        <ele>641.27</ele>
        <time>2021-08-02T09:17:39Z</time>
      </trkpt>
      <trkpt lat="42.27787" lon="0.39268">
        <ele>639.84</ele>
        <time>2021-08-02T09:17:43Z</time>
      </trkpt>
      <trkpt lat="42.27831" lon="0.3927">
        <ele>635.56</ele>
        <time>2021-08-02T09:17:48Z</time>
      </trkpt>
      <trkpt lat="42.27837" lon="0.3928">
        <ele>635.56</ele>
        <time>2021-08-02T09:17:49Z</time>
      </trkpt>
      <trkpt lat="42.27855" lon="0.39292">
        <ele>632.36</ele>
        <time>2021-08-02T09:17:52Z</time>
      </trkpt>
      <trkpt lat="42.27883" lon="0.39242">
        <ele>629.14</ele>
        <time>2021-08-02T09:17:57Z</time>
      </trkpt>
      <trkpt lat="42.27907" lon="0.39146">
        <ele>626.12</ele>
        <time>2021-08-02T09:18:03Z</time>
      </trkpt>
      <trkpt lat="42.27899" lon="0.39087">
        <ele>623.2</ele>
        <time>2021-08-02T09:18:09Z</time>
      </trkpt>
      <trkpt lat="42.27926" lon="0.39056">
        <ele>623.88</ele>
        <time>2021-08-02T09:18:14Z</time>
      </trkpt>
      <trkpt lat="42.27953" lon="0.39065">
        <ele>625.55</ele>
        <time>2021-08-02T09:18:17Z</time>
      </trkpt>
      <trkpt lat="42.28011" lon="0.39066">
        <ele>631.09</ele>
        <time>2021-08-02T09:18:23Z</time>
      </trkpt>
      <trkpt lat="42.28025" lon="0.39038">
        <ele>634.11</ele>
        <time>2021-08-02T09:18:26Z</time>
      </trkpt>
      <trkpt lat="42.28043" lon="0.39015">
        <ele>637.14</ele>
        <time>2021-08-02T09:18:29Z</time>
      </trkpt>
      <trkpt lat="42.28084" lon="0.39007">
        <ele>640.9</ele>
        <time>2021-08-02T09:18:33Z</time>
      </trkpt>
      <trkpt lat="42.28094" lon="0.39008">
        <ele>641.78</ele>
        <time>2021-08-02T09:18:34Z</time>
      </trkpt>
      <trkpt lat="42.28139" lon="0.39016">
        <ele>645.29</ele>
        <time>2021-08-02T09:18:38Z</time>
      </trkpt>
      <trkpt lat="42.28182" lon="0.39006">
        <ele>649.46</ele>
        <time>2021-08-02T09:18:42Z</time>
      </trkpt>
      <trkpt lat="42.28227" lon="0.38989">
        <ele>655.28</ele>
        <time>2021-08-02T09:18:47Z</time>
      </trkpt>
      <trkpt lat="42.28254" lon="0.38982">
        <ele>658.62</ele>
        <time>2021-08-02T09:18:50Z</time>
      </trkpt>
      <trkpt lat="42.28275" lon="0.38977">
        <ele>662.1</ele>
        <time>2021-08-02T09:18:53Z</time>
      </trkpt>
      <trkpt lat="42.28299" lon="0.38964">
        <ele>665.99</ele>
        <time>2021-08-02T09:18:57Z</time>
      </trkpt>
      <trkpt lat="42.28332" lon="0.38963">
        <ele>669.88</ele>
        <time>2021-08-02T09:19:05Z</time>
      </trkpt>
      <trkpt lat="42.28336" lon="0.38964">
        <ele>670.11</ele>
        <time>2021-08-02T09:19:06Z</time>
      </trkpt>
      <trkpt lat="42.28342" lon="0.38964">
        <ele>670.3</ele>
        <time>2021-08-02T09:19:07Z</time>
      </trkpt>
      <trkpt lat="42.28348" lon="0.38961">
        <ele>670.51</ele>
        <time>2021-08-02T09:19:08Z</time>
      </trkpt>
      <trkpt lat="42.28354" lon="0.38956">
        <ele>670.73</ele>
        <time>2021-08-02T09:19:09Z</time>
      </trkpt>
      <trkpt lat="42.28376" lon="0.38921">
        <ele>671.38</ele>
        <time>2021-08-02T09:19:13Z</time>
      </trkpt>
      <trkpt lat="42.28428" lon="0.38883">
        <ele>673.08</ele>
        <time>2021-08-02T09:19:21Z</time>
      </trkpt>
      <trkpt lat="42.28444" lon="0.38888">
        <ele>673.51</ele>
        <time>2021-08-02T09:19:23Z</time>
      </trkpt>
      <trkpt lat="42.28475" lon="0.38905">
        <ele>674.73</ele>
        <time>2021-08-02T09:19:27Z</time>
      </trkpt>
      <trkpt lat="42.28493" lon="0.38908">
        <ele>675.66</ele>
        <time>2021-08-02T09:19:29Z</time>
      </trkpt>
      <trkpt lat="42.28509" lon="0.38898">
        <ele>677.26</ele>
        <time>2021-08-02T09:19:31Z</time>
      </trkpt>
      <trkpt lat="42.28551" lon="0.38887">
        <ele>679.27</ele>
        <time>2021-08-02T09:19:36Z</time>
      </trkpt>
      <trkpt lat="42.28632" lon="0.38913">
        <ele>682.97</ele>
        <time>2021-08-02T09:19:44Z</time>
      </trkpt>
      <trkpt lat="42.28705" lon="0.38937">
        <ele>686.48</ele>
        <time>2021-08-02T09:19:50Z</time>
      </trkpt>
      <trkpt lat="42.2874" lon="0.38946">
        <ele>688.37</ele>
        <time>2021-08-02T09:19:55Z</time>
      </trkpt>
      <trkpt lat="42.28784" lon="0.38971">
        <ele>689.61</ele>
        <time>2021-08-02T09:20:02Z</time>
      </trkpt>
      <trkpt lat="42.28793" lon="0.38974">
        <ele>689.83</ele>
        <time>2021-08-02T09:20:03Z</time>
      </trkpt>
      <trkpt lat="42.28802" lon="0.38977">
        <ele>690.03</ele>
        <time>2021-08-02T09:20:04Z</time>
      </trkpt>
      <trkpt lat="42.28883" lon="0.38999">
        <ele>690.57</ele>
        <time>2021-08-02T09:20:13Z</time>
      </trkpt>
      <trkpt lat="42.2889" lon="0.39005">
        <ele>690.58</ele>
        <time>2021-08-02T09:20:14Z</time>
      </trkpt>
      <trkpt lat="42.28896" lon="0.39012">
        <ele>690.62</ele>
        <time>2021-08-02T09:20:15Z</time>
      </trkpt>
      <trkpt lat="42.28902" lon="0.39016">
        <ele>690.74</ele>
        <time>2021-08-02T09:20:16Z</time>
      </trkpt>
      <trkpt lat="42.28908" lon="0.39017">
        <ele>690.9</ele>
        <time>2021-08-02T09:20:17Z</time>
      </trkpt>
      <trkpt lat="42.28916" lon="0.39017">
        <ele>691.12</ele>
        <time>2021-08-02T09:20:18Z</time>
      </trkpt>
      <trkpt lat="42.28925" lon="0.39014">
        <ele>691.39</ele>
        <time>2021-08-02T09:20:19Z</time>
      </trkpt>
      <trkpt lat="42.28934" lon="0.3901">
        <ele>691.72</ele>
        <time>2021-08-02T09:20:20Z</time>
      </trkpt>
      <trkpt lat="42.28943" lon="0.39007">
        <ele>692.09</ele>
        <time>2021-08-02T09:20:21Z</time>
      </trkpt>
      <trkpt lat="42.28952" lon="0.39004">
        <ele>692.41</ele>
        <time>2021-08-02T09:20:22Z</time>
      </trkpt>
      <trkpt lat="42.28961" lon="0.39005">
        <ele>692.62</ele>
        <time>2021-08-02T09:20:23Z</time>
      </trkpt>
      <trkpt lat="42.28969" lon="0.39007">
        <ele>692.78</ele>
        <time>2021-08-02T09:20:24Z</time>
      </trkpt>
      <trkpt lat="42.28977" lon="0.3901">
        <ele>692.9</ele>
        <time>2021-08-02T09:20:25Z</time>
      </trkpt>
      <trkpt lat="42.28983" lon="0.39016">
        <ele>693</ele>
        <time>2021-08-02T09:20:26Z</time>
      </trkpt>
      <trkpt lat="42.2899" lon="0.39021">
        <ele>693.09</ele>
        <time>2021-08-02T09:20:27Z</time>
      </trkpt>
      <trkpt lat="42.28996" lon="0.39025">
        <ele>693.14</ele>
        <time>2021-08-02T09:20:28Z</time>
      </trkpt>
      <trkpt lat="42.29004" lon="0.39029">
        <ele>693.17</ele>
        <time>2021-08-02T09:20:29Z</time>
      </trkpt>
      <trkpt lat="42.29012" lon="0.39031">
        <ele>693.2</ele>
        <time>2021-08-02T09:20:30Z</time>
      </trkpt>
      <trkpt lat="42.29022" lon="0.3903">
        <ele>693.22</ele>
        <time>2021-08-02T09:20:31Z</time>
      </trkpt>
      <trkpt lat="42.29032" lon="0.39028">
        <ele>693.26</ele>
        <time>2021-08-02T09:20:32Z</time>
      </trkpt>
      <trkpt lat="42.29041" lon="0.39022">
        <ele>693.27</ele>
        <time>2021-08-02T09:20:33Z</time>
      </trkpt>
      <trkpt lat="42.2905" lon="0.39016">
        <ele>693.26</ele>
        <time>2021-08-02T09:20:34Z</time>
      </trkpt>
      <trkpt lat="42.29083" lon="0.38991">
        <ele>692.57</ele>
        <time>2021-08-02T09:20:38Z</time>
      </trkpt>
      <trkpt lat="42.29124" lon="0.38997">
        <ele>690.68</ele>
        <time>2021-08-02T09:20:44Z</time>
      </trkpt>
      <trkpt lat="42.29111" lon="0.3903">
        <ele>689.53</ele>
        <time>2021-08-02T09:20:49Z</time>
      </trkpt>
      <trkpt lat="42.29089" lon="0.39061">
        <ele>689.6</ele>
        <time>2021-08-02T09:20:53Z</time>
      </trkpt>
      <trkpt lat="42.29051" lon="0.3918">
        <ele>692.81</ele>
        <time>2021-08-02T09:21:02Z</time>
      </trkpt>
      <trkpt lat="42.29047" lon="0.39192">
        <ele>693.4</ele>
        <time>2021-08-02T09:21:03Z</time>
      </trkpt>
      <trkpt lat="42.2905" lon="0.39237">
        <ele>697.14</ele>
        <time>2021-08-02T09:21:09Z</time>
      </trkpt>
      <trkpt lat="42.29052" lon="0.39239">
        <ele>697.59</ele>
        <time>2021-08-02T09:21:10Z</time>
      </trkpt>
      <trkpt lat="42.29086" lon="0.39265">
        <ele>698.73</ele>
        <time>2021-08-02T09:21:17Z</time>
      </trkpt>
      <trkpt lat="42.29087" lon="0.393">
        <ele>697.27</ele>
        <time>2021-08-02T09:21:24Z</time>
      </trkpt>
      <trkpt lat="42.29077" lon="0.39302">
        <ele>696.47</ele>
        <time>2021-08-02T09:21:26Z</time>
      </trkpt>
      <trkpt lat="42.29039" lon="0.39304">
        <ele>693.25</ele>
        <time>2021-08-02T09:21:32Z</time>
      </trkpt>
      <trkpt lat="42.29002" lon="0.39293">
        <ele>689.38</ele>
        <time>2021-08-02T09:21:38Z</time>
      </trkpt>
      <trkpt lat="42.28986" lon="0.39291">
        <ele>686.35</ele>
        <time>2021-08-02T09:21:43Z</time>
      </trkpt>
      <trkpt lat="42.28984" lon="0.3929">
        <ele>683.24</ele>
        <time>2021-08-02T09:21:53Z</time>
      </trkpt>
      <trkpt lat="42.28955" lon="0.39286">
        <ele>682.14</ele>
        <time>2021-08-02T09:22:02Z</time>
      </trkpt>
      <trkpt lat="42.28914" lon="0.3931">
        <ele>680.51</ele>
        <time>2021-08-02T09:22:08Z</time>
      </trkpt>
      <trkpt lat="42.28865" lon="0.39379">
        <ele>679.12</ele>
        <time>2021-08-02T09:22:18Z</time>
      </trkpt>
      <trkpt lat="42.28861" lon="0.39388">
        <ele>679.19</ele>
        <time>2021-08-02T09:22:19Z</time>
      </trkpt>
      <trkpt lat="42.28872" lon="0.39458">
        <ele>681.28</ele>
        <time>2021-08-02T09:22:26Z</time>
      </trkpt>
      <trkpt lat="42.28887" lon="0.3948">
        <ele>684.52</ele>
        <time>2021-08-02T09:22:34Z</time>
      </trkpt>
      <trkpt lat="42.28888" lon="0.39481">
        <ele>685.55</ele>
        <time>2021-08-02T09:22:37Z</time>
      </trkpt>
      <trkpt lat="42.28897" lon="0.39482">
        <ele>686.36</ele>
        <time>2021-08-02T09:22:41Z</time>
      </trkpt>
      <trkpt lat="42.2891" lon="0.3948">
        <ele>687.28</ele>
        <time>2021-08-02T09:22:53Z</time>
      </trkpt>
      <trkpt lat="42.2891" lon="0.39481">
        <ele>686.64</ele>
        <time>2021-08-02T09:23:50Z</time>
      </trkpt>
      <trkpt lat="42.2891" lon="0.39481">
        <ele>687.1</ele>
        <time>2021-08-02T09:24:31Z</time>
      </trkpt>
      <trkpt lat="42.28908" lon="0.39481">
        <ele>687.1</ele>
        <time>2021-08-02T09:25:37Z</time>
      </trkpt>
      <trkpt lat="42.28908" lon="0.3948">
        <ele>687.1</ele>
        <time>2021-08-02T09:27:26Z</time>
      </trkpt>
      <trkpt lat="42.28908" lon="0.3948">
        <ele>687.1</ele>
        <time>2021-08-02T09:28:10Z</time>
      </trkpt>
      <trkpt lat="42.28907" lon="0.39479">
        <ele>687.1</ele>
        <time>2021-08-02T09:29:17Z</time>
      </trkpt>
      <trkpt lat="42.28906" lon="0.3948">
        <ele>687.1</ele>
        <time>2021-08-02T09:29:53Z</time>
      </trkpt>
      <trkpt lat="42.28905" lon="0.3948">
        <ele>687.1</ele>
        <time>2021-08-02T09:30:23Z</time>
      </trkpt>
      <trkpt lat="42.28905" lon="0.3948">
        <ele>687.1</ele>
        <time>2021-08-02T09:30:29Z</time>
      </trkpt>
      <trkpt lat="42.28898" lon="0.39483">
        <ele>687.1</ele>
        <time>2021-08-02T09:30:32Z</time>
      </trkpt>
      <trkpt lat="42.28894" lon="0.39489">
        <ele>687.35</ele>
        <time>2021-08-02T09:30:36Z</time>
      </trkpt>
      <trkpt lat="42.28882" lon="0.39471">
        <ele>687.84</ele>
        <time>2021-08-02T09:30:40Z</time>
      </trkpt>
      <trkpt lat="42.28867" lon="0.39449">
        <ele>688.11</ele>
        <time>2021-08-02T09:30:43Z</time>
      </trkpt>
      <trkpt lat="42.28865" lon="0.39381">
        <ele>686.76</ele>
        <time>2021-08-02T09:30:50Z</time>
      </trkpt>
      <trkpt lat="42.28876" lon="0.39361">
        <ele>685.94</ele>
        <time>2021-08-02T09:30:52Z</time>
      </trkpt>
      <trkpt lat="42.28916" lon="0.39305">
        <ele>683.52</ele>
        <time>2021-08-02T09:30:58Z</time>
      </trkpt>
      <trkpt lat="42.28974" lon="0.39284">
        <ele>681.56</ele>
        <time>2021-08-02T09:31:04Z</time>
      </trkpt>
      <trkpt lat="42.29045" lon="0.39295">
        <ele>684.29</ele>
        <time>2021-08-02T09:31:11Z</time>
      </trkpt>
      <trkpt lat="42.29091" lon="0.39292">
        <ele>688.25</ele>
        <time>2021-08-02T09:31:16Z</time>
      </trkpt>
      <trkpt lat="42.291" lon="0.39262">
        <ele>692.4</ele>
        <time>2021-08-02T09:31:21Z</time>
      </trkpt>
      <trkpt lat="42.29079" lon="0.39242">
        <ele>695.02</ele>
        <time>2021-08-02T09:31:24Z</time>
      </trkpt>
      <trkpt lat="42.29062" lon="0.39229">
        <ele>696.61</ele>
        <time>2021-08-02T09:31:26Z</time>
      </trkpt>
      <trkpt lat="42.29054" lon="0.39171">
        <ele>700.05</ele>
        <time>2021-08-02T09:31:32Z</time>
      </trkpt>
      <trkpt lat="42.2909" lon="0.39054">
        <ele>700.5</ele>
        <time>2021-08-02T09:31:40Z</time>
      </trkpt>
      <trkpt lat="42.29121" lon="0.38994">
        <ele>696.6</ele>
        <time>2021-08-02T09:31:47Z</time>
      </trkpt>
      <trkpt lat="42.29086" lon="0.38989">
        <ele>693.43</ele>
        <time>2021-08-02T09:31:52Z</time>
      </trkpt>
      <trkpt lat="42.29078" lon="0.38994">
        <ele>693.11</ele>
        <time>2021-08-02T09:31:53Z</time>
      </trkpt>
      <trkpt lat="42.29027" lon="0.39029">
        <ele>693.07</ele>
        <time>2021-08-02T09:31:59Z</time>
      </trkpt>
      <trkpt lat="42.29019" lon="0.39031">
        <ele>693.21</ele>
        <time>2021-08-02T09:32:00Z</time>
      </trkpt>
      <trkpt lat="42.2901" lon="0.39032">
        <ele>693.4</ele>
        <time>2021-08-02T09:32:01Z</time>
      </trkpt>
      <trkpt lat="42.29001" lon="0.3903">
        <ele>693.62</ele>
        <time>2021-08-02T09:32:02Z</time>
      </trkpt>
      <trkpt lat="42.28992" lon="0.39026">
        <ele>693.91</ele>
        <time>2021-08-02T09:32:03Z</time>
      </trkpt>
      <trkpt lat="42.28985" lon="0.39019">
        <ele>694.25</ele>
        <time>2021-08-02T09:32:04Z</time>
      </trkpt>
      <trkpt lat="42.28977" lon="0.39012">
        <ele>694.58</ele>
        <time>2021-08-02T09:32:05Z</time>
      </trkpt>
      <trkpt lat="42.28968" lon="0.39008">
        <ele>694.94</ele>
        <time>2021-08-02T09:32:06Z</time>
      </trkpt>
      <trkpt lat="42.28958" lon="0.39005">
        <ele>695.41</ele>
        <time>2021-08-02T09:32:07Z</time>
      </trkpt>
      <trkpt lat="42.28948" lon="0.39003">
        <ele>695.9</ele>
        <time>2021-08-02T09:32:08Z</time>
      </trkpt>
      <trkpt lat="42.28938" lon="0.39005">
        <ele>696.21</ele>
        <time>2021-08-02T09:32:09Z</time>
      </trkpt>
      <trkpt lat="42.28928" lon="0.39009">
        <ele>696.39</ele>
        <time>2021-08-02T09:32:10Z</time>
      </trkpt>
      <trkpt lat="42.28919" lon="0.39013">
        <ele>696.51</ele>
        <time>2021-08-02T09:32:11Z</time>
      </trkpt>
      <trkpt lat="42.2891" lon="0.39016">
        <ele>696.65</ele>
        <time>2021-08-02T09:32:12Z</time>
      </trkpt>
      <trkpt lat="42.28902" lon="0.39017">
        <ele>696.82</ele>
        <time>2021-08-02T09:32:13Z</time>
      </trkpt>
      <trkpt lat="42.28894" lon="0.39014">
        <ele>696.98</ele>
        <time>2021-08-02T09:32:14Z</time>
      </trkpt>
      <trkpt lat="42.28886" lon="0.39008">
        <ele>697.06</ele>
        <time>2021-08-02T09:32:15Z</time>
      </trkpt>
      <trkpt lat="42.28879" lon="0.39001">
        <ele>697.1</ele>
        <time>2021-08-02T09:32:16Z</time>
      </trkpt>
      <trkpt lat="42.28872" lon="0.38995">
        <ele>697.09</ele>
        <time>2021-08-02T09:32:17Z</time>
      </trkpt>
      <trkpt lat="42.28863" lon="0.38991">
        <ele>697.04</ele>
        <time>2021-08-02T09:32:18Z</time>
      </trkpt>
      <trkpt lat="42.28854" lon="0.38989">
        <ele>696.92</ele>
        <time>2021-08-02T09:32:19Z</time>
      </trkpt>
      <trkpt lat="42.28824" lon="0.38983">
        <ele>696.37</ele>
        <time>2021-08-02T09:32:22Z</time>
      </trkpt>
      <trkpt lat="42.28765" lon="0.38965">
        <ele>694.86</ele>
        <time>2021-08-02T09:32:28Z</time>
      </trkpt>
      <trkpt lat="42.2871" lon="0.38942">
        <ele>694.36</ele>
        <time>2021-08-02T09:32:34Z</time>
      </trkpt>
      <trkpt lat="42.2861" lon="0.38914">
        <ele>692.85</ele>
        <time>2021-08-02T09:32:44Z</time>
      </trkpt>
      <trkpt lat="42.28531" lon="0.3889">
        <ele>691.37</ele>
        <time>2021-08-02T09:32:51Z</time>
      </trkpt>
      <trkpt lat="42.28499" lon="0.38903">
        <ele>689.31</ele>
        <time>2021-08-02T09:32:55Z</time>
      </trkpt>
      <trkpt lat="42.28458" lon="0.38904">
        <ele>686.4</ele>
        <time>2021-08-02T09:33:00Z</time>
      </trkpt>
      <trkpt lat="42.28431" lon="0.38891">
        <ele>684.97</ele>
        <time>2021-08-02T09:33:03Z</time>
      </trkpt>
      <trkpt lat="42.28375" lon="0.38906">
        <ele>681.7</ele>
        <time>2021-08-02T09:33:10Z</time>
      </trkpt>
      <trkpt lat="42.28347" lon="0.38957">
        <ele>678.73</ele>
        <time>2021-08-02T09:33:16Z</time>
      </trkpt>
      <trkpt lat="42.2834" lon="0.3896">
        <ele>678.29</ele>
        <time>2021-08-02T09:33:17Z</time>
      </trkpt>
      <trkpt lat="42.28334" lon="0.38963">
        <ele>677.89</ele>
        <time>2021-08-02T09:33:18Z</time>
      </trkpt>
      <trkpt lat="42.28328" lon="0.38962">
        <ele>677.46</ele>
        <time>2021-08-02T09:33:19Z</time>
      </trkpt>
      <trkpt lat="42.28322" lon="0.3896">
        <ele>677.03</ele>
        <time>2021-08-02T09:33:20Z</time>
      </trkpt>
      <trkpt lat="42.28282" lon="0.38965">
        <ele>675.77</ele>
        <time>2021-08-02T09:33:26Z</time>
      </trkpt>
      <trkpt lat="42.28194" lon="0.38992">
        <ele>673.78</ele>
        <time>2021-08-02T09:33:36Z</time>
      </trkpt>
      <trkpt lat="42.28165" lon="0.39009">
        <ele>671.68</ele>
        <time>2021-08-02T09:33:39Z</time>
      </trkpt>
      <trkpt lat="42.2812" lon="0.39015">
        <ele>667.76</ele>
        <time>2021-08-02T09:33:43Z</time>
      </trkpt>
      <trkpt lat="42.28074" lon="0.3901">
        <ele>663.56</ele>
        <time>2021-08-02T09:33:47Z</time>
      </trkpt>
      <trkpt lat="42.28063" lon="0.3901">
        <ele>662.31</ele>
        <time>2021-08-02T09:33:48Z</time>
      </trkpt>
      <trkpt lat="42.28024" lon="0.39031">
        <ele>657.52</ele>
        <time>2021-08-02T09:33:52Z</time>
      </trkpt>
      <trkpt lat="42.28012" lon="0.39053">
        <ele>655.5</ele>
        <time>2021-08-02T09:33:54Z</time>
      </trkpt>
      <trkpt lat="42.27977" lon="0.39089">
        <ele>650.47</ele>
        <time>2021-08-02T09:33:59Z</time>
      </trkpt>
      <trkpt lat="42.27946" lon="0.39078">
        <ele>646.96</ele>
        <time>2021-08-02T09:34:02Z</time>
      </trkpt>
      <trkpt lat="42.27937" lon="0.39073">
        <ele>645.81</ele>
        <time>2021-08-02T09:34:03Z</time>
      </trkpt>
      <trkpt lat="42.27902" lon="0.39071">
        <ele>640.02</ele>
        <time>2021-08-02T09:34:08Z</time>
      </trkpt>
      <trkpt lat="42.2789" lon="0.391">
        <ele>636.57</ele>
        <time>2021-08-02T09:34:11Z</time>
      </trkpt>
      <trkpt lat="42.27902" lon="0.39128">
        <ele>633.29</ele>
        <time>2021-08-02T09:34:14Z</time>
      </trkpt>
      <trkpt lat="42.279" lon="0.39151">
        <ele>630.92</ele>
        <time>2021-08-02T09:34:16Z</time>
      </trkpt>
      <trkpt lat="42.27883" lon="0.39222">
        <ele>626.74</ele>
        <time>2021-08-02T09:34:21Z</time>
      </trkpt>
      <trkpt lat="42.27868" lon="0.39283">
        <ele>626.85</ele>
        <time>2021-08-02T09:34:25Z</time>
      </trkpt>
      <trkpt lat="42.27831" lon="0.39295">
        <ele>627.89</ele>
        <time>2021-08-02T09:34:30Z</time>
      </trkpt>
      <trkpt lat="42.27784" lon="0.39274">
        <ele>630.19</ele>
        <time>2021-08-02T09:34:35Z</time>
      </trkpt>
      <trkpt lat="42.27754" lon="0.39318">
        <ele>633.46</ele>
        <time>2021-08-02T09:34:39Z</time>
      </trkpt>
      <trkpt lat="42.27736" lon="0.39349">
        <ele>635.27</ele>
        <time>2021-08-02T09:34:41Z</time>
      </trkpt>
      <trkpt lat="42.27684" lon="0.39389">
        <ele>639.42</ele>
        <time>2021-08-02T09:34:45Z</time>
      </trkpt>
      <trkpt lat="42.27634" lon="0.39389">
        <ele>642.81</ele>
        <time>2021-08-02T09:34:49Z</time>
      </trkpt>
      <trkpt lat="42.27598" lon="0.39426">
        <ele>644.73</ele>
        <time>2021-08-02T09:34:53Z</time>
      </trkpt>
      <trkpt lat="42.27533" lon="0.39427">
        <ele>646.28</ele>
        <time>2021-08-02T09:34:58Z</time>
      </trkpt>
      <trkpt lat="42.27508" lon="0.39413">
        <ele>646.89</ele>
        <time>2021-08-02T09:35:00Z</time>
      </trkpt>
      <trkpt lat="42.27473" lon="0.39405">
        <ele>647.85</ele>
        <time>2021-08-02T09:35:03Z</time>
      </trkpt>
      <trkpt lat="42.27446" lon="0.39424">
        <ele>648.81</ele>
        <time>2021-08-02T09:35:07Z</time>
      </trkpt>
      <trkpt lat="42.27412" lon="0.39478">
        <ele>649.92</ele>
        <time>2021-08-02T09:35:12Z</time>
      </trkpt>
      <trkpt lat="42.27414" lon="0.39525">
        <ele>650.14</ele>
        <time>2021-08-02T09:35:17Z</time>
      </trkpt>
      <trkpt lat="42.27421" lon="0.39535">
        <ele>649.94</ele>
        <time>2021-08-02T09:35:18Z</time>
      </trkpt>
      <trkpt lat="42.27441" lon="0.39567">
        <ele>649.22</ele>
        <time>2021-08-02T09:35:21Z</time>
      </trkpt>
      <trkpt lat="42.27437" lon="0.39608">
        <ele>646.82</ele>
        <time>2021-08-02T09:35:26Z</time>
      </trkpt>
      <trkpt lat="42.27415" lon="0.39595">
        <ele>645.46</ele>
        <time>2021-08-02T09:35:28Z</time>
      </trkpt>
      <trkpt lat="42.27392" lon="0.39586">
        <ele>644.2</ele>
        <time>2021-08-02T09:35:30Z</time>
      </trkpt>
      <trkpt lat="42.2736" lon="0.396">
        <ele>641.08</ele>
        <time>2021-08-02T09:35:34Z</time>
      </trkpt>
      <trkpt lat="42.27307" lon="0.39634">
        <ele>637.35</ele>
        <time>2021-08-02T09:35:39Z</time>
      </trkpt>
      <trkpt lat="42.27248" lon="0.3965">
        <ele>637.3</ele>
        <time>2021-08-02T09:35:43Z</time>
      </trkpt>
      <trkpt lat="42.27207" lon="0.39641">
        <ele>637.47</ele>
        <time>2021-08-02T09:35:46Z</time>
      </trkpt>
      <trkpt lat="42.27155" lon="0.39663">
        <ele>636.91</ele>
        <time>2021-08-02T09:35:52Z</time>
      </trkpt>
      <trkpt lat="42.27152" lon="0.39675">
        <ele>636.76</ele>
        <time>2021-08-02T09:35:53Z</time>
      </trkpt>
      <trkpt lat="42.27124" lon="0.39767">
        <ele>635.28</ele>
        <time>2021-08-02T09:36:00Z</time>
      </trkpt>
      <trkpt lat="42.27125" lon="0.39829">
        <ele>633.73</ele>
        <time>2021-08-02T09:36:05Z</time>
      </trkpt>
      <trkpt lat="42.27145" lon="0.39948">
        <ele>631.46</ele>
        <time>2021-08-02T09:36:14Z</time>
      </trkpt>
      <trkpt lat="42.27155" lon="0.39957">
        <ele>631.18</ele>
        <time>2021-08-02T09:36:19Z</time>
      </trkpt>
      <trkpt lat="42.27161" lon="0.39946">
        <ele>630.25</ele>
        <time>2021-08-02T09:36:35Z</time>
      </trkpt>
      <trkpt lat="42.27165" lon="0.39937">
        <ele>630.34</ele>
        <time>2021-08-02T09:36:38Z</time>
      </trkpt>
      <trkpt lat="42.27183" lon="0.39917">
        <ele>630.82</ele>
        <time>2021-08-02T09:36:42Z</time>
      </trkpt>
      <trkpt lat="42.27216" lon="0.39925">
        <ele>632.33</ele>
        <time>2021-08-02T09:36:47Z</time>
      </trkpt>
      <trkpt lat="42.27247" lon="0.39989">
        <ele>636.25</ele>
        <time>2021-08-02T09:36:53Z</time>
      </trkpt>
      <trkpt lat="42.27258" lon="0.40011">
        <ele>637.99</ele>
        <time>2021-08-02T09:36:55Z</time>
      </trkpt>
      <trkpt lat="42.2728" lon="0.40016">
        <ele>642.53</ele>
        <time>2021-08-02T09:37:00Z</time>
      </trkpt>
      <trkpt lat="42.27281" lon="0.40005">
        <ele>643.23</ele>
        <time>2021-08-02T09:37:01Z</time>
      </trkpt>
      <trkpt lat="42.27311" lon="0.39951">
        <ele>647.83</ele>
        <time>2021-08-02T09:37:08Z</time>
      </trkpt>
      <trkpt lat="42.27325" lon="0.40006">
        <ele>650.81</ele>
        <time>2021-08-02T09:37:12Z</time>
      </trkpt>
      <trkpt lat="42.2733" lon="0.40017">
        <ele>651.53</ele>
        <time>2021-08-02T09:37:13Z</time>
      </trkpt>
      <trkpt lat="42.27361" lon="0.40076">
        <ele>656.6</ele>
        <time>2021-08-02T09:37:19Z</time>
      </trkpt>
      <trkpt lat="42.2738" lon="0.40105">
        <ele>660.8</ele>
        <time>2021-08-02T09:37:24Z</time>
      </trkpt>
      <trkpt lat="42.2738" lon="0.40083">
        <ele>663.72</ele>
        <time>2021-08-02T09:37:27Z</time>
      </trkpt>
      <trkpt lat="42.27373" lon="0.40056">
        <ele>665.35</ele>
        <time>2021-08-02T09:37:29Z</time>
      </trkpt>
      <trkpt lat="42.27387" lon="0.40021">
        <ele>669.03</ele>
        <time>2021-08-02T09:37:35Z</time>
      </trkpt>
      <trkpt lat="42.27393" lon="0.40046">
        <ele>670.71</ele>
        <time>2021-08-02T09:37:37Z</time>
      </trkpt>
      <trkpt lat="42.27409" lon="0.40096">
        <ele>673.49</ele>
        <time>2021-08-02T09:37:41Z</time>
      </trkpt>
      <trkpt lat="42.27445" lon="0.40132">
        <ele>677.73</ele>
        <time>2021-08-02T09:37:46Z</time>
      </trkpt>
      <trkpt lat="42.27502" lon="0.40151">
        <ele>682.25</ele>
        <time>2021-08-02T09:37:51Z</time>
      </trkpt>
      <trkpt lat="42.27513" lon="0.40155">
        <ele>683.37</ele>
        <time>2021-08-02T09:37:52Z</time>
      </trkpt>
      <trkpt lat="42.27559" lon="0.40159">
        <ele>687.53</ele>
        <time>2021-08-02T09:37:56Z</time>
      </trkpt>
      <trkpt lat="42.27591" lon="0.40145">
        <ele>691.06</ele>
        <time>2021-08-02T09:37:59Z</time>
      </trkpt>
      <trkpt lat="42.27626" lon="0.40144">
        <ele>694.13</ele>
        <time>2021-08-02T09:38:02Z</time>
      </trkpt>
      <trkpt lat="42.2769" lon="0.40159">
        <ele>698.97</ele>
        <time>2021-08-02T09:38:07Z</time>
      </trkpt>
      <trkpt lat="42.27743" lon="0.40172">
        <ele>702.59</ele>
        <time>2021-08-02T09:38:11Z</time>
      </trkpt>
      <trkpt lat="42.27755" lon="0.40174">
        <ele>703.41</ele>
        <time>2021-08-02T09:38:12Z</time>
      </trkpt>
      <trkpt lat="42.27814" lon="0.40171">
        <ele>707.37</ele>
        <time>2021-08-02T09:38:17Z</time>
      </trkpt>
      <trkpt lat="42.27825" lon="0.40178">
        <ele>707.82</ele>
        <time>2021-08-02T09:38:18Z</time>
      </trkpt>
      <trkpt lat="42.27849" lon="0.40192">
        <ele>708.84</ele>
        <time>2021-08-02T09:38:20Z</time>
      </trkpt>
      <trkpt lat="42.27884" lon="0.40177">
        <ele>712.39</ele>
        <time>2021-08-02T09:38:25Z</time>
      </trkpt>
      <trkpt lat="42.27911" lon="0.4016">
        <ele>715.7</ele>
        <time>2021-08-02T09:38:30Z</time>
      </trkpt>
      <trkpt lat="42.27916" lon="0.40174">
        <ele>716.3</ele>
        <time>2021-08-02T09:38:31Z</time>
      </trkpt>
      <trkpt lat="42.27943" lon="0.40235">
        <ele>720.63</ele>
        <time>2021-08-02T09:38:37Z</time>
      </trkpt>
      <trkpt lat="42.2795" lon="0.40252">
        <ele>723.94</ele>
        <time>2021-08-02T09:38:41Z</time>
      </trkpt>
      <trkpt lat="42.27953" lon="0.40261">
        <ele>727.3</ele>
        <time>2021-08-02T09:38:47Z</time>
      </trkpt>
      <trkpt lat="42.27963" lon="0.40287">
        <ele>729.88</ele>
        <time>2021-08-02T09:38:57Z</time>
      </trkpt>
      <trkpt lat="42.27983" lon="0.40336">
        <ele>732.1</ele>
        <time>2021-08-02T09:39:04Z</time>
      </trkpt>
      <trkpt lat="42.28001" lon="0.4036">
        <ele>734.26</ele>
        <time>2021-08-02T09:39:08Z</time>
      </trkpt>
      <trkpt lat="42.28053" lon="0.40386">
        <ele>738.44</ele>
        <time>2021-08-02T09:39:15Z</time>
      </trkpt>
      <trkpt lat="42.28089" lon="0.40401">
        <ele>741.48</ele>
        <time>2021-08-02T09:39:19Z</time>
      </trkpt>
      <trkpt lat="42.28133" lon="0.40419">
        <ele>744.87</ele>
        <time>2021-08-02T09:39:24Z</time>
      </trkpt>
      <trkpt lat="42.28183" lon="0.40438">
        <ele>748.08</ele>
        <time>2021-08-02T09:39:29Z</time>
      </trkpt>
      <trkpt lat="42.28233" lon="0.40459">
        <ele>751.07</ele>
        <time>2021-08-02T09:39:34Z</time>
      </trkpt>
      <trkpt lat="42.28298" lon="0.40516">
        <ele>755.03</ele>
        <time>2021-08-02T09:39:41Z</time>
      </trkpt>
      <trkpt lat="42.28344" lon="0.40574">
        <ele>758.64</ele>
        <time>2021-08-02T09:39:47Z</time>
      </trkpt>
      <trkpt lat="42.28384" lon="0.40622">
        <ele>762.16</ele>
        <time>2021-08-02T09:39:52Z</time>
      </trkpt>
      <trkpt lat="42.28424" lon="0.40666">
        <ele>765.34</ele>
        <time>2021-08-02T09:39:57Z</time>
      </trkpt>
      <trkpt lat="42.28466" lon="0.40702">
        <ele>768.4</ele>
        <time>2021-08-02T09:40:02Z</time>
      </trkpt>
      <trkpt lat="42.28522" lon="0.40749">
        <ele>771.48</ele>
        <time>2021-08-02T09:40:08Z</time>
      </trkpt>
      <trkpt lat="42.28592" lon="0.40807">
        <ele>774.55</ele>
        <time>2021-08-02T09:40:15Z</time>
      </trkpt>
      <trkpt lat="42.28642" lon="0.40848">
        <ele>777.86</ele>
        <time>2021-08-02T09:40:21Z</time>
      </trkpt>
      <trkpt lat="42.28689" lon="0.40886">
        <ele>780.96</ele>
        <time>2021-08-02T09:40:26Z</time>
      </trkpt>
      <trkpt lat="42.28739" lon="0.40929">
        <ele>784.56</ele>
        <time>2021-08-02T09:40:32Z</time>
      </trkpt>
      <trkpt lat="42.28796" lon="0.40977">
        <ele>788.06</ele>
        <time>2021-08-02T09:40:38Z</time>
      </trkpt>
      <trkpt lat="42.28841" lon="0.41017">
        <ele>790.37</ele>
        <time>2021-08-02T09:40:43Z</time>
      </trkpt>
      <trkpt lat="42.28903" lon="0.41109">
        <ele>793.99</ele>
        <time>2021-08-02T09:40:51Z</time>
      </trkpt>
      <trkpt lat="42.28942" lon="0.4117">
        <ele>797.32</ele>
        <time>2021-08-02T09:40:56Z</time>
      </trkpt>
      <trkpt lat="42.28971" lon="0.41212">
        <ele>800.6</ele>
        <time>2021-08-02T09:41:00Z</time>
      </trkpt>
      <trkpt lat="42.29001" lon="0.41258">
        <ele>803.67</ele>
        <time>2021-08-02T09:41:05Z</time>
      </trkpt>
      <trkpt lat="42.29029" lon="0.41301">
        <ele>805.69</ele>
        <time>2021-08-02T09:41:09Z</time>
      </trkpt>
      <trkpt lat="42.29042" lon="0.41373">
        <ele>806.65</ele>
        <time>2021-08-02T09:41:14Z</time>
      </trkpt>
      <trkpt lat="42.29046" lon="0.41478">
        <ele>809.95</ele>
        <time>2021-08-02T09:41:22Z</time>
      </trkpt>
      <trkpt lat="42.29049" lon="0.41544">
        <ele>813.18</ele>
        <time>2021-08-02T09:41:27Z</time>
      </trkpt>
      <trkpt lat="42.29079" lon="0.41584">
        <ele>817.19</ele>
        <time>2021-08-02T09:41:32Z</time>
      </trkpt>
      <trkpt lat="42.29118" lon="0.41614">
        <ele>821.21</ele>
        <time>2021-08-02T09:41:37Z</time>
      </trkpt>
      <trkpt lat="42.29155" lon="0.41646">
        <ele>824.83</ele>
        <time>2021-08-02T09:41:41Z</time>
      </trkpt>
      <trkpt lat="42.29196" lon="0.41681">
        <ele>828.45</ele>
        <time>2021-08-02T09:41:46Z</time>
      </trkpt>
      <trkpt lat="42.29217" lon="0.41701">
        <ele>831.62</ele>
        <time>2021-08-02T09:41:53Z</time>
      </trkpt>
      <trkpt lat="42.29225" lon="0.41708">
        <ele>832.23</ele>
        <time>2021-08-02T09:41:55Z</time>
      </trkpt>
      <trkpt lat="42.29278" lon="0.41738">
        <ele>834.71</ele>
        <time>2021-08-02T09:42:04Z</time>
      </trkpt>
      <trkpt lat="42.2931" lon="0.4175">
        <ele>837</ele>
        <time>2021-08-02T09:42:10Z</time>
      </trkpt>
      <trkpt lat="42.29369" lon="0.41822">
        <ele>840.77</ele>
        <time>2021-08-02T09:42:21Z</time>
      </trkpt>
      <trkpt lat="42.29414" lon="0.41891">
        <ele>844.13</ele>
        <time>2021-08-02T09:42:28Z</time>
      </trkpt>
      <trkpt lat="42.29466" lon="0.4194">
        <ele>847.24</ele>
        <time>2021-08-02T09:42:34Z</time>
      </trkpt>
      <trkpt lat="42.29473" lon="0.41947">
        <ele>848.46</ele>
        <time>2021-08-02T09:42:35Z</time>
      </trkpt>
      <trkpt lat="42.29519" lon="0.41971">
        <ele>852.74</ele>
        <time>2021-08-02T09:42:41Z</time>
      </trkpt>
      <trkpt lat="42.2955" lon="0.41993">
        <ele>855.9</ele>
        <time>2021-08-02T09:42:45Z</time>
      </trkpt>
      <trkpt lat="42.29581" lon="0.42019">
        <ele>859.21</ele>
        <time>2021-08-02T09:42:49Z</time>
      </trkpt>
      <trkpt lat="42.29598" lon="0.42029">
        <ele>861.3</ele>
        <time>2021-08-02T09:42:51Z</time>
      </trkpt>
      <trkpt lat="42.29645" lon="0.42044">
        <ele>866.27</ele>
        <time>2021-08-02T09:42:56Z</time>
      </trkpt>
      <trkpt lat="42.29678" lon="0.42053">
        <ele>868.53</ele>
        <time>2021-08-02T09:42:59Z</time>
      </trkpt>
      <trkpt lat="42.29783" lon="0.42053">
        <ele>872.12</ele>
        <time>2021-08-02T09:43:09Z</time>
      </trkpt>
      <trkpt lat="42.29792" lon="0.42054">
        <ele>872.57</ele>
        <time>2021-08-02T09:43:10Z</time>
      </trkpt>
      <trkpt lat="42.29823" lon="0.42038">
        <ele>874.58</ele>
        <time>2021-08-02T09:43:14Z</time>
      </trkpt>
      <trkpt lat="42.29865" lon="0.41999">
        <ele>878.51</ele>
        <time>2021-08-02T09:43:19Z</time>
      </trkpt>
      <trkpt lat="42.29896" lon="0.41972">
        <ele>883.1</ele>
        <time>2021-08-02T09:43:24Z</time>
      </trkpt>
      <trkpt lat="42.29906" lon="0.41961">
        <ele>885.12</ele>
        <time>2021-08-02T09:43:26Z</time>
      </trkpt>
      <trkpt lat="42.29921" lon="0.41967">
        <ele>889.46</ele>
        <time>2021-08-02T09:43:31Z</time>
      </trkpt>
      <trkpt lat="42.29915" lon="0.41979">
        <ele>891.04</ele>
        <time>2021-08-02T09:43:33Z</time>
      </trkpt>
      <trkpt lat="42.29906" lon="0.41994">
        <ele>892.58</ele>
        <time>2021-08-02T09:43:35Z</time>
      </trkpt>
      <trkpt lat="42.29912" lon="0.42042">
        <ele>896.77</ele>
        <time>2021-08-02T09:43:41Z</time>
      </trkpt>
      <trkpt lat="42.2993" lon="0.42029">
        <ele>898.63</ele>
        <time>2021-08-02T09:43:44Z</time>
      </trkpt>
      <trkpt lat="42.29969" lon="0.4202">
        <ele>902.82</ele>
        <time>2021-08-02T09:43:51Z</time>
      </trkpt>
      <trkpt lat="42.29975" lon="0.42025">
        <ele>904.16</ele>
        <time>2021-08-02T09:43:53Z</time>
      </trkpt>
      <trkpt lat="42.30016" lon="0.42056">
        <ele>908.06</ele>
        <time>2021-08-02T09:44:00Z</time>
      </trkpt>
      <trkpt lat="42.30029" lon="0.42063">
        <ele>909.58</ele>
        <time>2021-08-02T09:44:02Z</time>
      </trkpt>
      <trkpt lat="42.3006" lon="0.42067">
        <ele>913.57</ele>
        <time>2021-08-02T09:44:06Z</time>
      </trkpt>
      <trkpt lat="42.3009" lon="0.4207">
        <ele>917.33</ele>
        <time>2021-08-02T09:44:10Z</time>
      </trkpt>
      <trkpt lat="42.30119" lon="0.42068">
        <ele>921.48</ele>
        <time>2021-08-02T09:44:14Z</time>
      </trkpt>
      <trkpt lat="42.30134" lon="0.42067">
        <ele>923.67</ele>
        <time>2021-08-02T09:44:16Z</time>
      </trkpt>
      <trkpt lat="42.30155" lon="0.4206">
        <ele>929.03</ele>
        <time>2021-08-02T09:44:20Z</time>
      </trkpt>
      <trkpt lat="42.30186" lon="0.42048">
        <ele>932.64</ele>
        <time>2021-08-02T09:44:24Z</time>
      </trkpt>
      <trkpt lat="42.30221" lon="0.4203">
        <ele>935.85</ele>
        <time>2021-08-02T09:44:29Z</time>
      </trkpt>
      <trkpt lat="42.30232" lon="0.42021">
        <ele>936.86</ele>
        <time>2021-08-02T09:44:31Z</time>
      </trkpt>
      <trkpt lat="42.30293" lon="0.41999">
        <ele>940.79</ele>
        <time>2021-08-02T09:44:39Z</time>
      </trkpt>
      <trkpt lat="42.30336" lon="0.42001">
        <ele>943.83</ele>
        <time>2021-08-02T09:44:44Z</time>
      </trkpt>
      <trkpt lat="42.30373" lon="0.42006">
        <ele>947.55</ele>
        <time>2021-08-02T09:44:49Z</time>
      </trkpt>
      <trkpt lat="42.30381" lon="0.42006">
        <ele>948.25</ele>
        <time>2021-08-02T09:44:50Z</time>
      </trkpt>
      <trkpt lat="42.30407" lon="0.42021">
        <ele>950.62</ele>
        <time>2021-08-02T09:44:54Z</time>
      </trkpt>
      <trkpt lat="42.30493" lon="0.4209">
        <ele>953.07</ele>
        <time>2021-08-02T09:45:05Z</time>
      </trkpt>
      <trkpt lat="42.30512" lon="0.42112">
        <ele>953.97</ele>
        <time>2021-08-02T09:45:08Z</time>
      </trkpt>
      <trkpt lat="42.30523" lon="0.42154">
        <ele>955.71</ele>
        <time>2021-08-02T09:45:13Z</time>
      </trkpt>
      <trkpt lat="42.30523" lon="0.42175">
        <ele>956.88</ele>
        <time>2021-08-02T09:45:15Z</time>
      </trkpt>
      <trkpt lat="42.30555" lon="0.42221">
        <ele>960.42</ele>
        <time>2021-08-02T09:45:22Z</time>
      </trkpt>
      <trkpt lat="42.30561" lon="0.42224">
        <ele>960.99</ele>
        <time>2021-08-02T09:45:23Z</time>
      </trkpt>
      <trkpt lat="42.30592" lon="0.4224">
        <ele>964.44</ele>
        <time>2021-08-02T09:45:28Z</time>
      </trkpt>
      <trkpt lat="42.30613" lon="0.4227">
        <ele>967.26</ele>
        <time>2021-08-02T09:45:32Z</time>
      </trkpt>
      <trkpt lat="42.3063" lon="0.42271">
        <ele>971.23</ele>
        <time>2021-08-02T09:45:39Z</time>
      </trkpt>
      <trkpt lat="42.30627" lon="0.42263">
        <ele>971.67</ele>
        <time>2021-08-02T09:45:40Z</time>
      </trkpt>
      <trkpt lat="42.30622" lon="0.42236">
        <ele>973.35</ele>
        <time>2021-08-02T09:45:43Z</time>
      </trkpt>
      <trkpt lat="42.3059" lon="0.42193">
        <ele>977.67</ele>
        <time>2021-08-02T09:45:49Z</time>
      </trkpt>
      <trkpt lat="42.30567" lon="0.4218">
        <ele>981.74</ele>
        <time>2021-08-02T09:45:53Z</time>
      </trkpt>
      <trkpt lat="42.30567" lon="0.4213">
        <ele>985.05</ele>
        <time>2021-08-02T09:45:59Z</time>
      </trkpt>
      <trkpt lat="42.30567" lon="0.42113">
        <ele>986.31</ele>
        <time>2021-08-02T09:46:01Z</time>
      </trkpt>
      <trkpt lat="42.30563" lon="0.42066">
        <ele>989.89</ele>
        <time>2021-08-02T09:46:08Z</time>
      </trkpt>
      <trkpt lat="42.30572" lon="0.42051">
        <ele>992.81</ele>
        <time>2021-08-02T09:46:16Z</time>
      </trkpt>
      <trkpt lat="42.30571" lon="0.4205">
        <ele>994.34</ele>
        <time>2021-08-02T09:46:24Z</time>
      </trkpt>
      <trkpt lat="42.306" lon="0.42053">
        <ele>996.34</ele>
        <time>2021-08-02T09:46:36Z</time>
      </trkpt>
      <trkpt lat="42.30628" lon="0.42062">
        <ele>999.57</ele>
        <time>2021-08-02T09:46:47Z</time>
      </trkpt>
      <trkpt lat="42.30665" lon="0.42072">
        <ele>1001.77</ele>
        <time>2021-08-02T09:46:55Z</time>
      </trkpt>
      <trkpt lat="42.30703" lon="0.4209">
        <ele>1005.08</ele>
        <time>2021-08-02T09:47:05Z</time>
      </trkpt>
      <trkpt lat="42.30743" lon="0.42125">
        <ele>1008.49</ele>
        <time>2021-08-02T09:47:15Z</time>
      </trkpt>
      <trkpt lat="42.3076" lon="0.42139">
        <ele>1009.93</ele>
        <time>2021-08-02T09:47:18Z</time>
      </trkpt>
      <trkpt lat="42.30788" lon="0.42144">
        <ele>1012.36</ele>
        <time>2021-08-02T09:47:22Z</time>
      </trkpt>
      <trkpt lat="42.3081" lon="0.42162">
        <ele>1017.47</ele>
        <time>2021-08-02T09:47:28Z</time>
      </trkpt>
      <trkpt lat="42.30797" lon="0.42176">
        <ele>1021.17</ele>
        <time>2021-08-02T09:47:31Z</time>
      </trkpt>
      <trkpt lat="42.30807" lon="0.42195">
        <ele>1024.31</ele>
        <time>2021-08-02T09:47:36Z</time>
      </trkpt>
      <trkpt lat="42.3082" lon="0.42193">
        <ele>1025.64</ele>
        <time>2021-08-02T09:47:38Z</time>
      </trkpt>
      <trkpt lat="42.3088" lon="0.42179">
        <ele>1029.87</ele>
        <time>2021-08-02T09:47:45Z</time>
      </trkpt>
      <trkpt lat="42.30888" lon="0.4218">
        <ele>1030.32</ele>
        <time>2021-08-02T09:47:46Z</time>
      </trkpt>
      <trkpt lat="42.30928" lon="0.42162">
        <ele>1033.9</ele>
        <time>2021-08-02T09:47:52Z</time>
      </trkpt>
      <trkpt lat="42.30967" lon="0.4213">
        <ele>1037.86</ele>
        <time>2021-08-02T09:47:58Z</time>
      </trkpt>
      <trkpt lat="42.30998" lon="0.42101">
        <ele>1039.77</ele>
        <time>2021-08-02T09:48:02Z</time>
      </trkpt>
      <trkpt lat="42.31059" lon="0.42068">
        <ele>1041.97</ele>
        <time>2021-08-02T09:48:09Z</time>
      </trkpt>
      <trkpt lat="42.31108" lon="0.42067">
        <ele>1043.13</ele>
        <time>2021-08-02T09:48:15Z</time>
      </trkpt>
      <trkpt lat="42.31116" lon="0.4206">
        <ele>1043.36</ele>
        <time>2021-08-02T09:48:16Z</time>
      </trkpt>
      <trkpt lat="42.31146" lon="0.42035">
        <ele>1043.82</ele>
        <time>2021-08-02T09:48:20Z</time>
      </trkpt>
      <trkpt lat="42.3117" lon="0.42025">
        <ele>1043.88</ele>
        <time>2021-08-02T09:48:23Z</time>
      </trkpt>
      <trkpt lat="42.31222" lon="0.42028">
        <ele>1043.24</ele>
        <time>2021-08-02T09:48:30Z</time>
      </trkpt>
      <trkpt lat="42.31256" lon="0.41972">
        <ele>1043.83</ele>
        <time>2021-08-02T09:48:36Z</time>
      </trkpt>
      <trkpt lat="42.31302" lon="0.41917">
        <ele>1044.16</ele>
        <time>2021-08-02T09:48:44Z</time>
      </trkpt>
      <trkpt lat="42.31328" lon="0.41909">
        <ele>1044.2</ele>
        <time>2021-08-02T09:48:47Z</time>
      </trkpt>
      <trkpt lat="42.31366" lon="0.41877">
        <ele>1044.7</ele>
        <time>2021-08-02T09:48:52Z</time>
      </trkpt>
      <trkpt lat="42.31384" lon="0.41839">
        <ele>1045.12</ele>
        <time>2021-08-02T09:48:56Z</time>
      </trkpt>
      <trkpt lat="42.31429" lon="0.41777">
        <ele>1045.53</ele>
        <time>2021-08-02T09:49:03Z</time>
      </trkpt>
      <trkpt lat="42.31491" lon="0.41743">
        <ele>1045.38</ele>
        <time>2021-08-02T09:49:11Z</time>
      </trkpt>
      <trkpt lat="42.31503" lon="0.41725">
        <ele>1045.74</ele>
        <time>2021-08-02T09:49:15Z</time>
      </trkpt>
      <trkpt lat="42.31502" lon="0.41723">
        <ele>1047.53</ele>
        <time>2021-08-02T09:49:28Z</time>
      </trkpt>
      <trkpt lat="42.31505" lon="0.41719">
        <ele>1047.33</ele>
        <time>2021-08-02T09:50:57Z</time>
      </trkpt>
      <trkpt lat="42.31506" lon="0.41713">
        <ele>1047.76</ele>
        <time>2021-08-02T09:51:03Z</time>
      </trkpt>
      <trkpt lat="42.31508" lon="0.41721">
        <ele>1048.26</ele>
        <time>2021-08-02T09:51:08Z</time>
      </trkpt>
      <trkpt lat="42.31502" lon="0.41725">
        <ele>1048.64</ele>
        <time>2021-08-02T09:51:13Z</time>
      </trkpt>
      <trkpt lat="42.31473" lon="0.41756">
        <ele>1046.77</ele>
        <time>2021-08-02T09:51:26Z</time>
      </trkpt>
      <trkpt lat="42.31434" lon="0.41776">
        <ele>1046.39</ele>
        <time>2021-08-02T09:51:32Z</time>
      </trkpt>
      <trkpt lat="42.31394" lon="0.41821">
        <ele>1046.13</ele>
        <time>2021-08-02T09:51:39Z</time>
      </trkpt>
      <trkpt lat="42.31372" lon="0.4187">
        <ele>1045.88</ele>
        <time>2021-08-02T09:51:45Z</time>
      </trkpt>
      <trkpt lat="42.31334" lon="0.41912">
        <ele>1045.98</ele>
        <time>2021-08-02T09:51:52Z</time>
      </trkpt>
      <trkpt lat="42.31279" lon="0.41932">
        <ele>1045.98</ele>
        <time>2021-08-02T09:51:59Z</time>
      </trkpt>
      <trkpt lat="42.31253" lon="0.41972">
        <ele>1045.44</ele>
        <time>2021-08-02T09:52:04Z</time>
      </trkpt>
      <trkpt lat="42.31247" lon="0.41994">
        <ele>1045.28</ele>
        <time>2021-08-02T09:52:06Z</time>
      </trkpt>
      <trkpt lat="42.31222" lon="0.4203">
        <ele>1045.27</ele>
        <time>2021-08-02T09:52:11Z</time>
      </trkpt>
      <trkpt lat="42.31179" lon="0.42035">
        <ele>1044.89</ele>
        <time>2021-08-02T09:52:18Z</time>
      </trkpt>
      <trkpt lat="42.31166" lon="0.42015">
        <ele>1043.74</ele>
        <time>2021-08-02T09:52:23Z</time>
      </trkpt>
      <trkpt lat="42.31166" lon="0.42005">
        <ele>1043.02</ele>
        <time>2021-08-02T09:52:25Z</time>
      </trkpt>
      <trkpt lat="42.31162" lon="0.41965">
        <ele>1040.24</ele>
        <time>2021-08-02T09:52:31Z</time>
      </trkpt>
      <trkpt lat="42.31151" lon="0.41939">
        <ele>1037.75</ele>
        <time>2021-08-02T09:52:35Z</time>
      </trkpt>
      <trkpt lat="42.31153" lon="0.41894">
        <ele>1033.99</ele>
        <time>2021-08-02T09:52:42Z</time>
      </trkpt>
      <trkpt lat="42.31156" lon="0.41891">
        <ele>1033.33</ele>
        <time>2021-08-02T09:52:43Z</time>
      </trkpt>
      <trkpt lat="42.3116" lon="0.41888">
        <ele>1031.92</ele>
        <time>2021-08-02T09:52:45Z</time>
      </trkpt>
      <trkpt lat="42.31162" lon="0.41885">
        <ele>1028.3</ele>
        <time>2021-08-02T09:52:53Z</time>
      </trkpt>
      <trkpt lat="42.31162" lon="0.41882">
        <ele>1027.5</ele>
        <time>2021-08-02T09:52:59Z</time>
      </trkpt>
      <trkpt lat="42.31166" lon="0.41875">
        <ele>1027.42</ele>
        <time>2021-08-02T09:53:01Z</time>
      </trkpt>
      <trkpt lat="42.31178" lon="0.41859">
        <ele>1026.87</ele>
        <time>2021-08-02T09:53:05Z</time>
      </trkpt>
      <trkpt lat="42.31184" lon="0.41832">
        <ele>1025.9</ele>
        <time>2021-08-02T09:53:09Z</time>
      </trkpt>
      <trkpt lat="42.3119" lon="0.41779">
        <ele>1023.76</ele>
        <time>2021-08-02T09:53:16Z</time>
      </trkpt>
      <trkpt lat="42.31191" lon="0.41761">
        <ele>1022.55</ele>
        <time>2021-08-02T09:53:19Z</time>
      </trkpt>
      <trkpt lat="42.31194" lon="0.41742">
        <ele>1020.87</ele>
        <time>2021-08-02T09:53:22Z</time>
      </trkpt>
      <trkpt lat="42.31202" lon="0.41704">
        <ele>1017.14</ele>
        <time>2021-08-02T09:53:29Z</time>
      </trkpt>
      <trkpt lat="42.31205" lon="0.417">
        <ele>1016.7</ele>
        <time>2021-08-02T09:53:30Z</time>
      </trkpt>
      <trkpt lat="42.31237" lon="0.41666">
        <ele>1013.17</ele>
        <time>2021-08-02T09:53:41Z</time>
      </trkpt>
      <trkpt lat="42.31248" lon="0.41623">
        <ele>1010.13</ele>
        <time>2021-08-02T09:53:51Z</time>
      </trkpt>
      <trkpt lat="42.31247" lon="0.41563">
        <ele>1006.95</ele>
        <time>2021-08-02T09:54:02Z</time>
      </trkpt>
      <trkpt lat="42.31243" lon="0.41524">
        <ele>1003.64</ele>
        <time>2021-08-02T09:54:10Z</time>
      </trkpt>
      <trkpt lat="42.31239" lon="0.41511">
        <ele>1002.45</ele>
        <time>2021-08-02T09:54:13Z</time>
      </trkpt>
      <trkpt lat="42.31234" lon="0.41484">
        <ele>1000.72</ele>
        <time>2021-08-02T09:54:17Z</time>
      </trkpt>
      <trkpt lat="42.31228" lon="0.41441">
        <ele>998</ele>
        <time>2021-08-02T09:54:24Z</time>
      </trkpt>
      <trkpt lat="42.31225" lon="0.41419">
        <ele>997.29</ele>
        <time>2021-08-02T09:54:27Z</time>
      </trkpt>
      <trkpt lat="42.31202" lon="0.41378">
        <ele>995.75</ele>
        <time>2021-08-02T09:54:33Z</time>
      </trkpt>
      <trkpt lat="42.31188" lon="0.41367">
        <ele>994.9</ele>
        <time>2021-08-02T09:54:36Z</time>
      </trkpt>
      <trkpt lat="42.31146" lon="0.41373">
        <ele>992.16</ele>
        <time>2021-08-02T09:54:45Z</time>
      </trkpt>
      <trkpt lat="42.31124" lon="0.41345">
        <ele>989.75</ele>
        <time>2021-08-02T09:54:51Z</time>
      </trkpt>
      <trkpt lat="42.31119" lon="0.4134">
        <ele>989.34</ele>
        <time>2021-08-02T09:54:52Z</time>
      </trkpt>
      <trkpt lat="42.31092" lon="0.4131">
        <ele>986.95</ele>
        <time>2021-08-02T09:54:57Z</time>
      </trkpt>
      <trkpt lat="42.31056" lon="0.41258">
        <ele>983.87</ele>
        <time>2021-08-02T09:55:03Z</time>
      </trkpt>
      <trkpt lat="42.31023" lon="0.41235">
        <ele>982.18</ele>
        <time>2021-08-02T09:55:07Z</time>
      </trkpt>
      <trkpt lat="42.30994" lon="0.41177">
        <ele>980.04</ele>
        <time>2021-08-02T09:55:14Z</time>
      </trkpt>
      <trkpt lat="42.30984" lon="0.41161">
        <ele>979.5</ele>
        <time>2021-08-02T09:55:17Z</time>
      </trkpt>
      <trkpt lat="42.30947" lon="0.41134">
        <ele>979.1</ele>
        <time>2021-08-02T09:55:23Z</time>
      </trkpt>
      <trkpt lat="42.30916" lon="0.41109">
        <ele>979.61</ele>
        <time>2021-08-02T09:55:29Z</time>
      </trkpt>
      <trkpt lat="42.3086" lon="0.41031">
        <ele>980</ele>
        <time>2021-08-02T09:55:41Z</time>
      </trkpt>
      <trkpt lat="42.3085" lon="0.41012">
        <ele>979.26</ele>
        <time>2021-08-02T09:55:44Z</time>
      </trkpt>
      <trkpt lat="42.30843" lon="0.41001">
        <ele>978.66</ele>
        <time>2021-08-02T09:55:46Z</time>
      </trkpt>
      <trkpt lat="42.30826" lon="0.40963">
        <ele>975.31</ele>
        <time>2021-08-02T09:55:53Z</time>
      </trkpt>
      <trkpt lat="42.3081" lon="0.40931">
        <ele>972.82</ele>
        <time>2021-08-02T09:55:59Z</time>
      </trkpt>
      <trkpt lat="42.30805" lon="0.40921">
        <ele>972.21</ele>
        <time>2021-08-02T09:56:01Z</time>
      </trkpt>
      <trkpt lat="42.30792" lon="0.40908">
        <ele>970.14</ele>
        <time>2021-08-02T09:56:06Z</time>
      </trkpt>
      <trkpt lat="42.30766" lon="0.40875">
        <ele>966.55</ele>
        <time>2021-08-02T09:56:16Z</time>
      </trkpt>
      <trkpt lat="42.30751" lon="0.40839">
        <ele>963.22</ele>
        <time>2021-08-02T09:56:26Z</time>
      </trkpt>
      <trkpt lat="42.30747" lon="0.40834">
        <ele>962.65</ele>
        <time>2021-08-02T09:56:28Z</time>
      </trkpt>
      <trkpt lat="42.30726" lon="0.40831">
        <ele>960.02</ele>
        <time>2021-08-02T09:56:40Z</time>
      </trkpt>
      <trkpt lat="42.30722" lon="0.40829">
        <ele>959.48</ele>
        <time>2021-08-02T09:56:42Z</time>
      </trkpt>
      <trkpt lat="42.30712" lon="0.40835">
        <ele>957.87</ele>
        <time>2021-08-02T09:56:48Z</time>
      </trkpt>
      <trkpt lat="42.3071" lon="0.40838">
        <ele>957.4</ele>
        <time>2021-08-02T09:56:50Z</time>
      </trkpt>
      <trkpt lat="42.30705" lon="0.40858">
        <ele>956.29</ele>
        <time>2021-08-02T09:56:57Z</time>
      </trkpt>
      <trkpt lat="42.30694" lon="0.40848">
        <ele>955.21</ele>
        <time>2021-08-02T09:57:04Z</time>
      </trkpt>
      <trkpt lat="42.30694" lon="0.40843">
        <ele>955.07</ele>
        <time>2021-08-02T09:57:05Z</time>
      </trkpt>
      <trkpt lat="42.30697" lon="0.40803">
        <ele>951.85</ele>
        <time>2021-08-02T09:57:16Z</time>
      </trkpt>
      <trkpt lat="42.30695" lon="0.40801">
        <ele>948.76</ele>
        <time>2021-08-02T09:57:31Z</time>
      </trkpt>
      <trkpt lat="42.30694" lon="0.40799">
        <ele>948.59</ele>
        <time>2021-08-02T09:57:32Z</time>
      </trkpt>
      <trkpt lat="42.30685" lon="0.40773">
        <ele>946.44</ele>
        <time>2021-08-02T09:57:43Z</time>
      </trkpt>
      <trkpt lat="42.30684" lon="0.40769">
        <ele>944.92</ele>
        <time>2021-08-02T09:58:10Z</time>
      </trkpt>
      <trkpt lat="42.30686" lon="0.40765">
        <ele>945.15</ele>
        <time>2021-08-02T09:58:21Z</time>
      </trkpt>
      <trkpt lat="42.30677" lon="0.40741">
        <ele>943.87</ele>
        <time>2021-08-02T09:58:36Z</time>
      </trkpt>
      <trkpt lat="42.30651" lon="0.40717">
        <ele>941.61</ele>
        <time>2021-08-02T09:58:48Z</time>
      </trkpt>
      <trkpt lat="42.30636" lon="0.40701">
        <ele>938.49</ele>
        <time>2021-08-02T09:58:58Z</time>
      </trkpt>
      <trkpt lat="42.30636" lon="0.40699">
        <ele>935.49</ele>
        <time>2021-08-02T09:59:28Z</time>
      </trkpt>
      <trkpt lat="42.30627" lon="0.40692">
        <ele>935.11</ele>
        <time>2021-08-02T10:00:27Z</time>
      </trkpt>
      <trkpt lat="42.30612" lon="0.40676">
        <ele>932.71</ele>
        <time>2021-08-02T10:00:39Z</time>
      </trkpt>
      <trkpt lat="42.30605" lon="0.40671">
        <ele>930.13</ele>
        <time>2021-08-02T10:00:52Z</time>
      </trkpt>
      <trkpt lat="42.30595" lon="0.40663">
        <ele>929.26</ele>
        <time>2021-08-02T10:00:59Z</time>
      </trkpt>
      <trkpt lat="42.30574" lon="0.40621">
        <ele>927.74</ele>
        <time>2021-08-02T10:01:12Z</time>
      </trkpt>
      <trkpt lat="42.30557" lon="0.40582">
        <ele>926.22</ele>
        <time>2021-08-02T10:01:21Z</time>
      </trkpt>
      <trkpt lat="42.30554" lon="0.40559">
        <ele>925.35</ele>
        <time>2021-08-02T10:01:25Z</time>
      </trkpt>
      <trkpt lat="42.30549" lon="0.40536">
        <ele>922.07</ele>
        <time>2021-08-02T10:01:37Z</time>
      </trkpt>
      <trkpt lat="42.30545" lon="0.40528">
        <ele>920.09</ele>
        <time>2021-08-02T10:02:05Z</time>
      </trkpt>
      <trkpt lat="42.30533" lon="0.40502">
        <ele>919.39</ele>
        <time>2021-08-02T10:02:18Z</time>
      </trkpt>
      <trkpt lat="42.30519" lon="0.40459">
        <ele>916.7</ele>
        <time>2021-08-02T10:02:35Z</time>
      </trkpt>
      <trkpt lat="42.30519" lon="0.40433">
        <ele>914.7</ele>
        <time>2021-08-02T10:02:47Z</time>
      </trkpt>
      <trkpt lat="42.30522" lon="0.40414">
        <ele>913.32</ele>
        <time>2021-08-02T10:03:01Z</time>
      </trkpt>
      <trkpt lat="42.3053" lon="0.40381">
        <ele>911.65</ele>
        <time>2021-08-02T10:03:13Z</time>
      </trkpt>
      <trkpt lat="42.30543" lon="0.40344">
        <ele>909.91</ele>
        <time>2021-08-02T10:03:25Z</time>
      </trkpt>
      <trkpt lat="42.30544" lon="0.40336">
        <ele>909.03</ele>
        <time>2021-08-02T10:03:28Z</time>
      </trkpt>
      <trkpt lat="42.30529" lon="0.40324">
        <ele>906.67</ele>
        <time>2021-08-02T10:03:40Z</time>
      </trkpt>
      <trkpt lat="42.30528" lon="0.40324">
        <ele>905.23</ele>
        <time>2021-08-02T10:04:03Z</time>
      </trkpt>
      <trkpt lat="42.30513" lon="0.4033">
        <ele>904.33</ele>
        <time>2021-08-02T10:04:16Z</time>
      </trkpt>
      <trkpt lat="42.30482" lon="0.40341">
        <ele>901.83</ele>
        <time>2021-08-02T10:04:28Z</time>
      </trkpt>
      <trkpt lat="42.30458" lon="0.4035">
        <ele>898.8</ele>
        <time>2021-08-02T10:04:38Z</time>
      </trkpt>
      <trkpt lat="42.3043" lon="0.40335">
        <ele>895.92</ele>
        <time>2021-08-02T10:04:51Z</time>
      </trkpt>
      <trkpt lat="42.30407" lon="0.40306">
        <ele>894.61</ele>
        <time>2021-08-02T10:04:57Z</time>
      </trkpt>
      <trkpt lat="42.30368" lon="0.40273">
        <ele>891.05</ele>
        <time>2021-08-02T10:05:08Z</time>
      </trkpt>
      <trkpt lat="42.3035" lon="0.40257">
        <ele>887.83</ele>
        <time>2021-08-02T10:05:18Z</time>
      </trkpt>
      <trkpt lat="42.30331" lon="0.40246">
        <ele>884.56</ele>
        <time>2021-08-02T10:05:29Z</time>
      </trkpt>
      <trkpt lat="42.30327" lon="0.40245">
        <ele>884.33</ele>
        <time>2021-08-02T10:05:30Z</time>
      </trkpt>
      <trkpt lat="42.30288" lon="0.40224">
        <ele>882.04</ele>
        <time>2021-08-02T10:05:39Z</time>
      </trkpt>
      <trkpt lat="42.30268" lon="0.40204">
        <ele>880.58</ele>
        <time>2021-08-02T10:05:44Z</time>
      </trkpt>
      <trkpt lat="42.30242" lon="0.40166">
        <ele>878.48</ele>
        <time>2021-08-02T10:05:51Z</time>
      </trkpt>
      <trkpt lat="42.30231" lon="0.40153">
        <ele>877.52</ele>
        <time>2021-08-02T10:05:54Z</time>
      </trkpt>
      <trkpt lat="42.30203" lon="0.40115">
        <ele>875.3</ele>
        <time>2021-08-02T10:06:05Z</time>
      </trkpt>
      <trkpt lat="42.30197" lon="0.401">
        <ele>874.54</ele>
        <time>2021-08-02T10:06:09Z</time>
      </trkpt>
      <trkpt lat="42.30188" lon="0.40089">
        <ele>873.9</ele>
        <time>2021-08-02T10:06:13Z</time>
      </trkpt>
      <trkpt lat="42.30182" lon="0.40082">
        <ele>873.51</ele>
        <time>2021-08-02T10:06:16Z</time>
      </trkpt>
      <trkpt lat="42.30162" lon="0.40039">
        <ele>871.09</ele>
        <time>2021-08-02T10:06:29Z</time>
      </trkpt>
      <trkpt lat="42.30143" lon="0.3998">
        <ele>868.12</ele>
        <time>2021-08-02T10:06:43Z</time>
      </trkpt>
      <trkpt lat="42.3012" lon="0.39936">
        <ele>865.51</ele>
        <time>2021-08-02T10:06:55Z</time>
      </trkpt>
      <trkpt lat="42.30094" lon="0.39881">
        <ele>862.95</ele>
        <time>2021-08-02T10:07:07Z</time>
      </trkpt>
      <trkpt lat="42.30087" lon="0.39851">
        <ele>860.83</ele>
        <time>2021-08-02T10:07:17Z</time>
      </trkpt>
      <trkpt lat="42.30075" lon="0.39804">
        <ele>857.77</ele>
        <time>2021-08-02T10:07:30Z</time>
      </trkpt>
      <trkpt lat="42.30061" lon="0.39776">
        <ele>855.33</ele>
        <time>2021-08-02T10:07:43Z</time>
      </trkpt>
      <trkpt lat="42.30057" lon="0.39768">
        <ele>854.37</ele>
        <time>2021-08-02T10:07:48Z</time>
      </trkpt>
      <trkpt lat="42.30038" lon="0.39739">
        <ele>851.66</ele>
        <time>2021-08-02T10:08:04Z</time>
      </trkpt>
      <trkpt lat="42.30035" lon="0.3973">
        <ele>850.13</ele>
        <time>2021-08-02T10:08:26Z</time>
      </trkpt>
      <trkpt lat="42.30021" lon="0.39694">
        <ele>849.18</ele>
        <time>2021-08-02T10:08:36Z</time>
      </trkpt>
      <trkpt lat="42.30015" lon="0.39656">
        <ele>846.92</ele>
        <time>2021-08-02T10:08:48Z</time>
      </trkpt>
      <trkpt lat="42.30015" lon="0.39654">
        <ele>846.73</ele>
        <time>2021-08-02T10:08:49Z</time>
      </trkpt>
      <trkpt lat="42.30012" lon="0.39604">
        <ele>843.73</ele>
        <time>2021-08-02T10:09:02Z</time>
      </trkpt>
      <trkpt lat="42.30013" lon="0.39551">
        <ele>841.73</ele>
        <time>2021-08-02T10:09:13Z</time>
      </trkpt>
      <trkpt lat="42.30013" lon="0.39544">
        <ele>841.56</ele>
        <time>2021-08-02T10:09:14Z</time>
      </trkpt>
      <trkpt lat="42.3002" lon="0.39517">
        <ele>840.9</ele>
        <time>2021-08-02T10:09:18Z</time>
      </trkpt>
      <trkpt lat="42.30032" lon="0.3949">
        <ele>840.33</ele>
        <time>2021-08-02T10:09:24Z</time>
      </trkpt>
      <trkpt lat="42.30033" lon="0.39472">
        <ele>840.39</ele>
        <time>2021-08-02T10:09:36Z</time>
      </trkpt>
      <trkpt lat="42.30042" lon="0.39438">
        <ele>842.79</ele>
        <time>2021-08-02T10:09:56Z</time>
      </trkpt>
      <trkpt lat="42.30049" lon="0.39419">
        <ele>843.03</ele>
        <time>2021-08-02T10:09:59Z</time>
      </trkpt>
      <trkpt lat="42.30053" lon="0.39383">
        <ele>842.68</ele>
        <time>2021-08-02T10:10:05Z</time>
      </trkpt>
      <trkpt lat="42.30057" lon="0.3932">
        <ele>841.18</ele>
        <time>2021-08-02T10:10:16Z</time>
      </trkpt>
      <trkpt lat="42.30082" lon="0.39283">
        <ele>842.72</ele>
        <time>2021-08-02T10:10:24Z</time>
      </trkpt>
      <trkpt lat="42.301" lon="0.39264">
        <ele>843.2</ele>
        <time>2021-08-02T10:10:32Z</time>
      </trkpt>
      <trkpt lat="42.30106" lon="0.39257">
        <ele>844.07</ele>
        <time>2021-08-02T10:10:48Z</time>
      </trkpt>
      <trkpt lat="42.30114" lon="0.39248">
        <ele>844.12</ele>
        <time>2021-08-02T10:11:00Z</time>
      </trkpt>
      <trkpt lat="42.30129" lon="0.39218">
        <ele>845.56</ele>
        <time>2021-08-02T10:11:09Z</time>
      </trkpt>
      <trkpt lat="42.30125" lon="0.39172">
        <ele>845.83</ele>
        <time>2021-08-02T10:11:19Z</time>
      </trkpt>
      <trkpt lat="42.30123" lon="0.39163">
        <ele>845.63</ele>
        <time>2021-08-02T10:11:21Z</time>
      </trkpt>
      <trkpt lat="42.30102" lon="0.39113">
        <ele>844.19</ele>
        <time>2021-08-02T10:11:29Z</time>
      </trkpt>
      <trkpt lat="42.30096" lon="0.39074">
        <ele>842.79</ele>
        <time>2021-08-02T10:11:34Z</time>
      </trkpt>
      <trkpt lat="42.30085" lon="0.39025">
        <ele>841.72</ele>
        <time>2021-08-02T10:11:45Z</time>
      </trkpt>
      <trkpt lat="42.30084" lon="0.38995">
        <ele>841.93</ele>
        <time>2021-08-02T10:11:49Z</time>
      </trkpt>
      <trkpt lat="42.30094" lon="0.38972">
        <ele>842.26</ele>
        <time>2021-08-02T10:11:53Z</time>
      </trkpt>
      <trkpt lat="42.30108" lon="0.38955">
        <ele>842.5</ele>
        <time>2021-08-02T10:11:56Z</time>
      </trkpt>
      <trkpt lat="42.30152" lon="0.3892">
        <ele>841.52</ele>
        <time>2021-08-02T10:12:03Z</time>
      </trkpt>
      <trkpt lat="42.30172" lon="0.38887">
        <ele>839.94</ele>
        <time>2021-08-02T10:12:07Z</time>
      </trkpt>
      <trkpt lat="42.30212" lon="0.3884">
        <ele>836.16</ele>
        <time>2021-08-02T10:12:14Z</time>
      </trkpt>
      <trkpt lat="42.30229" lon="0.38833">
        <ele>835.16</ele>
        <time>2021-08-02T10:12:16Z</time>
      </trkpt>
      <trkpt lat="42.30257" lon="0.38825">
        <ele>833.43</ele>
        <time>2021-08-02T10:12:19Z</time>
      </trkpt>
      <trkpt lat="42.30315" lon="0.38787">
        <ele>830.36</ele>
        <time>2021-08-02T10:12:26Z</time>
      </trkpt>
      <trkpt lat="42.30332" lon="0.38758">
        <ele>829.91</ele>
        <time>2021-08-02T10:12:29Z</time>
      </trkpt>
      <trkpt lat="42.30349" lon="0.38684">
        <ele>828.84</ele>
        <time>2021-08-02T10:12:36Z</time>
      </trkpt>
      <trkpt lat="42.30354" lon="0.38613">
        <ele>824.86</ele>
        <time>2021-08-02T10:12:43Z</time>
      </trkpt>
      <trkpt lat="42.30348" lon="0.38566">
        <ele>821.54</ele>
        <time>2021-08-02T10:12:48Z</time>
      </trkpt>
      <trkpt lat="42.3035" lon="0.38556">
        <ele>820.88</ele>
        <time>2021-08-02T10:12:49Z</time>
      </trkpt>
      <trkpt lat="42.3035" lon="0.38503">
        <ele>817.9</ele>
        <time>2021-08-02T10:12:54Z</time>
      </trkpt>
      <trkpt lat="42.30349" lon="0.38455">
        <ele>814.18</ele>
        <time>2021-08-02T10:12:59Z</time>
      </trkpt>
      <trkpt lat="42.30349" lon="0.38408">
        <ele>810.89</ele>
        <time>2021-08-02T10:13:03Z</time>
      </trkpt>
      <trkpt lat="42.30349" lon="0.38398">
        <ele>809.99</ele>
        <time>2021-08-02T10:13:04Z</time>
      </trkpt>
      <trkpt lat="42.30336" lon="0.38361">
        <ele>806.15</ele>
        <time>2021-08-02T10:13:08Z</time>
      </trkpt>
      <trkpt lat="42.30326" lon="0.38331">
        <ele>803.03</ele>
        <time>2021-08-02T10:13:11Z</time>
      </trkpt>
      <trkpt lat="42.30328" lon="0.38293">
        <ele>799.4</ele>
        <time>2021-08-02T10:13:15Z</time>
      </trkpt>
      <trkpt lat="42.30332" lon="0.38261">
        <ele>796.7</ele>
        <time>2021-08-02T10:13:18Z</time>
      </trkpt>
      <trkpt lat="42.30326" lon="0.38221">
        <ele>792.3</ele>
        <time>2021-08-02T10:13:22Z</time>
      </trkpt>
      <trkpt lat="42.30318" lon="0.3818">
        <ele>787.91</ele>
        <time>2021-08-02T10:13:26Z</time>
      </trkpt>
      <trkpt lat="42.30313" lon="0.38145">
        <ele>784.83</ele>
        <time>2021-08-02T10:13:29Z</time>
      </trkpt>
      <trkpt lat="42.30309" lon="0.38108">
        <ele>781.54</ele>
        <time>2021-08-02T10:13:32Z</time>
      </trkpt>
      <trkpt lat="42.30295" lon="0.38057">
        <ele>778.31</ele>
        <time>2021-08-02T10:13:36Z</time>
      </trkpt>
      <trkpt lat="42.30291" lon="0.38032">
        <ele>776.78</ele>
        <time>2021-08-02T10:13:38Z</time>
      </trkpt>
      <trkpt lat="42.30291" lon="0.37986">
        <ele>773.9</ele>
        <time>2021-08-02T10:13:42Z</time>
      </trkpt>
      <trkpt lat="42.30278" lon="0.3794">
        <ele>771.74</ele>
        <time>2021-08-02T10:13:46Z</time>
      </trkpt>
      <trkpt lat="42.3025" lon="0.37889">
        <ele>768.58</ele>
        <time>2021-08-02T10:13:51Z</time>
      </trkpt>
      <trkpt lat="42.30233" lon="0.37872">
        <ele>766.78</ele>
        <time>2021-08-02T10:13:55Z</time>
      </trkpt>
      <trkpt lat="42.30231" lon="0.37811">
        <ele>764.29</ele>
        <time>2021-08-02T10:14:02Z</time>
      </trkpt>
      <trkpt lat="42.30227" lon="0.37776">
        <ele>762.51</ele>
        <time>2021-08-02T10:14:05Z</time>
      </trkpt>
      <trkpt lat="42.30212" lon="0.37723">
        <ele>759.29</ele>
        <time>2021-08-02T10:14:10Z</time>
      </trkpt>
      <trkpt lat="42.30224" lon="0.37638">
        <ele>755.98</ele>
        <time>2021-08-02T10:14:18Z</time>
      </trkpt>
      <trkpt lat="42.3023" lon="0.37603">
        <ele>753.71</ele>
        <time>2021-08-02T10:14:21Z</time>
      </trkpt>
      <trkpt lat="42.30225" lon="0.37573">
        <ele>751.13</ele>
        <time>2021-08-02T10:14:24Z</time>
      </trkpt>
      <trkpt lat="42.30236" lon="0.37513">
        <ele>746.9</ele>
        <time>2021-08-02T10:14:30Z</time>
      </trkpt>
      <trkpt lat="42.30242" lon="0.37495">
        <ele>745.48</ele>
        <time>2021-08-02T10:14:32Z</time>
      </trkpt>
      <trkpt lat="42.30253" lon="0.37448">
        <ele>741.16</ele>
        <time>2021-08-02T10:14:37Z</time>
      </trkpt>
      <trkpt lat="42.3026" lon="0.37416">
        <ele>737.67</ele>
        <time>2021-08-02T10:14:40Z</time>
      </trkpt>
      <trkpt lat="42.30265" lon="0.3738">
        <ele>733.99</ele>
        <time>2021-08-02T10:14:43Z</time>
      </trkpt>
      <trkpt lat="42.30268" lon="0.37343">
        <ele>730.33</ele>
        <time>2021-08-02T10:14:46Z</time>
      </trkpt>
      <trkpt lat="42.30269" lon="0.37331">
        <ele>729.24</ele>
        <time>2021-08-02T10:14:47Z</time>
      </trkpt>
      <trkpt lat="42.30277" lon="0.37292">
        <ele>724.91</ele>
        <time>2021-08-02T10:14:51Z</time>
      </trkpt>
      <trkpt lat="42.30288" lon="0.37253">
        <ele>721.03</ele>
        <time>2021-08-02T10:14:55Z</time>
      </trkpt>
      <trkpt lat="42.303" lon="0.3721">
        <ele>717.23</ele>
        <time>2021-08-02T10:14:59Z</time>
      </trkpt>
      <trkpt lat="42.30306" lon="0.37183">
        <ele>713.72</ele>
        <time>2021-08-02T10:15:02Z</time>
      </trkpt>
      <trkpt lat="42.30308" lon="0.37175">
        <ele>712.5</ele>
        <time>2021-08-02T10:15:03Z</time>
      </trkpt>
      <trkpt lat="42.30308" lon="0.37147">
        <ele>707.91</ele>
        <time>2021-08-02T10:15:07Z</time>
      </trkpt>
      <trkpt lat="42.30321" lon="0.37112">
        <ele>702.9</ele>
        <time>2021-08-02T10:15:12Z</time>
      </trkpt>
      <trkpt lat="42.30331" lon="0.37082">
        <ele>698.88</ele>
        <time>2021-08-02T10:15:16Z</time>
      </trkpt>
      <trkpt lat="42.30336" lon="0.37058">
        <ele>695.61</ele>
        <time>2021-08-02T10:15:19Z</time>
      </trkpt>
      <trkpt lat="42.3034" lon="0.37036">
        <ele>692.22</ele>
        <time>2021-08-02T10:15:22Z</time>
      </trkpt>
      <trkpt lat="42.30343" lon="0.37018">
        <ele>689.07</ele>
        <time>2021-08-02T10:15:25Z</time>
      </trkpt>
      <trkpt lat="42.30343" lon="0.37007">
        <ele>686.97</ele>
        <time>2021-08-02T10:15:27Z</time>
      </trkpt>
      <trkpt lat="42.30357" lon="0.37014">
        <ele>682.26</ele>
        <time>2021-08-02T10:15:32Z</time>
      </trkpt>
      <trkpt lat="42.30358" lon="0.3703">
        <ele>680.4</ele>
        <time>2021-08-02T10:15:34Z</time>
      </trkpt>
      <trkpt lat="42.30363" lon="0.37068">
        <ele>675.92</ele>
        <time>2021-08-02T10:15:39Z</time>
      </trkpt>
      <trkpt lat="42.30365" lon="0.37093">
        <ele>672.34</ele>
        <time>2021-08-02T10:15:42Z</time>
      </trkpt>
      <trkpt lat="42.30365" lon="0.37127">
        <ele>668.6</ele>
        <time>2021-08-02T10:15:46Z</time>
      </trkpt>
      <trkpt lat="42.30366" lon="0.37135">
        <ele>667.68</ele>
        <time>2021-08-02T10:15:47Z</time>
      </trkpt>
      <trkpt lat="42.30382" lon="0.37145">
        <ele>663.15</ele>
        <time>2021-08-02T10:15:52Z</time>
      </trkpt>
      <trkpt lat="42.30385" lon="0.37139">
        <ele>662.27</ele>
        <time>2021-08-02T10:15:53Z</time>
      </trkpt>
      <trkpt lat="42.30399" lon="0.37099">
        <ele>657.24</ele>
        <time>2021-08-02T10:15:58Z</time>
      </trkpt>
      <trkpt lat="42.30401" lon="0.37092">
        <ele>656.03</ele>
        <time>2021-08-02T10:15:59Z</time>
      </trkpt>
      <trkpt lat="42.30404" lon="0.37077">
        <ele>653.7</ele>
        <time>2021-08-02T10:16:01Z</time>
      </trkpt>
      <trkpt lat="42.30406" lon="0.37041">
        <ele>648.79</ele>
        <time>2021-08-02T10:16:06Z</time>
      </trkpt>
      <trkpt lat="42.3041" lon="0.3698">
        <ele>646.07</ele>
        <time>2021-08-02T10:16:11Z</time>
      </trkpt>
      <trkpt lat="42.30388" lon="0.3689">
        <ele>642.57</ele>
        <time>2021-08-02T10:16:19Z</time>
      </trkpt>
      <trkpt lat="42.30372" lon="0.36842">
        <ele>639.48</ele>
        <time>2021-08-02T10:16:23Z</time>
      </trkpt>
      <trkpt lat="42.30366" lon="0.36818">
        <ele>636.79</ele>
        <time>2021-08-02T10:16:26Z</time>
      </trkpt>
      <trkpt lat="42.30385" lon="0.36833">
        <ele>632.32</ele>
        <time>2021-08-02T10:16:31Z</time>
      </trkpt>
      <trkpt lat="42.3041" lon="0.36834">
        <ele>629.02</ele>
        <time>2021-08-02T10:16:35Z</time>
      </trkpt>
      <trkpt lat="42.30408" lon="0.368">
        <ele>625.42</ele>
        <time>2021-08-02T10:16:39Z</time>
      </trkpt>
      <trkpt lat="42.3039" lon="0.36755">
        <ele>622.41</ele>
        <time>2021-08-02T10:16:43Z</time>
      </trkpt>
      <trkpt lat="42.30365" lon="0.36727">
        <ele>619.63</ele>
        <time>2021-08-02T10:16:46Z</time>
      </trkpt>
      <trkpt lat="42.30342" lon="0.36703">
        <ele>616.21</ele>
        <time>2021-08-02T10:16:49Z</time>
      </trkpt>
      <trkpt lat="42.30322" lon="0.36664">
        <ele>611.27</ele>
        <time>2021-08-02T10:16:53Z</time>
      </trkpt>
      <trkpt lat="42.30314" lon="0.36633">
        <ele>607.58</ele>
        <time>2021-08-02T10:16:56Z</time>
      </trkpt>
      <trkpt lat="42.3031" lon="0.36605">
        <ele>603.79</ele>
        <time>2021-08-02T10:16:59Z</time>
      </trkpt>
      <trkpt lat="42.30306" lon="0.36573">
        <ele>600.11</ele>
        <time>2021-08-02T10:17:02Z</time>
      </trkpt>
      <trkpt lat="42.30303" lon="0.36555">
        <ele>597.45</ele>
        <time>2021-08-02T10:17:04Z</time>
      </trkpt>
      <trkpt lat="42.30316" lon="0.36538">
        <ele>592.68</ele>
        <time>2021-08-02T10:17:08Z</time>
      </trkpt>
      <trkpt lat="42.30328" lon="0.36555">
        <ele>589.05</ele>
        <time>2021-08-02T10:17:11Z</time>
      </trkpt>
      <trkpt lat="42.30354" lon="0.36568">
        <ele>583.2</ele>
        <time>2021-08-02T10:17:18Z</time>
      </trkpt>
      <trkpt lat="42.30388" lon="0.36526">
        <ele>578.98</ele>
        <time>2021-08-02T10:17:25Z</time>
      </trkpt>
      <trkpt lat="42.30402" lon="0.36512">
        <ele>576.84</ele>
        <time>2021-08-02T10:17:28Z</time>
      </trkpt>
      <trkpt lat="42.30409" lon="0.36503">
        <ele>572.44</ele>
        <time>2021-08-02T10:17:34Z</time>
      </trkpt>
      <trkpt lat="42.30409" lon="0.36504">
        <ele>569.37</ele>
        <time>2021-08-02T10:17:45Z</time>
      </trkpt>
      <trkpt lat="42.30413" lon="0.36495">
        <ele>568.78</ele>
        <time>2021-08-02T10:17:57Z</time>
      </trkpt>
      <trkpt lat="42.30397" lon="0.36466">
        <ele>568.99</ele>
        <time>2021-08-02T10:18:02Z</time>
      </trkpt>
      <trkpt lat="42.30279" lon="0.3636">
        <ele>571.25</ele>
        <time>2021-08-02T10:18:11Z</time>
      </trkpt>
      <trkpt lat="42.30171" lon="0.36263">
        <ele>574.69</ele>
        <time>2021-08-02T10:18:17Z</time>
      </trkpt>
      <trkpt lat="42.30028" lon="0.36135">
        <ele>577.74</ele>
        <time>2021-08-02T10:18:24Z</time>
      </trkpt>
      <trkpt lat="42.2988" lon="0.36007">
        <ele>578.35</ele>
        <time>2021-08-02T10:18:32Z</time>
      </trkpt>
      <trkpt lat="42.29748" lon="0.35908">
        <ele>574.93</ele>
        <time>2021-08-02T10:18:39Z</time>
      </trkpt>
      <trkpt lat="42.29614" lon="0.35844">
        <ele>572.43</ele>
        <time>2021-08-02T10:18:46Z</time>
      </trkpt>
      <trkpt lat="42.29397" lon="0.35796">
        <ele>574.66</ele>
        <time>2021-08-02T10:18:56Z</time>
      </trkpt>
      <trkpt lat="42.29032" lon="0.35712">
        <ele>576.53</ele>
        <time>2021-08-02T10:19:12Z</time>
      </trkpt>
      <trkpt lat="42.28736" lon="0.35653">
        <ele>576.05</ele>
        <time>2021-08-02T10:19:25Z</time>
      </trkpt>
      <trkpt lat="42.2864" lon="0.35671">
        <ele>572.04</ele>
        <time>2021-08-02T10:19:30Z</time>
      </trkpt>
      <trkpt lat="42.28599" lon="0.35684">
        <ele>568.05</ele>
        <time>2021-08-02T10:19:33Z</time>
      </trkpt>
      <trkpt lat="42.28558" lon="0.35697">
        <ele>564.3</ele>
        <time>2021-08-02T10:19:36Z</time>
      </trkpt>
      <trkpt lat="42.28518" lon="0.3571">
        <ele>561.1</ele>
        <time>2021-08-02T10:19:39Z</time>
      </trkpt>
      <trkpt lat="42.28506" lon="0.35713">
        <ele>560.15</ele>
        <time>2021-08-02T10:19:40Z</time>
      </trkpt>
      <trkpt lat="42.28477" lon="0.35689">
        <ele>555.54</ele>
        <time>2021-08-02T10:19:45Z</time>
      </trkpt>
      <trkpt lat="42.28507" lon="0.35665">
        <ele>552.28</ele>
        <time>2021-08-02T10:19:49Z</time>
      </trkpt>
      <trkpt lat="42.28558" lon="0.35641">
        <ele>549.39</ele>
        <time>2021-08-02T10:19:54Z</time>
      </trkpt>
      <trkpt lat="42.28601" lon="0.35624">
        <ele>547.08</ele>
        <time>2021-08-02T10:19:58Z</time>
      </trkpt>
      <trkpt lat="42.28658" lon="0.35585">
        <ele>542.56</ele>
        <time>2021-08-02T10:20:04Z</time>
      </trkpt>
      <trkpt lat="42.28659" lon="0.3554">
        <ele>539.08</ele>
        <time>2021-08-02T10:20:09Z</time>
      </trkpt>
      <trkpt lat="42.28656" lon="0.35527">
        <ele>535.37</ele>
        <time>2021-08-02T10:20:18Z</time>
      </trkpt>
      <trkpt lat="42.28653" lon="0.35523">
        <ele>534.38</ele>
        <time>2021-08-02T10:20:35Z</time>
      </trkpt>
      <trkpt lat="42.28634" lon="0.35505">
        <ele>534.49</ele>
        <time>2021-08-02T10:20:42Z</time>
      </trkpt>
      <trkpt lat="42.28606" lon="0.35513">
        <ele>535.01</ele>
        <time>2021-08-02T10:20:49Z</time>
      </trkpt>
      <trkpt lat="42.286" lon="0.35521">
        <ele>535.28</ele>
        <time>2021-08-02T10:20:51Z</time>
      </trkpt>
      <trkpt lat="42.28598" lon="0.35534">
        <ele>535.93</ele>
        <time>2021-08-02T10:21:04Z</time>
      </trkpt>
      <trkpt lat="42.28598" lon="0.35534">
        <ele>536.37</ele>
        <time>2021-08-02T10:21:36Z</time>
      </trkpt>
      <trkpt lat="42.28592" lon="0.35543">
        <ele>535.72</ele>
        <time>2021-08-02T10:26:12Z</time>
      </trkpt>
      <trkpt lat="42.28598" lon="0.35533">
        <ele>535.72</ele>
        <time>2021-08-02T10:26:47Z</time>
      </trkpt>
      <trkpt lat="42.28584" lon="0.35532">
        <ele>537.79</ele>
        <time>2021-08-02T10:46:47Z</time>
      </trkpt>
      <trkpt lat="42.28584" lon="0.35528">
        <ele>537.79</ele>
        <time>2021-08-02T10:46:48Z</time>
      </trkpt>
      <trkpt lat="42.28595" lon="0.35532">
        <ele>537.79</ele>
        <time>2021-08-02T10:47:11Z</time>
      </trkpt>
      <trkpt lat="42.28595" lon="0.35534">
        <ele>537.79</ele>
        <time>2021-08-02T10:47:59Z</time>
      </trkpt>
      <trkpt lat="42.28591" lon="0.35526">
        <ele>537.49</ele>
        <time>2021-08-02T10:48:06Z</time>
      </trkpt>
      <trkpt lat="42.28606" lon="0.35507">
        <ele>537.33</ele>
        <time>2021-08-02T10:48:11Z</time>
      </trkpt>
      <trkpt lat="42.28615" lon="0.35494">
        <ele>537.34</ele>
        <time>2021-08-02T10:48:13Z</time>
      </trkpt>
      <trkpt lat="42.28623" lon="0.35479">
        <ele>537.34</ele>
        <time>2021-08-02T10:48:15Z</time>
      </trkpt>
      <trkpt lat="42.28656" lon="0.35432">
        <ele>536.2</ele>
        <time>2021-08-02T10:48:23Z</time>
      </trkpt>
      <trkpt lat="42.28663" lon="0.35407">
        <ele>536.63</ele>
        <time>2021-08-02T10:48:27Z</time>
      </trkpt>
      <trkpt lat="42.28676" lon="0.35366">
        <ele>540.17</ele>
        <time>2021-08-02T10:48:37Z</time>
      </trkpt>
      <trkpt lat="42.28673" lon="0.35279">
        <ele>543.09</ele>
        <time>2021-08-02T10:48:46Z</time>
      </trkpt>
      <trkpt lat="42.28664" lon="0.352">
        <ele>546.39</ele>
        <time>2021-08-02T10:48:53Z</time>
      </trkpt>
      <trkpt lat="42.28662" lon="0.35148">
        <ele>548.43</ele>
        <time>2021-08-02T10:48:58Z</time>
      </trkpt>
      <trkpt lat="42.28652" lon="0.35111">
        <ele>550.06</ele>
        <time>2021-08-02T10:49:02Z</time>
      </trkpt>
      <trkpt lat="42.28644" lon="0.35076">
        <ele>551.72</ele>
        <time>2021-08-02T10:49:06Z</time>
      </trkpt>
      <trkpt lat="42.28669" lon="0.3505">
        <ele>555.13</ele>
        <time>2021-08-02T10:49:12Z</time>
      </trkpt>
      <trkpt lat="42.28707" lon="0.35054">
        <ele>559.34</ele>
        <time>2021-08-02T10:49:17Z</time>
      </trkpt>
      <trkpt lat="42.28744" lon="0.35054">
        <ele>563.34</ele>
        <time>2021-08-02T10:49:21Z</time>
      </trkpt>
      <trkpt lat="42.28773" lon="0.35054">
        <ele>566.63</ele>
        <time>2021-08-02T10:49:24Z</time>
      </trkpt>
      <trkpt lat="42.28801" lon="0.35063">
        <ele>570.45</ele>
        <time>2021-08-02T10:49:28Z</time>
      </trkpt>
      <trkpt lat="42.28806" lon="0.35045">
        <ele>574.62</ele>
        <time>2021-08-02T10:49:33Z</time>
      </trkpt>
      <trkpt lat="42.28787" lon="0.35036">
        <ele>576.96</ele>
        <time>2021-08-02T10:49:36Z</time>
      </trkpt>
      <trkpt lat="42.28769" lon="0.35029">
        <ele>579.13</ele>
        <time>2021-08-02T10:49:39Z</time>
      </trkpt>
      <trkpt lat="42.28747" lon="0.35026">
        <ele>581.17</ele>
        <time>2021-08-02T10:49:42Z</time>
      </trkpt>
      <trkpt lat="42.28684" lon="0.35014">
        <ele>584.94</ele>
        <time>2021-08-02T10:49:48Z</time>
      </trkpt>
      <trkpt lat="42.2865" lon="0.35003">
        <ele>586.46</ele>
        <time>2021-08-02T10:49:51Z</time>
      </trkpt>
      <trkpt lat="42.28623" lon="0.35002">
        <ele>587.09</ele>
        <time>2021-08-02T10:49:54Z</time>
      </trkpt>
      <trkpt lat="42.28538" lon="0.34999">
        <ele>590.13</ele>
        <time>2021-08-02T10:50:02Z</time>
      </trkpt>
      <trkpt lat="42.28527" lon="0.34999">
        <ele>590.51</ele>
        <time>2021-08-02T10:50:03Z</time>
      </trkpt>
      <trkpt lat="42.28493" lon="0.34993">
        <ele>591.56</ele>
        <time>2021-08-02T10:50:07Z</time>
      </trkpt>
      <trkpt lat="42.28441" lon="0.35006">
        <ele>594.9</ele>
        <time>2021-08-02T10:50:18Z</time>
      </trkpt>
      <trkpt lat="42.2841" lon="0.3502">
        <ele>598.36</ele>
        <time>2021-08-02T10:50:24Z</time>
      </trkpt>
      <trkpt lat="42.28377" lon="0.35037">
        <ele>601.74</ele>
        <time>2021-08-02T10:50:29Z</time>
      </trkpt>
      <trkpt lat="42.28349" lon="0.3505">
        <ele>605.29</ele>
        <time>2021-08-02T10:50:33Z</time>
      </trkpt>
      <trkpt lat="42.28338" lon="0.35056">
        <ele>607.27</ele>
        <time>2021-08-02T10:50:35Z</time>
      </trkpt>
      <trkpt lat="42.28323" lon="0.35051">
        <ele>611.74</ele>
        <time>2021-08-02T10:50:40Z</time>
      </trkpt>
      <trkpt lat="42.28338" lon="0.35031">
        <ele>614.95</ele>
        <time>2021-08-02T10:50:44Z</time>
      </trkpt>
      <trkpt lat="42.2835" lon="0.35022">
        <ele>616.36</ele>
        <time>2021-08-02T10:50:46Z</time>
      </trkpt>
      <trkpt lat="42.28398" lon="0.34964">
        <ele>619.65</ele>
        <time>2021-08-02T10:50:52Z</time>
      </trkpt>
      <trkpt lat="42.28465" lon="0.34886">
        <ele>620.35</ele>
        <time>2021-08-02T10:51:00Z</time>
      </trkpt>
      <trkpt lat="42.28481" lon="0.34848">
        <ele>620.56</ele>
        <time>2021-08-02T10:51:04Z</time>
      </trkpt>
      <trkpt lat="42.28508" lon="0.34817">
        <ele>622.87</ele>
        <time>2021-08-02T10:51:11Z</time>
      </trkpt>
      <trkpt lat="42.28522" lon="0.34814">
        <ele>623.96</ele>
        <time>2021-08-02T10:51:13Z</time>
      </trkpt>
      <trkpt lat="42.28547" lon="0.34772">
        <ele>628.37</ele>
        <time>2021-08-02T10:51:19Z</time>
      </trkpt>
      <trkpt lat="42.28526" lon="0.34743">
        <ele>632.37</ele>
        <time>2021-08-02T10:51:23Z</time>
      </trkpt>
      <trkpt lat="42.28517" lon="0.34712">
        <ele>636.23</ele>
        <time>2021-08-02T10:51:27Z</time>
      </trkpt>
      <trkpt lat="42.28527" lon="0.34688">
        <ele>639.38</ele>
        <time>2021-08-02T10:51:30Z</time>
      </trkpt>
      <trkpt lat="42.28532" lon="0.34681">
        <ele>640.5</ele>
        <time>2021-08-02T10:51:31Z</time>
      </trkpt>
      <trkpt lat="42.28545" lon="0.34635">
        <ele>646.04</ele>
        <time>2021-08-02T10:51:36Z</time>
      </trkpt>
      <trkpt lat="42.28546" lon="0.34626">
        <ele>648.25</ele>
        <time>2021-08-02T10:51:37Z</time>
      </trkpt>
      <trkpt lat="42.2856" lon="0.34593">
        <ele>652.79</ele>
        <time>2021-08-02T10:51:41Z</time>
      </trkpt>
      <trkpt lat="42.28554" lon="0.3455">
        <ele>657.34</ele>
        <time>2021-08-02T10:51:47Z</time>
      </trkpt>
      <trkpt lat="42.28545" lon="0.34534">
        <ele>658.78</ele>
        <time>2021-08-02T10:51:49Z</time>
      </trkpt>
      <trkpt lat="42.28532" lon="0.34502">
        <ele>661.19</ele>
        <time>2021-08-02T10:51:52Z</time>
      </trkpt>
      <trkpt lat="42.28527" lon="0.34449">
        <ele>663.53</ele>
        <time>2021-08-02T10:51:56Z</time>
      </trkpt>
      <trkpt lat="42.28547" lon="0.34338">
        <ele>667.16</ele>
        <time>2021-08-02T10:52:04Z</time>
      </trkpt>
      <trkpt lat="42.28594" lon="0.34247">
        <ele>670.63</ele>
        <time>2021-08-02T10:52:12Z</time>
      </trkpt>
      <trkpt lat="42.28601" lon="0.34237">
        <ele>671.31</ele>
        <time>2021-08-02T10:52:13Z</time>
      </trkpt>
      <trkpt lat="42.28645" lon="0.34205">
        <ele>675.1</ele>
        <time>2021-08-02T10:52:18Z</time>
      </trkpt>
      <trkpt lat="42.28653" lon="0.34196">
        <ele>675.99</ele>
        <time>2021-08-02T10:52:19Z</time>
      </trkpt>
      <trkpt lat="42.28678" lon="0.34171">
        <ele>679.04</ele>
        <time>2021-08-02T10:52:22Z</time>
      </trkpt>
      <trkpt lat="42.28691" lon="0.34156">
        <ele>681.73</ele>
        <time>2021-08-02T10:52:24Z</time>
      </trkpt>
      <trkpt lat="42.28712" lon="0.34156">
        <ele>687.24</ele>
        <time>2021-08-02T10:52:28Z</time>
      </trkpt>
      <trkpt lat="42.28707" lon="0.34183">
        <ele>690.91</ele>
        <time>2021-08-02T10:52:31Z</time>
      </trkpt>
      <trkpt lat="42.28703" lon="0.34209">
        <ele>693.16</ele>
        <time>2021-08-02T10:52:33Z</time>
      </trkpt>
      <trkpt lat="42.2868" lon="0.34271">
        <ele>697.74</ele>
        <time>2021-08-02T10:52:38Z</time>
      </trkpt>
      <trkpt lat="42.28677" lon="0.34299">
        <ele>699.68</ele>
        <time>2021-08-02T10:52:40Z</time>
      </trkpt>
      <trkpt lat="42.28675" lon="0.34327">
        <ele>701.68</ele>
        <time>2021-08-02T10:52:42Z</time>
      </trkpt>
      <trkpt lat="42.28667" lon="0.34369">
        <ele>706.03</ele>
        <time>2021-08-02T10:52:46Z</time>
      </trkpt>
      <trkpt lat="42.28674" lon="0.34399">
        <ele>709.35</ele>
        <time>2021-08-02T10:52:49Z</time>
      </trkpt>
      <trkpt lat="42.28671" lon="0.34436">
        <ele>712.56</ele>
        <time>2021-08-02T10:52:52Z</time>
      </trkpt>
      <trkpt lat="42.28668" lon="0.34447">
        <ele>713.69</ele>
        <time>2021-08-02T10:52:53Z</time>
      </trkpt>
      <trkpt lat="42.28661" lon="0.34476">
        <ele>718.46</ele>
        <time>2021-08-02T10:52:57Z</time>
      </trkpt>
      <trkpt lat="42.28662" lon="0.34512">
        <ele>722.78</ele>
        <time>2021-08-02T10:53:01Z</time>
      </trkpt>
      <trkpt lat="42.28678" lon="0.34521">
        <ele>726.06</ele>
        <time>2021-08-02T10:53:04Z</time>
      </trkpt>
      <trkpt lat="42.28683" lon="0.34515">
        <ele>727.16</ele>
        <time>2021-08-02T10:53:05Z</time>
      </trkpt>
      <trkpt lat="42.28694" lon="0.34499">
        <ele>729.36</ele>
        <time>2021-08-02T10:53:07Z</time>
      </trkpt>
      <trkpt lat="42.28725" lon="0.34463">
        <ele>733.8</ele>
        <time>2021-08-02T10:53:11Z</time>
      </trkpt>
      <trkpt lat="42.28732" lon="0.34453">
        <ele>735.02</ele>
        <time>2021-08-02T10:53:12Z</time>
      </trkpt>
      <trkpt lat="42.28755" lon="0.34421">
        <ele>741.51</ele>
        <time>2021-08-02T10:53:16Z</time>
      </trkpt>
      <trkpt lat="42.28764" lon="0.34413">
        <ele>744.61</ele>
        <time>2021-08-02T10:53:18Z</time>
      </trkpt>
      <trkpt lat="42.28771" lon="0.34404">
        <ele>748.78</ele>
        <time>2021-08-02T10:53:21Z</time>
      </trkpt>
      <trkpt lat="42.28783" lon="0.3439">
        <ele>752.25</ele>
        <time>2021-08-02T10:53:24Z</time>
      </trkpt>
      <trkpt lat="42.28796" lon="0.34375">
        <ele>755.68</ele>
        <time>2021-08-02T10:53:27Z</time>
      </trkpt>
      <trkpt lat="42.28807" lon="0.34358">
        <ele>758.93</ele>
        <time>2021-08-02T10:53:30Z</time>
      </trkpt>
      <trkpt lat="42.2882" lon="0.3434">
        <ele>762.52</ele>
        <time>2021-08-02T10:53:33Z</time>
      </trkpt>
      <trkpt lat="42.28828" lon="0.34325">
        <ele>764.89</ele>
        <time>2021-08-02T10:53:35Z</time>
      </trkpt>
      <trkpt lat="42.28837" lon="0.34311">
        <ele>767.08</ele>
        <time>2021-08-02T10:53:37Z</time>
      </trkpt>
      <trkpt lat="42.28851" lon="0.34281">
        <ele>772</ele>
        <time>2021-08-02T10:53:41Z</time>
      </trkpt>
      <trkpt lat="42.28856" lon="0.34264">
        <ele>774.44</ele>
        <time>2021-08-02T10:53:43Z</time>
      </trkpt>
      <trkpt lat="42.28895" lon="0.34219">
        <ele>778.85</ele>
        <time>2021-08-02T10:53:48Z</time>
      </trkpt>
      <trkpt lat="42.28905" lon="0.34217">
        <ele>779.28</ele>
        <time>2021-08-02T10:53:49Z</time>
      </trkpt>
      <trkpt lat="42.28961" lon="0.34202">
        <ele>780.6</ele>
        <time>2021-08-02T10:53:54Z</time>
      </trkpt>
      <trkpt lat="42.29019" lon="0.34212">
        <ele>784.82</ele>
        <time>2021-08-02T10:54:00Z</time>
      </trkpt>
      <trkpt lat="42.29033" lon="0.34242">
        <ele>788.07</ele>
        <time>2021-08-02T10:54:03Z</time>
      </trkpt>
      <trkpt lat="42.29059" lon="0.34257">
        <ele>791.31</ele>
        <time>2021-08-02T10:54:06Z</time>
      </trkpt>
      <trkpt lat="42.29091" lon="0.34293">
        <ele>794.79</ele>
        <time>2021-08-02T10:54:10Z</time>
      </trkpt>
      <trkpt lat="42.29096" lon="0.34306">
        <ele>795.74</ele>
        <time>2021-08-02T10:54:11Z</time>
      </trkpt>
      <trkpt lat="42.29129" lon="0.34343">
        <ele>801.22</ele>
        <time>2021-08-02T10:54:16Z</time>
      </trkpt>
      <trkpt lat="42.29152" lon="0.34356">
        <ele>804.48</ele>
        <time>2021-08-02T10:54:19Z</time>
      </trkpt>
      <trkpt lat="42.29161" lon="0.34363">
        <ele>805.63</ele>
        <time>2021-08-02T10:54:20Z</time>
      </trkpt>
      <trkpt lat="42.29179" lon="0.34377">
        <ele>808.09</ele>
        <time>2021-08-02T10:54:22Z</time>
      </trkpt>
      <trkpt lat="42.29206" lon="0.34363">
        <ele>812.85</ele>
        <time>2021-08-02T10:54:26Z</time>
      </trkpt>
      <trkpt lat="42.292" lon="0.3432">
        <ele>816.42</ele>
        <time>2021-08-02T10:54:29Z</time>
      </trkpt>
      <trkpt lat="42.29198" lon="0.34274">
        <ele>819.76</ele>
        <time>2021-08-02T10:54:32Z</time>
      </trkpt>
      <trkpt lat="42.29213" lon="0.34224">
        <ele>823.48</ele>
        <time>2021-08-02T10:54:36Z</time>
      </trkpt>
      <trkpt lat="42.29253" lon="0.34199">
        <ele>826.55</ele>
        <time>2021-08-02T10:54:40Z</time>
      </trkpt>
      <trkpt lat="42.29302" lon="0.34183">
        <ele>830.17</ele>
        <time>2021-08-02T10:54:44Z</time>
      </trkpt>
      <trkpt lat="42.29325" lon="0.34159">
        <ele>832.27</ele>
        <time>2021-08-02T10:54:46Z</time>
      </trkpt>
      <trkpt lat="42.29368" lon="0.34108">
        <ele>836.44</ele>
        <time>2021-08-02T10:54:50Z</time>
      </trkpt>
      <trkpt lat="42.29393" lon="0.34053">
        <ele>841.41</ele>
        <time>2021-08-02T10:54:54Z</time>
      </trkpt>
      <trkpt lat="42.29399" lon="0.34041">
        <ele>842.32</ele>
        <time>2021-08-02T10:54:55Z</time>
      </trkpt>
      <trkpt lat="42.29436" lon="0.33992">
        <ele>846.28</ele>
        <time>2021-08-02T10:54:59Z</time>
      </trkpt>
      <trkpt lat="42.29457" lon="0.33968">
        <ele>847.84</ele>
        <time>2021-08-02T10:55:01Z</time>
      </trkpt>
      <trkpt lat="42.29506" lon="0.3386">
        <ele>849.65</ele>
        <time>2021-08-02T10:55:08Z</time>
      </trkpt>
      <trkpt lat="42.29514" lon="0.33815">
        <ele>849.57</ele>
        <time>2021-08-02T10:55:11Z</time>
      </trkpt>
      <trkpt lat="42.29545" lon="0.33746">
        <ele>848.46</ele>
        <time>2021-08-02T10:55:16Z</time>
      </trkpt>
      <trkpt lat="42.29601" lon="0.33609">
        <ele>844.65</ele>
        <time>2021-08-02T10:55:25Z</time>
      </trkpt>
      <trkpt lat="42.29606" lon="0.33594">
        <ele>844.25</ele>
        <time>2021-08-02T10:55:26Z</time>
      </trkpt>
      <trkpt lat="42.29641" lon="0.33552">
        <ele>842.23</ele>
        <time>2021-08-02T10:55:31Z</time>
      </trkpt>
      <trkpt lat="42.29738" lon="0.33526">
        <ele>841.28</ele>
        <time>2021-08-02T10:55:38Z</time>
      </trkpt>
      <trkpt lat="42.29766" lon="0.33521">
        <ele>841.32</ele>
        <time>2021-08-02T10:55:40Z</time>
      </trkpt>
      <trkpt lat="42.29807" lon="0.3354">
        <ele>841.65</ele>
        <time>2021-08-02T10:55:44Z</time>
      </trkpt>
      <trkpt lat="42.29838" lon="0.3357">
        <ele>842.18</ele>
        <time>2021-08-02T10:55:47Z</time>
      </trkpt>
      <trkpt lat="42.29914" lon="0.33581">
        <ele>843.66</ele>
        <time>2021-08-02T10:55:53Z</time>
      </trkpt>
      <trkpt lat="42.29939" lon="0.33575">
        <ele>844.18</ele>
        <time>2021-08-02T10:55:55Z</time>
      </trkpt>
      <trkpt lat="42.30001" lon="0.33583">
        <ele>844.68</ele>
        <time>2021-08-02T10:56:00Z</time>
      </trkpt>
      <trkpt lat="42.30039" lon="0.33585">
        <ele>844.43</ele>
        <time>2021-08-02T10:56:03Z</time>
      </trkpt>
      <trkpt lat="42.30078" lon="0.33571">
        <ele>843.55</ele>
        <time>2021-08-02T10:56:08Z</time>
      </trkpt>
      <trkpt lat="42.30107" lon="0.3352">
        <ele>841.97</ele>
        <time>2021-08-02T10:56:13Z</time>
      </trkpt>
      <trkpt lat="42.3015" lon="0.33504">
        <ele>840.74</ele>
        <time>2021-08-02T10:56:19Z</time>
      </trkpt>
      <trkpt lat="42.30189" lon="0.33505">
        <ele>841.04</ele>
        <time>2021-08-02T10:56:23Z</time>
      </trkpt>
      <trkpt lat="42.30238" lon="0.33466">
        <ele>842.42</ele>
        <time>2021-08-02T10:56:29Z</time>
      </trkpt>
      <trkpt lat="42.30259" lon="0.3346">
        <ele>843.1</ele>
        <time>2021-08-02T10:56:31Z</time>
      </trkpt>
      <trkpt lat="42.30314" lon="0.33439">
        <ele>843.57</ele>
        <time>2021-08-02T10:56:36Z</time>
      </trkpt>
      <trkpt lat="42.30398" lon="0.33359">
        <ele>841.75</ele>
        <time>2021-08-02T10:56:44Z</time>
      </trkpt>
      <trkpt lat="42.30418" lon="0.33339">
        <ele>841.13</ele>
        <time>2021-08-02T10:56:46Z</time>
      </trkpt>
      <trkpt lat="42.30445" lon="0.33287">
        <ele>839.94</ele>
        <time>2021-08-02T10:56:50Z</time>
      </trkpt>
      <trkpt lat="42.30453" lon="0.33262">
        <ele>839.24</ele>
        <time>2021-08-02T10:56:52Z</time>
      </trkpt>
      <trkpt lat="42.30454" lon="0.33176">
        <ele>836.95</ele>
        <time>2021-08-02T10:56:58Z</time>
      </trkpt>
      <trkpt lat="42.30465" lon="0.33095">
        <ele>835.45</ele>
        <time>2021-08-02T10:57:05Z</time>
      </trkpt>
      <trkpt lat="42.30486" lon="0.33087">
        <ele>834.35</ele>
        <time>2021-08-02T10:57:09Z</time>
      </trkpt>
      <trkpt lat="42.30572" lon="0.33116">
        <ele>834.31</ele>
        <time>2021-08-02T10:57:18Z</time>
      </trkpt>
      <trkpt lat="42.30642" lon="0.33136">
        <ele>835.16</ele>
        <time>2021-08-02T10:57:26Z</time>
      </trkpt>
      <trkpt lat="42.307" lon="0.33104">
        <ele>835.68</ele>
        <time>2021-08-02T10:57:34Z</time>
      </trkpt>
      <trkpt lat="42.30823" lon="0.33037">
        <ele>838.32</ele>
        <time>2021-08-02T10:57:46Z</time>
      </trkpt>
      <trkpt lat="42.30845" lon="0.33025">
        <ele>838.86</ele>
        <time>2021-08-02T10:57:48Z</time>
      </trkpt>
      <trkpt lat="42.30879" lon="0.32994">
        <ele>839.32</ele>
        <time>2021-08-02T10:57:51Z</time>
      </trkpt>
      <trkpt lat="42.3094" lon="0.32941">
        <ele>840.66</ele>
        <time>2021-08-02T10:57:57Z</time>
      </trkpt>
      <trkpt lat="42.30966" lon="0.32897">
        <ele>840.86</ele>
        <time>2021-08-02T10:58:01Z</time>
      </trkpt>
      <trkpt lat="42.31005" lon="0.32851">
        <ele>840.63</ele>
        <time>2021-08-02T10:58:06Z</time>
      </trkpt>
      <trkpt lat="42.31016" lon="0.3283">
        <ele>840.56</ele>
        <time>2021-08-02T10:58:08Z</time>
      </trkpt>
      <trkpt lat="42.31051" lon="0.32801">
        <ele>840.54</ele>
        <time>2021-08-02T10:58:12Z</time>
      </trkpt>
      <trkpt lat="42.31092" lon="0.32747">
        <ele>839.2</ele>
        <time>2021-08-02T10:58:19Z</time>
      </trkpt>
      <trkpt lat="42.31106" lon="0.32731">
        <ele>836.05</ele>
        <time>2021-08-02T10:58:27Z</time>
      </trkpt>
      <trkpt lat="42.3111" lon="0.32729">
        <ele>834.67</ele>
        <time>2021-08-02T10:58:49Z</time>
      </trkpt>
      <trkpt lat="42.31114" lon="0.32728">
        <ele>834.67</ele>
        <time>2021-08-02T10:58:51Z</time>
      </trkpt>
      <trkpt lat="42.31122" lon="0.32736">
        <ele>834.76</ele>
        <time>2021-08-02T10:59:05Z</time>
      </trkpt>
      <trkpt lat="42.31122" lon="0.32734">
        <ele>834.61</ele>
        <time>2021-08-02T10:59:22Z</time>
      </trkpt>
      <trkpt lat="42.31129" lon="0.32736">
        <ele>834.44</ele>
        <time>2021-08-02T10:59:38Z</time>
      </trkpt>
      <trkpt lat="42.31128" lon="0.32735">
        <ele>834.47</ele>
        <time>2021-08-02T10:59:59Z</time>
      </trkpt>
      <trkpt lat="42.31128" lon="0.32735">
        <ele>834.68</ele>
        <time>2021-08-02T11:00:24Z</time>
      </trkpt>
      <trkpt lat="42.31128" lon="0.32733">
        <ele>835.37</ele>
        <time>2021-08-02T11:01:21Z</time>
      </trkpt>
      <trkpt lat="42.31128" lon="0.32732">
        <ele>834.81</ele>
        <time>2021-08-02T11:01:31Z</time>
      </trkpt>
      <trkpt lat="42.31118" lon="0.32729">
        <ele>834.83</ele>
        <time>2021-08-02T11:02:08Z</time>
      </trkpt>
      <trkpt lat="42.31119" lon="0.3273">
        <ele>834.76</ele>
        <time>2021-08-02T11:02:11Z</time>
      </trkpt>
      <trkpt lat="42.31117" lon="0.32766">
        <ele>835.77</ele>
        <time>2021-08-02T11:02:17Z</time>
      </trkpt>
      <trkpt lat="42.31114" lon="0.32787">
        <ele>836.3</ele>
        <time>2021-08-02T11:02:19Z</time>
      </trkpt>
      <trkpt lat="42.31094" lon="0.32884">
        <ele>840.17</ele>
        <time>2021-08-02T11:02:27Z</time>
      </trkpt>
      <trkpt lat="42.31092" lon="0.32966">
        <ele>843.98</ele>
        <time>2021-08-02T11:02:33Z</time>
      </trkpt>
      <trkpt lat="42.31095" lon="0.33058">
        <ele>847.18</ele>
        <time>2021-08-02T11:02:38Z</time>
      </trkpt>
      <trkpt lat="42.31093" lon="0.33116">
        <ele>849.87</ele>
        <time>2021-08-02T11:02:41Z</time>
      </trkpt>
      <trkpt lat="42.31101" lon="0.33178">
        <ele>852.42</ele>
        <time>2021-08-02T11:02:45Z</time>
      </trkpt>
      <trkpt lat="42.31155" lon="0.33294">
        <ele>855.06</ele>
        <time>2021-08-02T11:02:54Z</time>
      </trkpt>
      <trkpt lat="42.31176" lon="0.33341">
        <ele>855.58</ele>
        <time>2021-08-02T11:02:58Z</time>
      </trkpt>
      <trkpt lat="42.31144" lon="0.33393">
        <ele>854.96</ele>
        <time>2021-08-02T11:03:05Z</time>
      </trkpt>
      <trkpt lat="42.31137" lon="0.33403">
        <ele>855.07</ele>
        <time>2021-08-02T11:03:06Z</time>
      </trkpt>
      <trkpt lat="42.31109" lon="0.33449">
        <ele>856.36</ele>
        <time>2021-08-02T11:03:10Z</time>
      </trkpt>
      <trkpt lat="42.31067" lon="0.33531">
        <ele>860.19</ele>
        <time>2021-08-02T11:03:17Z</time>
      </trkpt>
      <trkpt lat="42.31084" lon="0.33616">
        <ele>862.14</ele>
        <time>2021-08-02T11:03:22Z</time>
      </trkpt>
      <trkpt lat="42.31092" lon="0.3363">
        <ele>862.66</ele>
        <time>2021-08-02T11:03:23Z</time>
      </trkpt>
      <trkpt lat="42.31105" lon="0.33713">
        <ele>864.85</ele>
        <time>2021-08-02T11:03:29Z</time>
      </trkpt>
      <trkpt lat="42.31142" lon="0.33808">
        <ele>867.2</ele>
        <time>2021-08-02T11:03:36Z</time>
      </trkpt>
      <trkpt lat="42.31201" lon="0.33829">
        <ele>866.56</ele>
        <time>2021-08-02T11:03:42Z</time>
      </trkpt>
      <trkpt lat="42.31246" lon="0.33892">
        <ele>865.92</ele>
        <time>2021-08-02T11:03:48Z</time>
      </trkpt>
      <trkpt lat="42.31248" lon="0.33903">
        <ele>865.97</ele>
        <time>2021-08-02T11:03:49Z</time>
      </trkpt>
      <trkpt lat="42.31277" lon="0.33941">
        <ele>867.48</ele>
        <time>2021-08-02T11:03:54Z</time>
      </trkpt>
      <trkpt lat="42.31296" lon="0.33953">
        <ele>868.16</ele>
        <time>2021-08-02T11:03:56Z</time>
      </trkpt>
      <trkpt lat="42.3131" lon="0.33996">
        <ele>869.06</ele>
        <time>2021-08-02T11:04:00Z</time>
      </trkpt>
      <trkpt lat="42.31311" lon="0.34048">
        <ele>870.16</ele>
        <time>2021-08-02T11:04:04Z</time>
      </trkpt>
      <trkpt lat="42.31298" lon="0.34106">
        <ele>871.44</ele>
        <time>2021-08-02T11:04:08Z</time>
      </trkpt>
      <trkpt lat="42.31256" lon="0.34139">
        <ele>871.98</ele>
        <time>2021-08-02T11:04:13Z</time>
      </trkpt>
      <trkpt lat="42.31214" lon="0.34113">
        <ele>872.69</ele>
        <time>2021-08-02T11:04:17Z</time>
      </trkpt>
      <trkpt lat="42.31184" lon="0.34094">
        <ele>873.09</ele>
        <time>2021-08-02T11:04:22Z</time>
      </trkpt>
      <trkpt lat="42.31183" lon="0.34093">
        <ele>874.54</ele>
        <time>2021-08-02T11:04:35Z</time>
      </trkpt>
      <trkpt lat="42.3118" lon="0.34093">
        <ele>874.64</ele>
        <time>2021-08-02T11:04:38Z</time>
      </trkpt>
      <trkpt lat="42.31178" lon="0.34103">
        <ele>875.17</ele>
        <time>2021-08-02T11:04:51Z</time>
      </trkpt>
      <trkpt lat="42.31179" lon="0.34105">
        <ele>875.43</ele>
        <time>2021-08-02T11:05:15Z</time>
      </trkpt>
      <trkpt lat="42.31179" lon="0.34118">
        <ele>875.55</ele>
        <time>2021-08-02T11:05:57Z</time>
      </trkpt>
      <trkpt lat="42.31179" lon="0.34119">
        <ele>875.6</ele>
        <time>2021-08-02T11:05:58Z</time>
      </trkpt>
      <trkpt lat="42.3118" lon="0.3411">
        <ele>875.9</ele>
        <time>2021-08-02T11:06:11Z</time>
      </trkpt>
      <trkpt lat="42.31197" lon="0.34152">
        <ele>876.39</ele>
        <time>2021-08-02T11:06:24Z</time>
      </trkpt>
      <trkpt lat="42.31221" lon="0.34186">
        <ele>877.16</ele>
        <time>2021-08-02T11:06:33Z</time>
      </trkpt>
      <trkpt lat="42.31236" lon="0.34191">
        <ele>877.52</ele>
        <time>2021-08-02T11:06:37Z</time>
      </trkpt>
      <trkpt lat="42.31244" lon="0.3419">
        <ele>877.85</ele>
        <time>2021-08-02T11:06:39Z</time>
      </trkpt>
      <trkpt lat="42.31284" lon="0.34199">
        <ele>878.23</ele>
        <time>2021-08-02T11:06:47Z</time>
      </trkpt>
      <trkpt lat="42.31329" lon="0.34214">
        <ele>878.36</ele>
        <time>2021-08-02T11:06:55Z</time>
      </trkpt>
      <trkpt lat="42.31348" lon="0.34195">
        <ele>879.04</ele>
        <time>2021-08-02T11:07:03Z</time>
      </trkpt>
      <trkpt lat="42.31347" lon="0.34178">
        <ele>880.66</ele>
        <time>2021-08-02T11:07:13Z</time>
      </trkpt>
      <trkpt lat="42.31347" lon="0.34178">
        <ele>881.13</ele>
        <time>2021-08-02T11:07:36Z</time>
      </trkpt>
      <trkpt lat="42.31352" lon="0.34165">
        <ele>881.31</ele>
        <time>2021-08-02T11:07:40Z</time>
      </trkpt>
      <trkpt lat="42.31383" lon="0.3416">
        <ele>882.03</ele>
        <time>2021-08-02T11:07:48Z</time>
      </trkpt>
      <trkpt lat="42.31413" lon="0.34174">
        <ele>884.81</ele>
        <time>2021-08-02T11:08:01Z</time>
      </trkpt>
      <trkpt lat="42.31425" lon="0.34173">
        <ele>885.37</ele>
        <time>2021-08-02T11:08:04Z</time>
      </trkpt>
      <trkpt lat="42.31439" lon="0.34184">
        <ele>886.62</ele>
        <time>2021-08-02T11:08:08Z</time>
      </trkpt>
      <trkpt lat="42.31464" lon="0.34197">
        <ele>890.22</ele>
        <time>2021-08-02T11:08:18Z</time>
      </trkpt>
      <trkpt lat="42.31486" lon="0.34188">
        <ele>891.17</ele>
        <time>2021-08-02T11:08:27Z</time>
      </trkpt>
      <trkpt lat="42.31496" lon="0.3417">
        <ele>891.37</ele>
        <time>2021-08-02T11:08:31Z</time>
      </trkpt>
      <trkpt lat="42.31498" lon="0.34159">
        <ele>891.37</ele>
        <time>2021-08-02T11:08:33Z</time>
      </trkpt>
      <trkpt lat="42.31497" lon="0.34128">
        <ele>891.69</ele>
        <time>2021-08-02T11:08:38Z</time>
      </trkpt>
      <trkpt lat="42.31494" lon="0.3411">
        <ele>891.85</ele>
        <time>2021-08-02T11:08:41Z</time>
      </trkpt>
      <trkpt lat="42.31479" lon="0.3408">
        <ele>892.28</ele>
        <time>2021-08-02T11:08:46Z</time>
      </trkpt>
      <trkpt lat="42.31485" lon="0.34028">
        <ele>892.58</ele>
        <time>2021-08-02T11:08:53Z</time>
      </trkpt>
      <trkpt lat="42.31516" lon="0.34045">
        <ele>893.59</ele>
        <time>2021-08-02T11:08:59Z</time>
      </trkpt>
      <trkpt lat="42.31532" lon="0.34043">
        <ele>894.05</ele>
        <time>2021-08-02T11:09:03Z</time>
      </trkpt>
      <trkpt lat="42.31543" lon="0.34036">
        <ele>894.51</ele>
        <time>2021-08-02T11:09:06Z</time>
      </trkpt>
      <trkpt lat="42.31561" lon="0.34021">
        <ele>894.68</ele>
        <time>2021-08-02T11:09:10Z</time>
      </trkpt>
      <trkpt lat="42.31604" lon="0.33966">
        <ele>894.72</ele>
        <time>2021-08-02T11:09:23Z</time>
      </trkpt>
      <trkpt lat="42.3161" lon="0.3395">
        <ele>894.35</ele>
        <time>2021-08-02T11:09:27Z</time>
      </trkpt>
      <trkpt lat="42.3161" lon="0.33927">
        <ele>894.02</ele>
        <time>2021-08-02T11:09:31Z</time>
      </trkpt>
      <trkpt lat="42.31604" lon="0.33906">
        <ele>893.84</ele>
        <time>2021-08-02T11:09:35Z</time>
      </trkpt>
      <trkpt lat="42.31603" lon="0.33873">
        <ele>894.01</ele>
        <time>2021-08-02T11:09:40Z</time>
      </trkpt>
      <trkpt lat="42.31606" lon="0.33865">
        <ele>895.01</ele>
        <time>2021-08-02T11:09:50Z</time>
      </trkpt>
      <trkpt lat="42.31606" lon="0.33862">
        <ele>895.04</ele>
        <time>2021-08-02T11:09:53Z</time>
      </trkpt>
      <trkpt lat="42.31613" lon="0.33843">
        <ele>895.33</ele>
        <time>2021-08-02T11:09:58Z</time>
      </trkpt>
      <trkpt lat="42.31608" lon="0.33805">
        <ele>897.62</ele>
        <time>2021-08-02T11:10:07Z</time>
      </trkpt>
      <trkpt lat="42.31578" lon="0.33755">
        <ele>900.85</ele>
        <time>2021-08-02T11:10:19Z</time>
      </trkpt>
      <trkpt lat="42.31578" lon="0.33734">
        <ele>902.34</ele>
        <time>2021-08-02T11:10:23Z</time>
      </trkpt>
      <trkpt lat="42.31582" lon="0.33682">
        <ele>904.88</ele>
        <time>2021-08-02T11:10:32Z</time>
      </trkpt>
      <trkpt lat="42.31564" lon="0.33671">
        <ele>906.22</ele>
        <time>2021-08-02T11:10:39Z</time>
      </trkpt>
      <trkpt lat="42.31554" lon="0.33664">
        <ele>906.51</ele>
        <time>2021-08-02T11:10:41Z</time>
      </trkpt>
      <trkpt lat="42.31516" lon="0.33658">
        <ele>907.81</ele>
        <time>2021-08-02T11:10:47Z</time>
      </trkpt>
      <trkpt lat="42.31485" lon="0.33643">
        <ele>909.02</ele>
        <time>2021-08-02T11:10:59Z</time>
      </trkpt>
      <trkpt lat="42.31483" lon="0.3364">
        <ele>909.04</ele>
        <time>2021-08-02T11:11:00Z</time>
      </trkpt>
      <trkpt lat="42.31492" lon="0.33581">
        <ele>909.39</ele>
        <time>2021-08-02T11:11:08Z</time>
      </trkpt>
      <trkpt lat="42.31503" lon="0.3353">
        <ele>909.34</ele>
        <time>2021-08-02T11:11:14Z</time>
      </trkpt>
      <trkpt lat="42.31504" lon="0.33514">
        <ele>908.8</ele>
        <time>2021-08-02T11:11:16Z</time>
      </trkpt>
      <trkpt lat="42.31488" lon="0.33438">
        <ele>906.57</ele>
        <time>2021-08-02T11:11:25Z</time>
      </trkpt>
      <trkpt lat="42.31485" lon="0.33396">
        <ele>905.35</ele>
        <time>2021-08-02T11:11:30Z</time>
      </trkpt>
      <trkpt lat="42.31473" lon="0.33364">
        <ele>903.59</ele>
        <time>2021-08-02T11:11:35Z</time>
      </trkpt>
      <trkpt lat="42.31466" lon="0.33351">
        <ele>902.48</ele>
        <time>2021-08-02T11:11:37Z</time>
      </trkpt>
      <trkpt lat="42.31439" lon="0.3331">
        <ele>900.37</ele>
        <time>2021-08-02T11:11:44Z</time>
      </trkpt>
      <trkpt lat="42.31413" lon="0.33283">
        <ele>899.3</ele>
        <time>2021-08-02T11:11:48Z</time>
      </trkpt>
      <trkpt lat="42.31378" lon="0.33261">
        <ele>898.61</ele>
        <time>2021-08-02T11:11:53Z</time>
      </trkpt>
      <trkpt lat="42.31357" lon="0.33215">
        <ele>897.08</ele>
        <time>2021-08-02T11:12:00Z</time>
      </trkpt>
      <trkpt lat="42.31356" lon="0.33203">
        <ele>896.55</ele>
        <time>2021-08-02T11:12:02Z</time>
      </trkpt>
      <trkpt lat="42.31366" lon="0.33175">
        <ele>894.86</ele>
        <time>2021-08-02T11:12:08Z</time>
      </trkpt>
      <trkpt lat="42.31379" lon="0.33134">
        <ele>892.87</ele>
        <time>2021-08-02T11:12:14Z</time>
      </trkpt>
      <trkpt lat="42.31405" lon="0.33102">
        <ele>891.6</ele>
        <time>2021-08-02T11:12:20Z</time>
      </trkpt>
      <trkpt lat="42.31466" lon="0.33065">
        <ele>888.57</ele>
        <time>2021-08-02T11:12:35Z</time>
      </trkpt>
      <trkpt lat="42.31485" lon="0.33062">
        <ele>887.19</ele>
        <time>2021-08-02T11:12:46Z</time>
      </trkpt>
      <trkpt lat="42.31514" lon="0.3306">
        <ele>886.2</ele>
        <time>2021-08-02T11:12:56Z</time>
      </trkpt>
      <trkpt lat="42.31562" lon="0.33048">
        <ele>883.17</ele>
        <time>2021-08-02T11:13:10Z</time>
      </trkpt>
      <trkpt lat="42.3158" lon="0.33042">
        <ele>881.3</ele>
        <time>2021-08-02T11:13:15Z</time>
      </trkpt>
      <trkpt lat="42.31596" lon="0.33038">
        <ele>879.47</ele>
        <time>2021-08-02T11:13:21Z</time>
      </trkpt>
      <trkpt lat="42.31626" lon="0.33056">
        <ele>877.71</ele>
        <time>2021-08-02T11:13:31Z</time>
      </trkpt>
      <trkpt lat="42.31638" lon="0.33059">
        <ele>876.73</ele>
        <time>2021-08-02T11:13:36Z</time>
      </trkpt>
      <trkpt lat="42.31643" lon="0.33031">
        <ele>875.67</ele>
        <time>2021-08-02T11:13:43Z</time>
      </trkpt>
      <trkpt lat="42.3164" lon="0.33021">
        <ele>875.48</ele>
        <time>2021-08-02T11:13:45Z</time>
      </trkpt>
      <trkpt lat="42.31625" lon="0.32994">
        <ele>875.19</ele>
        <time>2021-08-02T11:13:51Z</time>
      </trkpt>
      <trkpt lat="42.31606" lon="0.32963">
        <ele>874.52</ele>
        <time>2021-08-02T11:13:58Z</time>
      </trkpt>
      <trkpt lat="42.31605" lon="0.32951">
        <ele>874.44</ele>
        <time>2021-08-02T11:14:00Z</time>
      </trkpt>
      <trkpt lat="42.31586" lon="0.32911">
        <ele>875.76</ele>
        <time>2021-08-02T11:14:11Z</time>
      </trkpt>
      <trkpt lat="42.31561" lon="0.32901">
        <ele>876.56</ele>
        <time>2021-08-02T11:14:17Z</time>
      </trkpt>
      <trkpt lat="42.31545" lon="0.32883">
        <ele>877.28</ele>
        <time>2021-08-02T11:14:21Z</time>
      </trkpt>
      <trkpt lat="42.31532" lon="0.32866">
        <ele>878.03</ele>
        <time>2021-08-02T11:14:26Z</time>
      </trkpt>
      <trkpt lat="42.31504" lon="0.32845">
        <ele>878.22</ele>
        <time>2021-08-02T11:14:36Z</time>
      </trkpt>
      <trkpt lat="42.31489" lon="0.3284">
        <ele>878.19</ele>
        <time>2021-08-02T11:14:40Z</time>
      </trkpt>
      <trkpt lat="42.31464" lon="0.32815">
        <ele>878.54</ele>
        <time>2021-08-02T11:14:45Z</time>
      </trkpt>
      <trkpt lat="42.31454" lon="0.32801">
        <ele>878.95</ele>
        <time>2021-08-02T11:14:47Z</time>
      </trkpt>
      <trkpt lat="42.31408" lon="0.32746">
        <ele>881.08</ele>
        <time>2021-08-02T11:14:54Z</time>
      </trkpt>
      <trkpt lat="42.3137" lon="0.32708">
        <ele>881.95</ele>
        <time>2021-08-02T11:15:00Z</time>
      </trkpt>
      <trkpt lat="42.31362" lon="0.32693">
        <ele>882.14</ele>
        <time>2021-08-02T11:15:02Z</time>
      </trkpt>
      <trkpt lat="42.3134" lon="0.32648">
        <ele>882.45</ele>
        <time>2021-08-02T11:15:10Z</time>
      </trkpt>
      <trkpt lat="42.31335" lon="0.3264">
        <ele>882.41</ele>
        <time>2021-08-02T11:15:12Z</time>
      </trkpt>
      <trkpt lat="42.3132" lon="0.32617">
        <ele>882.42</ele>
        <time>2021-08-02T11:15:16Z</time>
      </trkpt>
      <trkpt lat="42.31313" lon="0.32589">
        <ele>882.47</ele>
        <time>2021-08-02T11:15:21Z</time>
      </trkpt>
      <trkpt lat="42.31316" lon="0.32545">
        <ele>884.26</ele>
        <time>2021-08-02T11:15:33Z</time>
      </trkpt>
      <trkpt lat="42.31314" lon="0.32512">
        <ele>885.23</ele>
        <time>2021-08-02T11:15:37Z</time>
      </trkpt>
      <trkpt lat="42.31333" lon="0.32461">
        <ele>887.05</ele>
        <time>2021-08-02T11:15:44Z</time>
      </trkpt>
      <trkpt lat="42.3135" lon="0.32399">
        <ele>887.57</ele>
        <time>2021-08-02T11:15:54Z</time>
      </trkpt>
      <trkpt lat="42.3135" lon="0.32394">
        <ele>887.54</ele>
        <time>2021-08-02T11:15:55Z</time>
      </trkpt>
      <trkpt lat="42.31349" lon="0.32371">
        <ele>887.43</ele>
        <time>2021-08-02T11:15:59Z</time>
      </trkpt>
      <trkpt lat="42.31361" lon="0.32318">
        <ele>887.75</ele>
        <time>2021-08-02T11:16:08Z</time>
      </trkpt>
      <trkpt lat="42.31371" lon="0.32291">
        <ele>887.94</ele>
        <time>2021-08-02T11:16:12Z</time>
      </trkpt>
      <trkpt lat="42.31374" lon="0.32268">
        <ele>888.9</ele>
        <time>2021-08-02T11:16:16Z</time>
      </trkpt>
      <trkpt lat="42.3137" lon="0.3224">
        <ele>890.26</ele>
        <time>2021-08-02T11:16:20Z</time>
      </trkpt>
      <trkpt lat="42.31381" lon="0.32211">
        <ele>891.32</ele>
        <time>2021-08-02T11:16:24Z</time>
      </trkpt>
      <trkpt lat="42.31405" lon="0.3218">
        <ele>894.06</ele>
        <time>2021-08-02T11:16:32Z</time>
      </trkpt>
      <trkpt lat="42.31431" lon="0.32176">
        <ele>896.1</ele>
        <time>2021-08-02T11:16:37Z</time>
      </trkpt>
      <trkpt lat="42.31475" lon="0.32181">
        <ele>899.74</ele>
        <time>2021-08-02T11:16:46Z</time>
      </trkpt>
      <trkpt lat="42.31496" lon="0.32191">
        <ele>902.86</ele>
        <time>2021-08-02T11:16:53Z</time>
      </trkpt>
      <trkpt lat="42.315" lon="0.32192">
        <ele>903.24</ele>
        <time>2021-08-02T11:16:54Z</time>
      </trkpt>
      <trkpt lat="42.31539" lon="0.32212">
        <ele>906.98</ele>
        <time>2021-08-02T11:17:03Z</time>
      </trkpt>
      <trkpt lat="42.31564" lon="0.32234">
        <ele>910.26</ele>
        <time>2021-08-02T11:17:11Z</time>
      </trkpt>
      <trkpt lat="42.31582" lon="0.32246">
        <ele>913.58</ele>
        <time>2021-08-02T11:17:18Z</time>
      </trkpt>
      <trkpt lat="42.31606" lon="0.32265">
        <ele>916.91</ele>
        <time>2021-08-02T11:17:27Z</time>
      </trkpt>
      <trkpt lat="42.31621" lon="0.32273">
        <ele>918.6</ele>
        <time>2021-08-02T11:17:31Z</time>
      </trkpt>
      <trkpt lat="42.31655" lon="0.32294">
        <ele>922.17</ele>
        <time>2021-08-02T11:17:41Z</time>
      </trkpt>
      <trkpt lat="42.31669" lon="0.3231">
        <ele>924.12</ele>
        <time>2021-08-02T11:17:46Z</time>
      </trkpt>
      <trkpt lat="42.31677" lon="0.32324">
        <ele>925.08</ele>
        <time>2021-08-02T11:17:49Z</time>
      </trkpt>
      <trkpt lat="42.31682" lon="0.32341">
        <ele>927.01</ele>
        <time>2021-08-02T11:17:53Z</time>
      </trkpt>
      <trkpt lat="42.31699" lon="0.32382">
        <ele>930.39</ele>
        <time>2021-08-02T11:18:05Z</time>
      </trkpt>
      <trkpt lat="42.31711" lon="0.32406">
        <ele>933.26</ele>
        <time>2021-08-02T11:18:17Z</time>
      </trkpt>
      <trkpt lat="42.31737" lon="0.32406">
        <ele>934.85</ele>
        <time>2021-08-02T11:18:25Z</time>
      </trkpt>
      <trkpt lat="42.31766" lon="0.32397">
        <ele>936.27</ele>
        <time>2021-08-02T11:18:31Z</time>
      </trkpt>
      <trkpt lat="42.31796" lon="0.32413">
        <ele>937.77</ele>
        <time>2021-08-02T11:18:41Z</time>
      </trkpt>
      <trkpt lat="42.31799" lon="0.32418">
        <ele>937.97</ele>
        <time>2021-08-02T11:18:42Z</time>
      </trkpt>
      <trkpt lat="42.31806" lon="0.3244">
        <ele>939.39</ele>
        <time>2021-08-02T11:18:46Z</time>
      </trkpt>
      <trkpt lat="42.31804" lon="0.32487">
        <ele>942.82</ele>
        <time>2021-08-02T11:18:56Z</time>
      </trkpt>
      <trkpt lat="42.31793" lon="0.32529">
        <ele>945.89</ele>
        <time>2021-08-02T11:19:06Z</time>
      </trkpt>
      <trkpt lat="42.3179" lon="0.32542">
        <ele>946.47</ele>
        <time>2021-08-02T11:19:08Z</time>
      </trkpt>
      <trkpt lat="42.31772" lon="0.32595">
        <ele>948.93</ele>
        <time>2021-08-02T11:19:18Z</time>
      </trkpt>
      <trkpt lat="42.31767" lon="0.32622">
        <ele>950.11</ele>
        <time>2021-08-02T11:19:23Z</time>
      </trkpt>
      <trkpt lat="42.31791" lon="0.32693">
        <ele>952.41</ele>
        <time>2021-08-02T11:19:31Z</time>
      </trkpt>
      <trkpt lat="42.31807" lon="0.32682">
        <ele>954.07</ele>
        <time>2021-08-02T11:19:36Z</time>
      </trkpt>
      <trkpt lat="42.31807" lon="0.32678">
        <ele>954.41</ele>
        <time>2021-08-02T11:19:37Z</time>
      </trkpt>
      <trkpt lat="42.31832" lon="0.326">
        <ele>957.31</ele>
        <time>2021-08-02T11:19:46Z</time>
      </trkpt>
      <trkpt lat="42.31858" lon="0.32565">
        <ele>960.31</ele>
        <time>2021-08-02T11:19:56Z</time>
      </trkpt>
      <trkpt lat="42.31904" lon="0.32548">
        <ele>962.95</ele>
        <time>2021-08-02T11:20:06Z</time>
      </trkpt>
      <trkpt lat="42.31974" lon="0.32524">
        <ele>964.24</ele>
        <time>2021-08-02T11:20:17Z</time>
      </trkpt>
      <trkpt lat="42.32007" lon="0.32516">
        <ele>965.54</ele>
        <time>2021-08-02T11:20:22Z</time>
      </trkpt>
      <trkpt lat="42.32021" lon="0.32504">
        <ele>966.59</ele>
        <time>2021-08-02T11:20:26Z</time>
      </trkpt>
      <trkpt lat="42.32063" lon="0.32448">
        <ele>969.45</ele>
        <time>2021-08-02T11:20:35Z</time>
      </trkpt>
      <trkpt lat="42.32088" lon="0.32438">
        <ele>970.76</ele>
        <time>2021-08-02T11:20:42Z</time>
      </trkpt>
      <trkpt lat="42.32093" lon="0.32439">
        <ele>971.21</ele>
        <time>2021-08-02T11:20:44Z</time>
      </trkpt>
      <trkpt lat="42.32131" lon="0.32425">
        <ele>973.7</ele>
        <time>2021-08-02T11:20:54Z</time>
      </trkpt>
      <trkpt lat="42.32146" lon="0.32417">
        <ele>974.14</ele>
        <time>2021-08-02T11:20:56Z</time>
      </trkpt>
      <trkpt lat="42.32176" lon="0.32414">
        <ele>975.1</ele>
        <time>2021-08-02T11:21:00Z</time>
      </trkpt>
      <trkpt lat="42.32208" lon="0.32416">
        <ele>977.16</ele>
        <time>2021-08-02T11:21:05Z</time>
      </trkpt>
      <trkpt lat="42.32235" lon="0.32404">
        <ele>980.16</ele>
        <time>2021-08-02T11:21:10Z</time>
      </trkpt>
      <trkpt lat="42.3226" lon="0.32397">
        <ele>984.35</ele>
        <time>2021-08-02T11:21:17Z</time>
      </trkpt>
      <trkpt lat="42.32289" lon="0.32393">
        <ele>987.59</ele>
        <time>2021-08-02T11:21:24Z</time>
      </trkpt>
      <trkpt lat="42.32307" lon="0.32387">
        <ele>989.34</ele>
        <time>2021-08-02T11:21:27Z</time>
      </trkpt>
      <trkpt lat="42.32321" lon="0.32386">
        <ele>990.16</ele>
        <time>2021-08-02T11:21:29Z</time>
      </trkpt>
      <trkpt lat="42.32333" lon="0.3239">
        <ele>991.48</ele>
        <time>2021-08-02T11:21:31Z</time>
      </trkpt>
      <trkpt lat="42.32361" lon="0.32399">
        <ele>994.22</ele>
        <time>2021-08-02T11:21:37Z</time>
      </trkpt>
      <trkpt lat="42.32406" lon="0.324">
        <ele>998.11</ele>
        <time>2021-08-02T11:21:46Z</time>
      </trkpt>
      <trkpt lat="42.3242" lon="0.32384">
        <ele>1001.48</ele>
        <time>2021-08-02T11:21:54Z</time>
      </trkpt>
      <trkpt lat="42.32425" lon="0.32373">
        <ele>1003.04</ele>
        <time>2021-08-02T11:22:10Z</time>
      </trkpt>
      <trkpt lat="42.32417" lon="0.32341">
        <ele>1002.55</ele>
        <time>2021-08-02T11:22:17Z</time>
      </trkpt>
      <trkpt lat="42.32387" lon="0.32319">
        <ele>1001.82</ele>
        <time>2021-08-02T11:22:22Z</time>
      </trkpt>
      <trkpt lat="42.32374" lon="0.32316">
        <ele>1001.49</ele>
        <time>2021-08-02T11:22:24Z</time>
      </trkpt>
      <trkpt lat="42.32352" lon="0.32293">
        <ele>1000.88</ele>
        <time>2021-08-02T11:22:29Z</time>
      </trkpt>
      <trkpt lat="42.3229" lon="0.32235">
        <ele>998.83</ele>
        <time>2021-08-02T11:22:38Z</time>
      </trkpt>
      <trkpt lat="42.32272" lon="0.32214">
        <ele>998.15</ele>
        <time>2021-08-02T11:22:41Z</time>
      </trkpt>
      <trkpt lat="42.32261" lon="0.32203">
        <ele>997.82</ele>
        <time>2021-08-02T11:22:43Z</time>
      </trkpt>
      <trkpt lat="42.32236" lon="0.32128">
        <ele>996.51</ele>
        <time>2021-08-02T11:22:51Z</time>
      </trkpt>
      <trkpt lat="42.32205" lon="0.32043">
        <ele>995.46</ele>
        <time>2021-08-02T11:23:01Z</time>
      </trkpt>
      <trkpt lat="42.32194" lon="0.31986">
        <ele>995.01</ele>
        <time>2021-08-02T11:23:07Z</time>
      </trkpt>
      <trkpt lat="42.32186" lon="0.31962">
        <ele>995.13</ele>
        <time>2021-08-02T11:23:09Z</time>
      </trkpt>
      <trkpt lat="42.32152" lon="0.31899">
        <ele>995.35</ele>
        <time>2021-08-02T11:23:14Z</time>
      </trkpt>
      <trkpt lat="42.32104" lon="0.31819">
        <ele>993.71</ele>
        <time>2021-08-02T11:23:21Z</time>
      </trkpt>
      <trkpt lat="42.32089" lon="0.31774">
        <ele>992.3</ele>
        <time>2021-08-02T11:23:25Z</time>
      </trkpt>
      <trkpt lat="42.32063" lon="0.31732">
        <ele>990.69</ele>
        <time>2021-08-02T11:23:29Z</time>
      </trkpt>
      <trkpt lat="42.32011" lon="0.3168">
        <ele>988.49</ele>
        <time>2021-08-02T11:23:36Z</time>
      </trkpt>
      <trkpt lat="42.32003" lon="0.31656">
        <ele>987.93</ele>
        <time>2021-08-02T11:23:39Z</time>
      </trkpt>
      <trkpt lat="42.31954" lon="0.31563">
        <ele>985.65</ele>
        <time>2021-08-02T11:23:49Z</time>
      </trkpt>
      <trkpt lat="42.3194" lon="0.31542">
        <ele>984.42</ele>
        <time>2021-08-02T11:23:52Z</time>
      </trkpt>
      <trkpt lat="42.31922" lon="0.3151">
        <ele>982.63</ele>
        <time>2021-08-02T11:23:56Z</time>
      </trkpt>
      <trkpt lat="42.31906" lon="0.3149">
        <ele>981.28</ele>
        <time>2021-08-02T11:23:59Z</time>
      </trkpt>
      <trkpt lat="42.31887" lon="0.31466">
        <ele>979.8</ele>
        <time>2021-08-02T11:24:02Z</time>
      </trkpt>
      <trkpt lat="42.3181" lon="0.31413">
        <ele>976.76</ele>
        <time>2021-08-02T11:24:11Z</time>
      </trkpt>
      <trkpt lat="42.31781" lon="0.31401">
        <ele>976.48</ele>
        <time>2021-08-02T11:24:15Z</time>
      </trkpt>
      <trkpt lat="42.31755" lon="0.31375">
        <ele>977.11</ele>
        <time>2021-08-02T11:24:19Z</time>
      </trkpt>
      <trkpt lat="42.31729" lon="0.31335">
        <ele>978.78</ele>
        <time>2021-08-02T11:24:24Z</time>
      </trkpt>
      <trkpt lat="42.31712" lon="0.31271">
        <ele>979.83</ele>
        <time>2021-08-02T11:24:31Z</time>
      </trkpt>
      <trkpt lat="42.31691" lon="0.31186">
        <ele>979.68</ele>
        <time>2021-08-02T11:24:41Z</time>
      </trkpt>
      <trkpt lat="42.31659" lon="0.31132">
        <ele>982.02</ele>
        <time>2021-08-02T11:24:48Z</time>
      </trkpt>
      <trkpt lat="42.31617" lon="0.31114">
        <ele>984.79</ele>
        <time>2021-08-02T11:24:54Z</time>
      </trkpt>
      <trkpt lat="42.31592" lon="0.31101">
        <ele>986.06</ele>
        <time>2021-08-02T11:24:57Z</time>
      </trkpt>
      <trkpt lat="42.31578" lon="0.31087">
        <ele>986.78</ele>
        <time>2021-08-02T11:24:59Z</time>
      </trkpt>
      <trkpt lat="42.31572" lon="0.31078">
        <ele>987.1</ele>
        <time>2021-08-02T11:25:00Z</time>
      </trkpt>
      <trkpt lat="42.31568" lon="0.31068">
        <ele>987.51</ele>
        <time>2021-08-02T11:25:01Z</time>
      </trkpt>
      <trkpt lat="42.31566" lon="0.31058">
        <ele>987.99</ele>
        <time>2021-08-02T11:25:02Z</time>
      </trkpt>
      <trkpt lat="42.31564" lon="0.31049">
        <ele>988.47</ele>
        <time>2021-08-02T11:25:03Z</time>
      </trkpt>
      <trkpt lat="42.31543" lon="0.3098">
        <ele>991.91</ele>
        <time>2021-08-02T11:25:12Z</time>
      </trkpt>
      <trkpt lat="42.31539" lon="0.30964">
        <ele>992.86</ele>
        <time>2021-08-02T11:25:14Z</time>
      </trkpt>
      <trkpt lat="42.31531" lon="0.30946">
        <ele>993.59</ele>
        <time>2021-08-02T11:25:16Z</time>
      </trkpt>
      <trkpt lat="42.3148" lon="0.30854">
        <ele>995.13</ele>
        <time>2021-08-02T11:25:26Z</time>
      </trkpt>
      <trkpt lat="42.31419" lon="0.3081">
        <ele>996.37</ele>
        <time>2021-08-02T11:25:34Z</time>
      </trkpt>
      <trkpt lat="42.31384" lon="0.30794">
        <ele>997.16</ele>
        <time>2021-08-02T11:25:38Z</time>
      </trkpt>
      <trkpt lat="42.31335" lon="0.30762">
        <ele>1001.07</ele>
        <time>2021-08-02T11:25:46Z</time>
      </trkpt>
      <trkpt lat="42.31317" lon="0.30753">
        <ele>1002.87</ele>
        <time>2021-08-02T11:25:49Z</time>
      </trkpt>
      <trkpt lat="42.3129" lon="0.30713">
        <ele>1005.68</ele>
        <time>2021-08-02T11:25:55Z</time>
      </trkpt>
      <trkpt lat="42.31278" lon="0.30681">
        <ele>1006.54</ele>
        <time>2021-08-02T11:25:59Z</time>
      </trkpt>
      <trkpt lat="42.31245" lon="0.30653">
        <ele>1006.41</ele>
        <time>2021-08-02T11:26:04Z</time>
      </trkpt>
      <trkpt lat="42.31189" lon="0.30623">
        <ele>1005.55</ele>
        <time>2021-08-02T11:26:11Z</time>
      </trkpt>
      <trkpt lat="42.31156" lon="0.30588">
        <ele>1005.32</ele>
        <time>2021-08-02T11:26:15Z</time>
      </trkpt>
      <trkpt lat="42.31128" lon="0.30595">
        <ele>1006.24</ele>
        <time>2021-08-02T11:26:20Z</time>
      </trkpt>
      <trkpt lat="42.31124" lon="0.30618">
        <ele>1006.78</ele>
        <time>2021-08-02T11:26:22Z</time>
      </trkpt>
      <trkpt lat="42.31108" lon="0.30661">
        <ele>1008.93</ele>
        <time>2021-08-02T11:26:26Z</time>
      </trkpt>
      <trkpt lat="42.31101" lon="0.3067">
        <ele>1010.29</ele>
        <time>2021-08-02T11:26:27Z</time>
      </trkpt>
      <trkpt lat="42.31053" lon="0.30729">
        <ele>1014.24</ele>
        <time>2021-08-02T11:26:33Z</time>
      </trkpt>
      <trkpt lat="42.31039" lon="0.30744">
        <ele>1015.83</ele>
        <time>2021-08-02T11:26:35Z</time>
      </trkpt>
      <trkpt lat="42.31008" lon="0.30732">
        <ele>1019.84</ele>
        <time>2021-08-02T11:26:41Z</time>
      </trkpt>
      <trkpt lat="42.31015" lon="0.30699">
        <ele>1021.43</ele>
        <time>2021-08-02T11:26:44Z</time>
      </trkpt>
      <trkpt lat="42.31021" lon="0.30676">
        <ele>1022.43</ele>
        <time>2021-08-02T11:26:46Z</time>
      </trkpt>
      <trkpt lat="42.31003" lon="0.30655">
        <ele>1024.98</ele>
        <time>2021-08-02T11:26:52Z</time>
      </trkpt>
      <trkpt lat="42.30994" lon="0.30672">
        <ele>1025.52</ele>
        <time>2021-08-02T11:26:54Z</time>
      </trkpt>
      <trkpt lat="42.30975" lon="0.30716">
        <ele>1027.09</ele>
        <time>2021-08-02T11:26:58Z</time>
      </trkpt>
      <trkpt lat="42.30961" lon="0.30738">
        <ele>1028.15</ele>
        <time>2021-08-02T11:27:00Z</time>
      </trkpt>
      <trkpt lat="42.30911" lon="0.30788">
        <ele>1030.46</ele>
        <time>2021-08-02T11:27:07Z</time>
      </trkpt>
      <trkpt lat="42.30864" lon="0.30824">
        <ele>1033.05</ele>
        <time>2021-08-02T11:27:13Z</time>
      </trkpt>
      <trkpt lat="42.30822" lon="0.30846">
        <ele>1033.92</ele>
        <time>2021-08-02T11:27:18Z</time>
      </trkpt>
      <trkpt lat="42.30798" lon="0.30847">
        <ele>1034.59</ele>
        <time>2021-08-02T11:27:20Z</time>
      </trkpt>
      <trkpt lat="42.30704" lon="0.30901">
        <ele>1037.38</ele>
        <time>2021-08-02T11:27:29Z</time>
      </trkpt>
      <trkpt lat="42.30657" lon="0.30932">
        <ele>1038.15</ele>
        <time>2021-08-02T11:27:34Z</time>
      </trkpt>
      <trkpt lat="42.30628" lon="0.3099">
        <ele>1038.36</ele>
        <time>2021-08-02T11:27:40Z</time>
      </trkpt>
      <trkpt lat="42.30594" lon="0.31014">
        <ele>1038</ele>
        <time>2021-08-02T11:27:46Z</time>
      </trkpt>
      <trkpt lat="42.30579" lon="0.31001">
        <ele>1038.03</ele>
        <time>2021-08-02T11:27:48Z</time>
      </trkpt>
      <trkpt lat="42.30496" lon="0.30937">
        <ele>1037.69</ele>
        <time>2021-08-02T11:27:58Z</time>
      </trkpt>
      <trkpt lat="42.30421" lon="0.30878">
        <ele>1036.24</ele>
        <time>2021-08-02T11:28:06Z</time>
      </trkpt>
      <trkpt lat="42.30389" lon="0.30837">
        <ele>1035.5</ele>
        <time>2021-08-02T11:28:10Z</time>
      </trkpt>
      <trkpt lat="42.30368" lon="0.30755">
        <ele>1034.52</ele>
        <time>2021-08-02T11:28:16Z</time>
      </trkpt>
      <trkpt lat="42.30356" lon="0.30706">
        <ele>1033.26</ele>
        <time>2021-08-02T11:28:21Z</time>
      </trkpt>
      <trkpt lat="42.30369" lon="0.3069">
        <ele>1030.92</ele>
        <time>2021-08-02T11:28:26Z</time>
      </trkpt>
      <trkpt lat="42.30465" lon="0.30676">
        <ele>1027.01</ele>
        <time>2021-08-02T11:28:35Z</time>
      </trkpt>
      <trkpt lat="42.30509" lon="0.30668">
        <ele>1024.03</ele>
        <time>2021-08-02T11:28:39Z</time>
      </trkpt>
      <trkpt lat="42.30558" lon="0.30627">
        <ele>1020.17</ele>
        <time>2021-08-02T11:28:44Z</time>
      </trkpt>
      <trkpt lat="42.30574" lon="0.3061">
        <ele>1018.46</ele>
        <time>2021-08-02T11:28:46Z</time>
      </trkpt>
      <trkpt lat="42.30592" lon="0.30558">
        <ele>1014.03</ele>
        <time>2021-08-02T11:28:51Z</time>
      </trkpt>
      <trkpt lat="42.30586" lon="0.30481">
        <ele>1009.97</ele>
        <time>2021-08-02T11:28:56Z</time>
      </trkpt>
      <trkpt lat="42.30584" lon="0.30395">
        <ele>1007.5</ele>
        <time>2021-08-02T11:29:01Z</time>
      </trkpt>
      <trkpt lat="42.30604" lon="0.30334">
        <ele>1005.79</ele>
        <time>2021-08-02T11:29:05Z</time>
      </trkpt>
      <trkpt lat="42.30589" lon="0.30273">
        <ele>1003.76</ele>
        <time>2021-08-02T11:29:10Z</time>
      </trkpt>
      <trkpt lat="42.30556" lon="0.30199">
        <ele>1002.5</ele>
        <time>2021-08-02T11:29:15Z</time>
      </trkpt>
      <trkpt lat="42.30537" lon="0.30096">
        <ele>1001.54</ele>
        <time>2021-08-02T11:29:21Z</time>
      </trkpt>
      <trkpt lat="42.30559" lon="0.30024">
        <ele>999.6</ele>
        <time>2021-08-02T11:29:27Z</time>
      </trkpt>
      <trkpt lat="42.30581" lon="0.30008">
        <ele>998.82</ele>
        <time>2021-08-02T11:29:30Z</time>
      </trkpt>
      <trkpt lat="42.30615" lon="0.29973">
        <ele>998.29</ele>
        <time>2021-08-02T11:29:35Z</time>
      </trkpt>
      <trkpt lat="42.30618" lon="0.29934">
        <ele>997.82</ele>
        <time>2021-08-02T11:29:40Z</time>
      </trkpt>
      <trkpt lat="42.3059" lon="0.29885">
        <ele>997.83</ele>
        <time>2021-08-02T11:29:45Z</time>
      </trkpt>
      <trkpt lat="42.30583" lon="0.29877">
        <ele>998</ele>
        <time>2021-08-02T11:29:46Z</time>
      </trkpt>
      <trkpt lat="42.30485" lon="0.29767">
        <ele>998.4</ele>
        <time>2021-08-02T11:30:01Z</time>
      </trkpt>
      <trkpt lat="42.3048" lon="0.29759">
        <ele>998.39</ele>
        <time>2021-08-02T11:30:02Z</time>
      </trkpt>
      <trkpt lat="42.30475" lon="0.2972">
        <ele>998.14</ele>
        <time>2021-08-02T11:30:07Z</time>
      </trkpt>
      <trkpt lat="42.30504" lon="0.29725">
        <ele>997.92</ele>
        <time>2021-08-02T11:30:13Z</time>
      </trkpt>
      <trkpt lat="42.30552" lon="0.29753">
        <ele>997.88</ele>
        <time>2021-08-02T11:30:20Z</time>
      </trkpt>
      <trkpt lat="42.30671" lon="0.29746">
        <ele>996.98</ele>
        <time>2021-08-02T11:30:33Z</time>
      </trkpt>
      <trkpt lat="42.30712" lon="0.29728">
        <ele>996.71</ele>
        <time>2021-08-02T11:30:37Z</time>
      </trkpt>
      <trkpt lat="42.30737" lon="0.29701">
        <ele>996.34</ele>
        <time>2021-08-02T11:30:40Z</time>
      </trkpt>
      <trkpt lat="42.30751" lon="0.29635">
        <ele>996.19</ele>
        <time>2021-08-02T11:30:45Z</time>
      </trkpt>
      <trkpt lat="42.30755" lon="0.29564">
        <ele>995.99</ele>
        <time>2021-08-02T11:30:50Z</time>
      </trkpt>
      <trkpt lat="42.30777" lon="0.29522">
        <ele>995</ele>
        <time>2021-08-02T11:30:54Z</time>
      </trkpt>
      <trkpt lat="42.30841" lon="0.29494">
        <ele>992.11</ele>
        <time>2021-08-02T11:31:01Z</time>
      </trkpt>
      <trkpt lat="42.30899" lon="0.29511">
        <ele>988.14</ele>
        <time>2021-08-02T11:31:07Z</time>
      </trkpt>
      <trkpt lat="42.30908" lon="0.29519">
        <ele>987.31</ele>
        <time>2021-08-02T11:31:08Z</time>
      </trkpt>
      <trkpt lat="42.30958" lon="0.29577">
        <ele>983.2</ele>
        <time>2021-08-02T11:31:14Z</time>
      </trkpt>
      <trkpt lat="42.30966" lon="0.29586">
        <ele>982.74</ele>
        <time>2021-08-02T11:31:15Z</time>
      </trkpt>
      <trkpt lat="42.3101" lon="0.29587">
        <ele>980.6</ele>
        <time>2021-08-02T11:31:20Z</time>
      </trkpt>
      <trkpt lat="42.31042" lon="0.2956">
        <ele>979.51</ele>
        <time>2021-08-02T11:31:23Z</time>
      </trkpt>
      <trkpt lat="42.31098" lon="0.29538">
        <ele>977.16</ele>
        <time>2021-08-02T11:31:28Z</time>
      </trkpt>
      <trkpt lat="42.31137" lon="0.29538">
        <ele>975.97</ele>
        <time>2021-08-02T11:31:32Z</time>
      </trkpt>
      <trkpt lat="42.31168" lon="0.29518">
        <ele>975.01</ele>
        <time>2021-08-02T11:31:36Z</time>
      </trkpt>
      <trkpt lat="42.31204" lon="0.29477">
        <ele>973.56</ele>
        <time>2021-08-02T11:31:40Z</time>
      </trkpt>
      <trkpt lat="42.31224" lon="0.29412">
        <ele>970.67</ele>
        <time>2021-08-02T11:31:46Z</time>
      </trkpt>
      <trkpt lat="42.31216" lon="0.29343">
        <ele>969.34</ele>
        <time>2021-08-02T11:31:51Z</time>
      </trkpt>
      <trkpt lat="42.31173" lon="0.29287">
        <ele>967.58</ele>
        <time>2021-08-02T11:31:58Z</time>
      </trkpt>
      <trkpt lat="42.31147" lon="0.29333">
        <ele>964.12</ele>
        <time>2021-08-02T11:32:03Z</time>
      </trkpt>
      <trkpt lat="42.31129" lon="0.29393">
        <ele>960.72</ele>
        <time>2021-08-02T11:32:08Z</time>
      </trkpt>
      <trkpt lat="42.31101" lon="0.29394">
        <ele>958.84</ele>
        <time>2021-08-02T11:32:11Z</time>
      </trkpt>
      <trkpt lat="42.31045" lon="0.29407">
        <ele>957.06</ele>
        <time>2021-08-02T11:32:17Z</time>
      </trkpt>
      <trkpt lat="42.31017" lon="0.29397">
        <ele>952.99</ele>
        <time>2021-08-02T11:32:24Z</time>
      </trkpt>
      <trkpt lat="42.31031" lon="0.29377">
        <ele>951.56</ele>
        <time>2021-08-02T11:32:26Z</time>
      </trkpt>
      <trkpt lat="42.31047" lon="0.29355">
        <ele>950.66</ele>
        <time>2021-08-02T11:32:28Z</time>
      </trkpt>
      <trkpt lat="42.31101" lon="0.293">
        <ele>946.74</ele>
        <time>2021-08-02T11:32:35Z</time>
      </trkpt>
      <trkpt lat="42.31109" lon="0.29272">
        <ele>945.46</ele>
        <time>2021-08-02T11:32:37Z</time>
      </trkpt>
      <trkpt lat="42.31118" lon="0.29216">
        <ele>943.39</ele>
        <time>2021-08-02T11:32:41Z</time>
      </trkpt>
      <trkpt lat="42.31091" lon="0.29193">
        <ele>938.63</ele>
        <time>2021-08-02T11:32:46Z</time>
      </trkpt>
      <trkpt lat="42.31062" lon="0.29184">
        <ele>935.61</ele>
        <time>2021-08-02T11:32:50Z</time>
      </trkpt>
      <trkpt lat="42.31061" lon="0.29128">
        <ele>932.5</ele>
        <time>2021-08-02T11:32:54Z</time>
      </trkpt>
      <trkpt lat="42.31065" lon="0.29108">
        <ele>932.13</ele>
        <time>2021-08-02T11:32:55Z</time>
      </trkpt>
      <trkpt lat="42.31076" lon="0.29039">
        <ele>930.6</ele>
        <time>2021-08-02T11:33:00Z</time>
      </trkpt>
      <trkpt lat="42.31058" lon="0.29">
        <ele>928.65</ele>
        <time>2021-08-02T11:33:04Z</time>
      </trkpt>
      <trkpt lat="42.31009" lon="0.28977">
        <ele>927.62</ele>
        <time>2021-08-02T11:33:08Z</time>
      </trkpt>
      <trkpt lat="42.30963" lon="0.28985">
        <ele>926.9</ele>
        <time>2021-08-02T11:33:12Z</time>
      </trkpt>
      <trkpt lat="42.309" lon="0.28998">
        <ele>925.41</ele>
        <time>2021-08-02T11:33:17Z</time>
      </trkpt>
      <trkpt lat="42.30851" lon="0.28986">
        <ele>924.89</ele>
        <time>2021-08-02T11:33:21Z</time>
      </trkpt>
      <trkpt lat="42.30818" lon="0.28969">
        <ele>924.4</ele>
        <time>2021-08-02T11:33:24Z</time>
      </trkpt>
      <trkpt lat="42.30762" lon="0.28937">
        <ele>921.99</ele>
        <time>2021-08-02T11:33:30Z</time>
      </trkpt>
      <trkpt lat="42.30743" lon="0.28918">
        <ele>920.42</ele>
        <time>2021-08-02T11:33:33Z</time>
      </trkpt>
      <trkpt lat="42.30749" lon="0.28894">
        <ele>916.54</ele>
        <time>2021-08-02T11:33:39Z</time>
      </trkpt>
      <trkpt lat="42.30761" lon="0.28899">
        <ele>915.99</ele>
        <time>2021-08-02T11:33:40Z</time>
      </trkpt>
      <trkpt lat="42.3083" lon="0.28893">
        <ele>913.9</ele>
        <time>2021-08-02T11:33:46Z</time>
      </trkpt>
      <trkpt lat="42.30887" lon="0.28876">
        <ele>910.5</ele>
        <time>2021-08-02T11:33:51Z</time>
      </trkpt>
      <trkpt lat="42.30907" lon="0.28866">
        <ele>909.05</ele>
        <time>2021-08-02T11:33:53Z</time>
      </trkpt>
      <trkpt lat="42.30937" lon="0.2886">
        <ele>906.39</ele>
        <time>2021-08-02T11:33:56Z</time>
      </trkpt>
      <trkpt lat="42.30968" lon="0.28849">
        <ele>903.55</ele>
        <time>2021-08-02T11:33:59Z</time>
      </trkpt>
      <trkpt lat="42.3101" lon="0.2884">
        <ele>899.48</ele>
        <time>2021-08-02T11:34:03Z</time>
      </trkpt>
      <trkpt lat="42.3102" lon="0.28836">
        <ele>898.44</ele>
        <time>2021-08-02T11:34:04Z</time>
      </trkpt>
      <trkpt lat="42.31059" lon="0.28835">
        <ele>892.42</ele>
        <time>2021-08-02T11:34:09Z</time>
      </trkpt>
      <trkpt lat="42.31067" lon="0.28851">
        <ele>890.1</ele>
        <time>2021-08-02T11:34:11Z</time>
      </trkpt>
      <trkpt lat="42.31096" lon="0.28884">
        <ele>886.56</ele>
        <time>2021-08-02T11:34:16Z</time>
      </trkpt>
      <trkpt lat="42.31108" lon="0.28889">
        <ele>886.04</ele>
        <time>2021-08-02T11:34:18Z</time>
      </trkpt>
      <trkpt lat="42.31113" lon="0.28872">
        <ele>884.62</ele>
        <time>2021-08-02T11:34:24Z</time>
      </trkpt>
      <trkpt lat="42.31105" lon="0.28872">
        <ele>884.4</ele>
        <time>2021-08-02T11:34:25Z</time>
      </trkpt>
      <trkpt lat="42.31067" lon="0.28829">
        <ele>881.67</ele>
        <time>2021-08-02T11:34:31Z</time>
      </trkpt>
      <trkpt lat="42.31052" lon="0.28761">
        <ele>878.14</ele>
        <time>2021-08-02T11:34:36Z</time>
      </trkpt>
      <trkpt lat="42.31025" lon="0.28729">
        <ele>874.25</ele>
        <time>2021-08-02T11:34:40Z</time>
      </trkpt>
      <trkpt lat="42.31008" lon="0.28734">
        <ele>871.1</ele>
        <time>2021-08-02T11:34:42Z</time>
      </trkpt>
      <trkpt lat="42.30982" lon="0.28752">
        <ele>867.95</ele>
        <time>2021-08-02T11:34:45Z</time>
      </trkpt>
      <trkpt lat="42.30954" lon="0.28747">
        <ele>864.63</ele>
        <time>2021-08-02T11:34:48Z</time>
      </trkpt>
      <trkpt lat="42.30922" lon="0.28721">
        <ele>860.88</ele>
        <time>2021-08-02T11:34:52Z</time>
      </trkpt>
      <trkpt lat="42.30886" lon="0.28708">
        <ele>856.97</ele>
        <time>2021-08-02T11:34:56Z</time>
      </trkpt>
      <trkpt lat="42.30857" lon="0.2872">
        <ele>853.89</ele>
        <time>2021-08-02T11:34:59Z</time>
      </trkpt>
      <trkpt lat="42.30827" lon="0.28714">
        <ele>850.66</ele>
        <time>2021-08-02T11:35:02Z</time>
      </trkpt>
      <trkpt lat="42.30804" lon="0.28693">
        <ele>847.64</ele>
        <time>2021-08-02T11:35:05Z</time>
      </trkpt>
      <trkpt lat="42.30801" lon="0.28673">
        <ele>845.27</ele>
        <time>2021-08-02T11:35:07Z</time>
      </trkpt>
      <trkpt lat="42.30791" lon="0.28634">
        <ele>839.73</ele>
        <time>2021-08-02T11:35:12Z</time>
      </trkpt>
      <trkpt lat="42.30781" lon="0.28648">
        <ele>837.58</ele>
        <time>2021-08-02T11:35:14Z</time>
      </trkpt>
      <trkpt lat="42.30757" lon="0.28658">
        <ele>832.27</ele>
        <time>2021-08-02T11:35:19Z</time>
      </trkpt>
      <trkpt lat="42.30763" lon="0.2864">
        <ele>830.42</ele>
        <time>2021-08-02T11:35:21Z</time>
      </trkpt>
      <trkpt lat="42.30777" lon="0.28574">
        <ele>826.34</ele>
        <time>2021-08-02T11:35:26Z</time>
      </trkpt>
      <trkpt lat="42.30797" lon="0.28541">
        <ele>822.35</ele>
        <time>2021-08-02T11:35:30Z</time>
      </trkpt>
      <trkpt lat="42.30828" lon="0.28539">
        <ele>819.17</ele>
        <time>2021-08-02T11:35:33Z</time>
      </trkpt>
      <trkpt lat="42.30853" lon="0.28529">
        <ele>815.33</ele>
        <time>2021-08-02T11:35:37Z</time>
      </trkpt>
      <trkpt lat="42.30842" lon="0.2851">
        <ele>812.13</ele>
        <time>2021-08-02T11:35:40Z</time>
      </trkpt>
      <trkpt lat="42.30804" lon="0.28483">
        <ele>808.59</ele>
        <time>2021-08-02T11:35:44Z</time>
      </trkpt>
      <trkpt lat="42.30789" lon="0.28461">
        <ele>805.42</ele>
        <time>2021-08-02T11:35:48Z</time>
      </trkpt>
      <trkpt lat="42.30807" lon="0.28447">
        <ele>802.8</ele>
        <time>2021-08-02T11:35:51Z</time>
      </trkpt>
      <trkpt lat="42.30842" lon="0.28414">
        <ele>799.99</ele>
        <time>2021-08-02T11:35:55Z</time>
      </trkpt>
      <trkpt lat="42.30891" lon="0.28364">
        <ele>796.78</ele>
        <time>2021-08-02T11:36:00Z</time>
      </trkpt>
      <trkpt lat="42.30903" lon="0.28283">
        <ele>792.91</ele>
        <time>2021-08-02T11:36:05Z</time>
      </trkpt>
      <trkpt lat="42.3089" lon="0.28173">
        <ele>789.17</ele>
        <time>2021-08-02T11:36:10Z</time>
      </trkpt>
      <trkpt lat="42.30887" lon="0.28154">
        <ele>788.21</ele>
        <time>2021-08-02T11:36:11Z</time>
      </trkpt>
      <trkpt lat="42.30861" lon="0.28094">
        <ele>783.94</ele>
        <time>2021-08-02T11:36:15Z</time>
      </trkpt>
      <trkpt lat="42.30851" lon="0.28083">
        <ele>782.83</ele>
        <time>2021-08-02T11:36:16Z</time>
      </trkpt>
      <trkpt lat="42.30809" lon="0.28041">
        <ele>779.56</ele>
        <time>2021-08-02T11:36:20Z</time>
      </trkpt>
      <trkpt lat="42.30734" lon="0.28022">
        <ele>775.47</ele>
        <time>2021-08-02T11:36:26Z</time>
      </trkpt>
      <trkpt lat="42.30685" lon="0.2799">
        <ele>773.14</ele>
        <time>2021-08-02T11:36:31Z</time>
      </trkpt>
      <trkpt lat="42.30644" lon="0.27943">
        <ele>772.5</ele>
        <time>2021-08-02T11:36:35Z</time>
      </trkpt>
      <trkpt lat="42.30583" lon="0.27898">
        <ele>771.34</ele>
        <time>2021-08-02T11:36:41Z</time>
      </trkpt>
      <trkpt lat="42.30564" lon="0.27876">
        <ele>770.92</ele>
        <time>2021-08-02T11:36:43Z</time>
      </trkpt>
      <trkpt lat="42.30519" lon="0.27836">
        <ele>770.71</ele>
        <time>2021-08-02T11:36:47Z</time>
      </trkpt>
      <trkpt lat="42.30486" lon="0.27815">
        <ele>771.17</ele>
        <time>2021-08-02T11:36:50Z</time>
      </trkpt>
      <trkpt lat="42.30396" lon="0.27714">
        <ele>771.98</ele>
        <time>2021-08-02T11:37:00Z</time>
      </trkpt>
      <trkpt lat="42.30387" lon="0.27706">
        <ele>772.05</ele>
        <time>2021-08-02T11:37:01Z</time>
      </trkpt>
      <trkpt lat="42.303" lon="0.27589">
        <ele>774.73</ele>
        <time>2021-08-02T11:37:13Z</time>
      </trkpt>
      <trkpt lat="42.30295" lon="0.27582">
        <ele>775.02</ele>
        <time>2021-08-02T11:37:14Z</time>
      </trkpt>
      <trkpt lat="42.30273" lon="0.2757">
        <ele>776.12</ele>
        <time>2021-08-02T11:37:18Z</time>
      </trkpt>
      <trkpt lat="42.30255" lon="0.2757">
        <ele>776.98</ele>
        <time>2021-08-02T11:37:23Z</time>
      </trkpt>
      <trkpt lat="42.30206" lon="0.27551">
        <ele>778.16</ele>
        <time>2021-08-02T11:37:31Z</time>
      </trkpt>
      <trkpt lat="42.3019" lon="0.275">
        <ele>776.43</ele>
        <time>2021-08-02T11:37:38Z</time>
      </trkpt>
      <trkpt lat="42.30191" lon="0.27488">
        <ele>776.04</ele>
        <time>2021-08-02T11:37:39Z</time>
      </trkpt>
      <trkpt lat="42.30203" lon="0.27414">
        <ele>773.11</ele>
        <time>2021-08-02T11:37:45Z</time>
      </trkpt>
      <trkpt lat="42.30184" lon="0.2736">
        <ele>769.92</ele>
        <time>2021-08-02T11:37:50Z</time>
      </trkpt>
      <trkpt lat="42.30149" lon="0.27305">
        <ele>765.5</ele>
        <time>2021-08-02T11:37:56Z</time>
      </trkpt>
      <trkpt lat="42.30109" lon="0.27266">
        <ele>761</ele>
        <time>2021-08-02T11:38:01Z</time>
      </trkpt>
      <trkpt lat="42.30077" lon="0.2722">
        <ele>757.35</ele>
        <time>2021-08-02T11:38:05Z</time>
      </trkpt>
      <trkpt lat="42.3004" lon="0.27187">
        <ele>752.27</ele>
        <time>2021-08-02T11:38:09Z</time>
      </trkpt>
      <trkpt lat="42.30023" lon="0.27174">
        <ele>749.45</ele>
        <time>2021-08-02T11:38:11Z</time>
      </trkpt>
      <trkpt lat="42.3001" lon="0.27152">
        <ele>744.8</ele>
        <time>2021-08-02T11:38:14Z</time>
      </trkpt>
      <trkpt lat="42.30009" lon="0.27141">
        <ele>743.33</ele>
        <time>2021-08-02T11:38:15Z</time>
      </trkpt>
      <trkpt lat="42.30005" lon="0.27089">
        <ele>738.22</ele>
        <time>2021-08-02T11:38:19Z</time>
      </trkpt>
      <trkpt lat="42.30001" lon="0.27035">
        <ele>734.35</ele>
        <time>2021-08-02T11:38:23Z</time>
      </trkpt>
      <trkpt lat="42.3" lon="0.26981">
        <ele>731.31</ele>
        <time>2021-08-02T11:38:27Z</time>
      </trkpt>
      <trkpt lat="42.3001" lon="0.26882">
        <ele>727.92</ele>
        <time>2021-08-02T11:38:33Z</time>
      </trkpt>
      <trkpt lat="42.3002" lon="0.26778">
        <ele>724.36</ele>
        <time>2021-08-02T11:38:39Z</time>
      </trkpt>
      <trkpt lat="42.3002" lon="0.26745">
        <ele>723.24</ele>
        <time>2021-08-02T11:38:41Z</time>
      </trkpt>
      <trkpt lat="42.30056" lon="0.26629">
        <ele>721.01</ele>
        <time>2021-08-02T11:38:49Z</time>
      </trkpt>
      <trkpt lat="42.30097" lon="0.26597">
        <ele>722.09</ele>
        <time>2021-08-02T11:38:53Z</time>
      </trkpt>
      <trkpt lat="42.30154" lon="0.26504">
        <ele>724.1</ele>
        <time>2021-08-02T11:39:00Z</time>
      </trkpt>
      <trkpt lat="42.30174" lon="0.26445">
        <ele>724.47</ele>
        <time>2021-08-02T11:39:05Z</time>
      </trkpt>
      <trkpt lat="42.30203" lon="0.2642">
        <ele>724.88</ele>
        <time>2021-08-02T11:39:08Z</time>
      </trkpt>
      <trkpt lat="42.30273" lon="0.26346">
        <ele>728.48</ele>
        <time>2021-08-02T11:39:15Z</time>
      </trkpt>
      <trkpt lat="42.30324" lon="0.26263">
        <ele>730.02</ele>
        <time>2021-08-02T11:39:21Z</time>
      </trkpt>
      <trkpt lat="42.30334" lon="0.26232">
        <ele>730.21</ele>
        <time>2021-08-02T11:39:23Z</time>
      </trkpt>
      <trkpt lat="42.30389" lon="0.26173">
        <ele>730.64</ele>
        <time>2021-08-02T11:39:29Z</time>
      </trkpt>
      <trkpt lat="42.30515" lon="0.26115">
        <ele>734.21</ele>
        <time>2021-08-02T11:39:38Z</time>
      </trkpt>
      <trkpt lat="42.30568" lon="0.26084">
        <ele>737.53</ele>
        <time>2021-08-02T11:39:42Z</time>
      </trkpt>
      <trkpt lat="42.30602" lon="0.26047">
        <ele>738.77</ele>
        <time>2021-08-02T11:39:45Z</time>
      </trkpt>
      <trkpt lat="42.30642" lon="0.2599">
        <ele>739.57</ele>
        <time>2021-08-02T11:39:49Z</time>
      </trkpt>
      <trkpt lat="42.3074" lon="0.25908">
        <ele>742.65</ele>
        <time>2021-08-02T11:39:58Z</time>
      </trkpt>
      <trkpt lat="42.30802" lon="0.25928">
        <ele>744.08</ele>
        <time>2021-08-02T11:40:04Z</time>
      </trkpt>
      <trkpt lat="42.30819" lon="0.25985">
        <ele>743.34</ele>
        <time>2021-08-02T11:40:09Z</time>
      </trkpt>
      <trkpt lat="42.30846" lon="0.25969">
        <ele>741.88</ele>
        <time>2021-08-02T11:40:13Z</time>
      </trkpt>
      <trkpt lat="42.30863" lon="0.25871">
        <ele>741.98</ele>
        <time>2021-08-02T11:40:19Z</time>
      </trkpt>
      <trkpt lat="42.30873" lon="0.25838">
        <ele>742.74</ele>
        <time>2021-08-02T11:40:21Z</time>
      </trkpt>
      <trkpt lat="42.30944" lon="0.25812">
        <ele>743.7</ele>
        <time>2021-08-02T11:40:28Z</time>
      </trkpt>
      <trkpt lat="42.30979" lon="0.25801">
        <ele>743.75</ele>
        <time>2021-08-02T11:40:31Z</time>
      </trkpt>
      <trkpt lat="42.31043" lon="0.25812">
        <ele>742.2</ele>
        <time>2021-08-02T11:40:37Z</time>
      </trkpt>
      <trkpt lat="42.31074" lon="0.25793">
        <ele>739.93</ele>
        <time>2021-08-02T11:40:41Z</time>
      </trkpt>
      <trkpt lat="42.31054" lon="0.25747">
        <ele>738.31</ele>
        <time>2021-08-02T11:40:45Z</time>
      </trkpt>
      <trkpt lat="42.31037" lon="0.25726">
        <ele>737.98</ele>
        <time>2021-08-02T11:40:47Z</time>
      </trkpt>
      <trkpt lat="42.31021" lon="0.25691">
        <ele>738.02</ele>
        <time>2021-08-02T11:40:50Z</time>
      </trkpt>
      <trkpt lat="42.30983" lon="0.25682">
        <ele>738.62</ele>
        <time>2021-08-02T11:40:55Z</time>
      </trkpt>
      <trkpt lat="42.30949" lon="0.25629">
        <ele>739.78</ele>
        <time>2021-08-02T11:41:00Z</time>
      </trkpt>
      <trkpt lat="42.30941" lon="0.25595">
        <ele>740.69</ele>
        <time>2021-08-02T11:41:02Z</time>
      </trkpt>
      <trkpt lat="42.30908" lon="0.25548">
        <ele>741.27</ele>
        <time>2021-08-02T11:41:06Z</time>
      </trkpt>
      <trkpt lat="42.30886" lon="0.25531">
        <ele>741.03</ele>
        <time>2021-08-02T11:41:08Z</time>
      </trkpt>
      <trkpt lat="42.30877" lon="0.25486">
        <ele>738.72</ele>
        <time>2021-08-02T11:41:12Z</time>
      </trkpt>
      <trkpt lat="42.3087" lon="0.25459">
        <ele>735.11</ele>
        <time>2021-08-02T11:41:16Z</time>
      </trkpt>
      <trkpt lat="42.30862" lon="0.25459">
        <ele>734.43</ele>
        <time>2021-08-02T11:41:17Z</time>
      </trkpt>
      <trkpt lat="42.30842" lon="0.25461">
        <ele>732.83</ele>
        <time>2021-08-02T11:41:19Z</time>
      </trkpt>
      <trkpt lat="42.3082" lon="0.25455">
        <ele>732.17</ele>
        <time>2021-08-02T11:41:21Z</time>
      </trkpt>
      <trkpt lat="42.30796" lon="0.25388">
        <ele>731.17</ele>
        <time>2021-08-02T11:41:26Z</time>
      </trkpt>
      <trkpt lat="42.30777" lon="0.25329">
        <ele>730.74</ele>
        <time>2021-08-02T11:41:31Z</time>
      </trkpt>
      <trkpt lat="42.30689" lon="0.25206">
        <ele>733.5</ele>
        <time>2021-08-02T11:41:39Z</time>
      </trkpt>
      <trkpt lat="42.30666" lon="0.25173">
        <ele>735.06</ele>
        <time>2021-08-02T11:41:41Z</time>
      </trkpt>
      <trkpt lat="42.30622" lon="0.25115">
        <ele>737.4</ele>
        <time>2021-08-02T11:41:47Z</time>
      </trkpt>
      <trkpt lat="42.30633" lon="0.25095">
        <ele>737.08</ele>
        <time>2021-08-02T11:41:49Z</time>
      </trkpt>
      <trkpt lat="42.30688" lon="0.2503">
        <ele>735.96</ele>
        <time>2021-08-02T11:41:54Z</time>
      </trkpt>
      <trkpt lat="42.30728" lon="0.25021">
        <ele>732.97</ele>
        <time>2021-08-02T11:41:58Z</time>
      </trkpt>
      <trkpt lat="42.30748" lon="0.24986">
        <ele>728.55</ele>
        <time>2021-08-02T11:42:03Z</time>
      </trkpt>
      <trkpt lat="42.30702" lon="0.24953">
        <ele>726.95</ele>
        <time>2021-08-02T11:42:07Z</time>
      </trkpt>
      <trkpt lat="42.30687" lon="0.24949">
        <ele>726.86</ele>
        <time>2021-08-02T11:42:08Z</time>
      </trkpt>
      <trkpt lat="42.30629" lon="0.24934">
        <ele>726.92</ele>
        <time>2021-08-02T11:42:12Z</time>
      </trkpt>
      <trkpt lat="42.30583" lon="0.24853">
        <ele>728.55</ele>
        <time>2021-08-02T11:42:18Z</time>
      </trkpt>
      <trkpt lat="42.30583" lon="0.24834">
        <ele>729.18</ele>
        <time>2021-08-02T11:42:19Z</time>
      </trkpt>
      <trkpt lat="42.30591" lon="0.24738">
        <ele>733.56</ele>
        <time>2021-08-02T11:42:24Z</time>
      </trkpt>
      <trkpt lat="42.30632" lon="0.24665">
        <ele>738.34</ele>
        <time>2021-08-02T11:42:29Z</time>
      </trkpt>
      <trkpt lat="42.30672" lon="0.24659">
        <ele>741.21</ele>
        <time>2021-08-02T11:42:32Z</time>
      </trkpt>
      <trkpt lat="42.30724" lon="0.24667">
        <ele>745.69</ele>
        <time>2021-08-02T11:42:36Z</time>
      </trkpt>
      <trkpt lat="42.30763" lon="0.24672">
        <ele>749.58</ele>
        <time>2021-08-02T11:42:39Z</time>
      </trkpt>
      <trkpt lat="42.30788" lon="0.24675">
        <ele>751.91</ele>
        <time>2021-08-02T11:42:41Z</time>
      </trkpt>
      <trkpt lat="42.30862" lon="0.24669">
        <ele>756.4</ele>
        <time>2021-08-02T11:42:46Z</time>
      </trkpt>
      <trkpt lat="42.30935" lon="0.24642">
        <ele>759.64</ele>
        <time>2021-08-02T11:42:51Z</time>
      </trkpt>
      <trkpt lat="42.30959" lon="0.24632">
        <ele>760.46</ele>
        <time>2021-08-02T11:42:53Z</time>
      </trkpt>
      <trkpt lat="42.30996" lon="0.24564">
        <ele>761.57</ele>
        <time>2021-08-02T11:42:59Z</time>
      </trkpt>
      <trkpt lat="42.3098" lon="0.24533">
        <ele>761.77</ele>
        <time>2021-08-02T11:43:01Z</time>
      </trkpt>
      <trkpt lat="42.30923" lon="0.24443">
        <ele>764.63</ele>
        <time>2021-08-02T11:43:07Z</time>
      </trkpt>
      <trkpt lat="42.30927" lon="0.24383">
        <ele>767.39</ele>
        <time>2021-08-02T11:43:12Z</time>
      </trkpt>
      <trkpt lat="42.30989" lon="0.24316">
        <ele>771.73</ele>
        <time>2021-08-02T11:43:18Z</time>
      </trkpt>
      <trkpt lat="42.31048" lon="0.24278">
        <ele>774.82</ele>
        <time>2021-08-02T11:43:22Z</time>
      </trkpt>
      <trkpt lat="42.31118" lon="0.24274">
        <ele>777</ele>
        <time>2021-08-02T11:43:27Z</time>
      </trkpt>
      <trkpt lat="42.31187" lon="0.24283">
        <ele>778.03</ele>
        <time>2021-08-02T11:43:32Z</time>
      </trkpt>
      <trkpt lat="42.31284" lon="0.24306">
        <ele>778.13</ele>
        <time>2021-08-02T11:43:40Z</time>
      </trkpt>
      <trkpt lat="42.31321" lon="0.24289">
        <ele>776.19</ele>
        <time>2021-08-02T11:43:46Z</time>
      </trkpt>
      <trkpt lat="42.31318" lon="0.24267">
        <ele>774.44</ele>
        <time>2021-08-02T11:43:49Z</time>
      </trkpt>
      <trkpt lat="42.31299" lon="0.24149">
        <ele>773.31</ele>
        <time>2021-08-02T11:43:57Z</time>
      </trkpt>
      <trkpt lat="42.31251" lon="0.24059">
        <ele>774.99</ele>
        <time>2021-08-02T11:44:03Z</time>
      </trkpt>
      <trkpt lat="42.31236" lon="0.23986">
        <ele>776.52</ele>
        <time>2021-08-02T11:44:07Z</time>
      </trkpt>
      <trkpt lat="42.31187" lon="0.2389">
        <ele>777.45</ele>
        <time>2021-08-02T11:44:13Z</time>
      </trkpt>
      <trkpt lat="42.3117" lon="0.23885">
        <ele>777.47</ele>
        <time>2021-08-02T11:44:14Z</time>
      </trkpt>
      <trkpt lat="42.31103" lon="0.23867">
        <ele>777.63</ele>
        <time>2021-08-02T11:44:18Z</time>
      </trkpt>
      <trkpt lat="42.31052" lon="0.2382">
        <ele>777.52</ele>
        <time>2021-08-02T11:44:22Z</time>
      </trkpt>
      <trkpt lat="42.3103" lon="0.23792">
        <ele>777.14</ele>
        <time>2021-08-02T11:44:24Z</time>
      </trkpt>
      <trkpt lat="42.30975" lon="0.23762">
        <ele>775.82</ele>
        <time>2021-08-02T11:44:28Z</time>
      </trkpt>
      <trkpt lat="42.30846" lon="0.23727">
        <ele>773.88</ele>
        <time>2021-08-02T11:44:35Z</time>
      </trkpt>
      <trkpt lat="42.30748" lon="0.23749">
        <ele>769.07</ele>
        <time>2021-08-02T11:44:40Z</time>
      </trkpt>
      <trkpt lat="42.30731" lon="0.23763">
        <ele>767.73</ele>
        <time>2021-08-02T11:44:41Z</time>
      </trkpt>
      <trkpt lat="42.30681" lon="0.23811">
        <ele>763.03</ele>
        <time>2021-08-02T11:44:44Z</time>
      </trkpt>
      <trkpt lat="42.30662" lon="0.23825">
        <ele>761.3</ele>
        <time>2021-08-02T11:44:45Z</time>
      </trkpt>
      <trkpt lat="42.30601" lon="0.23854">
        <ele>756.14</ele>
        <time>2021-08-02T11:44:48Z</time>
      </trkpt>
      <trkpt lat="42.30557" lon="0.23856">
        <ele>753.22</ele>
        <time>2021-08-02T11:44:50Z</time>
      </trkpt>
      <trkpt lat="42.3049" lon="0.23845">
        <ele>748.35</ele>
        <time>2021-08-02T11:44:53Z</time>
      </trkpt>
      <trkpt lat="42.30446" lon="0.2384">
        <ele>744.59</ele>
        <time>2021-08-02T11:44:55Z</time>
      </trkpt>
      <trkpt lat="42.30402" lon="0.23836">
        <ele>740.36</ele>
        <time>2021-08-02T11:44:57Z</time>
      </trkpt>
      <trkpt lat="42.30347" lon="0.23813">
        <ele>733.99</ele>
        <time>2021-08-02T11:45:00Z</time>
      </trkpt>
      <trkpt lat="42.30332" lon="0.238">
        <ele>731.94</ele>
        <time>2021-08-02T11:45:01Z</time>
      </trkpt>
      <trkpt lat="42.30303" lon="0.23774">
        <ele>727.87</ele>
        <time>2021-08-02T11:45:03Z</time>
      </trkpt>
      <trkpt lat="42.30252" lon="0.23758">
        <ele>722.69</ele>
        <time>2021-08-02T11:45:06Z</time>
      </trkpt>
      <trkpt lat="42.30218" lon="0.23768">
        <ele>719.58</ele>
        <time>2021-08-02T11:45:08Z</time>
      </trkpt>
      <trkpt lat="42.30202" lon="0.23778">
        <ele>718.07</ele>
        <time>2021-08-02T11:45:09Z</time>
      </trkpt>
      <trkpt lat="42.30147" lon="0.23816">
        <ele>713.18</ele>
        <time>2021-08-02T11:45:13Z</time>
      </trkpt>
      <trkpt lat="42.30082" lon="0.23821">
        <ele>708.81</ele>
        <time>2021-08-02T11:45:17Z</time>
      </trkpt>
      <trkpt lat="42.30009" lon="0.23839">
        <ele>704.96</ele>
        <time>2021-08-02T11:45:21Z</time>
      </trkpt>
      <trkpt lat="42.29958" lon="0.23871">
        <ele>703.02</ele>
        <time>2021-08-02T11:45:24Z</time>
      </trkpt>
      <trkpt lat="42.29845" lon="0.23875">
        <ele>705.19</ele>
        <time>2021-08-02T11:45:30Z</time>
      </trkpt>
      <trkpt lat="42.29752" lon="0.23833">
        <ele>709.46</ele>
        <time>2021-08-02T11:45:35Z</time>
      </trkpt>
      <trkpt lat="42.29719" lon="0.23819">
        <ele>711.3</ele>
        <time>2021-08-02T11:45:37Z</time>
      </trkpt>
      <trkpt lat="42.29658" lon="0.23827">
        <ele>713.91</ele>
        <time>2021-08-02T11:45:41Z</time>
      </trkpt>
      <trkpt lat="42.29566" lon="0.23847">
        <ele>715.34</ele>
        <time>2021-08-02T11:45:47Z</time>
      </trkpt>
      <trkpt lat="42.29522" lon="0.23804">
        <ele>715.47</ele>
        <time>2021-08-02T11:45:50Z</time>
      </trkpt>
      <trkpt lat="42.29478" lon="0.23751">
        <ele>715.01</ele>
        <time>2021-08-02T11:45:53Z</time>
      </trkpt>
      <trkpt lat="42.29383" lon="0.23703">
        <ele>711.97</ele>
        <time>2021-08-02T11:45:58Z</time>
      </trkpt>
      <trkpt lat="42.29318" lon="0.23689">
        <ele>707.59</ele>
        <time>2021-08-02T11:46:01Z</time>
      </trkpt>
      <trkpt lat="42.29277" lon="0.23677">
        <ele>703.94</ele>
        <time>2021-08-02T11:46:03Z</time>
      </trkpt>
      <trkpt lat="42.2924" lon="0.23665">
        <ele>700.68</ele>
        <time>2021-08-02T11:46:05Z</time>
      </trkpt>
      <trkpt lat="42.2919" lon="0.2363">
        <ele>696.18</ele>
        <time>2021-08-02T11:46:08Z</time>
      </trkpt>
      <trkpt lat="42.29152" lon="0.23566">
        <ele>691.87</ele>
        <time>2021-08-02T11:46:11Z</time>
      </trkpt>
      <trkpt lat="42.29142" lon="0.23543">
        <ele>690.29</ele>
        <time>2021-08-02T11:46:12Z</time>
      </trkpt>
      <trkpt lat="42.29115" lon="0.23471">
        <ele>683.08</ele>
        <time>2021-08-02T11:46:15Z</time>
      </trkpt>
      <trkpt lat="42.29108" lon="0.23446">
        <ele>681.33</ele>
        <time>2021-08-02T11:46:16Z</time>
      </trkpt>
      <trkpt lat="42.29095" lon="0.23365">
        <ele>675.64</ele>
        <time>2021-08-02T11:46:19Z</time>
      </trkpt>
      <trkpt lat="42.29093" lon="0.23311">
        <ele>671.32</ele>
        <time>2021-08-02T11:46:21Z</time>
      </trkpt>
      <trkpt lat="42.29092" lon="0.23257">
        <ele>666.68</ele>
        <time>2021-08-02T11:46:23Z</time>
      </trkpt>
      <trkpt lat="42.2909" lon="0.23201">
        <ele>662.27</ele>
        <time>2021-08-02T11:46:25Z</time>
      </trkpt>
      <trkpt lat="42.29091" lon="0.23144">
        <ele>658.14</ele>
        <time>2021-08-02T11:46:27Z</time>
      </trkpt>
      <trkpt lat="42.2909" lon="0.23091">
        <ele>654.4</ele>
        <time>2021-08-02T11:46:29Z</time>
      </trkpt>
      <trkpt lat="42.29089" lon="0.23042">
        <ele>650.81</ele>
        <time>2021-08-02T11:46:31Z</time>
      </trkpt>
      <trkpt lat="42.2909" lon="0.23002">
        <ele>647.02</ele>
        <time>2021-08-02T11:46:33Z</time>
      </trkpt>
      <trkpt lat="42.29088" lon="0.22986">
        <ele>644.82</ele>
        <time>2021-08-02T11:46:34Z</time>
      </trkpt>
      <trkpt lat="42.2907" lon="0.2294">
        <ele>637.54</ele>
        <time>2021-08-02T11:46:37Z</time>
      </trkpt>
      <trkpt lat="42.29061" lon="0.22924">
        <ele>635.22</ele>
        <time>2021-08-02T11:46:38Z</time>
      </trkpt>
      <trkpt lat="42.29046" lon="0.22866">
        <ele>628.74</ele>
        <time>2021-08-02T11:46:41Z</time>
      </trkpt>
      <trkpt lat="42.29049" lon="0.22821">
        <ele>624.99</ele>
        <time>2021-08-02T11:46:43Z</time>
      </trkpt>
      <trkpt lat="42.29055" lon="0.22751">
        <ele>620.24</ele>
        <time>2021-08-02T11:46:46Z</time>
      </trkpt>
      <trkpt lat="42.29061" lon="0.22687">
        <ele>615.94</ele>
        <time>2021-08-02T11:46:49Z</time>
      </trkpt>
      <trkpt lat="42.29077" lon="0.22638">
        <ele>611.11</ele>
        <time>2021-08-02T11:46:52Z</time>
      </trkpt>
      <trkpt lat="42.291" lon="0.2262">
        <ele>607.37</ele>
        <time>2021-08-02T11:46:54Z</time>
      </trkpt>
      <trkpt lat="42.2913" lon="0.22618">
        <ele>603.73</ele>
        <time>2021-08-02T11:46:56Z</time>
      </trkpt>
      <trkpt lat="42.29161" lon="0.22619">
        <ele>600.13</ele>
        <time>2021-08-02T11:46:58Z</time>
      </trkpt>
      <trkpt lat="42.29189" lon="0.22609">
        <ele>596.65</ele>
        <time>2021-08-02T11:47:00Z</time>
      </trkpt>
      <trkpt lat="42.29209" lon="0.22586">
        <ele>593.28</ele>
        <time>2021-08-02T11:47:02Z</time>
      </trkpt>
      <trkpt lat="42.2922" lon="0.22552">
        <ele>590.08</ele>
        <time>2021-08-02T11:47:04Z</time>
      </trkpt>
      <trkpt lat="42.29223" lon="0.22533">
        <ele>588.52</ele>
        <time>2021-08-02T11:47:05Z</time>
      </trkpt>
      <trkpt lat="42.29232" lon="0.22475">
        <ele>583.75</ele>
        <time>2021-08-02T11:47:08Z</time>
      </trkpt>
      <trkpt lat="42.29237" lon="0.22456">
        <ele>582.11</ele>
        <time>2021-08-02T11:47:09Z</time>
      </trkpt>
      <trkpt lat="42.29255" lon="0.22408">
        <ele>577.2</ele>
        <time>2021-08-02T11:47:12Z</time>
      </trkpt>
      <trkpt lat="42.29275" lon="0.2238">
        <ele>574</ele>
        <time>2021-08-02T11:47:14Z</time>
      </trkpt>
      <trkpt lat="42.29308" lon="0.22342">
        <ele>569.37</ele>
        <time>2021-08-02T11:47:17Z</time>
      </trkpt>
      <trkpt lat="42.29329" lon="0.22297">
        <ele>564.74</ele>
        <time>2021-08-02T11:47:20Z</time>
      </trkpt>
      <trkpt lat="42.29333" lon="0.22281">
        <ele>563.34</ele>
        <time>2021-08-02T11:47:21Z</time>
      </trkpt>
      <trkpt lat="42.29348" lon="0.22228">
        <ele>557.27</ele>
        <time>2021-08-02T11:47:25Z</time>
      </trkpt>
      <trkpt lat="42.29365" lon="0.22219">
        <ele>554.15</ele>
        <time>2021-08-02T11:47:27Z</time>
      </trkpt>
      <trkpt lat="42.29392" lon="0.22238">
        <ele>551.15</ele>
        <time>2021-08-02T11:47:29Z</time>
      </trkpt>
      <trkpt lat="42.29456" lon="0.22283">
        <ele>546.78</ele>
        <time>2021-08-02T11:47:33Z</time>
      </trkpt>
      <trkpt lat="42.29529" lon="0.22319">
        <ele>543.13</ele>
        <time>2021-08-02T11:47:37Z</time>
      </trkpt>
      <trkpt lat="42.2956" lon="0.22332">
        <ele>540.93</ele>
        <time>2021-08-02T11:47:39Z</time>
      </trkpt>
      <trkpt lat="42.29594" lon="0.22322">
        <ele>536.07</ele>
        <time>2021-08-02T11:47:42Z</time>
      </trkpt>
      <trkpt lat="42.2961" lon="0.22298">
        <ele>532.74</ele>
        <time>2021-08-02T11:47:44Z</time>
      </trkpt>
      <trkpt lat="42.29615" lon="0.22267">
        <ele>529.54</ele>
        <time>2021-08-02T11:47:46Z</time>
      </trkpt>
      <trkpt lat="42.29599" lon="0.22217">
        <ele>526.6</ele>
        <time>2021-08-02T11:47:48Z</time>
      </trkpt>
      <trkpt lat="42.29564" lon="0.22104">
        <ele>520.94</ele>
        <time>2021-08-02T11:47:53Z</time>
      </trkpt>
      <trkpt lat="42.29557" lon="0.22082">
        <ele>520.94</ele>
        <time>2021-08-02T11:47:54Z</time>
      </trkpt>
      <trkpt lat="42.29544" lon="0.22012">
        <ele>517.37</ele>
        <time>2021-08-02T11:47:57Z</time>
      </trkpt>
      <trkpt lat="42.29541" lon="0.21942">
        <ele>514.19</ele>
        <time>2021-08-02T11:48:00Z</time>
      </trkpt>
      <trkpt lat="42.29542" lon="0.21888">
        <ele>509.56</ele>
        <time>2021-08-02T11:48:03Z</time>
      </trkpt>
      <trkpt lat="42.29542" lon="0.21861">
        <ele>505.75</ele>
        <time>2021-08-02T11:48:05Z</time>
      </trkpt>
      <trkpt lat="42.29543" lon="0.2184">
        <ele>501.7</ele>
        <time>2021-08-02T11:48:07Z</time>
      </trkpt>
      <trkpt lat="42.29544" lon="0.21823">
        <ele>497.73</ele>
        <time>2021-08-02T11:48:09Z</time>
      </trkpt>
      <trkpt lat="42.29546" lon="0.21806">
        <ele>494.16</ele>
        <time>2021-08-02T11:48:11Z</time>
      </trkpt>
      <trkpt lat="42.29552" lon="0.21781">
        <ele>489.9</ele>
        <time>2021-08-02T11:48:14Z</time>
      </trkpt>
      <trkpt lat="42.29562" lon="0.21753">
        <ele>486.47</ele>
        <time>2021-08-02T11:48:17Z</time>
      </trkpt>
      <trkpt lat="42.29572" lon="0.21724">
        <ele>482.61</ele>
        <time>2021-08-02T11:48:21Z</time>
      </trkpt>
      <trkpt lat="42.29581" lon="0.21709">
        <ele>479.14</ele>
        <time>2021-08-02T11:48:25Z</time>
      </trkpt>
      <trkpt lat="42.29591" lon="0.21666">
        <ele>475.11</ele>
        <time>2021-08-02T11:48:32Z</time>
      </trkpt>
      <trkpt lat="42.29597" lon="0.21628">
        <ele>472.23</ele>
        <time>2021-08-02T11:48:42Z</time>
      </trkpt>
      <trkpt lat="42.29601" lon="0.21617">
        <ele>471.72</ele>
        <time>2021-08-02T11:48:55Z</time>
      </trkpt>
      <trkpt lat="42.29605" lon="0.216">
        <ele>471.52</ele>
        <time>2021-08-02T11:49:09Z</time>
      </trkpt>
      <trkpt lat="42.29602" lon="0.21612">
        <ele>471.32</ele>
        <time>2021-08-02T11:49:28Z</time>
      </trkpt>
      <trkpt lat="42.29599" lon="0.21621">
        <ele>471.47</ele>
        <time>2021-08-02T11:49:50Z</time>
      </trkpt>
      <trkpt lat="42.296" lon="0.2162">
        <ele>471.75</ele>
        <time>2021-08-02T11:50:13Z</time>
      </trkpt>
      <trkpt lat="42.29601" lon="0.21615">
        <ele>471.75</ele>
        <time>2021-08-02T11:50:37Z</time>
      </trkpt>
      <trkpt lat="42.29601" lon="0.21613">
        <ele>471.75</ele>
        <time>2021-08-02T11:50:42Z</time>
      </trkpt>
      <trkpt lat="42.29602" lon="0.21596">
        <ele>471.75</ele>
        <time>2021-08-02T11:50:46Z</time>
      </trkpt>
      <trkpt lat="42.29611" lon="0.21538">
        <ele>472.93</ele>
        <time>2021-08-02T11:50:52Z</time>
      </trkpt>
      <trkpt lat="42.29589" lon="0.21491">
        <ele>473.77</ele>
        <time>2021-08-02T11:50:57Z</time>
      </trkpt>
      <trkpt lat="42.29548" lon="0.21454">
        <ele>474.79</ele>
        <time>2021-08-02T11:51:01Z</time>
      </trkpt>
      <trkpt lat="42.29505" lon="0.21386">
        <ele>478.27</ele>
        <time>2021-08-02T11:51:06Z</time>
      </trkpt>
      <trkpt lat="42.29489" lon="0.21354">
        <ele>480.29</ele>
        <time>2021-08-02T11:51:08Z</time>
      </trkpt>
      <trkpt lat="42.29453" lon="0.21316">
        <ele>486.1</ele>
        <time>2021-08-02T11:51:12Z</time>
      </trkpt>
      <trkpt lat="42.29405" lon="0.21276">
        <ele>491.48</ele>
        <time>2021-08-02T11:51:17Z</time>
      </trkpt>
      <trkpt lat="42.29362" lon="0.21241">
        <ele>496.24</ele>
        <time>2021-08-02T11:51:21Z</time>
      </trkpt>
      <trkpt lat="42.29323" lon="0.21218">
        <ele>499.77</ele>
        <time>2021-08-02T11:51:24Z</time>
      </trkpt>
      <trkpt lat="42.29287" lon="0.21202">
        <ele>503.07</ele>
        <time>2021-08-02T11:51:27Z</time>
      </trkpt>
      <trkpt lat="42.29233" lon="0.21188">
        <ele>506.77</ele>
        <time>2021-08-02T11:51:31Z</time>
      </trkpt>
      <trkpt lat="42.29175" lon="0.21181">
        <ele>510.61</ele>
        <time>2021-08-02T11:51:35Z</time>
      </trkpt>
      <trkpt lat="42.29122" lon="0.21183">
        <ele>514.38</ele>
        <time>2021-08-02T11:51:39Z</time>
      </trkpt>
      <trkpt lat="42.29096" lon="0.21183">
        <ele>516.3</ele>
        <time>2021-08-02T11:51:41Z</time>
      </trkpt>
      <trkpt lat="42.29042" lon="0.21165">
        <ele>520.6</ele>
        <time>2021-08-02T11:51:45Z</time>
      </trkpt>
      <trkpt lat="42.29015" lon="0.2115">
        <ele>523.06</ele>
        <time>2021-08-02T11:51:47Z</time>
      </trkpt>
      <trkpt lat="42.28969" lon="0.21104">
        <ele>528.85</ele>
        <time>2021-08-02T11:51:51Z</time>
      </trkpt>
      <trkpt lat="42.28953" lon="0.21069">
        <ele>531.88</ele>
        <time>2021-08-02T11:51:53Z</time>
      </trkpt>
      <trkpt lat="42.28929" lon="0.21013">
        <ele>536.65</ele>
        <time>2021-08-02T11:51:56Z</time>
      </trkpt>
      <trkpt lat="42.2892" lon="0.20995">
        <ele>538.27</ele>
        <time>2021-08-02T11:51:57Z</time>
      </trkpt>
      <trkpt lat="42.28881" lon="0.20955">
        <ele>543.3</ele>
        <time>2021-08-02T11:52:00Z</time>
      </trkpt>
      <trkpt lat="42.28855" lon="0.20934">
        <ele>546.39</ele>
        <time>2021-08-02T11:52:02Z</time>
      </trkpt>
      <trkpt lat="42.28822" lon="0.209">
        <ele>549.94</ele>
        <time>2021-08-02T11:52:05Z</time>
      </trkpt>
      <trkpt lat="42.2878" lon="0.20851">
        <ele>553.02</ele>
        <time>2021-08-02T11:52:09Z</time>
      </trkpt>
      <trkpt lat="42.28724" lon="0.20771">
        <ele>556.09</ele>
        <time>2021-08-02T11:52:14Z</time>
      </trkpt>
      <trkpt lat="42.2866" lon="0.20663">
        <ele>559.54</ele>
        <time>2021-08-02T11:52:20Z</time>
      </trkpt>
      <trkpt lat="42.28591" lon="0.20507">
        <ele>561.82</ele>
        <time>2021-08-02T11:52:27Z</time>
      </trkpt>
      <trkpt lat="42.28508" lon="0.20285">
        <ele>562.28</ele>
        <time>2021-08-02T11:52:36Z</time>
      </trkpt>
      <trkpt lat="42.28488" lon="0.2012">
        <ele>560.6</ele>
        <time>2021-08-02T11:52:43Z</time>
      </trkpt>
      <trkpt lat="42.28485" lon="0.201">
        <ele>559.92</ele>
        <time>2021-08-02T11:52:44Z</time>
      </trkpt>
      <trkpt lat="42.28473" lon="0.20064">
        <ele>558.19</ele>
        <time>2021-08-02T11:52:46Z</time>
      </trkpt>
      <trkpt lat="42.28447" lon="0.20041">
        <ele>556.2</ele>
        <time>2021-08-02T11:52:48Z</time>
      </trkpt>
      <trkpt lat="42.28399" lon="0.2005">
        <ele>552.74</ele>
        <time>2021-08-02T11:52:51Z</time>
      </trkpt>
      <trkpt lat="42.28386" lon="0.20064">
        <ele>550.15</ele>
        <time>2021-08-02T11:52:52Z</time>
      </trkpt>
      <trkpt lat="42.28317" lon="0.20084">
        <ele>543.35</ele>
        <time>2021-08-02T11:52:57Z</time>
      </trkpt>
      <trkpt lat="42.28285" lon="0.20039">
        <ele>539</ele>
        <time>2021-08-02T11:53:00Z</time>
      </trkpt>
      <trkpt lat="42.28233" lon="0.19953">
        <ele>531.92</ele>
        <time>2021-08-02T11:53:05Z</time>
      </trkpt>
      <trkpt lat="42.2819" lon="0.19916">
        <ele>526.96</ele>
        <time>2021-08-02T11:53:08Z</time>
      </trkpt>
      <trkpt lat="42.28166" lon="0.19893">
        <ele>523.22</ele>
        <time>2021-08-02T11:53:10Z</time>
      </trkpt>
      <trkpt lat="42.28158" lon="0.19881">
        <ele>521.23</ele>
        <time>2021-08-02T11:53:11Z</time>
      </trkpt>
      <trkpt lat="42.28139" lon="0.19837">
        <ele>515.14</ele>
        <time>2021-08-02T11:53:14Z</time>
      </trkpt>
      <trkpt lat="42.28134" lon="0.19801">
        <ele>511.68</ele>
        <time>2021-08-02T11:53:16Z</time>
      </trkpt>
      <trkpt lat="42.28141" lon="0.19747">
        <ele>507.3</ele>
        <time>2021-08-02T11:53:19Z</time>
      </trkpt>
      <trkpt lat="42.28159" lon="0.19704">
        <ele>503.02</ele>
        <time>2021-08-02T11:53:22Z</time>
      </trkpt>
      <trkpt lat="42.28183" lon="0.19657">
        <ele>498.27</ele>
        <time>2021-08-02T11:53:26Z</time>
      </trkpt>
      <trkpt lat="42.28198" lon="0.19631">
        <ele>494.91</ele>
        <time>2021-08-02T11:53:29Z</time>
      </trkpt>
      <trkpt lat="42.28202" lon="0.19625">
        <ele>493.83</ele>
        <time>2021-08-02T11:53:30Z</time>
      </trkpt>
      <trkpt lat="42.28207" lon="0.1962">
        <ele>492.8</ele>
        <time>2021-08-02T11:53:31Z</time>
      </trkpt>
      <trkpt lat="42.28211" lon="0.19617">
        <ele>491.83</ele>
        <time>2021-08-02T11:53:32Z</time>
      </trkpt>
      <trkpt lat="42.28216" lon="0.19618">
        <ele>488.78</ele>
        <time>2021-08-02T11:53:37Z</time>
      </trkpt>
      <trkpt lat="42.28224" lon="0.19607">
        <ele>487.46</ele>
        <time>2021-08-02T11:54:00Z</time>
      </trkpt>
      <trkpt lat="42.28203" lon="0.19583">
        <ele>488.36</ele>
        <time>2021-08-02T11:54:06Z</time>
      </trkpt>
      <trkpt lat="42.2817" lon="0.19591">
        <ele>488.91</ele>
        <time>2021-08-02T11:54:09Z</time>
      </trkpt>
      <trkpt lat="42.2813" lon="0.19593">
        <ele>489.08</ele>
        <time>2021-08-02T11:54:12Z</time>
      </trkpt>
      <trkpt lat="42.28065" lon="0.19557">
        <ele>487.78</ele>
        <time>2021-08-02T11:54:17Z</time>
      </trkpt>
      <trkpt lat="42.28053" lon="0.19544">
        <ele>487.35</ele>
        <time>2021-08-02T11:54:18Z</time>
      </trkpt>
      <trkpt lat="42.28041" lon="0.19529">
        <ele>486.8</ele>
        <time>2021-08-02T11:54:19Z</time>
      </trkpt>
      <trkpt lat="42.2797" lon="0.19437">
        <ele>483.86</ele>
        <time>2021-08-02T11:54:25Z</time>
      </trkpt>
      <trkpt lat="42.27927" lon="0.19382">
        <ele>481.72</ele>
        <time>2021-08-02T11:54:29Z</time>
      </trkpt>
      <trkpt lat="42.27889" lon="0.19329">
        <ele>479.4</ele>
        <time>2021-08-02T11:54:33Z</time>
      </trkpt>
      <trkpt lat="42.27861" lon="0.19306">
        <ele>478.14</ele>
        <time>2021-08-02T11:54:37Z</time>
      </trkpt>
      <trkpt lat="42.27863" lon="0.19267">
        <ele>476.88</ele>
        <time>2021-08-02T11:54:42Z</time>
      </trkpt>
      <trkpt lat="42.27859" lon="0.19227">
        <ele>476.91</ele>
        <time>2021-08-02T11:54:46Z</time>
      </trkpt>
      <trkpt lat="42.27853" lon="0.19204">
        <ele>477.31</ele>
        <time>2021-08-02T11:54:48Z</time>
      </trkpt>
      <trkpt lat="42.27831" lon="0.19095">
        <ele>480.78</ele>
        <time>2021-08-02T11:54:55Z</time>
      </trkpt>
      <trkpt lat="42.27814" lon="0.19036">
        <ele>483.88</ele>
        <time>2021-08-02T11:54:58Z</time>
      </trkpt>
      <trkpt lat="42.27802" lon="0.18968">
        <ele>487.58</ele>
        <time>2021-08-02T11:55:01Z</time>
      </trkpt>
      <trkpt lat="42.278" lon="0.18894">
        <ele>491.79</ele>
        <time>2021-08-02T11:55:04Z</time>
      </trkpt>
      <trkpt lat="42.27804" lon="0.18846">
        <ele>494.86</ele>
        <time>2021-08-02T11:55:06Z</time>
      </trkpt>
      <trkpt lat="42.27835" lon="0.18779">
        <ele>500.49</ele>
        <time>2021-08-02T11:55:10Z</time>
      </trkpt>
      <trkpt lat="42.27864" lon="0.18744">
        <ele>504.42</ele>
        <time>2021-08-02T11:55:13Z</time>
      </trkpt>
      <trkpt lat="42.27867" lon="0.18705">
        <ele>506.95</ele>
        <time>2021-08-02T11:55:15Z</time>
      </trkpt>
      <trkpt lat="42.2787" lon="0.18609">
        <ele>511.65</ele>
        <time>2021-08-02T11:55:19Z</time>
      </trkpt>
      <trkpt lat="42.27872" lon="0.18537">
        <ele>514.98</ele>
        <time>2021-08-02T11:55:22Z</time>
      </trkpt>
      <trkpt lat="42.27873" lon="0.18494">
        <ele>516.82</ele>
        <time>2021-08-02T11:55:24Z</time>
      </trkpt>
      <trkpt lat="42.27916" lon="0.18422">
        <ele>520.83</ele>
        <time>2021-08-02T11:55:29Z</time>
      </trkpt>
      <trkpt lat="42.27957" lon="0.18395">
        <ele>523.83</ele>
        <time>2021-08-02T11:55:32Z</time>
      </trkpt>
      <trkpt lat="42.28002" lon="0.18336">
        <ele>529.09</ele>
        <time>2021-08-02T11:55:36Z</time>
      </trkpt>
      <trkpt lat="42.28023" lon="0.18303">
        <ele>532.11</ele>
        <time>2021-08-02T11:55:38Z</time>
      </trkpt>
      <trkpt lat="42.2804" lon="0.18267">
        <ele>535.43</ele>
        <time>2021-08-02T11:55:40Z</time>
      </trkpt>
      <trkpt lat="42.28055" lon="0.18231">
        <ele>539.03</ele>
        <time>2021-08-02T11:55:42Z</time>
      </trkpt>
      <trkpt lat="42.28063" lon="0.18178">
        <ele>544.28</ele>
        <time>2021-08-02T11:55:45Z</time>
      </trkpt>
      <trkpt lat="42.28053" lon="0.18149">
        <ele>547.66</ele>
        <time>2021-08-02T11:55:47Z</time>
      </trkpt>
      <trkpt lat="42.28044" lon="0.18137">
        <ele>549.32</ele>
        <time>2021-08-02T11:55:48Z</time>
      </trkpt>
      <trkpt lat="42.28024" lon="0.18111">
        <ele>552.64</ele>
        <time>2021-08-02T11:55:50Z</time>
      </trkpt>
      <trkpt lat="42.28004" lon="0.18058">
        <ele>557.62</ele>
        <time>2021-08-02T11:55:53Z</time>
      </trkpt>
      <trkpt lat="42.27992" lon="0.18017">
        <ele>560.98</ele>
        <time>2021-08-02T11:55:55Z</time>
      </trkpt>
      <trkpt lat="42.27977" lon="0.17977">
        <ele>564.48</ele>
        <time>2021-08-02T11:55:57Z</time>
      </trkpt>
      <trkpt lat="42.27962" lon="0.17935">
        <ele>567.72</ele>
        <time>2021-08-02T11:55:59Z</time>
      </trkpt>
      <trkpt lat="42.27942" lon="0.1788">
        <ele>571.71</ele>
        <time>2021-08-02T11:56:02Z</time>
      </trkpt>
      <trkpt lat="42.27938" lon="0.17824">
        <ele>576.4</ele>
        <time>2021-08-02T11:56:06Z</time>
      </trkpt>
      <trkpt lat="42.27937" lon="0.17805">
        <ele>580.15</ele>
        <time>2021-08-02T11:56:09Z</time>
      </trkpt>
      <trkpt lat="42.27927" lon="0.17786">
        <ele>583.11</ele>
        <time>2021-08-02T11:56:13Z</time>
      </trkpt>
      <trkpt lat="42.279" lon="0.17736">
        <ele>584.39</ele>
        <time>2021-08-02T11:56:20Z</time>
      </trkpt>
      <trkpt lat="42.27891" lon="0.17639">
        <ele>581.71</ele>
        <time>2021-08-02T11:56:29Z</time>
      </trkpt>
      <trkpt lat="42.27887" lon="0.17612">
        <ele>581.16</ele>
        <time>2021-08-02T11:56:32Z</time>
      </trkpt>
      <trkpt lat="42.27891" lon="0.1755">
        <ele>581.07</ele>
        <time>2021-08-02T11:56:40Z</time>
      </trkpt>
      <trkpt lat="42.27888" lon="0.17532">
        <ele>581.55</ele>
        <time>2021-08-02T11:56:43Z</time>
      </trkpt>
      <trkpt lat="42.27892" lon="0.17506">
        <ele>582.96</ele>
        <time>2021-08-02T11:56:48Z</time>
      </trkpt>
      <trkpt lat="42.27901" lon="0.17489">
        <ele>583.69</ele>
        <time>2021-08-02T11:56:51Z</time>
      </trkpt>
      <trkpt lat="42.279" lon="0.17426">
        <ele>584.74</ele>
        <time>2021-08-02T11:56:58Z</time>
      </trkpt>
      <trkpt lat="42.2789" lon="0.17413">
        <ele>585.26</ele>
        <time>2021-08-02T11:57:00Z</time>
      </trkpt>
      <trkpt lat="42.27874" lon="0.17375">
        <ele>586.28</ele>
        <time>2021-08-02T11:57:05Z</time>
      </trkpt>
      <trkpt lat="42.27845" lon="0.17224">
        <ele>589.37</ele>
        <time>2021-08-02T11:57:17Z</time>
      </trkpt>
      <trkpt lat="42.27863" lon="0.1714">
        <ele>591.43</ele>
        <time>2021-08-02T11:57:22Z</time>
      </trkpt>
      <trkpt lat="42.27891" lon="0.17089">
        <ele>593.03</ele>
        <time>2021-08-02T11:57:25Z</time>
      </trkpt>
      <trkpt lat="42.27947" lon="0.16908">
        <ele>596.66</ele>
        <time>2021-08-02T11:57:34Z</time>
      </trkpt>
      <trkpt lat="42.27979" lon="0.16802">
        <ele>599.82</ele>
        <time>2021-08-02T11:57:39Z</time>
      </trkpt>
      <trkpt lat="42.2799" lon="0.16764">
        <ele>601.26</ele>
        <time>2021-08-02T11:57:41Z</time>
      </trkpt>
      <trkpt lat="42.27994" lon="0.16636">
        <ele>606.35</ele>
        <time>2021-08-02T11:57:47Z</time>
      </trkpt>
      <trkpt lat="42.27995" lon="0.16593">
        <ele>607.5</ele>
        <time>2021-08-02T11:57:49Z</time>
      </trkpt>
      <trkpt lat="42.28017" lon="0.16468">
        <ele>611.23</ele>
        <time>2021-08-02T11:57:55Z</time>
      </trkpt>
      <trkpt lat="42.28032" lon="0.16388">
        <ele>613.95</ele>
        <time>2021-08-02T11:57:59Z</time>
      </trkpt>
    </trkseg>
  </trk>
  <trk>
    <name><![CDATA[jour4_2]]></name>
    <extensions>
      <line xmlns="http://www.topografix.com/GPX/gpx_style/0/2">
        <color>00FF00</color>
        <width>4</width>
      </line>
    </extensions>
    <trkseg>
      <trkpt lat="42.32735" lon="-0.25962">
        <ele>986.98</ele>
        <time>2021-08-02T16:57:16Z</time>
      </trkpt>
      <trkpt lat="42.32739" lon="-0.2596">
        <ele>974.9</ele>
      </trkpt>
      <trkpt lat="42.32742" lon="-0.25968">
        <ele>976.5</ele>
      </trkpt>
      <trkpt lat="42.32745" lon="-0.25971">
        <ele>977.4</ele>
      </trkpt>
      <trkpt lat="42.3275" lon="-0.25972">
        <ele>978.3</ele>
      </trkpt>
      <trkpt lat="42.32767" lon="-0.25971">
        <ele>978.7</ele>
      </trkpt>
      <trkpt lat="42.32774" lon="-0.25972">
        <ele>979.1</ele>
      </trkpt>
      <trkpt lat="42.3278" lon="-0.25975">
        <ele>979.7</ele>
      </trkpt>
      <trkpt lat="42.32789" lon="-0.25982">
        <ele>981.1</ele>
      </trkpt>
      <trkpt lat="42.32799" lon="-0.26005">
        <ele>985.5</ele>
      </trkpt>
      <trkpt lat="42.32809" lon="-0.26019">
        <ele>989.3</ele>
      </trkpt>
      <trkpt lat="42.32877" lon="-0.26055">
        <ele>1000.3</ele>
      </trkpt>
      <trkpt lat="42.32926" lon="-0.26084">
        <ele>1011.6</ele>
      </trkpt>
      <trkpt lat="42.32932" lon="-0.26086">
        <ele>1013.2</ele>
      </trkpt>
      <trkpt lat="42.32946" lon="-0.26086">
        <ele>1015.2</ele>
      </trkpt>
      <trkpt lat="42.32956" lon="-0.26082">
        <ele>1015.2</ele>
      </trkpt>
      <trkpt lat="42.32975" lon="-0.26069">
        <ele>1013.9</ele>
      </trkpt>
      <trkpt lat="42.33002" lon="-0.26044">
        <ele>1010.2</ele>
      </trkpt>
      <trkpt lat="42.33016" lon="-0.26038">
        <ele>1008.6</ele>
      </trkpt>
      <trkpt lat="42.33024" lon="-0.26038">
        <ele>1008.8</ele>
      </trkpt>
      <trkpt lat="42.33058" lon="-0.26045">
        <ele>1011.7</ele>
      </trkpt>
      <trkpt lat="42.33087" lon="-0.26054">
        <ele>1015</ele>
      </trkpt>
      <trkpt lat="42.331" lon="-0.26062">
        <ele>1016.2</ele>
      </trkpt>
      <trkpt lat="42.33114" lon="-0.26078">
        <ele>1019.8</ele>
      </trkpt>
      <trkpt lat="42.33138" lon="-0.26082">
        <ele>1017.7</ele>
      </trkpt>
      <trkpt lat="42.33145" lon="-0.26085">
        <ele>1017.7</ele>
      </trkpt>
      <trkpt lat="42.33149" lon="-0.2609">
        <ele>1018.7</ele>
      </trkpt>
      <trkpt lat="42.33168" lon="-0.26117">
        <ele>1024.6</ele>
      </trkpt>
      <trkpt lat="42.33194" lon="-0.26138">
        <ele>1023.7</ele>
      </trkpt>
      <trkpt lat="42.33201" lon="-0.26146">
        <ele>1023.8</ele>
      </trkpt>
      <trkpt lat="42.33203" lon="-0.26148">
        <ele>1023.7</ele>
      </trkpt>
      <trkpt lat="42.33208" lon="-0.26153">
        <ele>1023.5</ele>
      </trkpt>
      <trkpt lat="42.33216" lon="-0.26168">
        <ele>1024.8</ele>
      </trkpt>
      <trkpt lat="42.33223" lon="-0.26189">
        <ele>1028.5</ele>
      </trkpt>
      <trkpt lat="42.33229" lon="-0.26219">
        <ele>1035.3</ele>
      </trkpt>
      <trkpt lat="42.33236" lon="-0.26231">
        <ele>1036.6</ele>
      </trkpt>
      <trkpt lat="42.3325" lon="-0.2624">
        <ele>1035</ele>
      </trkpt>
      <trkpt lat="42.33327" lon="-0.26276">
        <ele>1047.8</ele>
      </trkpt>
      <trkpt lat="42.33349" lon="-0.26294">
        <ele>1059.4</ele>
      </trkpt>
      <trkpt lat="42.33352" lon="-0.26295">
        <ele>1060.7</ele>
      </trkpt>
      <trkpt lat="42.33356" lon="-0.26294">
        <ele>1061.7</ele>
      </trkpt>
      <trkpt lat="42.3336" lon="-0.2629">
        <ele>1061.8</ele>
      </trkpt>
      <trkpt lat="42.33364" lon="-0.26285">
        <ele>1061.8</ele>
      </trkpt>
      <trkpt lat="42.33366" lon="-0.26279">
        <ele>1060.8</ele>
      </trkpt>
      <trkpt lat="42.33368" lon="-0.26271">
        <ele>1059.4</ele>
      </trkpt>
      <trkpt lat="42.33375" lon="-0.26195">
        <ele>1051.1</ele>
      </trkpt>
      <trkpt lat="42.33384" lon="-0.2615">
        <ele>1052.5</ele>
      </trkpt>
      <trkpt lat="42.33382" lon="-0.26077">
        <ele>1048.2</ele>
      </trkpt>
      <trkpt lat="42.33385" lon="-0.26032">
        <ele>1049.2</ele>
      </trkpt>
      <trkpt lat="42.33387" lon="-0.2597">
        <ele>1046.8</ele>
      </trkpt>
      <trkpt lat="42.33389" lon="-0.25946">
        <ele>1045.4</ele>
      </trkpt>
      <trkpt lat="42.33392" lon="-0.25934">
        <ele>1045.9</ele>
      </trkpt>
      <trkpt lat="42.33396" lon="-0.25923">
        <ele>1047</ele>
      </trkpt>
      <trkpt lat="42.33414" lon="-0.25898">
        <ele>1051.7</ele>
      </trkpt>
      <trkpt lat="42.33464" lon="-0.25861">
        <ele>1058.8</ele>
      </trkpt>
      <trkpt lat="42.33499" lon="-0.25826">
        <ele>1058.7</ele>
      </trkpt>
      <trkpt lat="42.33528" lon="-0.25794">
        <ele>1059.8</ele>
      </trkpt>
      <trkpt lat="42.3355" lon="-0.2576">
        <ele>1059.9</ele>
      </trkpt>
      <trkpt lat="42.33573" lon="-0.25717">
        <ele>1060.5</ele>
      </trkpt>
      <trkpt lat="42.33599" lon="-0.2566">
        <ele>1058.9</ele>
      </trkpt>
      <trkpt lat="42.33627" lon="-0.25612">
        <ele>1060.9</ele>
      </trkpt>
      <trkpt lat="42.33657" lon="-0.25555">
        <ele>1061.9</ele>
      </trkpt>
      <trkpt lat="42.33677" lon="-0.25524">
        <ele>1063.6</ele>
      </trkpt>
      <trkpt lat="42.33771" lon="-0.25418">
        <ele>1072.8</ele>
      </trkpt>
      <trkpt lat="42.3378" lon="-0.25409">
        <ele>1075.9</ele>
      </trkpt>
      <trkpt lat="42.33794" lon="-0.25398">
        <ele>1081.4</ele>
      </trkpt>
      <trkpt lat="42.33803" lon="-0.25388">
        <ele>1084.3</ele>
      </trkpt>
      <trkpt lat="42.33809" lon="-0.2537">
        <ele>1084.5</ele>
      </trkpt>
      <trkpt lat="42.33811" lon="-0.25311">
        <ele>1078.9</ele>
      </trkpt>
      <trkpt lat="42.33816" lon="-0.25288">
        <ele>1078.9</ele>
      </trkpt>
      <trkpt lat="42.3382" lon="-0.25277">
        <ele>1078.9</ele>
      </trkpt>
      <trkpt lat="42.33828" lon="-0.25263">
        <ele>1078.9</ele>
      </trkpt>
      <trkpt lat="42.3385" lon="-0.25243">
        <ele>1083.9</ele>
      </trkpt>
      <trkpt lat="42.33873" lon="-0.25199">
        <ele>1086.7</ele>
      </trkpt>
      <trkpt lat="42.33883" lon="-0.25184">
        <ele>1086.4</ele>
      </trkpt>
      <trkpt lat="42.3389" lon="-0.25178">
        <ele>1086.4</ele>
      </trkpt>
      <trkpt lat="42.33897" lon="-0.25173">
        <ele>1086.4</ele>
      </trkpt>
      <trkpt lat="42.33948" lon="-0.25149">
        <ele>1091.5</ele>
      </trkpt>
      <trkpt lat="42.3396" lon="-0.25149">
        <ele>1092.9</ele>
      </trkpt>
      <trkpt lat="42.33984" lon="-0.25154">
        <ele>1096</ele>
      </trkpt>
      <trkpt lat="42.33993" lon="-0.25152">
        <ele>1096.9</ele>
      </trkpt>
      <trkpt lat="42.34024" lon="-0.25119">
        <ele>1097.5</ele>
      </trkpt>
      <trkpt lat="42.3404" lon="-0.25113">
        <ele>1098.4</ele>
      </trkpt>
      <trkpt lat="42.34054" lon="-0.25112">
        <ele>1099.7</ele>
      </trkpt>
      <trkpt lat="42.34099" lon="-0.25127">
        <ele>1107.9</ele>
      </trkpt>
      <trkpt lat="42.34111" lon="-0.25126">
        <ele>1109.5</ele>
      </trkpt>
      <trkpt lat="42.34125" lon="-0.25121">
        <ele>1110.6</ele>
      </trkpt>
      <trkpt lat="42.34181" lon="-0.25086">
        <ele>1112.3</ele>
      </trkpt>
      <trkpt lat="42.34195" lon="-0.25075">
        <ele>1115.4</ele>
      </trkpt>
      <trkpt lat="42.34204" lon="-0.25067">
        <ele>1117.4</ele>
      </trkpt>
      <trkpt lat="42.34243" lon="-0.25016">
        <ele>1121.8</ele>
      </trkpt>
      <trkpt lat="42.3427" lon="-0.24969">
        <ele>1125.9</ele>
      </trkpt>
      <trkpt lat="42.34282" lon="-0.24938">
        <ele>1126</ele>
      </trkpt>
      <trkpt lat="42.34294" lon="-0.24916">
        <ele>1126</ele>
      </trkpt>
      <trkpt lat="42.3433" lon="-0.24875">
        <ele>1128</ele>
      </trkpt>
      <trkpt lat="42.34352" lon="-0.24855">
        <ele>1128.2</ele>
      </trkpt>
      <trkpt lat="42.34377" lon="-0.24837">
        <ele>1128.6</ele>
      </trkpt>
      <trkpt lat="42.34404" lon="-0.24825">
        <ele>1132.4</ele>
      </trkpt>
      <trkpt lat="42.34498" lon="-0.24799">
        <ele>1138.9</ele>
      </trkpt>
      <trkpt lat="42.34557" lon="-0.24761">
        <ele>1143.1</ele>
      </trkpt>
      <trkpt lat="42.34566" lon="-0.2476">
        <ele>1143.6</ele>
      </trkpt>
      <trkpt lat="42.34579" lon="-0.24764">
        <ele>1144.9</ele>
      </trkpt>
      <trkpt lat="42.34589" lon="-0.24762">
        <ele>1146</ele>
      </trkpt>
      <trkpt lat="42.34602" lon="-0.2475">
        <ele>1146.9</ele>
      </trkpt>
      <trkpt lat="42.34625" lon="-0.2472">
        <ele>1149.4</ele>
      </trkpt>
      <trkpt lat="42.34637" lon="-0.2471">
        <ele>1150</ele>
      </trkpt>
      <trkpt lat="42.34649" lon="-0.24707">
        <ele>1150.6</ele>
      </trkpt>
      <trkpt lat="42.3466" lon="-0.24707">
        <ele>1151.4</ele>
      </trkpt>
      <trkpt lat="42.34699" lon="-0.24717">
        <ele>1154.4</ele>
      </trkpt>
      <trkpt lat="42.34722" lon="-0.24712">
        <ele>1154.7</ele>
      </trkpt>
      <trkpt lat="42.34737" lon="-0.24705">
        <ele>1154.6</ele>
      </trkpt>
      <trkpt lat="42.34746" lon="-0.24698">
        <ele>1154.2</ele>
      </trkpt>
      <trkpt lat="42.34779" lon="-0.24665">
        <ele>1156.9</ele>
      </trkpt>
      <trkpt lat="42.34796" lon="-0.24643">
        <ele>1159.7</ele>
      </trkpt>
      <trkpt lat="42.34818" lon="-0.24607">
        <ele>1160.4</ele>
      </trkpt>
      <trkpt lat="42.34823" lon="-0.24595">
        <ele>1159.8</ele>
      </trkpt>
      <trkpt lat="42.34837" lon="-0.24554">
        <ele>1157.8</ele>
      </trkpt>
      <trkpt lat="42.34845" lon="-0.24543">
        <ele>1158</ele>
      </trkpt>
      <trkpt lat="42.3485" lon="-0.24539">
        <ele>1158.3</ele>
      </trkpt>
      <trkpt lat="42.3486" lon="-0.24536">
        <ele>1159.1</ele>
      </trkpt>
      <trkpt lat="42.34939" lon="-0.24527">
        <ele>1166.3</ele>
      </trkpt>
      <trkpt lat="42.34958" lon="-0.24521">
        <ele>1167.4</ele>
      </trkpt>
      <trkpt lat="42.34978" lon="-0.24509">
        <ele>1167.3</ele>
      </trkpt>
      <trkpt lat="42.34983" lon="-0.24508">
        <ele>1167.7</ele>
      </trkpt>
      <trkpt lat="42.35049" lon="-0.24509">
        <ele>1174.3</ele>
      </trkpt>
      <trkpt lat="42.35074" lon="-0.24505">
        <ele>1175.9</ele>
      </trkpt>
      <trkpt lat="42.35115" lon="-0.2449">
        <ele>1179.2</ele>
      </trkpt>
      <trkpt lat="42.35128" lon="-0.24481">
        <ele>1180.3</ele>
      </trkpt>
      <trkpt lat="42.35145" lon="-0.24461">
        <ele>1181.4</ele>
      </trkpt>
      <trkpt lat="42.35162" lon="-0.24435">
        <ele>1181.5</ele>
      </trkpt>
      <trkpt lat="42.3518" lon="-0.24409">
        <ele>1182.2</ele>
      </trkpt>
      <trkpt lat="42.35196" lon="-0.24379">
        <ele>1184</ele>
      </trkpt>
      <trkpt lat="42.35206" lon="-0.2437">
        <ele>1184.5</ele>
      </trkpt>
      <trkpt lat="42.35214" lon="-0.24367">
        <ele>1184.8</ele>
      </trkpt>
      <trkpt lat="42.3523" lon="-0.24366">
        <ele>1185.2</ele>
      </trkpt>
      <trkpt lat="42.35295" lon="-0.24374">
        <ele>1189.8</ele>
      </trkpt>
      <trkpt lat="42.35304" lon="-0.24373">
        <ele>1190.5</ele>
      </trkpt>
      <trkpt lat="42.35319" lon="-0.24365">
        <ele>1191.6</ele>
      </trkpt>
      <trkpt lat="42.35342" lon="-0.24333">
        <ele>1194</ele>
      </trkpt>
      <trkpt lat="42.35348" lon="-0.24321">
        <ele>1195.1</ele>
      </trkpt>
      <trkpt lat="42.35352" lon="-0.24294">
        <ele>1195.6</ele>
      </trkpt>
      <trkpt lat="42.35354" lon="-0.2426">
        <ele>1195.4</ele>
      </trkpt>
      <trkpt lat="42.35366" lon="-0.24173">
        <ele>1193.9</ele>
      </trkpt>
      <trkpt lat="42.3537" lon="-0.24152">
        <ele>1193.9</ele>
      </trkpt>
      <trkpt lat="42.35378" lon="-0.24145">
        <ele>1194.2</ele>
      </trkpt>
      <trkpt lat="42.35392" lon="-0.24142">
        <ele>1194.8</ele>
      </trkpt>
      <trkpt lat="42.35446" lon="-0.24152">
        <ele>1197.8</ele>
      </trkpt>
      <trkpt lat="42.35456" lon="-0.24149">
        <ele>1198.4</ele>
      </trkpt>
      <trkpt lat="42.35461" lon="-0.24142">
        <ele>1198.6</ele>
      </trkpt>
      <trkpt lat="42.35476" lon="-0.24107">
        <ele>1198.5</ele>
      </trkpt>
      <trkpt lat="42.35498" lon="-0.24048">
        <ele>1199</ele>
      </trkpt>
      <trkpt lat="42.35508" lon="-0.24029">
        <ele>1200.1</ele>
      </trkpt>
      <trkpt lat="42.3552" lon="-0.24017">
        <ele>1201.3</ele>
      </trkpt>
      <trkpt lat="42.35566" lon="-0.23983">
        <ele>1204.3</ele>
      </trkpt>
      <trkpt lat="42.35582" lon="-0.23968">
        <ele>1204.4</ele>
      </trkpt>
      <trkpt lat="42.35587" lon="-0.23957">
        <ele>1204.6</ele>
      </trkpt>
      <trkpt lat="42.35588" lon="-0.2395">
        <ele>1204.5</ele>
      </trkpt>
      <trkpt lat="42.35583" lon="-0.23901">
        <ele>1202.4</ele>
      </trkpt>
      <trkpt lat="42.35584" lon="-0.23869">
        <ele>1203.3</ele>
      </trkpt>
      <trkpt lat="42.35593" lon="-0.23798">
        <ele>1206.9</ele>
      </trkpt>
      <trkpt lat="42.356" lon="-0.23773">
        <ele>1208.2</ele>
      </trkpt>
      <trkpt lat="42.35605" lon="-0.23765">
        <ele>1208.7</ele>
      </trkpt>
      <trkpt lat="42.35628" lon="-0.23742">
        <ele>1209.6</ele>
      </trkpt>
      <trkpt lat="42.35645" lon="-0.23721">
        <ele>1209.7</ele>
      </trkpt>
      <trkpt lat="42.35684" lon="-0.2366">
        <ele>1209.1</ele>
      </trkpt>
      <trkpt lat="42.35687" lon="-0.23656">
        <ele>1209.4</ele>
      </trkpt>
      <trkpt lat="42.35695" lon="-0.23655">
        <ele>1209.7</ele>
      </trkpt>
      <trkpt lat="42.35699" lon="-0.23657">
        <ele>1209.8</ele>
      </trkpt>
      <trkpt lat="42.35702" lon="-0.23659">
        <ele>1209.9</ele>
      </trkpt>
      <trkpt lat="42.35731" lon="-0.2371">
        <ele>1212.2</ele>
      </trkpt>
      <trkpt lat="42.35746" lon="-0.23727">
        <ele>1213.3</ele>
      </trkpt>
      <trkpt lat="42.35755" lon="-0.23733">
        <ele>1213.2</ele>
      </trkpt>
      <trkpt lat="42.35762" lon="-0.23735">
        <ele>1212.6</ele>
      </trkpt>
      <trkpt lat="42.35767" lon="-0.23734">
        <ele>1212.2</ele>
      </trkpt>
      <trkpt lat="42.3577" lon="-0.23733">
        <ele>1211.9</ele>
      </trkpt>
      <trkpt lat="42.35776" lon="-0.23727">
        <ele>1211.3</ele>
      </trkpt>
      <trkpt lat="42.3578" lon="-0.23712">
        <ele>1210.6</ele>
      </trkpt>
      <trkpt lat="42.35782" lon="-0.23643">
        <ele>1208.5</ele>
      </trkpt>
      <trkpt lat="42.35784" lon="-0.23625">
        <ele>1207.7</ele>
      </trkpt>
      <trkpt lat="42.3579" lon="-0.23607">
        <ele>1206.2</ele>
      </trkpt>
      <trkpt lat="42.35794" lon="-0.23601">
        <ele>1205.4</ele>
      </trkpt>
      <trkpt lat="42.35799" lon="-0.23597">
        <ele>1204.4</ele>
      </trkpt>
      <trkpt lat="42.35809" lon="-0.23595">
        <ele>1202.8</ele>
      </trkpt>
      <trkpt lat="42.35819" lon="-0.23601">
        <ele>1201.6</ele>
      </trkpt>
      <trkpt lat="42.35836" lon="-0.23634">
        <ele>1201.8</ele>
      </trkpt>
      <trkpt lat="42.3585" lon="-0.23645">
        <ele>1200.1</ele>
      </trkpt>
      <trkpt lat="42.3586" lon="-0.2365">
        <ele>1198.7</ele>
      </trkpt>
      <trkpt lat="42.3587" lon="-0.23653">
        <ele>1197.2</ele>
      </trkpt>
      <trkpt lat="42.35887" lon="-0.23654">
        <ele>1194.2</ele>
      </trkpt>
      <trkpt lat="42.3593" lon="-0.23642">
        <ele>1185.4</ele>
      </trkpt>
      <trkpt lat="42.35936" lon="-0.23642">
        <ele>1184.4</ele>
      </trkpt>
      <trkpt lat="42.35945" lon="-0.23645">
        <ele>1183.1</ele>
      </trkpt>
      <trkpt lat="42.35953" lon="-0.23657">
        <ele>1182.7</ele>
      </trkpt>
      <trkpt lat="42.36003" lon="-0.23786">
        <ele>1171.2</ele>
      </trkpt>
      <trkpt lat="42.3601" lon="-0.23857">
        <ele>1166.8</ele>
      </trkpt>
      <trkpt lat="42.36015" lon="-0.23927">
        <ele>1162</ele>
      </trkpt>
      <trkpt lat="42.36019" lon="-0.23947">
        <ele>1160.6</ele>
      </trkpt>
      <trkpt lat="42.36029" lon="-0.2398">
        <ele>1157.5</ele>
      </trkpt>
      <trkpt lat="42.36035" lon="-0.24018">
        <ele>1155.4</ele>
      </trkpt>
      <trkpt lat="42.36041" lon="-0.24028">
        <ele>1154.1</ele>
      </trkpt>
      <trkpt lat="42.36065" lon="-0.24042">
        <ele>1149</ele>
      </trkpt>
      <trkpt lat="42.36095" lon="-0.24085">
        <ele>1142.9</ele>
      </trkpt>
      <trkpt lat="42.36101" lon="-0.24099">
        <ele>1143</ele>
      </trkpt>
      <trkpt lat="42.36111" lon="-0.24146">
        <ele>1145</ele>
      </trkpt>
      <trkpt lat="42.36118" lon="-0.2416">
        <ele>1144.6</ele>
      </trkpt>
      <trkpt lat="42.36158" lon="-0.24191">
        <ele>1139</ele>
      </trkpt>
      <trkpt lat="42.36179" lon="-0.24191">
        <ele>1135</ele>
      </trkpt>
      <trkpt lat="42.36191" lon="-0.24196">
        <ele>1133.5</ele>
      </trkpt>
      <trkpt lat="42.36196" lon="-0.24202">
        <ele>1133.3</ele>
      </trkpt>
      <trkpt lat="42.36213" lon="-0.2423">
        <ele>1133.3</ele>
      </trkpt>
      <trkpt lat="42.36218" lon="-0.24235">
        <ele>1132.9</ele>
      </trkpt>
      <trkpt lat="42.36231" lon="-0.24241">
        <ele>1130.9</ele>
      </trkpt>
      <trkpt lat="42.36249" lon="-0.24246">
        <ele>1127.8</ele>
      </trkpt>
      <trkpt lat="42.36263" lon="-0.24253">
        <ele>1126</ele>
      </trkpt>
      <trkpt lat="42.36293" lon="-0.24284">
        <ele>1123.9</ele>
      </trkpt>
      <trkpt lat="42.36307" lon="-0.24296">
        <ele>1122.7</ele>
      </trkpt>
      <trkpt lat="42.36361" lon="-0.24318">
        <ele>1116.4</ele>
      </trkpt>
      <trkpt lat="42.36385" lon="-0.24319">
        <ele>1113.1</ele>
      </trkpt>
      <trkpt lat="42.36398" lon="-0.24323">
        <ele>1111.7</ele>
      </trkpt>
      <trkpt lat="42.3641" lon="-0.24334">
        <ele>1110.9</ele>
      </trkpt>
      <trkpt lat="42.36457" lon="-0.24397">
        <ele>1106.2</ele>
      </trkpt>
      <trkpt lat="42.36484" lon="-0.24416">
        <ele>1106.3</ele>
      </trkpt>
      <trkpt lat="42.36504" lon="-0.24426">
        <ele>1104.3</ele>
      </trkpt>
      <trkpt lat="42.36578" lon="-0.24449">
        <ele>1097.4</ele>
      </trkpt>
      <trkpt lat="42.36595" lon="-0.2445">
        <ele>1096</ele>
      </trkpt>
      <trkpt lat="42.36604" lon="-0.24444">
        <ele>1095.8</ele>
      </trkpt>
      <trkpt lat="42.3661" lon="-0.24438">
        <ele>1095.8</ele>
      </trkpt>
      <trkpt lat="42.36639" lon="-0.24378">
        <ele>1088.4</ele>
      </trkpt>
      <trkpt lat="42.36647" lon="-0.24371">
        <ele>1086.7</ele>
      </trkpt>
      <trkpt lat="42.36657" lon="-0.24371">
        <ele>1085.8</ele>
      </trkpt>
      <trkpt lat="42.36661" lon="-0.24374">
        <ele>1085.9</ele>
      </trkpt>
      <trkpt lat="42.36667" lon="-0.2439">
        <ele>1087.4</ele>
      </trkpt>
      <trkpt lat="42.36713" lon="-0.24596">
        <ele>1071.5</ele>
      </trkpt>
      <trkpt lat="42.36715" lon="-0.24603">
        <ele>1070.8</ele>
      </trkpt>
      <trkpt lat="42.36721" lon="-0.24612">
        <ele>1069.7</ele>
      </trkpt>
      <trkpt lat="42.36729" lon="-0.24613">
        <ele>1069.1</ele>
      </trkpt>
      <trkpt lat="42.36737" lon="-0.24607">
        <ele>1069.1</ele>
      </trkpt>
      <trkpt lat="42.3678" lon="-0.24533">
        <ele>1067.9</ele>
      </trkpt>
      <trkpt lat="42.3679" lon="-0.24523">
        <ele>1066.8</ele>
      </trkpt>
      <trkpt lat="42.36846" lon="-0.24503">
        <ele>1059.4</ele>
      </trkpt>
      <trkpt lat="42.36861" lon="-0.24501">
        <ele>1057.6</ele>
      </trkpt>
      <trkpt lat="42.36875" lon="-0.24506">
        <ele>1055.8</ele>
      </trkpt>
      <trkpt lat="42.36882" lon="-0.2451">
        <ele>1054.9</ele>
      </trkpt>
      <trkpt lat="42.36887" lon="-0.24518">
        <ele>1054.1</ele>
      </trkpt>
      <trkpt lat="42.36891" lon="-0.24526">
        <ele>1053.4</ele>
      </trkpt>
      <trkpt lat="42.36915" lon="-0.24616">
        <ele>1046.4</ele>
      </trkpt>
      <trkpt lat="42.36918" lon="-0.2462">
        <ele>1045.7</ele>
      </trkpt>
      <trkpt lat="42.36922" lon="-0.24622">
        <ele>1045</ele>
      </trkpt>
      <trkpt lat="42.36932" lon="-0.24621">
        <ele>1043.7</ele>
      </trkpt>
      <trkpt lat="42.36937" lon="-0.24618">
        <ele>1043.2</ele>
      </trkpt>
      <trkpt lat="42.3698" lon="-0.24575">
        <ele>1038.5</ele>
      </trkpt>
      <trkpt lat="42.36993" lon="-0.24559">
        <ele>1036.5</ele>
      </trkpt>
      <trkpt lat="42.37002" lon="-0.24541">
        <ele>1035.2</ele>
      </trkpt>
      <trkpt lat="42.3702" lon="-0.24483">
        <ele>1031.9</ele>
      </trkpt>
      <trkpt lat="42.3703" lon="-0.24469">
        <ele>1029.9</ele>
      </trkpt>
      <trkpt lat="42.37047" lon="-0.24449">
        <ele>1027.1</ele>
      </trkpt>
      <trkpt lat="42.37061" lon="-0.24428">
        <ele>1025.2</ele>
      </trkpt>
      <trkpt lat="42.37065" lon="-0.24423">
        <ele>1024.8</ele>
      </trkpt>
      <trkpt lat="42.37075" lon="-0.2442">
        <ele>1023.8</ele>
      </trkpt>
      <trkpt lat="42.3708" lon="-0.24421">
        <ele>1023.3</ele>
      </trkpt>
      <trkpt lat="42.3709" lon="-0.24431">
        <ele>1021.9</ele>
      </trkpt>
      <trkpt lat="42.37131" lon="-0.24511">
        <ele>1014.6</ele>
      </trkpt>
      <trkpt lat="42.37153" lon="-0.24561">
        <ele>1011.1</ele>
      </trkpt>
      <trkpt lat="42.37162" lon="-0.24575">
        <ele>1009.7</ele>
      </trkpt>
      <trkpt lat="42.37173" lon="-0.24581">
        <ele>1008.5</ele>
      </trkpt>
      <trkpt lat="42.37215" lon="-0.2459">
        <ele>1004.6</ele>
      </trkpt>
      <trkpt lat="42.37236" lon="-0.24591">
        <ele>1002.8</ele>
      </trkpt>
      <trkpt lat="42.37271" lon="-0.24589">
        <ele>999.2</ele>
      </trkpt>
      <trkpt lat="42.3729" lon="-0.24582">
        <ele>997.2</ele>
      </trkpt>
      <trkpt lat="42.37303" lon="-0.24569">
        <ele>995.7</ele>
      </trkpt>
      <trkpt lat="42.3732" lon="-0.24542">
        <ele>993.9</ele>
      </trkpt>
      <trkpt lat="42.37329" lon="-0.24524">
        <ele>993.2</ele>
      </trkpt>
      <trkpt lat="42.37348" lon="-0.24477">
        <ele>990.8</ele>
      </trkpt>
      <trkpt lat="42.37356" lon="-0.2446">
        <ele>989.5</ele>
      </trkpt>
      <trkpt lat="42.37362" lon="-0.24453">
        <ele>988.8</ele>
      </trkpt>
      <trkpt lat="42.37375" lon="-0.24441">
        <ele>987.2</ele>
      </trkpt>
      <trkpt lat="42.37407" lon="-0.24422">
        <ele>983.9</ele>
      </trkpt>
      <trkpt lat="42.37418" lon="-0.24419">
        <ele>982.9</ele>
      </trkpt>
      <trkpt lat="42.37427" lon="-0.24422">
        <ele>981.6</ele>
      </trkpt>
      <trkpt lat="42.3746" lon="-0.24446">
        <ele>977.6</ele>
      </trkpt>
      <trkpt lat="42.37474" lon="-0.24452">
        <ele>975.9</ele>
      </trkpt>
      <trkpt lat="42.37523" lon="-0.24469">
        <ele>969.9</ele>
      </trkpt>
      <trkpt lat="42.37538" lon="-0.24478">
        <ele>968.1</ele>
      </trkpt>
      <trkpt lat="42.37551" lon="-0.24496">
        <ele>966.6</ele>
      </trkpt>
      <trkpt lat="42.37575" lon="-0.24546">
        <ele>960.6</ele>
      </trkpt>
      <trkpt lat="42.37579" lon="-0.24558">
        <ele>959.3</ele>
      </trkpt>
      <trkpt lat="42.37584" lon="-0.24569">
        <ele>957.8</ele>
      </trkpt>
      <trkpt lat="42.37589" lon="-0.2458">
        <ele>957</ele>
      </trkpt>
      <trkpt lat="42.376" lon="-0.24594">
        <ele>955.5</ele>
      </trkpt>
      <trkpt lat="42.37613" lon="-0.24601">
        <ele>954.2</ele>
      </trkpt>
      <trkpt lat="42.37627" lon="-0.24605">
        <ele>953.1</ele>
      </trkpt>
      <trkpt lat="42.37671" lon="-0.24612">
        <ele>949.7</ele>
      </trkpt>
      <trkpt lat="42.37712" lon="-0.24612">
        <ele>948</ele>
      </trkpt>
      <trkpt lat="42.37741" lon="-0.24605">
        <ele>948.2</ele>
      </trkpt>
      <trkpt lat="42.3775" lon="-0.24605">
        <ele>947.8</ele>
      </trkpt>
      <trkpt lat="42.37764" lon="-0.24608">
        <ele>947.9</ele>
      </trkpt>
      <trkpt lat="42.37771" lon="-0.24611">
        <ele>947.6</ele>
      </trkpt>
      <trkpt lat="42.37781" lon="-0.24618">
        <ele>946.6</ele>
      </trkpt>
      <trkpt lat="42.37793" lon="-0.24634">
        <ele>943.6</ele>
      </trkpt>
      <trkpt lat="42.37818" lon="-0.24662">
        <ele>937.9</ele>
      </trkpt>
      <trkpt lat="42.37829" lon="-0.24677">
        <ele>934.5</ele>
      </trkpt>
      <trkpt lat="42.37846" lon="-0.24693">
        <ele>931.6</ele>
      </trkpt>
      <trkpt lat="42.37859" lon="-0.247">
        <ele>931</ele>
      </trkpt>
      <trkpt lat="42.37909" lon="-0.24711">
        <ele>932.8</ele>
      </trkpt>
      <trkpt lat="42.37918" lon="-0.24722">
        <ele>931.6</ele>
      </trkpt>
      <trkpt lat="42.37924" lon="-0.24741">
        <ele>929.2</ele>
      </trkpt>
      <trkpt lat="42.37927" lon="-0.2481">
        <ele>919.7</ele>
      </trkpt>
      <trkpt lat="42.37929" lon="-0.24827">
        <ele>917.5</ele>
      </trkpt>
      <trkpt lat="42.37933" lon="-0.24838">
        <ele>916.5</ele>
      </trkpt>
      <trkpt lat="42.37948" lon="-0.24861">
        <ele>914.9</ele>
      </trkpt>
      <trkpt lat="42.37973" lon="-0.2488">
        <ele>915</ele>
      </trkpt>
      <trkpt lat="42.37977" lon="-0.24885">
        <ele>914.6</ele>
      </trkpt>
      <trkpt lat="42.37985" lon="-0.24904">
        <ele>912.5</ele>
      </trkpt>
      <trkpt lat="42.37988" lon="-0.24914">
        <ele>911.1</ele>
      </trkpt>
      <trkpt lat="42.37991" lon="-0.24964">
        <ele>907.1</ele>
      </trkpt>
      <trkpt lat="42.37987" lon="-0.24982">
        <ele>905.2</ele>
      </trkpt>
      <trkpt lat="42.37973" lon="-0.2502">
        <ele>900.4</ele>
      </trkpt>
      <trkpt lat="42.37972" lon="-0.25029">
        <ele>899.4</ele>
      </trkpt>
      <trkpt lat="42.37974" lon="-0.25044">
        <ele>898.1</ele>
      </trkpt>
      <trkpt lat="42.37981" lon="-0.25058">
        <ele>897.2</ele>
      </trkpt>
      <trkpt lat="42.37986" lon="-0.25063">
        <ele>897.1</ele>
      </trkpt>
      <trkpt lat="42.37996" lon="-0.25065">
        <ele>897.7</ele>
      </trkpt>
      <trkpt lat="42.38011" lon="-0.25063">
        <ele>898.4</ele>
      </trkpt>
      <trkpt lat="42.38019" lon="-0.25068">
        <ele>898</ele>
      </trkpt>
      <trkpt lat="42.38022" lon="-0.25074">
        <ele>897.5</ele>
      </trkpt>
      <trkpt lat="42.38024" lon="-0.25081">
        <ele>896.8</ele>
      </trkpt>
      <trkpt lat="42.38027" lon="-0.25129">
        <ele>893</ele>
      </trkpt>
      <trkpt lat="42.38042" lon="-0.25191">
        <ele>889.2</ele>
      </trkpt>
      <trkpt lat="42.38043" lon="-0.25203">
        <ele>888.6</ele>
      </trkpt>
      <trkpt lat="42.38043" lon="-0.25237">
        <ele>886.7</ele>
      </trkpt>
      <trkpt lat="42.38039" lon="-0.2528">
        <ele>884</ele>
      </trkpt>
      <trkpt lat="42.38043" lon="-0.25327">
        <ele>880.9</ele>
      </trkpt>
      <trkpt lat="42.38041" lon="-0.25369">
        <ele>877.9</ele>
      </trkpt>
      <trkpt lat="42.38036" lon="-0.2539">
        <ele>876.3</ele>
      </trkpt>
      <trkpt lat="42.38003" lon="-0.25448">
        <ele>871.3</ele>
      </trkpt>
      <trkpt lat="42.37996" lon="-0.2547">
        <ele>870.3</ele>
      </trkpt>
      <trkpt lat="42.37996" lon="-0.25476">
        <ele>870</ele>
      </trkpt>
      <trkpt lat="42.38002" lon="-0.2549">
        <ele>868.8</ele>
      </trkpt>
      <trkpt lat="42.3803" lon="-0.25519">
        <ele>870</ele>
      </trkpt>
      <trkpt lat="42.38036" lon="-0.25528">
        <ele>870.2</ele>
      </trkpt>
      <trkpt lat="42.3804" lon="-0.2554">
        <ele>870.2</ele>
      </trkpt>
      <trkpt lat="42.38046" lon="-0.25578">
        <ele>869.5</ele>
      </trkpt>
      <trkpt lat="42.38044" lon="-0.25631">
        <ele>866.5</ele>
      </trkpt>
      <trkpt lat="42.38056" lon="-0.25711">
        <ele>861.3</ele>
      </trkpt>
      <trkpt lat="42.38074" lon="-0.25764">
        <ele>856.8</ele>
      </trkpt>
      <trkpt lat="42.38091" lon="-0.25807">
        <ele>857.4</ele>
      </trkpt>
      <trkpt lat="42.38098" lon="-0.25849">
        <ele>858.1</ele>
      </trkpt>
      <trkpt lat="42.3812" lon="-0.25892">
        <ele>857.3</ele>
      </trkpt>
      <trkpt lat="42.38123" lon="-0.25899">
        <ele>857.2</ele>
      </trkpt>
      <trkpt lat="42.38128" lon="-0.25914">
        <ele>857.2</ele>
      </trkpt>
      <trkpt lat="42.38157" lon="-0.25992">
        <ele>854.4</ele>
      </trkpt>
      <trkpt lat="42.38167" lon="-0.26014">
        <ele>853.5</ele>
      </trkpt>
      <trkpt lat="42.38203" lon="-0.26056">
        <ele>850.5</ele>
      </trkpt>
      <trkpt lat="42.38226" lon="-0.26089">
        <ele>848.6</ele>
      </trkpt>
      <trkpt lat="42.38244" lon="-0.26107">
        <ele>847.5</ele>
      </trkpt>
      <trkpt lat="42.38263" lon="-0.26118">
        <ele>847.4</ele>
      </trkpt>
      <trkpt lat="42.3827" lon="-0.2612">
        <ele>847.6</ele>
      </trkpt>
      <trkpt lat="42.38303" lon="-0.26123">
        <ele>847.8</ele>
      </trkpt>
      <trkpt lat="42.38361" lon="-0.26145">
        <ele>849.9</ele>
      </trkpt>
      <trkpt lat="42.38375" lon="-0.26155">
        <ele>850.8</ele>
      </trkpt>
      <trkpt lat="42.38393" lon="-0.26176">
        <ele>853.9</ele>
      </trkpt>
      <trkpt lat="42.384" lon="-0.2618">
        <ele>854.5</ele>
      </trkpt>
      <trkpt lat="42.38409" lon="-0.2618">
        <ele>854.2</ele>
      </trkpt>
      <trkpt lat="42.38424" lon="-0.26176">
        <ele>852.8</ele>
      </trkpt>
      <trkpt lat="42.38432" lon="-0.26176">
        <ele>852.5</ele>
      </trkpt>
      <trkpt lat="42.38488" lon="-0.26196">
        <ele>854.8</ele>
      </trkpt>
      <trkpt lat="42.38505" lon="-0.26196">
        <ele>854.2</ele>
      </trkpt>
      <trkpt lat="42.38539" lon="-0.26187">
        <ele>851.7</ele>
      </trkpt>
      <trkpt lat="42.3855" lon="-0.26186">
        <ele>851.3</ele>
      </trkpt>
      <trkpt lat="42.38573" lon="-0.26188">
        <ele>851.3</ele>
      </trkpt>
      <trkpt lat="42.38592" lon="-0.26193">
        <ele>851.2</ele>
      </trkpt>
      <trkpt lat="42.38598" lon="-0.26196">
        <ele>851.1</ele>
      </trkpt>
      <trkpt lat="42.38609" lon="-0.26208">
        <ele>852.2</ele>
      </trkpt>
      <trkpt lat="42.3862" lon="-0.26225">
        <ele>854.1</ele>
      </trkpt>
      <trkpt lat="42.38628" lon="-0.26251">
        <ele>857.7</ele>
      </trkpt>
      <trkpt lat="42.38633" lon="-0.26261">
        <ele>858</ele>
      </trkpt>
      <trkpt lat="42.38643" lon="-0.26273">
        <ele>858</ele>
      </trkpt>
      <trkpt lat="42.38651" lon="-0.2628">
        <ele>857.7</ele>
      </trkpt>
      <trkpt lat="42.38662" lon="-0.26286">
        <ele>857</ele>
      </trkpt>
      <trkpt lat="42.38672" lon="-0.26291">
        <ele>856.2</ele>
      </trkpt>
      <trkpt lat="42.38707" lon="-0.26306">
        <ele>853.4</ele>
      </trkpt>
      <trkpt lat="42.3877" lon="-0.26324">
        <ele>847.7</ele>
      </trkpt>
      <trkpt lat="42.38776" lon="-0.26327">
        <ele>847.3</ele>
      </trkpt>
      <trkpt lat="42.38781" lon="-0.26332">
        <ele>847.3</ele>
      </trkpt>
      <trkpt lat="42.38788" lon="-0.2635">
        <ele>846.7</ele>
      </trkpt>
      <trkpt lat="42.3879" lon="-0.26361">
        <ele>846.6</ele>
      </trkpt>
      <trkpt lat="42.388" lon="-0.26545">
        <ele>839.6</ele>
      </trkpt>
      <trkpt lat="42.38799" lon="-0.26584">
        <ele>837.3</ele>
      </trkpt>
      <trkpt lat="42.38792" lon="-0.26658">
        <ele>837.1</ele>
      </trkpt>
      <trkpt lat="42.38792" lon="-0.26673">
        <ele>837.7</ele>
      </trkpt>
      <trkpt lat="42.38796" lon="-0.26692">
        <ele>839.3</ele>
      </trkpt>
      <trkpt lat="42.388" lon="-0.26698">
        <ele>839.6</ele>
      </trkpt>
      <trkpt lat="42.38814" lon="-0.26706">
        <ele>838.9</ele>
      </trkpt>
      <trkpt lat="42.38855" lon="-0.2671">
        <ele>835.2</ele>
      </trkpt>
      <trkpt lat="42.38881" lon="-0.26707">
        <ele>832.2</ele>
      </trkpt>
      <trkpt lat="42.38896" lon="-0.26707">
        <ele>830.8</ele>
      </trkpt>
      <trkpt lat="42.38904" lon="-0.26711">
        <ele>830.6</ele>
      </trkpt>
      <trkpt lat="42.38921" lon="-0.26727">
        <ele>830.6</ele>
      </trkpt>
      <trkpt lat="42.38932" lon="-0.26745">
        <ele>830.4</ele>
      </trkpt>
      <trkpt lat="42.38977" lon="-0.26885">
        <ele>823</ele>
      </trkpt>
      <trkpt lat="42.38989" lon="-0.26932">
        <ele>819.9</ele>
      </trkpt>
      <trkpt lat="42.39003" lon="-0.26957">
        <ele>816.4</ele>
      </trkpt>
      <trkpt lat="42.39007" lon="-0.26969">
        <ele>815</ele>
      </trkpt>
      <trkpt lat="42.3901" lon="-0.2698">
        <ele>813.7</ele>
      </trkpt>
      <trkpt lat="42.39011" lon="-0.26993">
        <ele>812.9</ele>
      </trkpt>
      <trkpt lat="42.3901" lon="-0.27006">
        <ele>812</ele>
      </trkpt>
      <trkpt lat="42.39007" lon="-0.27019">
        <ele>811</ele>
      </trkpt>
      <trkpt lat="42.39002" lon="-0.27029">
        <ele>810.8</ele>
      </trkpt>
      <trkpt lat="42.38997" lon="-0.27035">
        <ele>810.9</ele>
      </trkpt>
      <trkpt lat="42.38975" lon="-0.27055">
        <ele>812.4</ele>
      </trkpt>
      <trkpt lat="42.3897" lon="-0.27071">
        <ele>811.7</ele>
      </trkpt>
      <trkpt lat="42.38971" lon="-0.27092">
        <ele>809.3</ele>
      </trkpt>
      <trkpt lat="42.3898" lon="-0.2714">
        <ele>802.2</ele>
      </trkpt>
      <trkpt lat="42.38978" lon="-0.27205">
        <ele>797.4</ele>
      </trkpt>
      <trkpt lat="42.38978" lon="-0.27219">
        <ele>796.5</ele>
      </trkpt>
      <trkpt lat="42.3898" lon="-0.27229">
        <ele>795.6</ele>
      </trkpt>
      <trkpt lat="42.38983" lon="-0.27233">
        <ele>795</ele>
      </trkpt>
      <trkpt lat="42.39011" lon="-0.27249">
        <ele>792.2</ele>
      </trkpt>
      <trkpt lat="42.3904" lon="-0.27267">
        <ele>792.5</ele>
      </trkpt>
      <trkpt lat="42.3905" lon="-0.27278">
        <ele>792.6</ele>
      </trkpt>
      <trkpt lat="42.39054" lon="-0.27287">
        <ele>792.6</ele>
      </trkpt>
      <trkpt lat="42.3906" lon="-0.27318">
        <ele>792.7</ele>
      </trkpt>
      <trkpt lat="42.39078" lon="-0.27369">
        <ele>792.6</ele>
      </trkpt>
      <trkpt lat="42.39083" lon="-0.27389">
        <ele>792.3</ele>
      </trkpt>
      <trkpt lat="42.39085" lon="-0.27413">
        <ele>792.5</ele>
      </trkpt>
      <trkpt lat="42.3909" lon="-0.27419">
        <ele>793.7</ele>
      </trkpt>
      <trkpt lat="42.39099" lon="-0.27423">
        <ele>795.9</ele>
      </trkpt>
      <trkpt lat="42.39098" lon="-0.27409">
        <ele>795.9</ele>
      </trkpt>
      <trkpt lat="42.39099" lon="-0.27393">
        <ele>796.2</ele>
      </trkpt>
      <trkpt lat="42.39113" lon="-0.27293">
        <ele>799.1</ele>
      </trkpt>
    </trkseg>
  </trk>
  <trk>
    <name><![CDATA[jour4_3]]></name>
    <extensions>
      <line xmlns="http://www.topografix.com/GPX/gpx_style/0/2">
        <color>FF0000</color>
        <width>4</width>
      </line>
    </extensions>
    <trkseg>
      <trkpt lat="42.30727" lon="0.04167">
        <ele>862.45</ele>
        <time>2021-08-02T15:14:44Z</time>
      </trkpt>
      <trkpt lat="42.30737" lon="0.04136">
        <ele>859.31</ele>
        <time>2021-08-02T15:14:52Z</time>
      </trkpt>
      <trkpt lat="42.30755" lon="0.04054">
        <ele>859.42</ele>
        <time>2021-08-02T15:15:00Z</time>
      </trkpt>
      <trkpt lat="42.30774" lon="0.03948">
        <ele>862.71</ele>
        <time>2021-08-02T15:15:06Z</time>
      </trkpt>
      <trkpt lat="42.30781" lon="0.0386">
        <ele>866.23</ele>
        <time>2021-08-02T15:15:10Z</time>
      </trkpt>
      <trkpt lat="42.30819" lon="0.03725">
        <ele>870.3</ele>
        <time>2021-08-02T15:15:16Z</time>
      </trkpt>
      <trkpt lat="42.30826" lon="0.03706">
        <ele>870.96</ele>
        <time>2021-08-02T15:15:17Z</time>
      </trkpt>
      <trkpt lat="42.30863" lon="0.03617">
        <ele>872.53</ele>
        <time>2021-08-02T15:15:22Z</time>
      </trkpt>
      <trkpt lat="42.30865" lon="0.03482">
        <ele>873.19</ele>
        <time>2021-08-02T15:15:29Z</time>
      </trkpt>
      <trkpt lat="42.30864" lon="0.03442">
        <ele>873.46</ele>
        <time>2021-08-02T15:15:31Z</time>
      </trkpt>
      <trkpt lat="42.30845" lon="0.03372">
        <ele>873.78</ele>
        <time>2021-08-02T15:15:35Z</time>
      </trkpt>
      <trkpt lat="42.30821" lon="0.03232">
        <ele>874.43</ele>
        <time>2021-08-02T15:15:42Z</time>
      </trkpt>
      <trkpt lat="42.30816" lon="0.03144">
        <ele>875.64</ele>
        <time>2021-08-02T15:15:47Z</time>
      </trkpt>
      <trkpt lat="42.30836" lon="0.03042">
        <ele>877.34</ele>
        <time>2021-08-02T15:15:53Z</time>
      </trkpt>
      <trkpt lat="42.30827" lon="0.02954">
        <ele>877.43</ele>
        <time>2021-08-02T15:15:58Z</time>
      </trkpt>
      <trkpt lat="42.30822" lon="0.02937">
        <ele>877.34</ele>
        <time>2021-08-02T15:15:59Z</time>
      </trkpt>
      <trkpt lat="42.30811" lon="0.02905">
        <ele>877.08</ele>
        <time>2021-08-02T15:16:01Z</time>
      </trkpt>
      <trkpt lat="42.30814" lon="0.02841">
        <ele>875.98</ele>
        <time>2021-08-02T15:16:05Z</time>
      </trkpt>
      <trkpt lat="42.30851" lon="0.02678">
        <ele>874.6</ele>
        <time>2021-08-02T15:16:14Z</time>
      </trkpt>
      <trkpt lat="42.30851" lon="0.02644">
        <ele>871.11</ele>
        <time>2021-08-02T15:16:20Z</time>
      </trkpt>
      <trkpt lat="42.30847" lon="0.02582">
        <ele>868.79</ele>
        <time>2021-08-02T15:16:26Z</time>
      </trkpt>
      <trkpt lat="42.30845" lon="0.02536">
        <ele>869.23</ele>
        <time>2021-08-02T15:16:29Z</time>
      </trkpt>
      <trkpt lat="42.3086" lon="0.02463">
        <ele>870.6</ele>
        <time>2021-08-02T15:16:33Z</time>
      </trkpt>
      <trkpt lat="42.309" lon="0.02382">
        <ele>871.84</ele>
        <time>2021-08-02T15:16:38Z</time>
      </trkpt>
      <trkpt lat="42.30967" lon="0.02323">
        <ele>874</ele>
        <time>2021-08-02T15:16:43Z</time>
      </trkpt>
      <trkpt lat="42.31031" lon="0.02234">
        <ele>876.5</ele>
        <time>2021-08-02T15:16:49Z</time>
      </trkpt>
      <trkpt lat="42.31062" lon="0.02154">
        <ele>877.92</ele>
        <time>2021-08-02T15:16:53Z</time>
      </trkpt>
      <trkpt lat="42.31099" lon="0.02095">
        <ele>878.88</ele>
        <time>2021-08-02T15:16:57Z</time>
      </trkpt>
      <trkpt lat="42.31134" lon="0.02085">
        <ele>880.53</ele>
        <time>2021-08-02T15:17:01Z</time>
      </trkpt>
      <trkpt lat="42.31219" lon="0.02053">
        <ele>882.09</ele>
        <time>2021-08-02T15:17:08Z</time>
      </trkpt>
      <trkpt lat="42.31273" lon="0.02032">
        <ele>884.69</ele>
        <time>2021-08-02T15:17:12Z</time>
      </trkpt>
      <trkpt lat="42.31362" lon="0.01996">
        <ele>888.91</ele>
        <time>2021-08-02T15:17:19Z</time>
      </trkpt>
      <trkpt lat="42.31406" lon="0.01893">
        <ele>889.79</ele>
        <time>2021-08-02T15:17:25Z</time>
      </trkpt>
      <trkpt lat="42.31411" lon="0.01854">
        <ele>889.37</ele>
        <time>2021-08-02T15:17:27Z</time>
      </trkpt>
      <trkpt lat="42.31459" lon="0.01769">
        <ele>888.07</ele>
        <time>2021-08-02T15:17:34Z</time>
      </trkpt>
      <trkpt lat="42.31483" lon="0.01759">
        <ele>888.2</ele>
        <time>2021-08-02T15:17:37Z</time>
      </trkpt>
      <trkpt lat="42.31507" lon="0.01737">
        <ele>887.49</ele>
        <time>2021-08-02T15:17:41Z</time>
      </trkpt>
      <trkpt lat="42.31585" lon="0.01707">
        <ele>887.09</ele>
        <time>2021-08-02T15:17:49Z</time>
      </trkpt>
      <trkpt lat="42.31671" lon="0.01677">
        <ele>888.87</ele>
        <time>2021-08-02T15:17:56Z</time>
      </trkpt>
      <trkpt lat="42.31706" lon="0.01607">
        <ele>890.36</ele>
        <time>2021-08-02T15:18:02Z</time>
      </trkpt>
      <trkpt lat="42.31717" lon="0.01553">
        <ele>889.88</ele>
        <time>2021-08-02T15:18:06Z</time>
      </trkpt>
      <trkpt lat="42.31735" lon="0.01516">
        <ele>888.56</ele>
        <time>2021-08-02T15:18:10Z</time>
      </trkpt>
      <trkpt lat="42.31767" lon="0.01489">
        <ele>887.78</ele>
        <time>2021-08-02T15:18:17Z</time>
      </trkpt>
      <trkpt lat="42.31776" lon="0.0148">
        <ele>887.65</ele>
        <time>2021-08-02T15:18:20Z</time>
      </trkpt>
      <trkpt lat="42.31792" lon="0.01462">
        <ele>887.67</ele>
        <time>2021-08-02T15:18:23Z</time>
      </trkpt>
      <trkpt lat="42.31827" lon="0.01454">
        <ele>888.06</ele>
        <time>2021-08-02T15:18:27Z</time>
      </trkpt>
      <trkpt lat="42.31905" lon="0.01456">
        <ele>890.59</ele>
        <time>2021-08-02T15:18:35Z</time>
      </trkpt>
      <trkpt lat="42.31972" lon="0.01476">
        <ele>891.17</ele>
        <time>2021-08-02T15:18:42Z</time>
      </trkpt>
      <trkpt lat="42.3206" lon="0.01483">
        <ele>892.24</ele>
        <time>2021-08-02T15:18:50Z</time>
      </trkpt>
      <trkpt lat="42.32095" lon="0.01467">
        <ele>892.72</ele>
        <time>2021-08-02T15:18:54Z</time>
      </trkpt>
      <trkpt lat="42.32148" lon="0.01419">
        <ele>893.6</ele>
        <time>2021-08-02T15:19:00Z</time>
      </trkpt>
      <trkpt lat="42.32255" lon="0.01392">
        <ele>896.03</ele>
        <time>2021-08-02T15:19:09Z</time>
      </trkpt>
      <trkpt lat="42.32345" lon="0.01376">
        <ele>898.41</ele>
        <time>2021-08-02T15:19:16Z</time>
      </trkpt>
      <trkpt lat="42.32382" lon="0.01364">
        <ele>898.85</ele>
        <time>2021-08-02T15:19:19Z</time>
      </trkpt>
      <trkpt lat="42.32458" lon="0.01386">
        <ele>899.62</ele>
        <time>2021-08-02T15:19:25Z</time>
      </trkpt>
      <trkpt lat="42.32534" lon="0.01439">
        <ele>901.77</ele>
        <time>2021-08-02T15:19:31Z</time>
      </trkpt>
      <trkpt lat="42.3259" lon="0.01443">
        <ele>903.13</ele>
        <time>2021-08-02T15:19:35Z</time>
      </trkpt>
      <trkpt lat="42.32661" lon="0.01419">
        <ele>904.46</ele>
        <time>2021-08-02T15:19:40Z</time>
      </trkpt>
      <trkpt lat="42.3275" lon="0.01412">
        <ele>907.4</ele>
        <time>2021-08-02T15:19:47Z</time>
      </trkpt>
      <trkpt lat="42.32828" lon="0.01381">
        <ele>911.26</ele>
        <time>2021-08-02T15:19:53Z</time>
      </trkpt>
      <trkpt lat="42.32842" lon="0.01377">
        <ele>911.96</ele>
        <time>2021-08-02T15:19:54Z</time>
      </trkpt>
      <trkpt lat="42.32916" lon="0.01372">
        <ele>914.74</ele>
        <time>2021-08-02T15:20:00Z</time>
      </trkpt>
      <trkpt lat="42.32978" lon="0.01347">
        <ele>917.07</ele>
        <time>2021-08-02T15:20:05Z</time>
      </trkpt>
      <trkpt lat="42.33024" lon="0.01308">
        <ele>918.36</ele>
        <time>2021-08-02T15:20:09Z</time>
      </trkpt>
      <trkpt lat="42.33065" lon="0.01255">
        <ele>919.54</ele>
        <time>2021-08-02T15:20:13Z</time>
      </trkpt>
      <trkpt lat="42.33115" lon="0.01219">
        <ele>920.38</ele>
        <time>2021-08-02T15:20:17Z</time>
      </trkpt>
      <trkpt lat="42.33197" lon="0.01189">
        <ele>921.73</ele>
        <time>2021-08-02T15:20:23Z</time>
      </trkpt>
      <trkpt lat="42.33249" lon="0.0113">
        <ele>922.72</ele>
        <time>2021-08-02T15:20:29Z</time>
      </trkpt>
      <trkpt lat="42.33251" lon="0.01113">
        <ele>922.88</ele>
        <time>2021-08-02T15:20:30Z</time>
      </trkpt>
      <trkpt lat="42.3326" lon="0.01028">
        <ele>924.23</ele>
        <time>2021-08-02T15:20:35Z</time>
      </trkpt>
      <trkpt lat="42.33301" lon="0.00978">
        <ele>926.02</ele>
        <time>2021-08-02T15:20:40Z</time>
      </trkpt>
      <trkpt lat="42.33312" lon="0.00967">
        <ele>926.35</ele>
        <time>2021-08-02T15:20:41Z</time>
      </trkpt>
      <trkpt lat="42.33346" lon="0.00929">
        <ele>927.8</ele>
        <time>2021-08-02T15:20:44Z</time>
      </trkpt>
      <trkpt lat="42.33385" lon="0.00906">
        <ele>929.27</ele>
        <time>2021-08-02T15:20:47Z</time>
      </trkpt>
      <trkpt lat="42.33421" lon="0.00882">
        <ele>931.32</ele>
        <time>2021-08-02T15:20:50Z</time>
      </trkpt>
      <trkpt lat="42.33457" lon="0.00863">
        <ele>933.38</ele>
        <time>2021-08-02T15:20:53Z</time>
      </trkpt>
      <trkpt lat="42.33495" lon="0.00859">
        <ele>935.32</ele>
        <time>2021-08-02T15:20:56Z</time>
      </trkpt>
      <trkpt lat="42.3356" lon="0.00828">
        <ele>939.23</ele>
        <time>2021-08-02T15:21:02Z</time>
      </trkpt>
      <trkpt lat="42.33598" lon="0.00768">
        <ele>943.22</ele>
        <time>2021-08-02T15:21:09Z</time>
      </trkpt>
      <trkpt lat="42.33616" lon="0.00699">
        <ele>947.57</ele>
        <time>2021-08-02T15:21:15Z</time>
      </trkpt>
      <trkpt lat="42.33647" lon="0.00696">
        <ele>950.71</ele>
        <time>2021-08-02T15:21:18Z</time>
      </trkpt>
      <trkpt lat="42.33661" lon="0.00671">
        <ele>954.26</ele>
        <time>2021-08-02T15:21:21Z</time>
      </trkpt>
      <trkpt lat="42.33645" lon="0.00635">
        <ele>958.14</ele>
        <time>2021-08-02T15:21:24Z</time>
      </trkpt>
      <trkpt lat="42.33635" lon="0.00605">
        <ele>960.8</ele>
        <time>2021-08-02T15:21:26Z</time>
      </trkpt>
      <trkpt lat="42.33623" lon="0.00554">
        <ele>965.4</ele>
        <time>2021-08-02T15:21:29Z</time>
      </trkpt>
      <trkpt lat="42.33617" lon="0.00537">
        <ele>966.93</ele>
        <time>2021-08-02T15:21:30Z</time>
      </trkpt>
      <trkpt lat="42.33597" lon="0.00486">
        <ele>971.76</ele>
        <time>2021-08-02T15:21:33Z</time>
      </trkpt>
      <trkpt lat="42.33595" lon="0.00448">
        <ele>975.18</ele>
        <time>2021-08-02T15:21:35Z</time>
      </trkpt>
      <trkpt lat="42.33595" lon="0.00384">
        <ele>980.65</ele>
        <time>2021-08-02T15:21:38Z</time>
      </trkpt>
      <trkpt lat="42.33606" lon="0.00321">
        <ele>986</ele>
        <time>2021-08-02T15:21:41Z</time>
      </trkpt>
      <trkpt lat="42.33625" lon="0.00291">
        <ele>989.47</ele>
        <time>2021-08-02T15:21:43Z</time>
      </trkpt>
      <trkpt lat="42.33639" lon="0.00281">
        <ele>991.19</ele>
        <time>2021-08-02T15:21:44Z</time>
      </trkpt>
      <trkpt lat="42.33693" lon="0.00222">
        <ele>997.91</ele>
        <time>2021-08-02T15:21:48Z</time>
      </trkpt>
      <trkpt lat="42.33719" lon="0.00187">
        <ele>1000.96</ele>
        <time>2021-08-02T15:21:50Z</time>
      </trkpt>
      <trkpt lat="42.33746" lon="0.00155">
        <ele>1004.01</ele>
        <time>2021-08-02T15:21:52Z</time>
      </trkpt>
      <trkpt lat="42.33776" lon="0.00126">
        <ele>1007.4</ele>
        <time>2021-08-02T15:21:54Z</time>
      </trkpt>
      <trkpt lat="42.33807" lon="0.00097">
        <ele>1011.51</ele>
        <time>2021-08-02T15:21:56Z</time>
      </trkpt>
      <trkpt lat="42.33841" lon="0.00069">
        <ele>1015.78</ele>
        <time>2021-08-02T15:21:58Z</time>
      </trkpt>
      <trkpt lat="42.33876" lon="0.0004">
        <ele>1020.14</ele>
        <time>2021-08-02T15:22:00Z</time>
      </trkpt>
      <trkpt lat="42.33912" lon="0.00011">
        <ele>1024.29</ele>
        <time>2021-08-02T15:22:02Z</time>
      </trkpt>
      <trkpt lat="42.33944" lon="-0.00017">
        <ele>1028.3</ele>
        <time>2021-08-02T15:22:04Z</time>
      </trkpt>
      <trkpt lat="42.33958" lon="-0.0003">
        <ele>1030.23</ele>
        <time>2021-08-02T15:22:05Z</time>
      </trkpt>
      <trkpt lat="42.33986" lon="-0.00076">
        <ele>1035.74</ele>
        <time>2021-08-02T15:22:08Z</time>
      </trkpt>
      <trkpt lat="42.33994" lon="-0.00119">
        <ele>1038.97</ele>
        <time>2021-08-02T15:22:10Z</time>
      </trkpt>
      <trkpt lat="42.33996" lon="-0.00141">
        <ele>1040.2</ele>
        <time>2021-08-02T15:22:11Z</time>
      </trkpt>
      <trkpt lat="42.34002" lon="-0.00181">
        <ele>1042.15</ele>
        <time>2021-08-02T15:22:13Z</time>
      </trkpt>
      <trkpt lat="42.34011" lon="-0.00225">
        <ele>1043.52</ele>
        <time>2021-08-02T15:22:16Z</time>
      </trkpt>
      <trkpt lat="42.34054" lon="-0.0025">
        <ele>1042.23</ele>
        <time>2021-08-02T15:22:20Z</time>
      </trkpt>
      <trkpt lat="42.34068" lon="-0.00247">
        <ele>1041.65</ele>
        <time>2021-08-02T15:22:21Z</time>
      </trkpt>
      <trkpt lat="42.34097" lon="-0.0024">
        <ele>1040.92</ele>
        <time>2021-08-02T15:22:23Z</time>
      </trkpt>
      <trkpt lat="42.34142" lon="-0.00243">
        <ele>1040.73</ele>
        <time>2021-08-02T15:22:26Z</time>
      </trkpt>
      <trkpt lat="42.3424" lon="-0.00225">
        <ele>1043.88</ele>
        <time>2021-08-02T15:22:33Z</time>
      </trkpt>
      <trkpt lat="42.34254" lon="-0.00228">
        <ele>1044.93</ele>
        <time>2021-08-02T15:22:34Z</time>
      </trkpt>
      <trkpt lat="42.34319" lon="-0.00243">
        <ele>1049.07</ele>
        <time>2021-08-02T15:22:38Z</time>
      </trkpt>
      <trkpt lat="42.34372" lon="-0.0025">
        <ele>1052.76</ele>
        <time>2021-08-02T15:22:41Z</time>
      </trkpt>
      <trkpt lat="42.34422" lon="-0.00261">
        <ele>1056.6</ele>
        <time>2021-08-02T15:22:44Z</time>
      </trkpt>
      <trkpt lat="42.3447" lon="-0.00277">
        <ele>1059.91</ele>
        <time>2021-08-02T15:22:47Z</time>
      </trkpt>
      <trkpt lat="42.3452" lon="-0.00291">
        <ele>1062.95</ele>
        <time>2021-08-02T15:22:50Z</time>
      </trkpt>
      <trkpt lat="42.34569" lon="-0.00306">
        <ele>1066.1</ele>
        <time>2021-08-02T15:22:53Z</time>
      </trkpt>
      <trkpt lat="42.34636" lon="-0.00321">
        <ele>1070.02</ele>
        <time>2021-08-02T15:22:57Z</time>
      </trkpt>
      <trkpt lat="42.34703" lon="-0.00339">
        <ele>1073.63</ele>
        <time>2021-08-02T15:23:01Z</time>
      </trkpt>
      <trkpt lat="42.34735" lon="-0.00348">
        <ele>1075.31</ele>
        <time>2021-08-02T15:23:03Z</time>
      </trkpt>
      <trkpt lat="42.34814" lon="-0.0035">
        <ele>1079.29</ele>
        <time>2021-08-02T15:23:08Z</time>
      </trkpt>
      <trkpt lat="42.34863" lon="-0.00345">
        <ele>1082.34</ele>
        <time>2021-08-02T15:23:11Z</time>
      </trkpt>
      <trkpt lat="42.34913" lon="-0.00341">
        <ele>1086.07</ele>
        <time>2021-08-02T15:23:14Z</time>
      </trkpt>
      <trkpt lat="42.3498" lon="-0.00345">
        <ele>1091.34</ele>
        <time>2021-08-02T15:23:18Z</time>
      </trkpt>
      <trkpt lat="42.34998" lon="-0.00341">
        <ele>1092.69</ele>
        <time>2021-08-02T15:23:19Z</time>
      </trkpt>
      <trkpt lat="42.35072" lon="-0.00321">
        <ele>1098.6</ele>
        <time>2021-08-02T15:23:23Z</time>
      </trkpt>
      <trkpt lat="42.35112" lon="-0.00315">
        <ele>1101.99</ele>
        <time>2021-08-02T15:23:25Z</time>
      </trkpt>
      <trkpt lat="42.35152" lon="-0.00313">
        <ele>1105.27</ele>
        <time>2021-08-02T15:23:27Z</time>
      </trkpt>
      <trkpt lat="42.3519" lon="-0.00313">
        <ele>1108.91</ele>
        <time>2021-08-02T15:23:29Z</time>
      </trkpt>
      <trkpt lat="42.35247" lon="-0.00311">
        <ele>1115.03</ele>
        <time>2021-08-02T15:23:32Z</time>
      </trkpt>
      <trkpt lat="42.35282" lon="-0.00326">
        <ele>1119.37</ele>
        <time>2021-08-02T15:23:34Z</time>
      </trkpt>
      <trkpt lat="42.35312" lon="-0.00344">
        <ele>1123.62</ele>
        <time>2021-08-02T15:23:36Z</time>
      </trkpt>
      <trkpt lat="42.35345" lon="-0.00388">
        <ele>1129.24</ele>
        <time>2021-08-02T15:23:39Z</time>
      </trkpt>
      <trkpt lat="42.35352" lon="-0.0041">
        <ele>1130.8</ele>
        <time>2021-08-02T15:23:40Z</time>
      </trkpt>
      <trkpt lat="42.35388" lon="-0.0051">
        <ele>1137.94</ele>
        <time>2021-08-02T15:23:45Z</time>
      </trkpt>
      <trkpt lat="42.35401" lon="-0.00568">
        <ele>1143.32</ele>
        <time>2021-08-02T15:23:49Z</time>
      </trkpt>
      <trkpt lat="42.35428" lon="-0.00606">
        <ele>1146.4</ele>
        <time>2021-08-02T15:23:53Z</time>
      </trkpt>
      <trkpt lat="42.35515" lon="-0.00635">
        <ele>1143.52</ele>
        <time>2021-08-02T15:23:59Z</time>
      </trkpt>
      <trkpt lat="42.35562" lon="-0.00651">
        <ele>1140.09</ele>
        <time>2021-08-02T15:24:02Z</time>
      </trkpt>
      <trkpt lat="42.35588" lon="-0.00656">
        <ele>1137.26</ele>
        <time>2021-08-02T15:24:04Z</time>
      </trkpt>
      <trkpt lat="42.35616" lon="-0.00674">
        <ele>1132.23</ele>
        <time>2021-08-02T15:24:07Z</time>
      </trkpt>
      <trkpt lat="42.35623" lon="-0.00697">
        <ele>1128.97</ele>
        <time>2021-08-02T15:24:09Z</time>
      </trkpt>
      <trkpt lat="42.35625" lon="-0.00731">
        <ele>1124.96</ele>
        <time>2021-08-02T15:24:12Z</time>
      </trkpt>
      <trkpt lat="42.35624" lon="-0.00738">
        <ele>1120.59</ele>
        <time>2021-08-02T15:24:17Z</time>
      </trkpt>
      <trkpt lat="42.35624" lon="-0.00739">
        <ele>1117.52</ele>
        <time>2021-08-02T15:24:24Z</time>
      </trkpt>
      <trkpt lat="42.35623" lon="-0.00744">
        <ele>1116.89</ele>
        <time>2021-08-02T15:24:29Z</time>
      </trkpt>
      <trkpt lat="42.35647" lon="-0.00758">
        <ele>1116.25</ele>
        <time>2021-08-02T15:24:34Z</time>
      </trkpt>
      <trkpt lat="42.35679" lon="-0.00752">
        <ele>1115.82</ele>
        <time>2021-08-02T15:24:37Z</time>
      </trkpt>
      <trkpt lat="42.35718" lon="-0.00727">
        <ele>1115.01</ele>
        <time>2021-08-02T15:24:41Z</time>
      </trkpt>
      <trkpt lat="42.35745" lon="-0.00738">
        <ele>1114.45</ele>
        <time>2021-08-02T15:24:45Z</time>
      </trkpt>
      <trkpt lat="42.35778" lon="-0.00825">
        <ele>1112.42</ele>
        <time>2021-08-02T15:24:53Z</time>
      </trkpt>
      <trkpt lat="42.3579" lon="-0.00842">
        <ele>1110.05</ele>
        <time>2021-08-02T15:24:57Z</time>
      </trkpt>
      <trkpt lat="42.35802" lon="-0.00837">
        <ele>1107.42</ele>
        <time>2021-08-02T15:25:01Z</time>
      </trkpt>
      <trkpt lat="42.35824" lon="-0.00831">
        <ele>1104.46</ele>
        <time>2021-08-02T15:25:11Z</time>
      </trkpt>
      <trkpt lat="42.35865" lon="-0.00833">
        <ele>1104.28</ele>
        <time>2021-08-02T15:25:17Z</time>
      </trkpt>
      <trkpt lat="42.3593" lon="-0.00808">
        <ele>1105.43</ele>
        <time>2021-08-02T15:25:23Z</time>
      </trkpt>
      <trkpt lat="42.35944" lon="-0.00803">
        <ele>1106.72</ele>
        <time>2021-08-02T15:25:29Z</time>
      </trkpt>
      <trkpt lat="42.35955" lon="-0.00799">
        <ele>1106.77</ele>
        <time>2021-08-02T15:25:33Z</time>
      </trkpt>
      <trkpt lat="42.3597" lon="-0.00805">
        <ele>1106.65</ele>
        <time>2021-08-02T15:25:37Z</time>
      </trkpt>
      <trkpt lat="42.36032" lon="-0.00842">
        <ele>1106.74</ele>
        <time>2021-08-02T15:25:48Z</time>
      </trkpt>
      <trkpt lat="42.36045" lon="-0.00849">
        <ele>1106.76</ele>
        <time>2021-08-02T15:25:50Z</time>
      </trkpt>
      <trkpt lat="42.36077" lon="-0.00853">
        <ele>1107.06</ele>
        <time>2021-08-02T15:25:58Z</time>
      </trkpt>
      <trkpt lat="42.36075" lon="-0.00853">
        <ele>1107.16</ele>
        <time>2021-08-02T15:26:02Z</time>
      </trkpt>
      <trkpt lat="42.36113" lon="-0.00859">
        <ele>1108.69</ele>
        <time>2021-08-02T15:26:14Z</time>
      </trkpt>
      <trkpt lat="42.36118" lon="-0.0087">
        <ele>1109.68</ele>
        <time>2021-08-02T15:26:18Z</time>
      </trkpt>
      <trkpt lat="42.3616" lon="-0.00926">
        <ele>1111.88</ele>
        <time>2021-08-02T15:26:27Z</time>
      </trkpt>
      <trkpt lat="42.36171" lon="-0.00957">
        <ele>1113.26</ele>
        <time>2021-08-02T15:26:35Z</time>
      </trkpt>
      <trkpt lat="42.36181" lon="-0.00971">
        <ele>1114.65</ele>
        <time>2021-08-02T15:26:48Z</time>
      </trkpt>
      <trkpt lat="42.36223" lon="-0.00978">
        <ele>1116</ele>
        <time>2021-08-02T15:26:56Z</time>
      </trkpt>
      <trkpt lat="42.36241" lon="-0.00969">
        <ele>1117.22</ele>
        <time>2021-08-02T15:27:02Z</time>
      </trkpt>
      <trkpt lat="42.36268" lon="-0.00983">
        <ele>1118.05</ele>
        <time>2021-08-02T15:27:09Z</time>
      </trkpt>
      <trkpt lat="42.36317" lon="-0.00999">
        <ele>1120.04</ele>
        <time>2021-08-02T15:27:21Z</time>
      </trkpt>
      <trkpt lat="42.36323" lon="-0.0103">
        <ele>1121.48</ele>
        <time>2021-08-02T15:27:30Z</time>
      </trkpt>
      <trkpt lat="42.36309" lon="-0.01068">
        <ele>1120.24</ele>
        <time>2021-08-02T15:27:42Z</time>
      </trkpt>
      <trkpt lat="42.36297" lon="-0.01103">
        <ele>1117.45</ele>
        <time>2021-08-02T15:27:54Z</time>
      </trkpt>
      <trkpt lat="42.36297" lon="-0.01105">
        <ele>1115.62</ele>
        <time>2021-08-02T15:28:10Z</time>
      </trkpt>
      <trkpt lat="42.36295" lon="-0.01131">
        <ele>1113.97</ele>
        <time>2021-08-02T15:28:28Z</time>
      </trkpt>
      <trkpt lat="42.363" lon="-0.01165">
        <ele>1111.75</ele>
        <time>2021-08-02T15:28:38Z</time>
      </trkpt>
      <trkpt lat="42.36322" lon="-0.01206">
        <ele>1108.68</ele>
        <time>2021-08-02T15:28:47Z</time>
      </trkpt>
      <trkpt lat="42.36326" lon="-0.0124">
        <ele>1105.28</ele>
        <time>2021-08-02T15:28:56Z</time>
      </trkpt>
      <trkpt lat="42.36327" lon="-0.01245">
        <ele>1104.99</ele>
        <time>2021-08-02T15:28:57Z</time>
      </trkpt>
      <trkpt lat="42.36342" lon="-0.01286">
        <ele>1101.71</ele>
        <time>2021-08-02T15:29:08Z</time>
      </trkpt>
      <trkpt lat="42.36345" lon="-0.01292">
        <ele>1101.49</ele>
        <time>2021-08-02T15:29:09Z</time>
      </trkpt>
      <trkpt lat="42.36351" lon="-0.01321">
        <ele>1100.45</ele>
        <time>2021-08-02T15:29:14Z</time>
      </trkpt>
      <trkpt lat="42.36353" lon="-0.01376">
        <ele>1097.67</ele>
        <time>2021-08-02T15:29:23Z</time>
      </trkpt>
      <trkpt lat="42.36355" lon="-0.0141">
        <ele>1094.77</ele>
        <time>2021-08-02T15:29:34Z</time>
      </trkpt>
      <trkpt lat="42.36365" lon="-0.01469">
        <ele>1091.67</ele>
        <time>2021-08-02T15:29:47Z</time>
      </trkpt>
      <trkpt lat="42.36382" lon="-0.01512">
        <ele>1088.59</ele>
        <time>2021-08-02T15:29:59Z</time>
      </trkpt>
      <trkpt lat="42.36398" lon="-0.01536">
        <ele>1086.21</ele>
        <time>2021-08-02T15:30:08Z</time>
      </trkpt>
      <trkpt lat="42.36406" lon="-0.01536">
        <ele>1085.83</ele>
        <time>2021-08-02T15:30:10Z</time>
      </trkpt>
      <trkpt lat="42.36437" lon="-0.01536">
        <ele>1083.95</ele>
        <time>2021-08-02T15:30:21Z</time>
      </trkpt>
      <trkpt lat="42.36445" lon="-0.01546">
        <ele>1083.28</ele>
        <time>2021-08-02T15:30:25Z</time>
      </trkpt>
      <trkpt lat="42.36448" lon="-0.01565">
        <ele>1082.42</ele>
        <time>2021-08-02T15:30:29Z</time>
      </trkpt>
      <trkpt lat="42.36444" lon="-0.01616">
        <ele>1081.05</ele>
        <time>2021-08-02T15:30:37Z</time>
      </trkpt>
      <trkpt lat="42.36437" lon="-0.01665">
        <ele>1077.9</ele>
        <time>2021-08-02T15:30:48Z</time>
      </trkpt>
      <trkpt lat="42.36437" lon="-0.01671">
        <ele>1077.71</ele>
        <time>2021-08-02T15:30:49Z</time>
      </trkpt>
      <trkpt lat="42.36441" lon="-0.01716">
        <ele>1076.1</ele>
        <time>2021-08-02T15:30:56Z</time>
      </trkpt>
      <trkpt lat="42.36434" lon="-0.01767">
        <ele>1074.86</ele>
        <time>2021-08-02T15:31:03Z</time>
      </trkpt>
      <trkpt lat="42.36434" lon="-0.01792">
        <ele>1074.3</ele>
        <time>2021-08-02T15:31:06Z</time>
      </trkpt>
      <trkpt lat="42.36422" lon="-0.01835">
        <ele>1074.1</ele>
        <time>2021-08-02T15:31:11Z</time>
      </trkpt>
      <trkpt lat="42.36398" lon="-0.01864">
        <ele>1074.02</ele>
        <time>2021-08-02T15:31:15Z</time>
      </trkpt>
      <trkpt lat="42.36384" lon="-0.01872">
        <ele>1073.84</ele>
        <time>2021-08-02T15:31:17Z</time>
      </trkpt>
      <trkpt lat="42.36346" lon="-0.01931">
        <ele>1072.85</ele>
        <time>2021-08-02T15:31:25Z</time>
      </trkpt>
      <trkpt lat="42.36332" lon="-0.01951">
        <ele>1072.45</ele>
        <time>2021-08-02T15:31:31Z</time>
      </trkpt>
      <trkpt lat="42.36329" lon="-0.01964">
        <ele>1072.01</ele>
        <time>2021-08-02T15:31:33Z</time>
      </trkpt>
      <trkpt lat="42.3632" lon="-0.01986">
        <ele>1070.41</ele>
        <time>2021-08-02T15:31:37Z</time>
      </trkpt>
      <trkpt lat="42.36318" lon="-0.02042">
        <ele>1067.06</ele>
        <time>2021-08-02T15:31:46Z</time>
      </trkpt>
      <trkpt lat="42.36321" lon="-0.0208">
        <ele>1063.84</ele>
        <time>2021-08-02T15:31:53Z</time>
      </trkpt>
      <trkpt lat="42.36326" lon="-0.02112">
        <ele>1060.74</ele>
        <time>2021-08-02T15:31:58Z</time>
      </trkpt>
      <trkpt lat="42.3633" lon="-0.02145">
        <ele>1057.11</ele>
        <time>2021-08-02T15:32:03Z</time>
      </trkpt>
      <trkpt lat="42.36331" lon="-0.02168">
        <ele>1053.52</ele>
        <time>2021-08-02T15:32:08Z</time>
      </trkpt>
      <trkpt lat="42.36331" lon="-0.02167">
        <ele>1050.21</ele>
        <time>2021-08-02T15:32:14Z</time>
      </trkpt>
      <trkpt lat="42.36333" lon="-0.02178">
        <ele>1048.06</ele>
        <time>2021-08-02T15:32:26Z</time>
      </trkpt>
      <trkpt lat="42.36349" lon="-0.02184">
        <ele>1046.85</ele>
        <time>2021-08-02T15:32:31Z</time>
      </trkpt>
      <trkpt lat="42.3638" lon="-0.02159">
        <ele>1043.54</ele>
        <time>2021-08-02T15:32:41Z</time>
      </trkpt>
      <trkpt lat="42.36386" lon="-0.02158">
        <ele>1042.75</ele>
        <time>2021-08-02T15:32:43Z</time>
      </trkpt>
      <trkpt lat="42.36391" lon="-0.02168">
        <ele>1039.15</ele>
        <time>2021-08-02T15:32:53Z</time>
      </trkpt>
      <trkpt lat="42.36405" lon="-0.02193">
        <ele>1036.8</ele>
        <time>2021-08-02T15:33:04Z</time>
      </trkpt>
      <trkpt lat="42.36422" lon="-0.02223">
        <ele>1033.67</ele>
        <time>2021-08-02T15:33:14Z</time>
      </trkpt>
      <trkpt lat="42.36445" lon="-0.02268">
        <ele>1030.48</ele>
        <time>2021-08-02T15:33:24Z</time>
      </trkpt>
      <trkpt lat="42.36462" lon="-0.02287">
        <ele>1028.9</ele>
        <time>2021-08-02T15:33:29Z</time>
      </trkpt>
      <trkpt lat="42.36477" lon="-0.02289">
        <ele>1026.59</ele>
        <time>2021-08-02T15:33:37Z</time>
      </trkpt>
      <trkpt lat="42.36485" lon="-0.02286">
        <ele>1026.03</ele>
        <time>2021-08-02T15:33:39Z</time>
      </trkpt>
      <trkpt lat="42.3652" lon="-0.02314">
        <ele>1023.39</ele>
        <time>2021-08-02T15:33:47Z</time>
      </trkpt>
      <trkpt lat="42.36521" lon="-0.02361">
        <ele>1020.57</ele>
        <time>2021-08-02T15:33:52Z</time>
      </trkpt>
      <trkpt lat="42.36538" lon="-0.02391">
        <ele>1017.91</ele>
        <time>2021-08-02T15:33:57Z</time>
      </trkpt>
      <trkpt lat="42.36538" lon="-0.02399">
        <ele>1017.49</ele>
        <time>2021-08-02T15:33:58Z</time>
      </trkpt>
      <trkpt lat="42.36537" lon="-0.02479">
        <ele>1016.73</ele>
        <time>2021-08-02T15:34:05Z</time>
      </trkpt>
      <trkpt lat="42.36531" lon="-0.02516">
        <ele>1016.65</ele>
        <time>2021-08-02T15:34:09Z</time>
      </trkpt>
      <trkpt lat="42.36525" lon="-0.02527">
        <ele>1016.17</ele>
        <time>2021-08-02T15:34:17Z</time>
      </trkpt>
      <trkpt lat="42.36522" lon="-0.02536">
        <ele>1015.96</ele>
        <time>2021-08-02T15:35:01Z</time>
      </trkpt>
      <trkpt lat="42.36518" lon="-0.02552">
        <ele>1016.12</ele>
        <time>2021-08-02T15:35:08Z</time>
      </trkpt>
      <trkpt lat="42.36517" lon="-0.0256">
        <ele>1016.15</ele>
        <time>2021-08-02T15:36:17Z</time>
      </trkpt>
      <trkpt lat="42.36517" lon="-0.0256">
        <ele>1016.3</ele>
        <time>2021-08-02T15:36:44Z</time>
      </trkpt>
      <trkpt lat="42.3653" lon="-0.02575">
        <ele>1015.68</ele>
        <time>2021-08-02T15:49:25Z</time>
      </trkpt>
      <trkpt lat="42.36528" lon="-0.02575">
        <ele>1015.68</ele>
        <time>2021-08-02T15:49:27Z</time>
      </trkpt>
      <trkpt lat="42.3652" lon="-0.02577">
        <ele>1015.68</ele>
        <time>2021-08-02T15:49:31Z</time>
      </trkpt>
      <trkpt lat="42.36514" lon="-0.02602">
        <ele>1013.83</ele>
        <time>2021-08-02T15:49:36Z</time>
      </trkpt>
      <trkpt lat="42.36489" lon="-0.02648">
        <ele>1013.07</ele>
        <time>2021-08-02T15:49:43Z</time>
      </trkpt>
      <trkpt lat="42.36471" lon="-0.02726">
        <ele>1015.03</ele>
        <time>2021-08-02T15:49:53Z</time>
      </trkpt>
      <trkpt lat="42.36471" lon="-0.02767">
        <ele>1013.02</ele>
        <time>2021-08-02T15:50:03Z</time>
      </trkpt>
      <trkpt lat="42.36473" lon="-0.0282">
        <ele>1009.86</ele>
        <time>2021-08-02T15:50:14Z</time>
      </trkpt>
      <trkpt lat="42.36475" lon="-0.02844">
        <ele>1008.22</ele>
        <time>2021-08-02T15:50:21Z</time>
      </trkpt>
      <trkpt lat="42.36474" lon="-0.02867">
        <ele>1007.77</ele>
        <time>2021-08-02T15:50:25Z</time>
      </trkpt>
      <trkpt lat="42.36496" lon="-0.02898">
        <ele>1005.82</ele>
        <time>2021-08-02T15:50:33Z</time>
      </trkpt>
      <trkpt lat="42.36524" lon="-0.02862">
        <ele>1002.19</ele>
        <time>2021-08-02T15:50:40Z</time>
      </trkpt>
      <trkpt lat="42.36533" lon="-0.02877">
        <ele>999.83</ele>
        <time>2021-08-02T15:50:44Z</time>
      </trkpt>
      <trkpt lat="42.36536" lon="-0.0292">
        <ele>998.12</ele>
        <time>2021-08-02T15:50:48Z</time>
      </trkpt>
      <trkpt lat="42.36538" lon="-0.02937">
        <ele>994.78</ele>
        <time>2021-08-02T15:50:54Z</time>
      </trkpt>
      <trkpt lat="42.36534" lon="-0.02956">
        <ele>991.62</ele>
        <time>2021-08-02T15:51:02Z</time>
      </trkpt>
      <trkpt lat="42.36526" lon="-0.02961">
        <ele>989.09</ele>
        <time>2021-08-02T15:51:19Z</time>
      </trkpt>
      <trkpt lat="42.36494" lon="-0.02975">
        <ele>990.35</ele>
        <time>2021-08-02T15:51:29Z</time>
      </trkpt>
      <trkpt lat="42.36472" lon="-0.03005">
        <ele>991.8</ele>
        <time>2021-08-02T15:51:36Z</time>
      </trkpt>
      <trkpt lat="42.36467" lon="-0.03033">
        <ele>992.87</ele>
        <time>2021-08-02T15:51:42Z</time>
      </trkpt>
      <trkpt lat="42.3647" lon="-0.03077">
        <ele>996.14</ele>
        <time>2021-08-02T15:51:54Z</time>
      </trkpt>
      <trkpt lat="42.36474" lon="-0.03091">
        <ele>997.1</ele>
      </trkpt>
      <trkpt lat="42.36497" lon="-0.03131">
        <ele>1000.1</ele>
      </trkpt>
      <trkpt lat="42.36521" lon="-0.03145">
        <ele>1001.8</ele>
      </trkpt>
      <trkpt lat="42.36549" lon="-0.03156">
        <ele>1003.7</ele>
      </trkpt>
      <trkpt lat="42.36566" lon="-0.03149">
        <ele>1004</ele>
      </trkpt>
      <trkpt lat="42.36587" lon="-0.03135">
        <ele>1003.7</ele>
      </trkpt>
      <trkpt lat="42.36608" lon="-0.03132">
        <ele>1003.6</ele>
      </trkpt>
      <trkpt lat="42.36624" lon="-0.0314">
        <ele>1004.3</ele>
      </trkpt>
      <trkpt lat="42.36645" lon="-0.03158">
        <ele>1006</ele>
      </trkpt>
      <trkpt lat="42.36657" lon="-0.03193">
        <ele>1007.6</ele>
      </trkpt>
      <trkpt lat="42.36659" lon="-0.03215">
        <ele>1008.1</ele>
      </trkpt>
      <trkpt lat="42.36655" lon="-0.03234">
        <ele>1008.6</ele>
      </trkpt>
      <trkpt lat="42.36647" lon="-0.03246">
        <ele>1008.9</ele>
      </trkpt>
      <trkpt lat="42.36631" lon="-0.03253">
        <ele>1009.1</ele>
      </trkpt>
      <trkpt lat="42.36616" lon="-0.03259">
        <ele>1009.1</ele>
      </trkpt>
      <trkpt lat="42.36623" lon="-0.03263">
        <ele>1009.2</ele>
      </trkpt>
      <trkpt lat="42.36646" lon="-0.03258">
        <ele>1009.2</ele>
      </trkpt>
      <trkpt lat="42.36651" lon="-0.03263">
        <ele>1009.4</ele>
      </trkpt>
      <trkpt lat="42.36676" lon="-0.03356">
        <ele>1013.5</ele>
      </trkpt>
      <trkpt lat="42.36689" lon="-0.03355">
        <ele>1015.2</ele>
      </trkpt>
      <trkpt lat="42.36718" lon="-0.03343">
        <ele>1018.6</ele>
      </trkpt>
      <trkpt lat="42.36745" lon="-0.0331">
        <ele>1019.2</ele>
      </trkpt>
      <trkpt lat="42.36764" lon="-0.03299">
        <ele>1020.8</ele>
      </trkpt>
      <trkpt lat="42.36807" lon="-0.03255">
        <ele>1020.9</ele>
      </trkpt>
      <trkpt lat="42.36869" lon="-0.03214">
        <ele>1024.5</ele>
      </trkpt>
      <trkpt lat="42.36888" lon="-0.03182">
        <ele>1023.2</ele>
      </trkpt>
      <trkpt lat="42.36912" lon="-0.03146">
        <ele>1021</ele>
      </trkpt>
      <trkpt lat="42.36932" lon="-0.03142">
        <ele>1021.5</ele>
      </trkpt>
      <trkpt lat="42.36949" lon="-0.0315">
        <ele>1023.4</ele>
      </trkpt>
      <trkpt lat="42.36992" lon="-0.03152">
        <ele>1025.4</ele>
      </trkpt>
      <trkpt lat="42.37004" lon="-0.03151">
        <ele>1025.8</ele>
      </trkpt>
      <trkpt lat="42.3701" lon="-0.03147">
        <ele>1025.4</ele>
      </trkpt>
      <trkpt lat="42.37012" lon="-0.0314">
        <ele>1024.4</ele>
      </trkpt>
      <trkpt lat="42.37009" lon="-0.03129">
        <ele>1022.5</ele>
      </trkpt>
      <trkpt lat="42.37008" lon="-0.03117">
        <ele>1020.5</ele>
      </trkpt>
      <trkpt lat="42.37001" lon="-0.03089">
        <ele>1015.9</ele>
      </trkpt>
      <trkpt lat="42.37002" lon="-0.03082">
        <ele>1014.8</ele>
      </trkpt>
      <trkpt lat="42.37007" lon="-0.03078">
        <ele>1014.1</ele>
      </trkpt>
      <trkpt lat="42.37013" lon="-0.03079">
        <ele>1014.3</ele>
      </trkpt>
      <trkpt lat="42.37023" lon="-0.03086">
        <ele>1015.7</ele>
      </trkpt>
      <trkpt lat="42.37035" lon="-0.0309">
        <ele>1016.6</ele>
      </trkpt>
      <trkpt lat="42.37049" lon="-0.03091">
        <ele>1017</ele>
      </trkpt>
      <trkpt lat="42.37068" lon="-0.03088">
        <ele>1016.7</ele>
      </trkpt>
      <trkpt lat="42.37098" lon="-0.03104">
        <ele>1021.3</ele>
      </trkpt>
      <trkpt lat="42.37106" lon="-0.03112">
        <ele>1023.3</ele>
      </trkpt>
      <trkpt lat="42.37116" lon="-0.03131">
        <ele>1027.1</ele>
      </trkpt>
      <trkpt lat="42.37122" lon="-0.03135">
        <ele>1028</ele>
      </trkpt>
      <trkpt lat="42.37145" lon="-0.0314">
        <ele>1029.5</ele>
      </trkpt>
      <trkpt lat="42.37152" lon="-0.03144">
        <ele>1030.2</ele>
      </trkpt>
      <trkpt lat="42.37157" lon="-0.03144">
        <ele>1030.3</ele>
      </trkpt>
      <trkpt lat="42.3716" lon="-0.03139">
        <ele>1029.8</ele>
      </trkpt>
      <trkpt lat="42.37155" lon="-0.03112">
        <ele>1026.4</ele>
      </trkpt>
      <trkpt lat="42.37154" lon="-0.03075">
        <ele>1021.9</ele>
      </trkpt>
      <trkpt lat="42.37147" lon="-0.03029">
        <ele>1016</ele>
      </trkpt>
      <trkpt lat="42.37152" lon="-0.03011">
        <ele>1015</ele>
      </trkpt>
      <trkpt lat="42.3716" lon="-0.03003">
        <ele>1015.8</ele>
      </trkpt>
      <trkpt lat="42.37174" lon="-0.02994">
        <ele>1017.7</ele>
      </trkpt>
      <trkpt lat="42.37185" lon="-0.02984">
        <ele>1018.5</ele>
      </trkpt>
      <trkpt lat="42.37197" lon="-0.02979">
        <ele>1020.4</ele>
      </trkpt>
      <trkpt lat="42.37207" lon="-0.0297">
        <ele>1021.2</ele>
      </trkpt>
      <trkpt lat="42.3722" lon="-0.02915">
        <ele>1015</ele>
      </trkpt>
      <trkpt lat="42.37243" lon="-0.02904">
        <ele>1019</ele>
      </trkpt>
      <trkpt lat="42.37257" lon="-0.02909">
        <ele>1021.6</ele>
      </trkpt>
      <trkpt lat="42.37285" lon="-0.02931">
        <ele>1026.1</ele>
      </trkpt>
      <trkpt lat="42.37309" lon="-0.02937">
        <ele>1028.1</ele>
      </trkpt>
      <trkpt lat="42.37338" lon="-0.02948">
        <ele>1031.2</ele>
      </trkpt>
      <trkpt lat="42.37351" lon="-0.02942">
        <ele>1033.1</ele>
      </trkpt>
      <trkpt lat="42.37357" lon="-0.02927">
        <ele>1033</ele>
      </trkpt>
      <trkpt lat="42.37368" lon="-0.02867">
        <ele>1033.3</ele>
      </trkpt>
      <trkpt lat="42.37373" lon="-0.02848">
        <ele>1033.3</ele>
      </trkpt>
      <trkpt lat="42.37383" lon="-0.02839">
        <ele>1033.9</ele>
      </trkpt>
      <trkpt lat="42.37393" lon="-0.02839">
        <ele>1034.7</ele>
      </trkpt>
      <trkpt lat="42.37397" lon="-0.02846">
        <ele>1035.5</ele>
      </trkpt>
      <trkpt lat="42.37408" lon="-0.02852">
        <ele>1037.1</ele>
      </trkpt>
      <trkpt lat="42.37426" lon="-0.02845">
        <ele>1036.3</ele>
      </trkpt>
      <trkpt lat="42.37458" lon="-0.02841">
        <ele>1032.1</ele>
      </trkpt>
      <trkpt lat="42.37512" lon="-0.02861">
        <ele>1032.7</ele>
      </trkpt>
      <trkpt lat="42.37534" lon="-0.02873">
        <ele>1035.4</ele>
      </trkpt>
      <trkpt lat="42.37568" lon="-0.02873">
        <ele>1034</ele>
      </trkpt>
      <trkpt lat="42.3761" lon="-0.02861">
        <ele>1033.4</ele>
      </trkpt>
      <trkpt lat="42.37626" lon="-0.0285">
        <ele>1032.4</ele>
      </trkpt>
      <trkpt lat="42.37648" lon="-0.02823">
        <ele>1029.2</ele>
      </trkpt>
      <trkpt lat="42.37657" lon="-0.028">
        <ele>1026.7</ele>
      </trkpt>
      <trkpt lat="42.37665" lon="-0.02792">
        <ele>1026.3</ele>
      </trkpt>
      <trkpt lat="42.37676" lon="-0.02771">
        <ele>1024.9</ele>
      </trkpt>
      <trkpt lat="42.37684" lon="-0.0274">
        <ele>1022.7</ele>
      </trkpt>
      <trkpt lat="42.37687" lon="-0.02711">
        <ele>1022.4</ele>
      </trkpt>
      <trkpt lat="42.37709" lon="-0.02673">
        <ele>1024.4</ele>
      </trkpt>
      <trkpt lat="42.37723" lon="-0.02633">
        <ele>1025.2</ele>
      </trkpt>
      <trkpt lat="42.37736" lon="-0.02619">
        <ele>1026.5</ele>
      </trkpt>
      <trkpt lat="42.3775" lon="-0.02612">
        <ele>1028</ele>
      </trkpt>
      <trkpt lat="42.37768" lon="-0.02597">
        <ele>1030.6</ele>
      </trkpt>
      <trkpt lat="42.37788" lon="-0.02578">
        <ele>1032.8</ele>
      </trkpt>
      <trkpt lat="42.37802" lon="-0.02561">
        <ele>1032.7</ele>
      </trkpt>
      <trkpt lat="42.37823" lon="-0.02553">
        <ele>1033.8</ele>
      </trkpt>
      <trkpt lat="42.3783" lon="-0.02553">
        <ele>1034.5</ele>
      </trkpt>
      <trkpt lat="42.37834" lon="-0.02556">
        <ele>1035.4</ele>
      </trkpt>
      <trkpt lat="42.37879" lon="-0.02573">
        <ele>1036.4</ele>
      </trkpt>
      <trkpt lat="42.37883" lon="-0.02578">
        <ele>1037</ele>
      </trkpt>
      <trkpt lat="42.37894" lon="-0.02582">
        <ele>1037.1</ele>
      </trkpt>
      <trkpt lat="42.37914" lon="-0.02587">
        <ele>1037</ele>
      </trkpt>
      <trkpt lat="42.37934" lon="-0.02611">
        <ele>1040.7</ele>
      </trkpt>
      <trkpt lat="42.37944" lon="-0.02629">
        <ele>1044</ele>
      </trkpt>
      <trkpt lat="42.37952" lon="-0.02634">
        <ele>1044.4</ele>
      </trkpt>
      <trkpt lat="42.37966" lon="-0.02637">
        <ele>1043.7</ele>
      </trkpt>
      <trkpt lat="42.37975" lon="-0.02635">
        <ele>1042.3</ele>
      </trkpt>
      <trkpt lat="42.37989" lon="-0.02643">
        <ele>1042.9</ele>
      </trkpt>
      <trkpt lat="42.38023" lon="-0.02648">
        <ele>1041.4</ele>
      </trkpt>
      <trkpt lat="42.38039" lon="-0.02667">
        <ele>1044.4</ele>
      </trkpt>
      <trkpt lat="42.38045" lon="-0.02669">
        <ele>1044.3</ele>
      </trkpt>
      <trkpt lat="42.38055" lon="-0.02678">
        <ele>1045.8</ele>
      </trkpt>
      <trkpt lat="42.38059" lon="-0.0269">
        <ele>1048.6</ele>
      </trkpt>
      <trkpt lat="42.38068" lon="-0.02699">
        <ele>1049.8</ele>
      </trkpt>
      <trkpt lat="42.38089" lon="-0.02703">
        <ele>1047.8</ele>
      </trkpt>
      <trkpt lat="42.38109" lon="-0.02715">
        <ele>1047</ele>
      </trkpt>
      <trkpt lat="42.38138" lon="-0.02727">
        <ele>1043.8</ele>
      </trkpt>
      <trkpt lat="42.38153" lon="-0.02742">
        <ele>1043</ele>
      </trkpt>
      <trkpt lat="42.3816" lon="-0.02767">
        <ele>1043.8</ele>
      </trkpt>
      <trkpt lat="42.38169" lon="-0.02781">
        <ele>1043.1</ele>
      </trkpt>
      <trkpt lat="42.38173" lon="-0.02802">
        <ele>1044.1</ele>
      </trkpt>
      <trkpt lat="42.38179" lon="-0.02865">
        <ele>1049.8</ele>
      </trkpt>
      <trkpt lat="42.38182" lon="-0.02879">
        <ele>1051.2</ele>
      </trkpt>
      <trkpt lat="42.38187" lon="-0.02894">
        <ele>1052.3</ele>
      </trkpt>
      <trkpt lat="42.38193" lon="-0.02902">
        <ele>1052.1</ele>
      </trkpt>
      <trkpt lat="42.38199" lon="-0.02905">
        <ele>1051.2</ele>
      </trkpt>
      <trkpt lat="42.38221" lon="-0.02942">
        <ele>1051.2</ele>
      </trkpt>
      <trkpt lat="42.38225" lon="-0.02959">
        <ele>1052.6</ele>
      </trkpt>
      <trkpt lat="42.38226" lon="-0.0297">
        <ele>1054</ele>
      </trkpt>
      <trkpt lat="42.38222" lon="-0.02982">
        <ele>1056.5</ele>
      </trkpt>
      <trkpt lat="42.38218" lon="-0.02992">
        <ele>1058.8</ele>
      </trkpt>
      <trkpt lat="42.38215" lon="-0.03006">
        <ele>1061.1</ele>
      </trkpt>
      <trkpt lat="42.38217" lon="-0.03015">
        <ele>1061.5</ele>
      </trkpt>
      <trkpt lat="42.38216" lon="-0.03034">
        <ele>1063.4</ele>
      </trkpt>
      <trkpt lat="42.38217" lon="-0.03051">
        <ele>1064.8</ele>
      </trkpt>
      <trkpt lat="42.38206" lon="-0.03093">
        <ele>1069.9</ele>
      </trkpt>
      <trkpt lat="42.38207" lon="-0.03098">
        <ele>1070.1</ele>
      </trkpt>
      <trkpt lat="42.3821" lon="-0.03102">
        <ele>1070</ele>
      </trkpt>
      <trkpt lat="42.38212" lon="-0.03121">
        <ele>1071.2</ele>
      </trkpt>
      <trkpt lat="42.3821" lon="-0.03134">
        <ele>1072.2</ele>
      </trkpt>
      <trkpt lat="42.38208" lon="-0.03158">
        <ele>1073.9</ele>
      </trkpt>
      <trkpt lat="42.38204" lon="-0.03172">
        <ele>1074.7</ele>
      </trkpt>
      <trkpt lat="42.38194" lon="-0.0319">
        <ele>1075</ele>
      </trkpt>
      <trkpt lat="42.38174" lon="-0.03212">
        <ele>1074.3</ele>
      </trkpt>
      <trkpt lat="42.38154" lon="-0.03227">
        <ele>1075.4</ele>
      </trkpt>
      <trkpt lat="42.3815" lon="-0.03237">
        <ele>1075.5</ele>
      </trkpt>
      <trkpt lat="42.38146" lon="-0.03248">
        <ele>1075.6</ele>
      </trkpt>
      <trkpt lat="42.38146" lon="-0.03261">
        <ele>1076.2</ele>
      </trkpt>
      <trkpt lat="42.38152" lon="-0.03267">
        <ele>1076.1</ele>
      </trkpt>
      <trkpt lat="42.38184" lon="-0.03274">
        <ele>1076.8</ele>
      </trkpt>
      <trkpt lat="42.38195" lon="-0.03279">
        <ele>1078.1</ele>
      </trkpt>
      <trkpt lat="42.38202" lon="-0.03287">
        <ele>1079.2</ele>
      </trkpt>
      <trkpt lat="42.38208" lon="-0.03299">
        <ele>1080.4</ele>
      </trkpt>
      <trkpt lat="42.38213" lon="-0.03324">
        <ele>1082.1</ele>
      </trkpt>
      <trkpt lat="42.38217" lon="-0.03333">
        <ele>1082.8</ele>
      </trkpt>
      <trkpt lat="42.38221" lon="-0.03336">
        <ele>1083.2</ele>
      </trkpt>
      <trkpt lat="42.38226" lon="-0.03334">
        <ele>1083.2</ele>
      </trkpt>
      <trkpt lat="42.38237" lon="-0.03298">
        <ele>1082.3</ele>
      </trkpt>
      <trkpt lat="42.38242" lon="-0.0326">
        <ele>1081.4</ele>
      </trkpt>
      <trkpt lat="42.38247" lon="-0.03244">
        <ele>1081.1</ele>
      </trkpt>
      <trkpt lat="42.38253" lon="-0.03229">
        <ele>1080.3</ele>
      </trkpt>
      <trkpt lat="42.38272" lon="-0.03203">
        <ele>1080</ele>
      </trkpt>
      <trkpt lat="42.3828" lon="-0.03185">
        <ele>1079.6</ele>
      </trkpt>
      <trkpt lat="42.38287" lon="-0.0315">
        <ele>1077.1</ele>
      </trkpt>
      <trkpt lat="42.38315" lon="-0.03105">
        <ele>1075.2</ele>
      </trkpt>
      <trkpt lat="42.3832" lon="-0.03103">
        <ele>1075.7</ele>
      </trkpt>
      <trkpt lat="42.38326" lon="-0.03103">
        <ele>1076.5</ele>
      </trkpt>
      <trkpt lat="42.38331" lon="-0.03109">
        <ele>1078.1</ele>
      </trkpt>
      <trkpt lat="42.38332" lon="-0.03117">
        <ele>1079.3</ele>
      </trkpt>
      <trkpt lat="42.38336" lon="-0.03127">
        <ele>1080.6</ele>
      </trkpt>
      <trkpt lat="42.38343" lon="-0.03131">
        <ele>1080.7</ele>
      </trkpt>
      <trkpt lat="42.38352" lon="-0.03141">
        <ele>1081.3</ele>
      </trkpt>
      <trkpt lat="42.38352" lon="-0.03158">
        <ele>1083.2</ele>
      </trkpt>
      <trkpt lat="42.3835" lon="-0.03173">
        <ele>1084.5</ele>
      </trkpt>
      <trkpt lat="42.38325" lon="-0.03217">
        <ele>1086.4</ele>
      </trkpt>
      <trkpt lat="42.38316" lon="-0.03228">
        <ele>1085.9</ele>
      </trkpt>
      <trkpt lat="42.38306" lon="-0.03246">
        <ele>1085.8</ele>
      </trkpt>
      <trkpt lat="42.38303" lon="-0.03267">
        <ele>1086.6</ele>
      </trkpt>
      <trkpt lat="42.38305" lon="-0.03294">
        <ele>1088.1</ele>
      </trkpt>
      <trkpt lat="42.38308" lon="-0.03313">
        <ele>1089.3</ele>
      </trkpt>
      <trkpt lat="42.38313" lon="-0.03317">
        <ele>1090</ele>
      </trkpt>
      <trkpt lat="42.38326" lon="-0.03321">
        <ele>1091.5</ele>
      </trkpt>
      <trkpt lat="42.38335" lon="-0.03321">
        <ele>1092</ele>
      </trkpt>
      <trkpt lat="42.38344" lon="-0.03325">
        <ele>1090.9</ele>
      </trkpt>
      <trkpt lat="42.38346" lon="-0.03329">
        <ele>1090.9</ele>
      </trkpt>
      <trkpt lat="42.38344" lon="-0.03336">
        <ele>1091.7</ele>
      </trkpt>
      <trkpt lat="42.38352" lon="-0.03376">
        <ele>1094.1</ele>
      </trkpt>
      <trkpt lat="42.38349" lon="-0.03395">
        <ele>1096.2</ele>
      </trkpt>
      <trkpt lat="42.38348" lon="-0.03439">
        <ele>1100.2</ele>
      </trkpt>
      <trkpt lat="42.38367" lon="-0.03502">
        <ele>1102.9</ele>
      </trkpt>
      <trkpt lat="42.38381" lon="-0.03521">
        <ele>1101.8</ele>
      </trkpt>
      <trkpt lat="42.38384" lon="-0.03528">
        <ele>1101.7</ele>
      </trkpt>
      <trkpt lat="42.3839" lon="-0.0357">
        <ele>1103.1</ele>
      </trkpt>
      <trkpt lat="42.38392" lon="-0.03604">
        <ele>1108.5</ele>
      </trkpt>
      <trkpt lat="42.38396" lon="-0.0361">
        <ele>1109.2</ele>
      </trkpt>
      <trkpt lat="42.38396" lon="-0.03614">
        <ele>1110.2</ele>
      </trkpt>
      <trkpt lat="42.38393" lon="-0.03618">
        <ele>1111.7</ele>
      </trkpt>
      <trkpt lat="42.38393" lon="-0.0362">
        <ele>1112.2</ele>
      </trkpt>
      <trkpt lat="42.38394" lon="-0.03621">
        <ele>1112.2</ele>
      </trkpt>
      <trkpt lat="42.38408" lon="-0.03632">
        <ele>1112.3</ele>
      </trkpt>
      <trkpt lat="42.38421" lon="-0.03655">
        <ele>1115.4</ele>
      </trkpt>
      <trkpt lat="42.3846" lon="-0.03673">
        <ele>1112.5</ele>
      </trkpt>
      <trkpt lat="42.38468" lon="-0.03682">
        <ele>1112.8</ele>
      </trkpt>
      <trkpt lat="42.3848" lon="-0.03716">
        <ele>1117.2</ele>
      </trkpt>
      <trkpt lat="42.38489" lon="-0.03727">
        <ele>1117.7</ele>
      </trkpt>
      <trkpt lat="42.38497" lon="-0.03742">
        <ele>1119</ele>
      </trkpt>
      <trkpt lat="42.38505" lon="-0.03753">
        <ele>1121.1</ele>
      </trkpt>
      <trkpt lat="42.38511" lon="-0.03763">
        <ele>1124</ele>
      </trkpt>
      <trkpt lat="42.38517" lon="-0.03781">
        <ele>1129.1</ele>
      </trkpt>
      <trkpt lat="42.38522" lon="-0.03786">
        <ele>1130.8</ele>
      </trkpt>
      <trkpt lat="42.38528" lon="-0.03786">
        <ele>1131.3</ele>
      </trkpt>
      <trkpt lat="42.38542" lon="-0.03777">
        <ele>1130</ele>
      </trkpt>
      <trkpt lat="42.38569" lon="-0.03763">
        <ele>1127.9</ele>
      </trkpt>
      <trkpt lat="42.3858" lon="-0.03759">
        <ele>1127.5</ele>
      </trkpt>
      <trkpt lat="42.38591" lon="-0.03763">
        <ele>1129.6</ele>
      </trkpt>
      <trkpt lat="42.38622" lon="-0.0376">
        <ele>1131.7</ele>
      </trkpt>
      <trkpt lat="42.38644" lon="-0.03745">
        <ele>1131</ele>
      </trkpt>
      <trkpt lat="42.38659" lon="-0.0375">
        <ele>1133.2</ele>
      </trkpt>
      <trkpt lat="42.38669" lon="-0.0376">
        <ele>1135.7</ele>
      </trkpt>
      <trkpt lat="42.38676" lon="-0.03774">
        <ele>1137.5</ele>
      </trkpt>
      <trkpt lat="42.38701" lon="-0.03803">
        <ele>1139</ele>
      </trkpt>
      <trkpt lat="42.38723" lon="-0.03832">
        <ele>1139.7</ele>
      </trkpt>
      <trkpt lat="42.38728" lon="-0.03847">
        <ele>1139.9</ele>
      </trkpt>
      <trkpt lat="42.38726" lon="-0.03861">
        <ele>1141.2</ele>
      </trkpt>
      <trkpt lat="42.38715" lon="-0.03903">
        <ele>1146.8</ele>
      </trkpt>
      <trkpt lat="42.38716" lon="-0.03925">
        <ele>1148</ele>
      </trkpt>
      <trkpt lat="42.38726" lon="-0.03933">
        <ele>1145.9</ele>
      </trkpt>
      <trkpt lat="42.38754" lon="-0.03938">
        <ele>1139.6</ele>
      </trkpt>
      <trkpt lat="42.38761" lon="-0.03943">
        <ele>1139</ele>
      </trkpt>
      <trkpt lat="42.38763" lon="-0.03955">
        <ele>1139.4</ele>
      </trkpt>
      <trkpt lat="42.38758" lon="-0.03973">
        <ele>1140.9</ele>
      </trkpt>
      <trkpt lat="42.38757" lon="-0.03995">
        <ele>1142.1</ele>
      </trkpt>
      <trkpt lat="42.38774" lon="-0.04085">
        <ele>1157</ele>
      </trkpt>
      <trkpt lat="42.38796" lon="-0.04121">
        <ele>1164.2</ele>
      </trkpt>
      <trkpt lat="42.38819" lon="-0.04136">
        <ele>1164.8</ele>
      </trkpt>
      <trkpt lat="42.38844" lon="-0.04128">
        <ele>1158.5</ele>
      </trkpt>
      <trkpt lat="42.38855" lon="-0.0413">
        <ele>1157.2</ele>
      </trkpt>
      <trkpt lat="42.38858" lon="-0.04137">
        <ele>1158.6</ele>
      </trkpt>
      <trkpt lat="42.38863" lon="-0.04183">
        <ele>1171.5</ele>
      </trkpt>
      <trkpt lat="42.38868" lon="-0.04199">
        <ele>1175.9</ele>
      </trkpt>
      <trkpt lat="42.38868" lon="-0.04211">
        <ele>1179.7</ele>
      </trkpt>
      <trkpt lat="42.38873" lon="-0.04228">
        <ele>1184.6</ele>
      </trkpt>
      <trkpt lat="42.38881" lon="-0.04241">
        <ele>1188</ele>
      </trkpt>
      <trkpt lat="42.38888" lon="-0.04244">
        <ele>1188.4</ele>
      </trkpt>
      <trkpt lat="42.38909" lon="-0.0424">
        <ele>1185.1</ele>
      </trkpt>
      <trkpt lat="42.38923" lon="-0.0423">
        <ele>1181.8</ele>
      </trkpt>
      <trkpt lat="42.38955" lon="-0.04216">
        <ele>1181.9</ele>
      </trkpt>
      <trkpt lat="42.38977" lon="-0.042">
        <ele>1179.8</ele>
      </trkpt>
      <trkpt lat="42.38993" lon="-0.04183">
        <ele>1176.5</ele>
      </trkpt>
      <trkpt lat="42.39017" lon="-0.0418">
        <ele>1177.5</ele>
      </trkpt>
      <trkpt lat="42.39122" lon="-0.0419">
        <ele>1186.6</ele>
      </trkpt>
      <trkpt lat="42.39143" lon="-0.04186">
        <ele>1186</ele>
      </trkpt>
      <trkpt lat="42.39157" lon="-0.04186">
        <ele>1186.7</ele>
      </trkpt>
      <trkpt lat="42.3918" lon="-0.04181">
        <ele>1186.2</ele>
      </trkpt>
      <trkpt lat="42.3919" lon="-0.04185">
        <ele>1188.8</ele>
      </trkpt>
      <trkpt lat="42.39203" lon="-0.04186">
        <ele>1190.4</ele>
      </trkpt>
      <trkpt lat="42.39213" lon="-0.04181">
        <ele>1189.1</ele>
      </trkpt>
      <trkpt lat="42.39268" lon="-0.04175">
        <ele>1190.4</ele>
      </trkpt>
      <trkpt lat="42.39274" lon="-0.04169">
        <ele>1188.1</ele>
      </trkpt>
      <trkpt lat="42.39309" lon="-0.04158">
        <ele>1185.3</ele>
      </trkpt>
      <trkpt lat="42.39313" lon="-0.04153">
        <ele>1183.5</ele>
      </trkpt>
      <trkpt lat="42.39333" lon="-0.04142">
        <ele>1180.2</ele>
      </trkpt>
      <trkpt lat="42.39341" lon="-0.0414">
        <ele>1179</ele>
      </trkpt>
      <trkpt lat="42.39349" lon="-0.04142">
        <ele>1179.3</ele>
      </trkpt>
      <trkpt lat="42.39357" lon="-0.04146">
        <ele>1180.3</ele>
      </trkpt>
      <trkpt lat="42.39373" lon="-0.04159">
        <ele>1183.9</ele>
      </trkpt>
      <trkpt lat="42.39385" lon="-0.04163">
        <ele>1184.4</ele>
      </trkpt>
      <trkpt lat="42.39391" lon="-0.04168">
        <ele>1185.6</ele>
      </trkpt>
      <trkpt lat="42.394" lon="-0.0417">
        <ele>1185.4</ele>
      </trkpt>
      <trkpt lat="42.39404" lon="-0.04168">
        <ele>1184.4</ele>
      </trkpt>
      <trkpt lat="42.3941" lon="-0.04171">
        <ele>1184.8</ele>
      </trkpt>
      <trkpt lat="42.39422" lon="-0.04186">
        <ele>1187</ele>
      </trkpt>
      <trkpt lat="42.39429" lon="-0.04191">
        <ele>1186.7</ele>
      </trkpt>
      <trkpt lat="42.39441" lon="-0.04209">
        <ele>1188.4</ele>
      </trkpt>
      <trkpt lat="42.39449" lon="-0.04216">
        <ele>1188.1</ele>
      </trkpt>
      <trkpt lat="42.39465" lon="-0.04225">
        <ele>1186.1</ele>
      </trkpt>
      <trkpt lat="42.39486" lon="-0.0426">
        <ele>1187.6</ele>
      </trkpt>
      <trkpt lat="42.39498" lon="-0.04273">
        <ele>1185.9</ele>
      </trkpt>
      <trkpt lat="42.39505" lon="-0.04278">
        <ele>1185</ele>
      </trkpt>
      <trkpt lat="42.39513" lon="-0.04289">
        <ele>1184.8</ele>
      </trkpt>
      <trkpt lat="42.39514" lon="-0.04293">
        <ele>1185.1</ele>
      </trkpt>
      <trkpt lat="42.39534" lon="-0.04346">
        <ele>1185.5</ele>
      </trkpt>
      <trkpt lat="42.3954" lon="-0.04381">
        <ele>1185.2</ele>
      </trkpt>
      <trkpt lat="42.39543" lon="-0.04422">
        <ele>1185.8</ele>
      </trkpt>
      <trkpt lat="42.39546" lon="-0.04438">
        <ele>1185.7</ele>
      </trkpt>
      <trkpt lat="42.39549" lon="-0.04449">
        <ele>1185.5</ele>
      </trkpt>
      <trkpt lat="42.39555" lon="-0.0446">
        <ele>1184.6</ele>
      </trkpt>
      <trkpt lat="42.3956" lon="-0.04466">
        <ele>1183.7</ele>
      </trkpt>
      <trkpt lat="42.39573" lon="-0.04499">
        <ele>1183</ele>
      </trkpt>
      <trkpt lat="42.39576" lon="-0.04502">
        <ele>1182.7</ele>
      </trkpt>
      <trkpt lat="42.39588" lon="-0.04507">
        <ele>1181.4</ele>
      </trkpt>
      <trkpt lat="42.39598" lon="-0.04507">
        <ele>1180.9</ele>
      </trkpt>
      <trkpt lat="42.39604" lon="-0.04504">
        <ele>1180.4</ele>
      </trkpt>
      <trkpt lat="42.39616" lon="-0.04503">
        <ele>1179.7</ele>
      </trkpt>
      <trkpt lat="42.39651" lon="-0.04494">
        <ele>1177.8</ele>
      </trkpt>
      <trkpt lat="42.39662" lon="-0.04488">
        <ele>1177.6</ele>
      </trkpt>
      <trkpt lat="42.39665" lon="-0.04484">
        <ele>1177.6</ele>
      </trkpt>
      <trkpt lat="42.39676" lon="-0.0448">
        <ele>1178.1</ele>
      </trkpt>
      <trkpt lat="42.39704" lon="-0.04482">
        <ele>1178.9</ele>
      </trkpt>
      <trkpt lat="42.39733" lon="-0.04479">
        <ele>1180.2</ele>
      </trkpt>
      <trkpt lat="42.39772" lon="-0.04502">
        <ele>1181.6</ele>
      </trkpt>
      <trkpt lat="42.39801" lon="-0.04517">
        <ele>1184.4</ele>
      </trkpt>
      <trkpt lat="42.39819" lon="-0.04522">
        <ele>1186</ele>
      </trkpt>
      <trkpt lat="42.39845" lon="-0.0455">
        <ele>1187.3</ele>
      </trkpt>
      <trkpt lat="42.39872" lon="-0.04558">
        <ele>1191</ele>
      </trkpt>
      <trkpt lat="42.39908" lon="-0.04579">
        <ele>1194.3</ele>
      </trkpt>
      <trkpt lat="42.39941" lon="-0.04607">
        <ele>1196.7</ele>
      </trkpt>
      <trkpt lat="42.39947" lon="-0.04614">
        <ele>1197</ele>
      </trkpt>
      <trkpt lat="42.39955" lon="-0.04633">
        <ele>1196.7</ele>
      </trkpt>
      <trkpt lat="42.39961" lon="-0.0464">
        <ele>1196.9</ele>
      </trkpt>
      <trkpt lat="42.39968" lon="-0.04646">
        <ele>1197.4</ele>
      </trkpt>
      <trkpt lat="42.39978" lon="-0.04644">
        <ele>1198.9</ele>
      </trkpt>
      <trkpt lat="42.39982" lon="-0.04641">
        <ele>1199.7</ele>
      </trkpt>
      <trkpt lat="42.3994" lon="-0.04591">
        <ele>1197.8</ele>
      </trkpt>
      <trkpt lat="42.39982" lon="-0.04641">
        <ele>1199.7</ele>
      </trkpt>
      <trkpt lat="42.3999" lon="-0.04646">
        <ele>1200.4</ele>
      </trkpt>
      <trkpt lat="42.40049" lon="-0.04676">
        <ele>1205.3</ele>
      </trkpt>
      <trkpt lat="42.40073" lon="-0.04698">
        <ele>1206.6</ele>
      </trkpt>
      <trkpt lat="42.40084" lon="-0.04712">
        <ele>1206.8</ele>
      </trkpt>
      <trkpt lat="42.40093" lon="-0.04733">
        <ele>1206.7</ele>
      </trkpt>
      <trkpt lat="42.40095" lon="-0.04743">
        <ele>1206.1</ele>
      </trkpt>
      <trkpt lat="42.40096" lon="-0.04772">
        <ele>1205.6</ele>
      </trkpt>
      <trkpt lat="42.40098" lon="-0.04789">
        <ele>1205.9</ele>
      </trkpt>
      <trkpt lat="42.40102" lon="-0.04797">
        <ele>1206.3</ele>
      </trkpt>
      <trkpt lat="42.40129" lon="-0.04837">
        <ele>1209.5</ele>
      </trkpt>
      <trkpt lat="42.40135" lon="-0.0485">
        <ele>1210.1</ele>
      </trkpt>
      <trkpt lat="42.40137" lon="-0.0487">
        <ele>1210.1</ele>
      </trkpt>
      <trkpt lat="42.40134" lon="-0.04886">
        <ele>1209.7</ele>
      </trkpt>
      <trkpt lat="42.40129" lon="-0.04897">
        <ele>1209.3</ele>
      </trkpt>
      <trkpt lat="42.40122" lon="-0.04907">
        <ele>1208.8</ele>
      </trkpt>
      <trkpt lat="42.40016" lon="-0.04998">
        <ele>1211.5</ele>
      </trkpt>
      <trkpt lat="42.40007" lon="-0.0501">
        <ele>1211.4</ele>
      </trkpt>
      <trkpt lat="42.40002" lon="-0.0502">
        <ele>1211.3</ele>
      </trkpt>
      <trkpt lat="42.4" lon="-0.05029">
        <ele>1211.3</ele>
      </trkpt>
      <trkpt lat="42.4" lon="-0.05041">
        <ele>1211.5</ele>
      </trkpt>
      <trkpt lat="42.40002" lon="-0.05052">
        <ele>1211.7</ele>
      </trkpt>
      <trkpt lat="42.40014" lon="-0.05081">
        <ele>1213</ele>
      </trkpt>
      <trkpt lat="42.40021" lon="-0.05095">
        <ele>1213</ele>
      </trkpt>
      <trkpt lat="42.40048" lon="-0.0513">
        <ele>1213.5</ele>
      </trkpt>
      <trkpt lat="42.40059" lon="-0.0514">
        <ele>1214</ele>
      </trkpt>
      <trkpt lat="42.40094" lon="-0.05159">
        <ele>1216.4</ele>
      </trkpt>
      <trkpt lat="42.40101" lon="-0.05167">
        <ele>1216.9</ele>
      </trkpt>
      <trkpt lat="42.4011" lon="-0.05183">
        <ele>1218.5</ele>
      </trkpt>
      <trkpt lat="42.40115" lon="-0.05197">
        <ele>1219.7</ele>
      </trkpt>
      <trkpt lat="42.40116" lon="-0.05219">
        <ele>1220.7</ele>
      </trkpt>
      <trkpt lat="42.40095" lon="-0.05313">
        <ele>1222.4</ele>
      </trkpt>
      <trkpt lat="42.40095" lon="-0.05332">
        <ele>1223.3</ele>
      </trkpt>
      <trkpt lat="42.40099" lon="-0.05349">
        <ele>1223.4</ele>
      </trkpt>
      <trkpt lat="42.40133" lon="-0.05424">
        <ele>1224.3</ele>
      </trkpt>
      <trkpt lat="42.40205" lon="-0.05567">
        <ele>1224.1</ele>
      </trkpt>
      <trkpt lat="42.40219" lon="-0.05588">
        <ele>1224.1</ele>
      </trkpt>
      <trkpt lat="42.40311" lon="-0.05712">
        <ele>1229.8</ele>
      </trkpt>
      <trkpt lat="42.40318" lon="-0.05726">
        <ele>1229.9</ele>
      </trkpt>
      <trkpt lat="42.40323" lon="-0.05745">
        <ele>1229.5</ele>
      </trkpt>
      <trkpt lat="42.40324" lon="-0.05761">
        <ele>1229.5</ele>
      </trkpt>
      <trkpt lat="42.40323" lon="-0.05775">
        <ele>1229.6</ele>
      </trkpt>
      <trkpt lat="42.40312" lon="-0.05847">
        <ele>1229.7</ele>
      </trkpt>
      <trkpt lat="42.40315" lon="-0.05874">
        <ele>1230.4</ele>
      </trkpt>
      <trkpt lat="42.4032" lon="-0.05888">
        <ele>1230.9</ele>
      </trkpt>
      <trkpt lat="42.40479" lon="-0.06189">
        <ele>1243.3</ele>
      </trkpt>
      <trkpt lat="42.40483" lon="-0.06202">
        <ele>1243.3</ele>
      </trkpt>
      <trkpt lat="42.4049" lon="-0.06233">
        <ele>1243</ele>
      </trkpt>
      <trkpt lat="42.40491" lon="-0.06263">
        <ele>1243</ele>
      </trkpt>
      <trkpt lat="42.40465" lon="-0.06446">
        <ele>1251.4</ele>
      </trkpt>
      <trkpt lat="42.40457" lon="-0.06476">
        <ele>1253.2</ele>
      </trkpt>
      <trkpt lat="42.40452" lon="-0.06487">
        <ele>1253.9</ele>
      </trkpt>
      <trkpt lat="42.40437" lon="-0.065">
        <ele>1254.5</ele>
      </trkpt>
      <trkpt lat="42.4043" lon="-0.06502">
        <ele>1254.5</ele>
      </trkpt>
      <trkpt lat="42.40407" lon="-0.06503">
        <ele>1254.2</ele>
      </trkpt>
      <trkpt lat="42.40399" lon="-0.06508">
        <ele>1254.5</ele>
      </trkpt>
      <trkpt lat="42.40391" lon="-0.06516">
        <ele>1254.8</ele>
      </trkpt>
      <trkpt lat="42.40379" lon="-0.06538">
        <ele>1255.5</ele>
      </trkpt>
      <trkpt lat="42.40378" lon="-0.06556">
        <ele>1256.2</ele>
      </trkpt>
      <trkpt lat="42.40379" lon="-0.06572">
        <ele>1256.8</ele>
      </trkpt>
      <trkpt lat="42.40383" lon="-0.0659">
        <ele>1257.8</ele>
      </trkpt>
      <trkpt lat="42.40411" lon="-0.06655">
        <ele>1258.6</ele>
      </trkpt>
      <trkpt lat="42.40423" lon="-0.0669">
        <ele>1257.2</ele>
      </trkpt>
      <trkpt lat="42.40432" lon="-0.06712">
        <ele>1256.3</ele>
      </trkpt>
      <trkpt lat="42.40457" lon="-0.06754">
        <ele>1253.5</ele>
      </trkpt>
      <trkpt lat="42.40463" lon="-0.06769">
        <ele>1251.7</ele>
      </trkpt>
      <trkpt lat="42.40486" lon="-0.06864">
        <ele>1240.9</ele>
      </trkpt>
      <trkpt lat="42.40502" lon="-0.06913">
        <ele>1237.6</ele>
      </trkpt>
      <trkpt lat="42.40505" lon="-0.06944">
        <ele>1235.2</ele>
      </trkpt>
      <trkpt lat="42.40509" lon="-0.06959">
        <ele>1234.4</ele>
      </trkpt>
      <trkpt lat="42.40523" lon="-0.07007">
        <ele>1232.8</ele>
      </trkpt>
      <trkpt lat="42.40523" lon="-0.0703">
        <ele>1232.7</ele>
      </trkpt>
      <trkpt lat="42.40517" lon="-0.07047">
        <ele>1231.6</ele>
      </trkpt>
      <trkpt lat="42.4051" lon="-0.07058">
        <ele>1230.5</ele>
      </trkpt>
      <trkpt lat="42.40503" lon="-0.07066">
        <ele>1229.4</ele>
      </trkpt>
      <trkpt lat="42.40493" lon="-0.07072">
        <ele>1228.6</ele>
      </trkpt>
      <trkpt lat="42.4043" lon="-0.07087">
        <ele>1225.6</ele>
      </trkpt>
      <trkpt lat="42.40417" lon="-0.07093">
        <ele>1226.1</ele>
      </trkpt>
      <trkpt lat="42.40378" lon="-0.07121">
        <ele>1227.5</ele>
      </trkpt>
      <trkpt lat="42.4037" lon="-0.0713">
        <ele>1227.2</ele>
      </trkpt>
      <trkpt lat="42.40335" lon="-0.07191">
        <ele>1222</ele>
      </trkpt>
      <trkpt lat="42.4031" lon="-0.07225">
        <ele>1219.1</ele>
      </trkpt>
      <trkpt lat="42.40297" lon="-0.07243">
        <ele>1217</ele>
      </trkpt>
      <trkpt lat="42.40274" lon="-0.07282">
        <ele>1214.6</ele>
      </trkpt>
      <trkpt lat="42.40241" lon="-0.07342">
        <ele>1211.9</ele>
      </trkpt>
      <trkpt lat="42.40215" lon="-0.07402">
        <ele>1207.3</ele>
      </trkpt>
      <trkpt lat="42.40211" lon="-0.07431">
        <ele>1205.5</ele>
      </trkpt>
      <trkpt lat="42.40236" lon="-0.07607">
        <ele>1198</ele>
      </trkpt>
      <trkpt lat="42.40239" lon="-0.0766">
        <ele>1194.7</ele>
      </trkpt>
      <trkpt lat="42.40248" lon="-0.07696">
        <ele>1192</ele>
      </trkpt>
      <trkpt lat="42.40267" lon="-0.07763">
        <ele>1190.1</ele>
      </trkpt>
      <trkpt lat="42.40275" lon="-0.07779">
        <ele>1190.5</ele>
      </trkpt>
      <trkpt lat="42.40294" lon="-0.07794">
        <ele>1191.9</ele>
      </trkpt>
      <trkpt lat="42.4031" lon="-0.07799">
        <ele>1193.2</ele>
      </trkpt>
      <trkpt lat="42.40338" lon="-0.07811">
        <ele>1194.7</ele>
      </trkpt>
      <trkpt lat="42.40349" lon="-0.07818">
        <ele>1194.5</ele>
      </trkpt>
      <trkpt lat="42.40357" lon="-0.07832">
        <ele>1193.3</ele>
      </trkpt>
      <trkpt lat="42.40368" lon="-0.0785">
        <ele>1194.4</ele>
      </trkpt>
      <trkpt lat="42.40393" lon="-0.07891">
        <ele>1195.4</ele>
      </trkpt>
      <trkpt lat="42.40414" lon="-0.07931">
        <ele>1193.9</ele>
      </trkpt>
      <trkpt lat="42.40422" lon="-0.0795">
        <ele>1193.8</ele>
      </trkpt>
      <trkpt lat="42.40426" lon="-0.07962">
        <ele>1193.8</ele>
      </trkpt>
      <trkpt lat="42.40429" lon="-0.07977">
        <ele>1193.5</ele>
      </trkpt>
      <trkpt lat="42.40428" lon="-0.07993">
        <ele>1192.9</ele>
      </trkpt>
      <trkpt lat="42.40427" lon="-0.08007">
        <ele>1193.1</ele>
      </trkpt>
      <trkpt lat="42.40424" lon="-0.08023">
        <ele>1193.9</ele>
      </trkpt>
      <trkpt lat="42.40418" lon="-0.08043">
        <ele>1194.7</ele>
      </trkpt>
      <trkpt lat="42.40407" lon="-0.08073">
        <ele>1196</ele>
      </trkpt>
      <trkpt lat="42.40398" lon="-0.08091">
        <ele>1196.1</ele>
      </trkpt>
      <trkpt lat="42.40388" lon="-0.08115">
        <ele>1195.7</ele>
      </trkpt>
      <trkpt lat="42.40384" lon="-0.08128">
        <ele>1195.4</ele>
      </trkpt>
      <trkpt lat="42.40382" lon="-0.08145">
        <ele>1195.2</ele>
      </trkpt>
      <trkpt lat="42.40382" lon="-0.08164">
        <ele>1195.3</ele>
      </trkpt>
      <trkpt lat="42.40385" lon="-0.08182">
        <ele>1194.7</ele>
      </trkpt>
      <trkpt lat="42.40398" lon="-0.08217">
        <ele>1194.1</ele>
      </trkpt>
      <trkpt lat="42.40402" lon="-0.08226">
        <ele>1194</ele>
      </trkpt>
      <trkpt lat="42.40409" lon="-0.08235">
        <ele>1194.3</ele>
      </trkpt>
      <trkpt lat="42.40453" lon="-0.08263">
        <ele>1197.3</ele>
      </trkpt>
      <trkpt lat="42.40468" lon="-0.08271">
        <ele>1198.3</ele>
      </trkpt>
      <trkpt lat="42.40494" lon="-0.08275">
        <ele>1200.7</ele>
      </trkpt>
      <trkpt lat="42.40511" lon="-0.08284">
        <ele>1201.7</ele>
      </trkpt>
      <trkpt lat="42.40588" lon="-0.0836">
        <ele>1207.3</ele>
      </trkpt>
      <trkpt lat="42.40613" lon="-0.0839">
        <ele>1210.8</ele>
      </trkpt>
      <trkpt lat="42.40621" lon="-0.08409">
        <ele>1211.5</ele>
      </trkpt>
      <trkpt lat="42.40623" lon="-0.08424">
        <ele>1211.7</ele>
      </trkpt>
      <trkpt lat="42.40626" lon="-0.08481">
        <ele>1213.8</ele>
      </trkpt>
      <trkpt lat="42.4064" lon="-0.08523">
        <ele>1217.7</ele>
      </trkpt>
      <trkpt lat="42.40642" lon="-0.08535">
        <ele>1218.4</ele>
      </trkpt>
      <trkpt lat="42.40642" lon="-0.08547">
        <ele>1218.6</ele>
      </trkpt>
      <trkpt lat="42.40639" lon="-0.08561">
        <ele>1218.2</ele>
      </trkpt>
      <trkpt lat="42.40629" lon="-0.08595">
        <ele>1216.5</ele>
      </trkpt>
      <trkpt lat="42.40629" lon="-0.08608">
        <ele>1216.5</ele>
      </trkpt>
      <trkpt lat="42.40632" lon="-0.08621">
        <ele>1217.3</ele>
      </trkpt>
      <trkpt lat="42.40633" lon="-0.08623">
        <ele>1217.5</ele>
      </trkpt>
      <trkpt lat="42.40647" lon="-0.08666">
        <ele>1220.8</ele>
      </trkpt>
      <trkpt lat="42.40672" lon="-0.0872">
        <ele>1223.1</ele>
      </trkpt>
      <trkpt lat="42.40681" lon="-0.08735">
        <ele>1224.3</ele>
      </trkpt>
      <trkpt lat="42.40697" lon="-0.08753">
        <ele>1227.1</ele>
      </trkpt>
      <trkpt lat="42.40704" lon="-0.08762">
        <ele>1229.3</ele>
      </trkpt>
      <trkpt lat="42.4071" lon="-0.08779">
        <ele>1231.8</ele>
      </trkpt>
      <trkpt lat="42.40714" lon="-0.08811">
        <ele>1234.7</ele>
      </trkpt>
      <trkpt lat="42.40711" lon="-0.08859">
        <ele>1237.2</ele>
      </trkpt>
      <trkpt lat="42.40734" lon="-0.08956">
        <ele>1242.3</ele>
      </trkpt>
      <trkpt lat="42.40738" lon="-0.08984">
        <ele>1241.9</ele>
      </trkpt>
      <trkpt lat="42.40744" lon="-0.09008">
        <ele>1240.1</ele>
      </trkpt>
      <trkpt lat="42.40752" lon="-0.09026">
        <ele>1237.3</ele>
      </trkpt>
      <trkpt lat="42.40772" lon="-0.09048">
        <ele>1236</ele>
      </trkpt>
      <trkpt lat="42.40806" lon="-0.09101">
        <ele>1231.5</ele>
      </trkpt>
      <trkpt lat="42.40813" lon="-0.09116">
        <ele>1231.2</ele>
      </trkpt>
      <trkpt lat="42.40814" lon="-0.09125">
        <ele>1230.8</ele>
      </trkpt>
      <trkpt lat="42.40813" lon="-0.09143">
        <ele>1230</ele>
      </trkpt>
      <trkpt lat="42.40806" lon="-0.09157">
        <ele>1228.8</ele>
      </trkpt>
      <trkpt lat="42.40792" lon="-0.09179">
        <ele>1226.5</ele>
      </trkpt>
      <trkpt lat="42.40781" lon="-0.09201">
        <ele>1224.2</ele>
      </trkpt>
      <trkpt lat="42.40775" lon="-0.09232">
        <ele>1221.6</ele>
      </trkpt>
      <trkpt lat="42.40774" lon="-0.09252">
        <ele>1220.1</ele>
      </trkpt>
      <trkpt lat="42.40775" lon="-0.09264">
        <ele>1219.2</ele>
      </trkpt>
      <trkpt lat="42.40797" lon="-0.09351">
        <ele>1213.9</ele>
      </trkpt>
      <trkpt lat="42.40803" lon="-0.09397">
        <ele>1210.2</ele>
      </trkpt>
      <trkpt lat="42.40811" lon="-0.09434">
        <ele>1207.9</ele>
      </trkpt>
      <trkpt lat="42.40817" lon="-0.09516">
        <ele>1202.2</ele>
      </trkpt>
      <trkpt lat="42.40817" lon="-0.09548">
        <ele>1200</ele>
      </trkpt>
      <trkpt lat="42.40815" lon="-0.09589">
        <ele>1196.8</ele>
      </trkpt>
      <trkpt lat="42.40816" lon="-0.09605">
        <ele>1195.4</ele>
      </trkpt>
      <trkpt lat="42.40819" lon="-0.09625">
        <ele>1193.9</ele>
      </trkpt>
      <trkpt lat="42.40826" lon="-0.09647">
        <ele>1192.8</ele>
      </trkpt>
      <trkpt lat="42.40839" lon="-0.09673">
        <ele>1192.7</ele>
      </trkpt>
      <trkpt lat="42.40846" lon="-0.09694">
        <ele>1192.1</ele>
      </trkpt>
      <trkpt lat="42.40851" lon="-0.09743">
        <ele>1187.9</ele>
      </trkpt>
      <trkpt lat="42.40869" lon="-0.098">
        <ele>1182.3</ele>
      </trkpt>
      <trkpt lat="42.40875" lon="-0.09814">
        <ele>1181.1</ele>
      </trkpt>
      <trkpt lat="42.40901" lon="-0.09841">
        <ele>1182.7</ele>
      </trkpt>
      <trkpt lat="42.40904" lon="-0.09851">
        <ele>1182.8</ele>
      </trkpt>
      <trkpt lat="42.40905" lon="-0.09863">
        <ele>1182.5</ele>
      </trkpt>
      <trkpt lat="42.40904" lon="-0.09878">
        <ele>1181.7</ele>
      </trkpt>
      <trkpt lat="42.40891" lon="-0.09911">
        <ele>1177.4</ele>
      </trkpt>
      <trkpt lat="42.40889" lon="-0.09923">
        <ele>1176.2</ele>
      </trkpt>
      <trkpt lat="42.409" lon="-0.09972">
        <ele>1174.6</ele>
      </trkpt>
      <trkpt lat="42.40901" lon="-0.10016">
        <ele>1170.5</ele>
      </trkpt>
      <trkpt lat="42.40917" lon="-0.10084">
        <ele>1164.9</ele>
      </trkpt>
      <trkpt lat="42.40919" lon="-0.10125">
        <ele>1159.4</ele>
      </trkpt>
      <trkpt lat="42.40924" lon="-0.10139">
        <ele>1158.2</ele>
      </trkpt>
      <trkpt lat="42.40929" lon="-0.10148">
        <ele>1157.9</ele>
      </trkpt>
      <trkpt lat="42.40948" lon="-0.10163">
        <ele>1159.5</ele>
      </trkpt>
      <trkpt lat="42.40952" lon="-0.10169">
        <ele>1159.7</ele>
      </trkpt>
      <trkpt lat="42.40956" lon="-0.10185">
        <ele>1160.2</ele>
      </trkpt>
      <trkpt lat="42.40954" lon="-0.10216">
        <ele>1159.1</ele>
      </trkpt>
      <trkpt lat="42.40936" lon="-0.10362">
        <ele>1151.1</ele>
      </trkpt>
      <trkpt lat="42.40936" lon="-0.10374">
        <ele>1150.7</ele>
      </trkpt>
      <trkpt lat="42.40939" lon="-0.104">
        <ele>1150.6</ele>
      </trkpt>
      <trkpt lat="42.40959" lon="-0.1047">
        <ele>1148.3</ele>
      </trkpt>
      <trkpt lat="42.40974" lon="-0.10569">
        <ele>1141.5</ele>
      </trkpt>
      <trkpt lat="42.40974" lon="-0.10571">
        <ele>1141.3</ele>
      </trkpt>
      <trkpt lat="42.40974" lon="-0.10577">
        <ele>1140.7</ele>
      </trkpt>
      <trkpt lat="42.40967" lon="-0.10621">
        <ele>1137</ele>
      </trkpt>
      <trkpt lat="42.40949" lon="-0.10741">
        <ele>1133.4</ele>
      </trkpt>
      <trkpt lat="42.40938" lon="-0.10785">
        <ele>1131.4</ele>
      </trkpt>
      <trkpt lat="42.40935" lon="-0.10801">
        <ele>1131.1</ele>
      </trkpt>
      <trkpt lat="42.40935" lon="-0.10866">
        <ele>1128.7</ele>
      </trkpt>
      <trkpt lat="42.40938" lon="-0.10882">
        <ele>1127.4</ele>
      </trkpt>
      <trkpt lat="42.40942" lon="-0.10895">
        <ele>1126.4</ele>
      </trkpt>
      <trkpt lat="42.40953" lon="-0.1092">
        <ele>1124.2</ele>
      </trkpt>
      <trkpt lat="42.40959" lon="-0.10926">
        <ele>1124</ele>
      </trkpt>
      <trkpt lat="42.40983" lon="-0.10938">
        <ele>1124.9</ele>
      </trkpt>
      <trkpt lat="42.40987" lon="-0.10941">
        <ele>1125</ele>
      </trkpt>
      <trkpt lat="42.40992" lon="-0.10948">
        <ele>1124.9</ele>
      </trkpt>
      <trkpt lat="42.40995" lon="-0.10956">
        <ele>1124.6</ele>
      </trkpt>
      <trkpt lat="42.40996" lon="-0.10969">
        <ele>1123.7</ele>
      </trkpt>
      <trkpt lat="42.40993" lon="-0.10983">
        <ele>1122.3</ele>
      </trkpt>
      <trkpt lat="42.40976" lon="-0.11007">
        <ele>1118.7</ele>
      </trkpt>
      <trkpt lat="42.40968" lon="-0.11023">
        <ele>1118.2</ele>
      </trkpt>
      <trkpt lat="42.40966" lon="-0.11036">
        <ele>1118.5</ele>
      </trkpt>
      <trkpt lat="42.40966" lon="-0.11071">
        <ele>1120.2</ele>
      </trkpt>
      <trkpt lat="42.40967" lon="-0.11091">
        <ele>1120.7</ele>
      </trkpt>
      <trkpt lat="42.4097" lon="-0.11108">
        <ele>1120.3</ele>
      </trkpt>
      <trkpt lat="42.40973" lon="-0.11116">
        <ele>1120.4</ele>
      </trkpt>
      <trkpt lat="42.40976" lon="-0.11123">
        <ele>1120.5</ele>
      </trkpt>
      <trkpt lat="42.40998" lon="-0.11157">
        <ele>1120.8</ele>
      </trkpt>
      <trkpt lat="42.41003" lon="-0.11168">
        <ele>1120.5</ele>
      </trkpt>
      <trkpt lat="42.41007" lon="-0.11183">
        <ele>1120.6</ele>
      </trkpt>
      <trkpt lat="42.41009" lon="-0.11201">
        <ele>1120.3</ele>
      </trkpt>
      <trkpt lat="42.41002" lon="-0.11243">
        <ele>1116.8</ele>
      </trkpt>
      <trkpt lat="42.41001" lon="-0.1126">
        <ele>1115.9</ele>
      </trkpt>
      <trkpt lat="42.41007" lon="-0.11333">
        <ele>1113.8</ele>
      </trkpt>
      <trkpt lat="42.41009" lon="-0.11341">
        <ele>1113.1</ele>
      </trkpt>
      <trkpt lat="42.4101" lon="-0.11345">
        <ele>1112.8</ele>
      </trkpt>
      <trkpt lat="42.41018" lon="-0.1136">
        <ele>1112.1</ele>
      </trkpt>
      <trkpt lat="42.41025" lon="-0.11367">
        <ele>1112.3</ele>
      </trkpt>
      <trkpt lat="42.41032" lon="-0.11372">
        <ele>1112.7</ele>
      </trkpt>
      <trkpt lat="42.41057" lon="-0.11373">
        <ele>1116</ele>
      </trkpt>
      <trkpt lat="42.41065" lon="-0.11375">
        <ele>1117</ele>
      </trkpt>
      <trkpt lat="42.41069" lon="-0.11378">
        <ele>1117.3</ele>
      </trkpt>
      <trkpt lat="42.41077" lon="-0.1139">
        <ele>1117.7</ele>
      </trkpt>
      <trkpt lat="42.4108" lon="-0.114">
        <ele>1117.5</ele>
      </trkpt>
      <trkpt lat="42.41081" lon="-0.11408">
        <ele>1117.1</ele>
      </trkpt>
      <trkpt lat="42.41072" lon="-0.11459">
        <ele>1115.1</ele>
      </trkpt>
      <trkpt lat="42.41072" lon="-0.11469">
        <ele>1115</ele>
      </trkpt>
      <trkpt lat="42.41077" lon="-0.11514">
        <ele>1115.6</ele>
      </trkpt>
      <trkpt lat="42.4108" lon="-0.11524">
        <ele>1115.8</ele>
      </trkpt>
      <trkpt lat="42.41083" lon="-0.11531">
        <ele>1116.1</ele>
      </trkpt>
      <trkpt lat="42.41094" lon="-0.11542">
        <ele>1117.5</ele>
      </trkpt>
      <trkpt lat="42.41105" lon="-0.11548">
        <ele>1119.1</ele>
      </trkpt>
      <trkpt lat="42.41132" lon="-0.1155">
        <ele>1123.8</ele>
      </trkpt>
      <trkpt lat="42.41212" lon="-0.11574">
        <ele>1130.8</ele>
      </trkpt>
      <trkpt lat="42.41271" lon="-0.1158">
        <ele>1137.9</ele>
      </trkpt>
      <trkpt lat="42.41286" lon="-0.11587">
        <ele>1140.5</ele>
      </trkpt>
      <trkpt lat="42.41293" lon="-0.11593">
        <ele>1142.4</ele>
      </trkpt>
      <trkpt lat="42.413" lon="-0.11607">
        <ele>1144.8</ele>
      </trkpt>
      <trkpt lat="42.41304" lon="-0.11626">
        <ele>1147</ele>
      </trkpt>
      <trkpt lat="42.41303" lon="-0.11635">
        <ele>1147.4</ele>
      </trkpt>
      <trkpt lat="42.41299" lon="-0.11646">
        <ele>1147.2</ele>
      </trkpt>
      <trkpt lat="42.41289" lon="-0.1166">
        <ele>1145.4</ele>
      </trkpt>
      <trkpt lat="42.41257" lon="-0.11689">
        <ele>1137.6</ele>
      </trkpt>
      <trkpt lat="42.41216" lon="-0.11714">
        <ele>1130.2</ele>
      </trkpt>
      <trkpt lat="42.41211" lon="-0.11722">
        <ele>1129.5</ele>
      </trkpt>
      <trkpt lat="42.41206" lon="-0.11735">
        <ele>1129</ele>
      </trkpt>
      <trkpt lat="42.41206" lon="-0.11749">
        <ele>1129.5</ele>
      </trkpt>
      <trkpt lat="42.41208" lon="-0.11761">
        <ele>1128.7</ele>
      </trkpt>
      <trkpt lat="42.41212" lon="-0.11771">
        <ele>1128.4</ele>
      </trkpt>
      <trkpt lat="42.41217" lon="-0.11775">
        <ele>1128.9</ele>
      </trkpt>
      <trkpt lat="42.41245" lon="-0.11792">
        <ele>1132.1</ele>
      </trkpt>
      <trkpt lat="42.41317" lon="-0.11816">
        <ele>1139.8</ele>
      </trkpt>
      <trkpt lat="42.4133" lon="-0.11827">
        <ele>1139.7</ele>
      </trkpt>
      <trkpt lat="42.41343" lon="-0.11843">
        <ele>1140.5</ele>
      </trkpt>
      <trkpt lat="42.41353" lon="-0.11862">
        <ele>1141.6</ele>
      </trkpt>
      <trkpt lat="42.41359" lon="-0.11881">
        <ele>1141.9</ele>
      </trkpt>
      <trkpt lat="42.41362" lon="-0.11895">
        <ele>1141.8</ele>
      </trkpt>
      <trkpt lat="42.4137" lon="-0.11953">
        <ele>1140.4</ele>
      </trkpt>
      <trkpt lat="42.41373" lon="-0.1197">
        <ele>1140.1</ele>
      </trkpt>
      <trkpt lat="42.41417" lon="-0.12072">
        <ele>1142.8</ele>
      </trkpt>
      <trkpt lat="42.41421" lon="-0.12091">
        <ele>1143.8</ele>
      </trkpt>
      <trkpt lat="42.4142" lon="-0.12102">
        <ele>1144.4</ele>
      </trkpt>
      <trkpt lat="42.41414" lon="-0.12115">
        <ele>1144.2</ele>
      </trkpt>
      <trkpt lat="42.41406" lon="-0.12124">
        <ele>1143.7</ele>
      </trkpt>
      <trkpt lat="42.41397" lon="-0.1213">
        <ele>1142.9</ele>
      </trkpt>
      <trkpt lat="42.41387" lon="-0.12131">
        <ele>1141.4</ele>
      </trkpt>
      <trkpt lat="42.41348" lon="-0.12128">
        <ele>1135.1</ele>
      </trkpt>
      <trkpt lat="42.41285" lon="-0.1213">
        <ele>1128</ele>
      </trkpt>
      <trkpt lat="42.41276" lon="-0.12135">
        <ele>1127.5</ele>
      </trkpt>
      <trkpt lat="42.41273" lon="-0.12137">
        <ele>1127.3</ele>
      </trkpt>
      <trkpt lat="42.41269" lon="-0.12141">
        <ele>1127.2</ele>
      </trkpt>
      <trkpt lat="42.41263" lon="-0.12154">
        <ele>1127.6</ele>
      </trkpt>
      <trkpt lat="42.4126" lon="-0.12168">
        <ele>1128.1</ele>
      </trkpt>
      <trkpt lat="42.41267" lon="-0.12214">
        <ele>1126.6</ele>
      </trkpt>
      <trkpt lat="42.41267" lon="-0.12227">
        <ele>1125.9</ele>
      </trkpt>
      <trkpt lat="42.41261" lon="-0.12266">
        <ele>1122.6</ele>
      </trkpt>
      <trkpt lat="42.41261" lon="-0.12283">
        <ele>1121.7</ele>
      </trkpt>
      <trkpt lat="42.41264" lon="-0.12321">
        <ele>1120.6</ele>
      </trkpt>
      <trkpt lat="42.41263" lon="-0.12335">
        <ele>1119.7</ele>
      </trkpt>
      <trkpt lat="42.41262" lon="-0.12347">
        <ele>1119.2</ele>
      </trkpt>
      <trkpt lat="42.41254" lon="-0.12371">
        <ele>1116.6</ele>
      </trkpt>
      <trkpt lat="42.41238" lon="-0.12414">
        <ele>1112.5</ele>
      </trkpt>
      <trkpt lat="42.41235" lon="-0.12429">
        <ele>1111</ele>
      </trkpt>
      <trkpt lat="42.41236" lon="-0.12477">
        <ele>1108</ele>
      </trkpt>
      <trkpt lat="42.4124" lon="-0.12499">
        <ele>1107.3</ele>
      </trkpt>
      <trkpt lat="42.41245" lon="-0.12514">
        <ele>1106.4</ele>
      </trkpt>
      <trkpt lat="42.41263" lon="-0.12538">
        <ele>1106.2</ele>
      </trkpt>
      <trkpt lat="42.41276" lon="-0.12568">
        <ele>1104.3</ele>
      </trkpt>
      <trkpt lat="42.41282" lon="-0.12617">
        <ele>1099.2</ele>
      </trkpt>
      <trkpt lat="42.41286" lon="-0.12629">
        <ele>1098.3</ele>
      </trkpt>
      <trkpt lat="42.41292" lon="-0.12638">
        <ele>1098</ele>
      </trkpt>
      <trkpt lat="42.41315" lon="-0.12654">
        <ele>1099.1</ele>
      </trkpt>
      <trkpt lat="42.41322" lon="-0.12666">
        <ele>1098.6</ele>
      </trkpt>
      <trkpt lat="42.41325" lon="-0.12675">
        <ele>1099.4</ele>
      </trkpt>
      <trkpt lat="42.41324" lon="-0.12684">
        <ele>1099.7</ele>
      </trkpt>
      <trkpt lat="42.41323" lon="-0.12692">
        <ele>1100</ele>
      </trkpt>
      <trkpt lat="42.4132" lon="-0.12702">
        <ele>1100.2</ele>
      </trkpt>
      <trkpt lat="42.41309" lon="-0.12712">
        <ele>1099</ele>
      </trkpt>
      <trkpt lat="42.41234" lon="-0.12737">
        <ele>1088.1</ele>
      </trkpt>
      <trkpt lat="42.41226" lon="-0.12742">
        <ele>1086.8</ele>
      </trkpt>
      <trkpt lat="42.41217" lon="-0.12752">
        <ele>1085.4</ele>
      </trkpt>
      <trkpt lat="42.4121" lon="-0.12765">
        <ele>1084.2</ele>
      </trkpt>
      <trkpt lat="42.41204" lon="-0.12779">
        <ele>1083.1</ele>
      </trkpt>
      <trkpt lat="42.41202" lon="-0.12796">
        <ele>1082.6</ele>
      </trkpt>
      <trkpt lat="42.41204" lon="-0.12819">
        <ele>1082.8</ele>
      </trkpt>
      <trkpt lat="42.41206" lon="-0.12827">
        <ele>1083.1</ele>
      </trkpt>
      <trkpt lat="42.41209" lon="-0.12833">
        <ele>1083.6</ele>
      </trkpt>
      <trkpt lat="42.4123" lon="-0.12863">
        <ele>1085.2</ele>
      </trkpt>
      <trkpt lat="42.41233" lon="-0.12874">
        <ele>1084.9</ele>
      </trkpt>
      <trkpt lat="42.41234" lon="-0.12885">
        <ele>1084.3</ele>
      </trkpt>
      <trkpt lat="42.41232" lon="-0.129">
        <ele>1082.9</ele>
      </trkpt>
      <trkpt lat="42.41227" lon="-0.1291">
        <ele>1081.4</ele>
      </trkpt>
      <trkpt lat="42.41222" lon="-0.12917">
        <ele>1080.3</ele>
      </trkpt>
      <trkpt lat="42.41206" lon="-0.12927">
        <ele>1078.8</ele>
      </trkpt>
      <trkpt lat="42.41193" lon="-0.1293">
        <ele>1077.2</ele>
      </trkpt>
      <trkpt lat="42.41156" lon="-0.12926">
        <ele>1072.3</ele>
      </trkpt>
      <trkpt lat="42.41153" lon="-0.12926">
        <ele>1072</ele>
      </trkpt>
      <trkpt lat="42.411" lon="-0.12937">
        <ele>1066.6</ele>
      </trkpt>
      <trkpt lat="42.41091" lon="-0.12942">
        <ele>1065.8</ele>
      </trkpt>
      <trkpt lat="42.41084" lon="-0.12949">
        <ele>1065.2</ele>
      </trkpt>
      <trkpt lat="42.41079" lon="-0.12958">
        <ele>1065.1</ele>
      </trkpt>
      <trkpt lat="42.41076" lon="-0.1297">
        <ele>1065.2</ele>
      </trkpt>
      <trkpt lat="42.41076" lon="-0.12984">
        <ele>1065.7</ele>
      </trkpt>
      <trkpt lat="42.41078" lon="-0.13004">
        <ele>1066.3</ele>
      </trkpt>
      <trkpt lat="42.4108" lon="-0.13014">
        <ele>1066.3</ele>
      </trkpt>
      <trkpt lat="42.41079" lon="-0.13026">
        <ele>1065.9</ele>
      </trkpt>
      <trkpt lat="42.41074" lon="-0.13044">
        <ele>1065</ele>
      </trkpt>
      <trkpt lat="42.41072" lon="-0.1305">
        <ele>1064.7</ele>
      </trkpt>
      <trkpt lat="42.41005" lon="-0.13161">
        <ele>1058.6</ele>
      </trkpt>
      <trkpt lat="42.40986" lon="-0.13185">
        <ele>1057.5</ele>
      </trkpt>
      <trkpt lat="42.40976" lon="-0.13191">
        <ele>1056.5</ele>
      </trkpt>
      <trkpt lat="42.40955" lon="-0.13197">
        <ele>1054</ele>
      </trkpt>
      <trkpt lat="42.40941" lon="-0.13205">
        <ele>1052.4</ele>
      </trkpt>
      <trkpt lat="42.4093" lon="-0.13214">
        <ele>1051.1</ele>
      </trkpt>
      <trkpt lat="42.40906" lon="-0.13239">
        <ele>1048.5</ele>
      </trkpt>
      <trkpt lat="42.40897" lon="-0.1325">
        <ele>1047.6</ele>
      </trkpt>
      <trkpt lat="42.40889" lon="-0.13262">
        <ele>1047</ele>
      </trkpt>
      <trkpt lat="42.40856" lon="-0.13332">
        <ele>1041.9</ele>
      </trkpt>
      <trkpt lat="42.40843" lon="-0.13362">
        <ele>1038.8</ele>
      </trkpt>
      <trkpt lat="42.40822" lon="-0.13426">
        <ele>1034</ele>
      </trkpt>
      <trkpt lat="42.40814" lon="-0.13439">
        <ele>1032.7</ele>
      </trkpt>
      <trkpt lat="42.40796" lon="-0.13458">
        <ele>1029.9</ele>
      </trkpt>
      <trkpt lat="42.40754" lon="-0.13498">
        <ele>1024.5</ele>
      </trkpt>
      <trkpt lat="42.40741" lon="-0.13508">
        <ele>1023.5</ele>
      </trkpt>
      <trkpt lat="42.40699" lon="-0.13534">
        <ele>1019.7</ele>
      </trkpt>
      <trkpt lat="42.40691" lon="-0.13542">
        <ele>1018.9</ele>
      </trkpt>
      <trkpt lat="42.40689" lon="-0.13546">
        <ele>1018.7</ele>
      </trkpt>
      <trkpt lat="42.40686" lon="-0.13552">
        <ele>1018.4</ele>
      </trkpt>
      <trkpt lat="42.40685" lon="-0.13564">
        <ele>1018.4</ele>
      </trkpt>
      <trkpt lat="42.40686" lon="-0.13577">
        <ele>1018.7</ele>
      </trkpt>
      <trkpt lat="42.40689" lon="-0.13587">
        <ele>1018.6</ele>
      </trkpt>
      <trkpt lat="42.40694" lon="-0.13597">
        <ele>1017.8</ele>
      </trkpt>
      <trkpt lat="42.40704" lon="-0.13611">
        <ele>1017.1</ele>
      </trkpt>
      <trkpt lat="42.4074" lon="-0.13652">
        <ele>1015.8</ele>
      </trkpt>
      <trkpt lat="42.40755" lon="-0.13685">
        <ele>1012.8</ele>
      </trkpt>
      <trkpt lat="42.4078" lon="-0.13714">
        <ele>1012.6</ele>
      </trkpt>
      <trkpt lat="42.40784" lon="-0.13724">
        <ele>1012.1</ele>
      </trkpt>
      <trkpt lat="42.40786" lon="-0.13743">
        <ele>1010.2</ele>
      </trkpt>
      <trkpt lat="42.40781" lon="-0.13762">
        <ele>1008.4</ele>
      </trkpt>
      <trkpt lat="42.40776" lon="-0.1377">
        <ele>1007.6</ele>
      </trkpt>
      <trkpt lat="42.40737" lon="-0.13795">
        <ele>1000.9</ele>
      </trkpt>
      <trkpt lat="42.4073" lon="-0.13805">
        <ele>999.5</ele>
      </trkpt>
      <trkpt lat="42.40722" lon="-0.13836">
        <ele>998.1</ele>
      </trkpt>
      <trkpt lat="42.40716" lon="-0.13876">
        <ele>994.4</ele>
      </trkpt>
      <trkpt lat="42.40716" lon="-0.13886">
        <ele>993.9</ele>
      </trkpt>
      <trkpt lat="42.40721" lon="-0.13913">
        <ele>993.6</ele>
      </trkpt>
      <trkpt lat="42.40727" lon="-0.13935">
        <ele>991.8</ele>
      </trkpt>
      <trkpt lat="42.40733" lon="-0.13943">
        <ele>991.7</ele>
      </trkpt>
      <trkpt lat="42.40739" lon="-0.1395">
        <ele>991.6</ele>
      </trkpt>
      <trkpt lat="42.40748" lon="-0.13953">
        <ele>992.7</ele>
      </trkpt>
      <trkpt lat="42.40772" lon="-0.13955">
        <ele>993</ele>
      </trkpt>
      <trkpt lat="42.4078" lon="-0.13959">
        <ele>992.4</ele>
      </trkpt>
      <trkpt lat="42.40787" lon="-0.13966">
        <ele>991.3</ele>
      </trkpt>
      <trkpt lat="42.40791" lon="-0.13973">
        <ele>990.2</ele>
      </trkpt>
      <trkpt lat="42.40796" lon="-0.13984">
        <ele>988.4</ele>
      </trkpt>
      <trkpt lat="42.40814" lon="-0.14035">
        <ele>989.8</ele>
      </trkpt>
      <trkpt lat="42.40816" lon="-0.14046">
        <ele>991.1</ele>
      </trkpt>
      <trkpt lat="42.40814" lon="-0.14056">
        <ele>991.9</ele>
      </trkpt>
      <trkpt lat="42.40809" lon="-0.1407">
        <ele>992.8</ele>
      </trkpt>
      <trkpt lat="42.40794" lon="-0.14079">
        <ele>991.9</ele>
      </trkpt>
      <trkpt lat="42.40765" lon="-0.1409">
        <ele>989.8</ele>
      </trkpt>
      <trkpt lat="42.4076" lon="-0.14095">
        <ele>990.1</ele>
      </trkpt>
      <trkpt lat="42.40755" lon="-0.14099">
        <ele>990.2</ele>
      </trkpt>
      <trkpt lat="42.40734" lon="-0.1412">
        <ele>991.6</ele>
      </trkpt>
      <trkpt lat="42.40726" lon="-0.14127">
        <ele>992</ele>
      </trkpt>
      <trkpt lat="42.40691" lon="-0.14132">
        <ele>989.6</ele>
      </trkpt>
      <trkpt lat="42.40659" lon="-0.14151">
        <ele>989.4</ele>
      </trkpt>
      <trkpt lat="42.40629" lon="-0.14167">
        <ele>985.4</ele>
      </trkpt>
      <trkpt lat="42.40623" lon="-0.14174">
        <ele>984.4</ele>
      </trkpt>
      <trkpt lat="42.40619" lon="-0.14185">
        <ele>984</ele>
      </trkpt>
      <trkpt lat="42.40617" lon="-0.14194">
        <ele>983.9</ele>
      </trkpt>
      <trkpt lat="42.40617" lon="-0.14228">
        <ele>985.4</ele>
      </trkpt>
      <trkpt lat="42.40602" lon="-0.14318">
        <ele>985</ele>
      </trkpt>
      <trkpt lat="42.40576" lon="-0.14388">
        <ele>979.4</ele>
      </trkpt>
      <trkpt lat="42.40576" lon="-0.14404">
        <ele>979.6</ele>
      </trkpt>
      <trkpt lat="42.40578" lon="-0.14419">
        <ele>979.9</ele>
      </trkpt>
      <trkpt lat="42.40587" lon="-0.14438">
        <ele>979.3</ele>
      </trkpt>
      <trkpt lat="42.40607" lon="-0.1447">
        <ele>977.2</ele>
      </trkpt>
      <trkpt lat="42.40612" lon="-0.14479">
        <ele>976.2</ele>
      </trkpt>
      <trkpt lat="42.40626" lon="-0.14492">
        <ele>974.8</ele>
      </trkpt>
      <trkpt lat="42.40639" lon="-0.14496">
        <ele>974.4</ele>
      </trkpt>
      <trkpt lat="42.40666" lon="-0.14492">
        <ele>975.7</ele>
      </trkpt>
      <trkpt lat="42.40677" lon="-0.14497">
        <ele>976.8</ele>
      </trkpt>
      <trkpt lat="42.40683" lon="-0.14502">
        <ele>977.3</ele>
      </trkpt>
      <trkpt lat="42.40687" lon="-0.14507">
        <ele>977.7</ele>
      </trkpt>
      <trkpt lat="42.40689" lon="-0.14517">
        <ele>977.2</ele>
      </trkpt>
      <trkpt lat="42.40688" lon="-0.14538">
        <ele>975</ele>
      </trkpt>
      <trkpt lat="42.40673" lon="-0.14583">
        <ele>966</ele>
      </trkpt>
      <trkpt lat="42.40672" lon="-0.14592">
        <ele>965.2</ele>
      </trkpt>
      <trkpt lat="42.40672" lon="-0.14601">
        <ele>964.7</ele>
      </trkpt>
      <trkpt lat="42.40679" lon="-0.14634">
        <ele>965</ele>
      </trkpt>
      <trkpt lat="42.40679" lon="-0.14643">
        <ele>964.5</ele>
      </trkpt>
      <trkpt lat="42.40676" lon="-0.14667">
        <ele>962.3</ele>
      </trkpt>
      <trkpt lat="42.40674" lon="-0.14683">
        <ele>961</ele>
      </trkpt>
      <trkpt lat="42.40688" lon="-0.14798">
        <ele>955.3</ele>
      </trkpt>
      <trkpt lat="42.40691" lon="-0.14813">
        <ele>954.1</ele>
      </trkpt>
      <trkpt lat="42.40714" lon="-0.1486">
        <ele>951.4</ele>
      </trkpt>
      <trkpt lat="42.4072" lon="-0.14867">
        <ele>951.1</ele>
      </trkpt>
      <trkpt lat="42.40726" lon="-0.1487">
        <ele>951</ele>
      </trkpt>
      <trkpt lat="42.4074" lon="-0.1487">
        <ele>951.7</ele>
      </trkpt>
      <trkpt lat="42.40747" lon="-0.14867">
        <ele>952.4</ele>
      </trkpt>
      <trkpt lat="42.40761" lon="-0.14853">
        <ele>954.6</ele>
      </trkpt>
      <trkpt lat="42.40802" lon="-0.14801">
        <ele>959.6</ele>
      </trkpt>
      <trkpt lat="42.40809" lon="-0.14796">
        <ele>959.8</ele>
      </trkpt>
      <trkpt lat="42.40823" lon="-0.14794">
        <ele>959</ele>
      </trkpt>
      <trkpt lat="42.4083" lon="-0.14798">
        <ele>958.2</ele>
      </trkpt>
      <trkpt lat="42.40836" lon="-0.14804">
        <ele>957.7</ele>
      </trkpt>
      <trkpt lat="42.40839" lon="-0.14812">
        <ele>957.3</ele>
      </trkpt>
      <trkpt lat="42.40842" lon="-0.14831">
        <ele>956.3</ele>
      </trkpt>
      <trkpt lat="42.40842" lon="-0.14842">
        <ele>956.6</ele>
      </trkpt>
      <trkpt lat="42.4084" lon="-0.1485">
        <ele>956.7</ele>
      </trkpt>
      <trkpt lat="42.40837" lon="-0.14859">
        <ele>956.8</ele>
      </trkpt>
      <trkpt lat="42.40828" lon="-0.14873">
        <ele>956.6</ele>
      </trkpt>
      <trkpt lat="42.40818" lon="-0.14885">
        <ele>956.1</ele>
      </trkpt>
      <trkpt lat="42.4081" lon="-0.14901">
        <ele>955.4</ele>
      </trkpt>
      <trkpt lat="42.40804" lon="-0.14917">
        <ele>954.4</ele>
      </trkpt>
      <trkpt lat="42.40801" lon="-0.14934">
        <ele>953.3</ele>
      </trkpt>
      <trkpt lat="42.40802" lon="-0.14953">
        <ele>952.7</ele>
      </trkpt>
      <trkpt lat="42.40813" lon="-0.14989">
        <ele>952.8</ele>
      </trkpt>
      <trkpt lat="42.40817" lon="-0.15024">
        <ele>951.5</ele>
      </trkpt>
      <trkpt lat="42.4082" lon="-0.15033">
        <ele>951.3</ele>
      </trkpt>
      <trkpt lat="42.4084" lon="-0.15065">
        <ele>951.8</ele>
      </trkpt>
      <trkpt lat="42.40845" lon="-0.15077">
        <ele>952.1</ele>
      </trkpt>
      <trkpt lat="42.40846" lon="-0.15091">
        <ele>951.8</ele>
      </trkpt>
      <trkpt lat="42.40853" lon="-0.15107">
        <ele>953.3</ele>
      </trkpt>
      <trkpt lat="42.40858" lon="-0.15122">
        <ele>954.3</ele>
      </trkpt>
      <trkpt lat="42.40862" lon="-0.15148">
        <ele>955</ele>
      </trkpt>
      <trkpt lat="42.40864" lon="-0.15154">
        <ele>955.5</ele>
      </trkpt>
      <trkpt lat="42.40872" lon="-0.15156">
        <ele>957.3</ele>
      </trkpt>
      <trkpt lat="42.40875" lon="-0.15154">
        <ele>958.1</ele>
      </trkpt>
      <trkpt lat="42.40878" lon="-0.15149">
        <ele>958.8</ele>
      </trkpt>
      <trkpt lat="42.40879" lon="-0.15142">
        <ele>959.1</ele>
      </trkpt>
      <trkpt lat="42.40888" lon="-0.15129">
        <ele>961.3</ele>
      </trkpt>
      <trkpt lat="42.40899" lon="-0.15119">
        <ele>963.9</ele>
      </trkpt>
      <trkpt lat="42.40898" lon="-0.15158">
        <ele>963.5</ele>
      </trkpt>
      <trkpt lat="42.40896" lon="-0.15176">
        <ele>963.6</ele>
      </trkpt>
      <trkpt lat="42.40894" lon="-0.15183">
        <ele>963.5</ele>
      </trkpt>
      <trkpt lat="42.4089" lon="-0.15184">
        <ele>962.6</ele>
      </trkpt>
      <trkpt lat="42.40887" lon="-0.15186">
        <ele>962</ele>
      </trkpt>
      <trkpt lat="42.40883" lon="-0.15189">
        <ele>961.2</ele>
      </trkpt>
      <trkpt lat="42.40877" lon="-0.15202">
        <ele>960.4</ele>
      </trkpt>
      <trkpt lat="42.4087" lon="-0.15214">
        <ele>959.3</ele>
      </trkpt>
      <trkpt lat="42.40864" lon="-0.15232">
        <ele>958.8</ele>
      </trkpt>
      <trkpt lat="42.40861" lon="-0.15245">
        <ele>958.7</ele>
      </trkpt>
      <trkpt lat="42.40855" lon="-0.15299">
        <ele>959.9</ele>
      </trkpt>
      <trkpt lat="42.40841" lon="-0.15349">
        <ele>958.8</ele>
      </trkpt>
      <trkpt lat="42.40832" lon="-0.154">
        <ele>958.3</ele>
      </trkpt>
      <trkpt lat="42.40823" lon="-0.1539">
        <ele>956</ele>
      </trkpt>
      <trkpt lat="42.40821" lon="-0.15397">
        <ele>955.7</ele>
      </trkpt>
      <trkpt lat="42.40821" lon="-0.15412">
        <ele>956</ele>
      </trkpt>
      <trkpt lat="42.40824" lon="-0.15422">
        <ele>956.3</ele>
      </trkpt>
      <trkpt lat="42.40825" lon="-0.15427">
        <ele>956.1</ele>
      </trkpt>
      <trkpt lat="42.40831" lon="-0.15436">
        <ele>956.7</ele>
      </trkpt>
      <trkpt lat="42.40841" lon="-0.15443">
        <ele>957.1</ele>
      </trkpt>
      <trkpt lat="42.4086" lon="-0.15447">
        <ele>958.5</ele>
      </trkpt>
      <trkpt lat="42.40884" lon="-0.15439">
        <ele>961</ele>
      </trkpt>
      <trkpt lat="42.40894" lon="-0.1544">
        <ele>961.8</ele>
      </trkpt>
      <trkpt lat="42.40901" lon="-0.15445">
        <ele>962.3</ele>
      </trkpt>
      <trkpt lat="42.40909" lon="-0.15455">
        <ele>962.8</ele>
      </trkpt>
      <trkpt lat="42.40912" lon="-0.15466">
        <ele>962.9</ele>
      </trkpt>
      <trkpt lat="42.40914" lon="-0.15489">
        <ele>962.8</ele>
      </trkpt>
      <trkpt lat="42.40908" lon="-0.15509">
        <ele>962.8</ele>
      </trkpt>
      <trkpt lat="42.40902" lon="-0.1552">
        <ele>963</ele>
      </trkpt>
      <trkpt lat="42.40895" lon="-0.1553">
        <ele>962.9</ele>
      </trkpt>
      <trkpt lat="42.40844" lon="-0.15586">
        <ele>957.5</ele>
      </trkpt>
      <trkpt lat="42.40831" lon="-0.15606">
        <ele>956.8</ele>
      </trkpt>
      <trkpt lat="42.40817" lon="-0.15634">
        <ele>956.6</ele>
      </trkpt>
      <trkpt lat="42.40814" lon="-0.15642">
        <ele>956.6</ele>
      </trkpt>
      <trkpt lat="42.4081" lon="-0.15661">
        <ele>957</ele>
      </trkpt>
      <trkpt lat="42.40807" lon="-0.15679">
        <ele>956.2</ele>
      </trkpt>
      <trkpt lat="42.40808" lon="-0.15694">
        <ele>955.8</ele>
      </trkpt>
      <trkpt lat="42.40815" lon="-0.15747">
        <ele>955.5</ele>
      </trkpt>
      <trkpt lat="42.4082" lon="-0.15766">
        <ele>954.2</ele>
      </trkpt>
      <trkpt lat="42.40842" lon="-0.15818">
        <ele>949.6</ele>
      </trkpt>
      <trkpt lat="42.40853" lon="-0.1583">
        <ele>948.7</ele>
      </trkpt>
      <trkpt lat="42.40867" lon="-0.15835">
        <ele>949.5</ele>
      </trkpt>
      <trkpt lat="42.40912" lon="-0.15828">
        <ele>955.6</ele>
      </trkpt>
      <trkpt lat="42.40922" lon="-0.1583">
        <ele>956.4</ele>
      </trkpt>
      <trkpt lat="42.40931" lon="-0.15838">
        <ele>956.8</ele>
      </trkpt>
      <trkpt lat="42.40937" lon="-0.15847">
        <ele>957.5</ele>
      </trkpt>
      <trkpt lat="42.40941" lon="-0.15858">
        <ele>957.9</ele>
      </trkpt>
      <trkpt lat="42.40943" lon="-0.15871">
        <ele>958.1</ele>
      </trkpt>
      <trkpt lat="42.40942" lon="-0.15882">
        <ele>957.8</ele>
      </trkpt>
      <trkpt lat="42.40939" lon="-0.15893">
        <ele>957.1</ele>
      </trkpt>
      <trkpt lat="42.40932" lon="-0.15904">
        <ele>955.6</ele>
      </trkpt>
      <trkpt lat="42.4091" lon="-0.15925">
        <ele>952.4</ele>
      </trkpt>
      <trkpt lat="42.40898" lon="-0.15942">
        <ele>953.4</ele>
      </trkpt>
      <trkpt lat="42.40891" lon="-0.15958">
        <ele>955</ele>
      </trkpt>
      <trkpt lat="42.40882" lon="-0.1597">
        <ele>955.4</ele>
      </trkpt>
      <trkpt lat="42.4087" lon="-0.15973">
        <ele>953.7</ele>
      </trkpt>
      <trkpt lat="42.40848" lon="-0.15972">
        <ele>949.6</ele>
      </trkpt>
      <trkpt lat="42.40829" lon="-0.15979">
        <ele>947</ele>
      </trkpt>
      <trkpt lat="42.40823" lon="-0.15985">
        <ele>946.5</ele>
      </trkpt>
      <trkpt lat="42.40817" lon="-0.15993">
        <ele>946.1</ele>
      </trkpt>
      <trkpt lat="42.40807" lon="-0.16027">
        <ele>946</ele>
      </trkpt>
      <trkpt lat="42.408" lon="-0.16043">
        <ele>945.2</ele>
      </trkpt>
      <trkpt lat="42.40765" lon="-0.16096">
        <ele>938.4</ele>
      </trkpt>
      <trkpt lat="42.40762" lon="-0.16104">
        <ele>937.5</ele>
      </trkpt>
      <trkpt lat="42.40761" lon="-0.16106">
        <ele>937.2</ele>
      </trkpt>
      <trkpt lat="42.40761" lon="-0.16119">
        <ele>936.9</ele>
      </trkpt>
      <trkpt lat="42.40771" lon="-0.16154">
        <ele>938.4</ele>
      </trkpt>
      <trkpt lat="42.40775" lon="-0.16177">
        <ele>938.6</ele>
      </trkpt>
      <trkpt lat="42.4077" lon="-0.16239">
        <ele>934.3</ele>
      </trkpt>
      <trkpt lat="42.40787" lon="-0.16361">
        <ele>930.7</ele>
      </trkpt>
      <trkpt lat="42.40792" lon="-0.16385">
        <ele>929.5</ele>
      </trkpt>
      <trkpt lat="42.40805" lon="-0.16406">
        <ele>929.7</ele>
      </trkpt>
      <trkpt lat="42.40809" lon="-0.16416">
        <ele>929</ele>
      </trkpt>
      <trkpt lat="42.4081" lon="-0.16438">
        <ele>930.6</ele>
      </trkpt>
      <trkpt lat="42.40803" lon="-0.16459">
        <ele>931</ele>
      </trkpt>
      <trkpt lat="42.40776" lon="-0.16496">
        <ele>929.1</ele>
      </trkpt>
      <trkpt lat="42.40767" lon="-0.16503">
        <ele>928.4</ele>
      </trkpt>
      <trkpt lat="42.40744" lon="-0.16512">
        <ele>926.5</ele>
      </trkpt>
      <trkpt lat="42.40738" lon="-0.16518">
        <ele>926.7</ele>
      </trkpt>
      <trkpt lat="42.40721" lon="-0.16544">
        <ele>928.1</ele>
      </trkpt>
      <trkpt lat="42.40683" lon="-0.16596">
        <ele>925.8</ele>
      </trkpt>
      <trkpt lat="42.40621" lon="-0.16678">
        <ele>920.8</ele>
      </trkpt>
      <trkpt lat="42.40605" lon="-0.16701">
        <ele>919.1</ele>
      </trkpt>
      <trkpt lat="42.40586" lon="-0.16741">
        <ele>917.2</ele>
      </trkpt>
      <trkpt lat="42.40578" lon="-0.16765">
        <ele>918.1</ele>
      </trkpt>
      <trkpt lat="42.40554" lon="-0.16859">
        <ele>921.7</ele>
      </trkpt>
      <trkpt lat="42.40547" lon="-0.16916">
        <ele>923</ele>
      </trkpt>
      <trkpt lat="42.40543" lon="-0.16936">
        <ele>923.7</ele>
      </trkpt>
      <trkpt lat="42.40535" lon="-0.16951">
        <ele>923.1</ele>
      </trkpt>
      <trkpt lat="42.40525" lon="-0.16966">
        <ele>922.1</ele>
      </trkpt>
      <trkpt lat="42.40474" lon="-0.17008">
        <ele>918.3</ele>
      </trkpt>
      <trkpt lat="42.4046" lon="-0.17029">
        <ele>917.5</ele>
      </trkpt>
      <trkpt lat="42.4044" lon="-0.17101">
        <ele>913.2</ele>
      </trkpt>
      <trkpt lat="42.40436" lon="-0.17117">
        <ele>912.3</ele>
      </trkpt>
      <trkpt lat="42.40436" lon="-0.17139">
        <ele>912.1</ele>
      </trkpt>
      <trkpt lat="42.40439" lon="-0.17153">
        <ele>912.4</ele>
      </trkpt>
      <trkpt lat="42.4047" lon="-0.17221">
        <ele>914.2</ele>
      </trkpt>
      <trkpt lat="42.40479" lon="-0.17235">
        <ele>913.1</ele>
      </trkpt>
      <trkpt lat="42.40506" lon="-0.17265">
        <ele>911</ele>
      </trkpt>
      <trkpt lat="42.40518" lon="-0.17281">
        <ele>912.6</ele>
      </trkpt>
      <trkpt lat="42.40529" lon="-0.17299">
        <ele>913.3</ele>
      </trkpt>
      <trkpt lat="42.40567" lon="-0.17388">
        <ele>912.3</ele>
      </trkpt>
      <trkpt lat="42.40569" lon="-0.17394">
        <ele>912.1</ele>
      </trkpt>
      <trkpt lat="42.40586" lon="-0.1743">
        <ele>911.3</ele>
      </trkpt>
      <trkpt lat="42.40589" lon="-0.17445">
        <ele>911.5</ele>
      </trkpt>
      <trkpt lat="42.40589" lon="-0.17462">
        <ele>910.9</ele>
      </trkpt>
      <trkpt lat="42.40585" lon="-0.17503">
        <ele>908.3</ele>
      </trkpt>
      <trkpt lat="42.40601" lon="-0.17601">
        <ele>908</ele>
      </trkpt>
      <trkpt lat="42.40603" lon="-0.17624">
        <ele>908</ele>
      </trkpt>
      <trkpt lat="42.40601" lon="-0.17648">
        <ele>907.1</ele>
      </trkpt>
      <trkpt lat="42.40541" lon="-0.17912">
        <ele>905.5</ele>
      </trkpt>
      <trkpt lat="42.40535" lon="-0.17945">
        <ele>904.1</ele>
      </trkpt>
      <trkpt lat="42.40533" lon="-0.17968">
        <ele>903.1</ele>
      </trkpt>
      <trkpt lat="42.40532" lon="-0.17989">
        <ele>902.2</ele>
      </trkpt>
      <trkpt lat="42.40539" lon="-0.1803">
        <ele>901.6</ele>
      </trkpt>
      <trkpt lat="42.40565" lon="-0.18126">
        <ele>902.3</ele>
      </trkpt>
      <trkpt lat="42.40571" lon="-0.18153">
        <ele>902.1</ele>
      </trkpt>
      <trkpt lat="42.40573" lon="-0.18184">
        <ele>901.3</ele>
      </trkpt>
      <trkpt lat="42.40572" lon="-0.18227">
        <ele>900</ele>
      </trkpt>
      <trkpt lat="42.40575" lon="-0.18252">
        <ele>899.2</ele>
      </trkpt>
      <trkpt lat="42.40576" lon="-0.18271">
        <ele>899.2</ele>
      </trkpt>
      <trkpt lat="42.40573" lon="-0.18285">
        <ele>899.2</ele>
      </trkpt>
      <trkpt lat="42.40557" lon="-0.18318">
        <ele>899.6</ele>
      </trkpt>
      <trkpt lat="42.40555" lon="-0.18339">
        <ele>899.6</ele>
      </trkpt>
      <trkpt lat="42.40559" lon="-0.1848">
        <ele>895</ele>
      </trkpt>
      <trkpt lat="42.40556" lon="-0.18512">
        <ele>893.9</ele>
      </trkpt>
      <trkpt lat="42.40548" lon="-0.18528">
        <ele>893.8</ele>
      </trkpt>
      <trkpt lat="42.40526" lon="-0.18561">
        <ele>893.5</ele>
      </trkpt>
      <trkpt lat="42.40512" lon="-0.1858">
        <ele>893.4</ele>
      </trkpt>
      <trkpt lat="42.40503" lon="-0.1859">
        <ele>893.9</ele>
      </trkpt>
      <trkpt lat="42.40491" lon="-0.186">
        <ele>894.7</ele>
      </trkpt>
      <trkpt lat="42.40471" lon="-0.18613">
        <ele>895</ele>
      </trkpt>
      <trkpt lat="42.40459" lon="-0.18619">
        <ele>894.7</ele>
      </trkpt>
      <trkpt lat="42.40442" lon="-0.18623">
        <ele>893.8</ele>
      </trkpt>
      <trkpt lat="42.40429" lon="-0.18632">
        <ele>893</ele>
      </trkpt>
      <trkpt lat="42.40423" lon="-0.18641">
        <ele>892.6</ele>
      </trkpt>
      <trkpt lat="42.40423" lon="-0.18642">
        <ele>892.6</ele>
      </trkpt>
      <trkpt lat="42.40419" lon="-0.18652">
        <ele>892.3</ele>
      </trkpt>
      <trkpt lat="42.4042" lon="-0.18666">
        <ele>892.4</ele>
      </trkpt>
      <trkpt lat="42.40421" lon="-0.18675">
        <ele>892.5</ele>
      </trkpt>
      <trkpt lat="42.40443" lon="-0.18717">
        <ele>894.9</ele>
      </trkpt>
      <trkpt lat="42.40474" lon="-0.18768">
        <ele>897.9</ele>
      </trkpt>
      <trkpt lat="42.40491" lon="-0.18797">
        <ele>898</ele>
      </trkpt>
      <trkpt lat="42.40508" lon="-0.18827">
        <ele>899.1</ele>
      </trkpt>
      <trkpt lat="42.40514" lon="-0.18845">
        <ele>900.6</ele>
      </trkpt>
      <trkpt lat="42.40517" lon="-0.18862">
        <ele>901.4</ele>
      </trkpt>
      <trkpt lat="42.40517" lon="-0.18884">
        <ele>901.1</ele>
      </trkpt>
      <trkpt lat="42.40512" lon="-0.18917">
        <ele>899</ele>
      </trkpt>
      <trkpt lat="42.40488" lon="-0.1899">
        <ele>894.1</ele>
      </trkpt>
      <trkpt lat="42.40486" lon="-0.1901">
        <ele>892.9</ele>
      </trkpt>
      <trkpt lat="42.40491" lon="-0.19028">
        <ele>891.7</ele>
      </trkpt>
      <trkpt lat="42.40504" lon="-0.19056">
        <ele>890.1</ele>
      </trkpt>
      <trkpt lat="42.40518" lon="-0.19075">
        <ele>889.5</ele>
      </trkpt>
      <trkpt lat="42.40532" lon="-0.19087">
        <ele>889.6</ele>
      </trkpt>
      <trkpt lat="42.40582" lon="-0.19104">
        <ele>892.7</ele>
      </trkpt>
      <trkpt lat="42.4068" lon="-0.19123">
        <ele>899.2</ele>
      </trkpt>
      <trkpt lat="42.40691" lon="-0.19127">
        <ele>900.7</ele>
      </trkpt>
      <trkpt lat="42.40701" lon="-0.19135">
        <ele>901.1</ele>
      </trkpt>
      <trkpt lat="42.4071" lon="-0.19147">
        <ele>900.5</ele>
      </trkpt>
      <trkpt lat="42.40717" lon="-0.19161">
        <ele>899.1</ele>
      </trkpt>
      <trkpt lat="42.40723" lon="-0.19184">
        <ele>898.5</ele>
      </trkpt>
      <trkpt lat="42.40728" lon="-0.19209">
        <ele>898.4</ele>
      </trkpt>
      <trkpt lat="42.40729" lon="-0.19233">
        <ele>897.5</ele>
      </trkpt>
      <trkpt lat="42.40724" lon="-0.19256">
        <ele>895.8</ele>
      </trkpt>
      <trkpt lat="42.40698" lon="-0.19333">
        <ele>888.7</ele>
      </trkpt>
      <trkpt lat="42.40693" lon="-0.19364">
        <ele>885.5</ele>
      </trkpt>
      <trkpt lat="42.40695" lon="-0.19381">
        <ele>884.4</ele>
      </trkpt>
      <trkpt lat="42.407" lon="-0.19396">
        <ele>883.6</ele>
      </trkpt>
      <trkpt lat="42.4071" lon="-0.19407">
        <ele>883.1</ele>
      </trkpt>
      <trkpt lat="42.40722" lon="-0.19412">
        <ele>882.9</ele>
      </trkpt>
      <trkpt lat="42.40762" lon="-0.19413">
        <ele>886.1</ele>
      </trkpt>
      <trkpt lat="42.40792" lon="-0.1943">
        <ele>891.1</ele>
      </trkpt>
      <trkpt lat="42.40798" lon="-0.19436">
        <ele>892.1</ele>
      </trkpt>
      <trkpt lat="42.40802" lon="-0.19449">
        <ele>892.4</ele>
      </trkpt>
      <trkpt lat="42.40803" lon="-0.19462">
        <ele>892.2</ele>
      </trkpt>
      <trkpt lat="42.408" lon="-0.19482">
        <ele>890.8</ele>
      </trkpt>
      <trkpt lat="42.4079" lon="-0.19506">
        <ele>888.1</ele>
      </trkpt>
      <trkpt lat="42.40784" lon="-0.19524">
        <ele>886.6</ele>
      </trkpt>
      <trkpt lat="42.40779" lon="-0.19552">
        <ele>885.3</ele>
      </trkpt>
      <trkpt lat="42.40766" lon="-0.19663">
        <ele>881.5</ele>
      </trkpt>
      <trkpt lat="42.40766" lon="-0.19686">
        <ele>881</ele>
      </trkpt>
      <trkpt lat="42.4077" lon="-0.19786">
        <ele>878.2</ele>
      </trkpt>
      <trkpt lat="42.40773" lon="-0.19802">
        <ele>877.7</ele>
      </trkpt>
      <trkpt lat="42.40788" lon="-0.19829">
        <ele>877.1</ele>
      </trkpt>
      <trkpt lat="42.40814" lon="-0.19861">
        <ele>876.9</ele>
      </trkpt>
      <trkpt lat="42.40835" lon="-0.19887">
        <ele>875.8</ele>
      </trkpt>
      <trkpt lat="42.40856" lon="-0.19915">
        <ele>878.7</ele>
      </trkpt>
      <trkpt lat="42.40896" lon="-0.19965">
        <ele>884.5</ele>
      </trkpt>
      <trkpt lat="42.40906" lon="-0.19979">
        <ele>885.1</ele>
      </trkpt>
      <trkpt lat="42.40911" lon="-0.19994">
        <ele>884.8</ele>
      </trkpt>
      <trkpt lat="42.40913" lon="-0.20012">
        <ele>885</ele>
      </trkpt>
      <trkpt lat="42.40913" lon="-0.20033">
        <ele>885.8</ele>
      </trkpt>
      <trkpt lat="42.40905" lon="-0.20068">
        <ele>886.3</ele>
      </trkpt>
      <trkpt lat="42.40889" lon="-0.20129">
        <ele>885.2</ele>
      </trkpt>
      <trkpt lat="42.40866" lon="-0.20224">
        <ele>883.1</ele>
      </trkpt>
      <trkpt lat="42.40845" lon="-0.20276">
        <ele>876.5</ele>
      </trkpt>
      <trkpt lat="42.40843" lon="-0.20283">
        <ele>875.7</ele>
      </trkpt>
      <trkpt lat="42.40838" lon="-0.20302">
        <ele>873.5</ele>
      </trkpt>
      <trkpt lat="42.40837" lon="-0.20328">
        <ele>872.3</ele>
      </trkpt>
      <trkpt lat="42.40838" lon="-0.20346">
        <ele>871.7</ele>
      </trkpt>
      <trkpt lat="42.40842" lon="-0.20362">
        <ele>871.8</ele>
      </trkpt>
      <trkpt lat="42.4086" lon="-0.20395">
        <ele>873.6</ele>
      </trkpt>
      <trkpt lat="42.40873" lon="-0.20424">
        <ele>874.3</ele>
      </trkpt>
      <trkpt lat="42.40876" lon="-0.20441">
        <ele>875.3</ele>
      </trkpt>
      <trkpt lat="42.40875" lon="-0.20472">
        <ele>875.8</ele>
      </trkpt>
      <trkpt lat="42.40873" lon="-0.20497">
        <ele>875.8</ele>
      </trkpt>
      <trkpt lat="42.40855" lon="-0.20561">
        <ele>870.2</ele>
      </trkpt>
      <trkpt lat="42.40845" lon="-0.20613">
        <ele>869.5</ele>
      </trkpt>
      <trkpt lat="42.40839" lon="-0.2063">
        <ele>869</ele>
      </trkpt>
      <trkpt lat="42.40824" lon="-0.20661">
        <ele>869.8</ele>
      </trkpt>
      <trkpt lat="42.40781" lon="-0.20709">
        <ele>868.9</ele>
      </trkpt>
      <trkpt lat="42.40775" lon="-0.20719">
        <ele>868.1</ele>
      </trkpt>
      <trkpt lat="42.4077" lon="-0.20736">
        <ele>867.3</ele>
      </trkpt>
      <trkpt lat="42.40772" lon="-0.20751">
        <ele>868.1</ele>
      </trkpt>
      <trkpt lat="42.40779" lon="-0.20773">
        <ele>870</ele>
      </trkpt>
      <trkpt lat="42.40835" lon="-0.2094">
        <ele>855.9</ele>
      </trkpt>
      <trkpt lat="42.40854" lon="-0.20976">
        <ele>856.5</ele>
      </trkpt>
      <trkpt lat="42.40858" lon="-0.20988">
        <ele>856</ele>
      </trkpt>
      <trkpt lat="42.40862" lon="-0.2113">
        <ele>867.8</ele>
      </trkpt>
      <trkpt lat="42.40866" lon="-0.21144">
        <ele>868.3</ele>
      </trkpt>
      <trkpt lat="42.40872" lon="-0.21156">
        <ele>868.5</ele>
      </trkpt>
      <trkpt lat="42.40892" lon="-0.21183">
        <ele>867.6</ele>
      </trkpt>
      <trkpt lat="42.40915" lon="-0.21223">
        <ele>861.8</ele>
      </trkpt>
      <trkpt lat="42.40922" lon="-0.21241">
        <ele>861.1</ele>
      </trkpt>
      <trkpt lat="42.40924" lon="-0.21258">
        <ele>860.9</ele>
      </trkpt>
      <trkpt lat="42.40924" lon="-0.21301">
        <ele>862.4</ele>
      </trkpt>
      <trkpt lat="42.40915" lon="-0.21343">
        <ele>862.3</ele>
      </trkpt>
      <trkpt lat="42.4091" lon="-0.21362">
        <ele>864.4</ele>
      </trkpt>
      <trkpt lat="42.40902" lon="-0.21379">
        <ele>865.7</ele>
      </trkpt>
      <trkpt lat="42.40864" lon="-0.21443">
        <ele>862.1</ele>
      </trkpt>
      <trkpt lat="42.40839" lon="-0.21489">
        <ele>856.6</ele>
      </trkpt>
      <trkpt lat="42.4083" lon="-0.21514">
        <ele>855.2</ele>
      </trkpt>
      <trkpt lat="42.40829" lon="-0.21527">
        <ele>854.9</ele>
      </trkpt>
      <trkpt lat="42.40829" lon="-0.21548">
        <ele>853.9</ele>
      </trkpt>
      <trkpt lat="42.40832" lon="-0.21569">
        <ele>852.1</ele>
      </trkpt>
      <trkpt lat="42.40844" lon="-0.21607">
        <ele>853.2</ele>
      </trkpt>
      <trkpt lat="42.40859" lon="-0.21634">
        <ele>854.4</ele>
      </trkpt>
      <trkpt lat="42.40864" lon="-0.2164">
        <ele>854.5</ele>
      </trkpt>
      <trkpt lat="42.40872" lon="-0.21644">
        <ele>854.7</ele>
      </trkpt>
      <trkpt lat="42.40909" lon="-0.21654">
        <ele>855.2</ele>
      </trkpt>
      <trkpt lat="42.40918" lon="-0.21659">
        <ele>854.8</ele>
      </trkpt>
      <trkpt lat="42.40933" lon="-0.21674">
        <ele>856.5</ele>
      </trkpt>
      <trkpt lat="42.40945" lon="-0.2169">
        <ele>858.3</ele>
      </trkpt>
      <trkpt lat="42.40957" lon="-0.21709">
        <ele>859.9</ele>
      </trkpt>
      <trkpt lat="42.40967" lon="-0.21756">
        <ele>859.7</ele>
      </trkpt>
      <trkpt lat="42.40967" lon="-0.21777">
        <ele>861</ele>
      </trkpt>
      <trkpt lat="42.40964" lon="-0.21793">
        <ele>861.1</ele>
      </trkpt>
      <trkpt lat="42.40927" lon="-0.21893">
        <ele>850.6</ele>
      </trkpt>
      <trkpt lat="42.40911" lon="-0.21961">
        <ele>846.7</ele>
      </trkpt>
      <trkpt lat="42.4091" lon="-0.21979">
        <ele>846.3</ele>
      </trkpt>
      <trkpt lat="42.40911" lon="-0.21994">
        <ele>845.5</ele>
      </trkpt>
      <trkpt lat="42.40932" lon="-0.2212">
        <ele>847.4</ele>
      </trkpt>
      <trkpt lat="42.40934" lon="-0.22145">
        <ele>848</ele>
      </trkpt>
      <trkpt lat="42.40935" lon="-0.22163">
        <ele>848.3</ele>
      </trkpt>
      <trkpt lat="42.40944" lon="-0.22291">
        <ele>848.6</ele>
      </trkpt>
      <trkpt lat="42.40943" lon="-0.22302">
        <ele>847.5</ele>
      </trkpt>
      <trkpt lat="42.4094" lon="-0.22318">
        <ele>845.8</ele>
      </trkpt>
      <trkpt lat="42.40929" lon="-0.22338">
        <ele>843.9</ele>
      </trkpt>
      <trkpt lat="42.40923" lon="-0.22351">
        <ele>846</ele>
      </trkpt>
      <trkpt lat="42.40911" lon="-0.22368">
        <ele>848.6</ele>
      </trkpt>
      <trkpt lat="42.40875" lon="-0.22403">
        <ele>849</ele>
      </trkpt>
      <trkpt lat="42.40832" lon="-0.22435">
        <ele>842.3</ele>
      </trkpt>
      <trkpt lat="42.40812" lon="-0.22454">
        <ele>843.1</ele>
      </trkpt>
      <trkpt lat="42.40801" lon="-0.22471">
        <ele>843.2</ele>
      </trkpt>
      <trkpt lat="42.40797" lon="-0.22483">
        <ele>843.2</ele>
      </trkpt>
      <trkpt lat="42.40793" lon="-0.225">
        <ele>843.1</ele>
      </trkpt>
      <trkpt lat="42.40792" lon="-0.22526">
        <ele>843.4</ele>
      </trkpt>
      <trkpt lat="42.40795" lon="-0.22567">
        <ele>844.3</ele>
      </trkpt>
      <trkpt lat="42.40801" lon="-0.22597">
        <ele>845.8</ele>
      </trkpt>
      <trkpt lat="42.40813" lon="-0.22652">
        <ele>848.8</ele>
      </trkpt>
      <trkpt lat="42.40813" lon="-0.22677">
        <ele>849.7</ele>
      </trkpt>
      <trkpt lat="42.40797" lon="-0.22739">
        <ele>848.3</ele>
      </trkpt>
      <trkpt lat="42.40791" lon="-0.22752">
        <ele>846.9</ele>
      </trkpt>
      <trkpt lat="42.40763" lon="-0.22798">
        <ele>840.7</ele>
      </trkpt>
      <trkpt lat="42.40754" lon="-0.22817">
        <ele>838.6</ele>
      </trkpt>
      <trkpt lat="42.40738" lon="-0.22888">
        <ele>840.7</ele>
      </trkpt>
      <trkpt lat="42.40734" lon="-0.22899">
        <ele>840.7</ele>
      </trkpt>
      <trkpt lat="42.40699" lon="-0.22964">
        <ele>839.5</ele>
      </trkpt>
      <trkpt lat="42.40684" lon="-0.23001">
        <ele>838.1</ele>
      </trkpt>
      <trkpt lat="42.40681" lon="-0.23028">
        <ele>837.9</ele>
      </trkpt>
      <trkpt lat="42.40684" lon="-0.23118">
        <ele>842.2</ele>
      </trkpt>
      <trkpt lat="42.40682" lon="-0.23139">
        <ele>842</ele>
      </trkpt>
      <trkpt lat="42.40678" lon="-0.23171">
        <ele>841.5</ele>
      </trkpt>
      <trkpt lat="42.40673" lon="-0.23197">
        <ele>841.9</ele>
      </trkpt>
      <trkpt lat="42.40667" lon="-0.23215">
        <ele>841.4</ele>
      </trkpt>
      <trkpt lat="42.40662" lon="-0.23226">
        <ele>841.7</ele>
      </trkpt>
      <trkpt lat="42.40648" lon="-0.23247">
        <ele>841.4</ele>
      </trkpt>
      <trkpt lat="42.40605" lon="-0.23288">
        <ele>837.7</ele>
      </trkpt>
      <trkpt lat="42.40591" lon="-0.23304">
        <ele>835</ele>
      </trkpt>
      <trkpt lat="42.40587" lon="-0.23313">
        <ele>834.2</ele>
      </trkpt>
      <trkpt lat="42.40582" lon="-0.23329">
        <ele>833.9</ele>
      </trkpt>
      <trkpt lat="42.40576" lon="-0.2341">
        <ele>839.2</ele>
      </trkpt>
      <trkpt lat="42.40569" lon="-0.23447">
        <ele>842</ele>
      </trkpt>
      <trkpt lat="42.40531" lon="-0.23533">
        <ele>838.9</ele>
      </trkpt>
      <trkpt lat="42.40527" lon="-0.23547">
        <ele>838.1</ele>
      </trkpt>
      <trkpt lat="42.40524" lon="-0.23564">
        <ele>837.5</ele>
      </trkpt>
      <trkpt lat="42.40521" lon="-0.23634">
        <ele>841.8</ele>
      </trkpt>
      <trkpt lat="42.40516" lon="-0.23661">
        <ele>842.4</ele>
      </trkpt>
      <trkpt lat="42.4051" lon="-0.23675">
        <ele>842.2</ele>
      </trkpt>
      <trkpt lat="42.40494" lon="-0.237">
        <ele>842.5</ele>
      </trkpt>
      <trkpt lat="42.40479" lon="-0.23717">
        <ele>842.9</ele>
      </trkpt>
      <trkpt lat="42.40432" lon="-0.23764">
        <ele>834.7</ele>
      </trkpt>
      <trkpt lat="42.40407" lon="-0.23797">
        <ele>832.8</ele>
      </trkpt>
      <trkpt lat="42.40401" lon="-0.23815">
        <ele>834.6</ele>
      </trkpt>
      <trkpt lat="42.40401" lon="-0.23815">
        <ele>834.6</ele>
      </trkpt>
      <trkpt lat="42.40397" lon="-0.23833">
        <ele>836.2</ele>
      </trkpt>
      <trkpt lat="42.40395" lon="-0.23858">
        <ele>837.9</ele>
      </trkpt>
      <trkpt lat="42.40399" lon="-0.2391">
        <ele>841.7</ele>
      </trkpt>
      <trkpt lat="42.40406" lon="-0.23971">
        <ele>838.9</ele>
      </trkpt>
      <trkpt lat="42.40418" lon="-0.24025">
        <ele>835.2</ele>
      </trkpt>
      <trkpt lat="42.40429" lon="-0.24092">
        <ele>833.9</ele>
      </trkpt>
      <trkpt lat="42.4043" lon="-0.24118">
        <ele>836.7</ele>
      </trkpt>
      <trkpt lat="42.40429" lon="-0.24134">
        <ele>837.8</ele>
      </trkpt>
      <trkpt lat="42.40426" lon="-0.24152">
        <ele>838.3</ele>
      </trkpt>
      <trkpt lat="42.4041" lon="-0.24206">
        <ele>845</ele>
      </trkpt>
      <trkpt lat="42.40397" lon="-0.24236">
        <ele>848.3</ele>
      </trkpt>
      <trkpt lat="42.40381" lon="-0.24264">
        <ele>845.2</ele>
      </trkpt>
      <trkpt lat="42.40369" lon="-0.24313">
        <ele>840</ele>
      </trkpt>
      <trkpt lat="42.40367" lon="-0.24324">
        <ele>839.1</ele>
      </trkpt>
      <trkpt lat="42.40365" lon="-0.24349">
        <ele>837.1</ele>
      </trkpt>
      <trkpt lat="42.40364" lon="-0.24417">
        <ele>831.8</ele>
      </trkpt>
      <trkpt lat="42.4036" lon="-0.24431">
        <ele>831.9</ele>
      </trkpt>
      <trkpt lat="42.40355" lon="-0.24443">
        <ele>831.6</ele>
      </trkpt>
      <trkpt lat="42.40349" lon="-0.24452">
        <ele>830.7</ele>
      </trkpt>
      <trkpt lat="42.40319" lon="-0.24495">
        <ele>829.8</ele>
      </trkpt>
      <trkpt lat="42.40315" lon="-0.24505">
        <ele>830</ele>
      </trkpt>
      <trkpt lat="42.40312" lon="-0.24517">
        <ele>830</ele>
      </trkpt>
      <trkpt lat="42.40313" lon="-0.24547">
        <ele>830.2</ele>
      </trkpt>
      <trkpt lat="42.40328" lon="-0.2463">
        <ele>829.5</ele>
      </trkpt>
      <trkpt lat="42.40336" lon="-0.24685">
        <ele>831.1</ele>
      </trkpt>
      <trkpt lat="42.40332" lon="-0.24713">
        <ele>833.4</ele>
      </trkpt>
      <trkpt lat="42.40323" lon="-0.24733">
        <ele>834</ele>
      </trkpt>
      <trkpt lat="42.40309" lon="-0.24757">
        <ele>833.5</ele>
      </trkpt>
      <trkpt lat="42.4029" lon="-0.24784">
        <ele>832.6</ele>
      </trkpt>
      <trkpt lat="42.40269" lon="-0.24809">
        <ele>830</ele>
      </trkpt>
      <trkpt lat="42.40247" lon="-0.2483">
        <ele>826.4</ele>
      </trkpt>
      <trkpt lat="42.4021" lon="-0.24863">
        <ele>822.6</ele>
      </trkpt>
      <trkpt lat="42.40183" lon="-0.24886">
        <ele>819</ele>
      </trkpt>
      <trkpt lat="42.40173" lon="-0.249">
        <ele>817.4</ele>
      </trkpt>
      <trkpt lat="42.40129" lon="-0.25006">
        <ele>822.6</ele>
      </trkpt>
      <trkpt lat="42.40105" lon="-0.25069">
        <ele>823</ele>
      </trkpt>
      <trkpt lat="42.40096" lon="-0.25103">
        <ele>820.4</ele>
      </trkpt>
      <trkpt lat="42.40095" lon="-0.25113">
        <ele>819.7</ele>
      </trkpt>
      <trkpt lat="42.40095" lon="-0.25132">
        <ele>819.1</ele>
      </trkpt>
      <trkpt lat="42.40112" lon="-0.2545">
        <ele>825.4</ele>
      </trkpt>
      <trkpt lat="42.4011" lon="-0.25483">
        <ele>824.5</ele>
      </trkpt>
      <trkpt lat="42.40108" lon="-0.25495">
        <ele>823.8</ele>
      </trkpt>
      <trkpt lat="42.40089" lon="-0.25566">
        <ele>819.3</ele>
      </trkpt>
      <trkpt lat="42.40076" lon="-0.25665">
        <ele>814.4</ele>
      </trkpt>
      <trkpt lat="42.40045" lon="-0.25876">
        <ele>819.6</ele>
      </trkpt>
      <trkpt lat="42.40034" lon="-0.25909">
        <ele>817.7</ele>
      </trkpt>
      <trkpt lat="42.39997" lon="-0.2598">
        <ele>814.9</ele>
      </trkpt>
      <trkpt lat="42.39987" lon="-0.26007">
        <ele>816</ele>
      </trkpt>
      <trkpt lat="42.39968" lon="-0.26109">
        <ele>820</ele>
      </trkpt>
      <trkpt lat="42.39968" lon="-0.26109">
        <ele>820</ele>
      </trkpt>
      <trkpt lat="42.39964" lon="-0.2612">
        <ele>821.2</ele>
      </trkpt>
      <trkpt lat="42.39952" lon="-0.2614">
        <ele>822.5</ele>
      </trkpt>
      <trkpt lat="42.39945" lon="-0.26148">
        <ele>822.7</ele>
      </trkpt>
      <trkpt lat="42.39818" lon="-0.26213">
        <ele>815</ele>
      </trkpt>
      <trkpt lat="42.39758" lon="-0.2624">
        <ele>807.2</ele>
      </trkpt>
      <trkpt lat="42.39745" lon="-0.2625">
        <ele>805.6</ele>
      </trkpt>
      <trkpt lat="42.3972" lon="-0.26286">
        <ele>806.6</ele>
      </trkpt>
      <trkpt lat="42.39708" lon="-0.26306">
        <ele>806.5</ele>
      </trkpt>
      <trkpt lat="42.39696" lon="-0.26334">
        <ele>806.4</ele>
      </trkpt>
      <trkpt lat="42.39631" lon="-0.26531">
        <ele>813.3</ele>
      </trkpt>
      <trkpt lat="42.39622" lon="-0.26554">
        <ele>813</ele>
      </trkpt>
      <trkpt lat="42.39593" lon="-0.26611">
        <ele>812.3</ele>
      </trkpt>
      <trkpt lat="42.39551" lon="-0.26677">
        <ele>813.1</ele>
      </trkpt>
      <trkpt lat="42.39541" lon="-0.26696">
        <ele>813.4</ele>
      </trkpt>
      <trkpt lat="42.39463" lon="-0.2687">
        <ele>808.4</ele>
      </trkpt>
      <trkpt lat="42.39443" lon="-0.26936">
        <ele>806.9</ele>
      </trkpt>
      <trkpt lat="42.39434" lon="-0.26953">
        <ele>808.1</ele>
      </trkpt>
      <trkpt lat="42.39416" lon="-0.2697">
        <ele>808.4</ele>
      </trkpt>
      <trkpt lat="42.39359" lon="-0.27008">
        <ele>806.2</ele>
      </trkpt>
      <trkpt lat="42.39328" lon="-0.27026">
        <ele>805.8</ele>
      </trkpt>
      <trkpt lat="42.39246" lon="-0.27064">
        <ele>801</ele>
      </trkpt>
      <trkpt lat="42.39227" lon="-0.27076">
        <ele>800.4</ele>
      </trkpt>
      <trkpt lat="42.39218" lon="-0.27084">
        <ele>800.3</ele>
      </trkpt>
      <trkpt lat="42.39163" lon="-0.2714">
        <ele>800.4</ele>
      </trkpt>
      <trkpt lat="42.3914" lon="-0.27168">
        <ele>799.9</ele>
      </trkpt>
      <trkpt lat="42.39134" lon="-0.2718">
        <ele>799.5</ele>
      </trkpt>
      <trkpt lat="42.39129" lon="-0.27197">
        <ele>799.5</ele>
      </trkpt>
      <trkpt lat="42.39123" lon="-0.2723">
        <ele>799.8</ele>
      </trkpt>
      <trkpt lat="42.39113" lon="-0.27294">
        <ele>799.1</ele>
      </trkpt>
    </trkseg>
  </trk>
  <trk>
    <name><![CDATA[jour4_4]]></name>
    <extensions>
      <line xmlns="http://www.topografix.com/GPX/gpx_style/0/2">
        <color>00FFFF</color>
        <width>4</width>
      </line>
    </extensions>
    <trkseg>
      <trkpt lat="42.28075" lon="0.16091">
        <ele>614.54</ele>
        <time>2021-08-02T11:59:57Z</time>
      </trkpt>
      <trkpt lat="42.28063" lon="0.16082">
        <ele>615.23</ele>
        <time>2021-08-02T11:59:58Z</time>
      </trkpt>
      <trkpt lat="42.2803" lon="0.1605">
        <ele>617.68</ele>
        <time>2021-08-02T12:00:02Z</time>
      </trkpt>
      <trkpt lat="42.27997" lon="0.16029">
        <ele>619.52</ele>
        <time>2021-08-02T12:00:06Z</time>
      </trkpt>
      <trkpt lat="42.27908" lon="0.15993">
        <ele>623.37</ele>
        <time>2021-08-02T12:00:15Z</time>
      </trkpt>
      <trkpt lat="42.27865" lon="0.15967">
        <ele>626.3</ele>
        <time>2021-08-02T12:00:21Z</time>
      </trkpt>
      <trkpt lat="42.27861" lon="0.15964">
        <ele>629.02</ele>
        <time>2021-08-02T12:00:28Z</time>
      </trkpt>
      <trkpt lat="42.27861" lon="0.15964">
        <ele>630.13</ele>
        <time>2021-08-02T12:00:38Z</time>
      </trkpt>
      <trkpt lat="42.27799" lon="0.15954">
        <ele>631.94</ele>
        <time>2021-08-02T12:00:49Z</time>
      </trkpt>
      <trkpt lat="42.27742" lon="0.15977">
        <ele>634.09</ele>
        <time>2021-08-02T12:01:00Z</time>
      </trkpt>
      <trkpt lat="42.27737" lon="0.15979">
        <ele>634.37</ele>
        <time>2021-08-02T12:01:01Z</time>
      </trkpt>
      <trkpt lat="42.27714" lon="0.15991">
        <ele>637.93</ele>
        <time>2021-08-02T12:01:08Z</time>
      </trkpt>
      <trkpt lat="42.27704" lon="0.15975">
        <ele>640.54</ele>
        <time>2021-08-02T12:01:14Z</time>
      </trkpt>
      <trkpt lat="42.27702" lon="0.15963">
        <ele>641.62</ele>
        <time>2021-08-02T12:01:25Z</time>
      </trkpt>
      <trkpt lat="42.27686" lon="0.15942">
        <ele>641.77</ele>
        <time>2021-08-02T12:02:03Z</time>
      </trkpt>
      <trkpt lat="42.27634" lon="0.1588">
        <ele>642.94</ele>
        <time>2021-08-02T12:02:11Z</time>
      </trkpt>
      <trkpt lat="42.27614" lon="0.15849">
        <ele>643.47</ele>
        <time>2021-08-02T12:02:14Z</time>
      </trkpt>
      <trkpt lat="42.27555" lon="0.1579">
        <ele>646.92</ele>
        <time>2021-08-02T12:02:24Z</time>
      </trkpt>
      <trkpt lat="42.27543" lon="0.15785">
        <ele>648.63</ele>
        <time>2021-08-02T12:02:27Z</time>
      </trkpt>
      <trkpt lat="42.27515" lon="0.1577">
        <ele>650.81</ele>
        <time>2021-08-02T12:02:32Z</time>
      </trkpt>
      <trkpt lat="42.27495" lon="0.15747">
        <ele>653.46</ele>
        <time>2021-08-02T12:02:38Z</time>
      </trkpt>
      <trkpt lat="42.27484" lon="0.15732">
        <ele>654.8</ele>
        <time>2021-08-02T12:02:41Z</time>
      </trkpt>
      <trkpt lat="42.27463" lon="0.15707">
        <ele>658.72</ele>
        <time>2021-08-02T12:02:47Z</time>
      </trkpt>
      <trkpt lat="42.27458" lon="0.15698">
        <ele>659.9</ele>
        <time>2021-08-02T12:02:49Z</time>
      </trkpt>
      <trkpt lat="42.27432" lon="0.15688">
        <ele>663.7</ele>
        <time>2021-08-02T12:02:56Z</time>
      </trkpt>
      <trkpt lat="42.27397" lon="0.15681">
        <ele>667.72</ele>
        <time>2021-08-02T12:03:04Z</time>
      </trkpt>
      <trkpt lat="42.27353" lon="0.15666">
        <ele>671.31</ele>
        <time>2021-08-02T12:03:10Z</time>
      </trkpt>
      <trkpt lat="42.27339" lon="0.15664">
        <ele>673</ele>
        <time>2021-08-02T12:03:12Z</time>
      </trkpt>
      <trkpt lat="42.27323" lon="0.15657">
        <ele>674.87</ele>
        <time>2021-08-02T12:03:14Z</time>
      </trkpt>
      <trkpt lat="42.27295" lon="0.15654">
        <ele>679</ele>
        <time>2021-08-02T12:03:18Z</time>
      </trkpt>
      <trkpt lat="42.27277" lon="0.15647">
        <ele>682.32</ele>
        <time>2021-08-02T12:03:21Z</time>
      </trkpt>
      <trkpt lat="42.27254" lon="0.15637">
        <ele>686.31</ele>
        <time>2021-08-02T12:03:25Z</time>
      </trkpt>
      <trkpt lat="42.27231" lon="0.15636">
        <ele>691.33</ele>
        <time>2021-08-02T12:03:30Z</time>
      </trkpt>
      <trkpt lat="42.27227" lon="0.15636">
        <ele>692.35</ele>
        <time>2021-08-02T12:03:31Z</time>
      </trkpt>
      <trkpt lat="42.27197" lon="0.15643">
        <ele>696.02</ele>
        <time>2021-08-02T12:03:36Z</time>
      </trkpt>
      <trkpt lat="42.27178" lon="0.15645">
        <ele>698.33</ele>
        <time>2021-08-02T12:03:39Z</time>
      </trkpt>
      <trkpt lat="42.27165" lon="0.15647">
        <ele>699.54</ele>
        <time>2021-08-02T12:03:41Z</time>
      </trkpt>
      <trkpt lat="42.27143" lon="0.15661">
        <ele>702.13</ele>
        <time>2021-08-02T12:03:45Z</time>
      </trkpt>
      <trkpt lat="42.27123" lon="0.15684">
        <ele>703.6</ele>
        <time>2021-08-02T12:03:49Z</time>
      </trkpt>
      <trkpt lat="42.27097" lon="0.15705">
        <ele>704.31</ele>
        <time>2021-08-02T12:03:56Z</time>
      </trkpt>
      <trkpt lat="42.27095" lon="0.15702">
        <ele>705.02</ele>
        <time>2021-08-02T12:03:58Z</time>
      </trkpt>
      <trkpt lat="42.27076" lon="0.15693">
        <ele>708.43</ele>
        <time>2021-08-02T12:04:07Z</time>
      </trkpt>
      <trkpt lat="42.27055" lon="0.15677">
        <ele>711.58</ele>
        <time>2021-08-02T12:04:15Z</time>
      </trkpt>
      <trkpt lat="42.27038" lon="0.15665">
        <ele>714.61</ele>
        <time>2021-08-02T12:04:21Z</time>
      </trkpt>
      <trkpt lat="42.27022" lon="0.15651">
        <ele>718.1</ele>
        <time>2021-08-02T12:04:27Z</time>
      </trkpt>
      <trkpt lat="42.27009" lon="0.15635">
        <ele>721.16</ele>
        <time>2021-08-02T12:04:34Z</time>
      </trkpt>
      <trkpt lat="42.26993" lon="0.15625">
        <ele>722.82</ele>
        <time>2021-08-02T12:04:39Z</time>
      </trkpt>
      <trkpt lat="42.26977" lon="0.15592">
        <ele>724.19</ele>
        <time>2021-08-02T12:04:45Z</time>
      </trkpt>
      <trkpt lat="42.26962" lon="0.15567">
        <ele>726.15</ele>
        <time>2021-08-02T12:04:50Z</time>
      </trkpt>
      <trkpt lat="42.26944" lon="0.15557">
        <ele>729.1</ele>
        <time>2021-08-02T12:04:55Z</time>
      </trkpt>
      <trkpt lat="42.26919" lon="0.15548">
        <ele>732.18</ele>
        <time>2021-08-02T12:05:02Z</time>
      </trkpt>
      <trkpt lat="42.26916" lon="0.15553">
        <ele>732.72</ele>
        <time>2021-08-02T12:05:03Z</time>
      </trkpt>
      <trkpt lat="42.26901" lon="0.15571">
        <ele>736.14</ele>
        <time>2021-08-02T12:05:08Z</time>
      </trkpt>
      <trkpt lat="42.26886" lon="0.15559">
        <ele>738.12</ele>
        <time>2021-08-02T12:05:12Z</time>
      </trkpt>
      <trkpt lat="42.26849" lon="0.15521">
        <ele>739.8</ele>
        <time>2021-08-02T12:05:24Z</time>
      </trkpt>
      <trkpt lat="42.26834" lon="0.15502">
        <ele>739.79</ele>
        <time>2021-08-02T12:05:28Z</time>
      </trkpt>
      <trkpt lat="42.26819" lon="0.15474">
        <ele>737.89</ele>
        <time>2021-08-02T12:05:37Z</time>
      </trkpt>
      <trkpt lat="42.2679" lon="0.1545">
        <ele>735.44</ele>
        <time>2021-08-02T12:05:50Z</time>
      </trkpt>
      <trkpt lat="42.26751" lon="0.15431">
        <ele>734.56</ele>
        <time>2021-08-02T12:05:57Z</time>
      </trkpt>
      <trkpt lat="42.26702" lon="0.15377">
        <ele>736.31</ele>
        <time>2021-08-02T12:06:05Z</time>
      </trkpt>
      <trkpt lat="42.2669" lon="0.15366">
        <ele>736.21</ele>
        <time>2021-08-02T12:06:09Z</time>
      </trkpt>
      <trkpt lat="42.26681" lon="0.15362">
        <ele>736.04</ele>
        <time>2021-08-02T12:06:12Z</time>
      </trkpt>
      <trkpt lat="42.2666" lon="0.15365">
        <ele>736.34</ele>
        <time>2021-08-02T12:06:17Z</time>
      </trkpt>
      <trkpt lat="42.26646" lon="0.15375">
        <ele>737.23</ele>
        <time>2021-08-02T12:06:21Z</time>
      </trkpt>
      <trkpt lat="42.26608" lon="0.15382">
        <ele>740.65</ele>
        <time>2021-08-02T12:06:30Z</time>
      </trkpt>
      <trkpt lat="42.26595" lon="0.15382">
        <ele>742.2</ele>
        <time>2021-08-02T12:06:33Z</time>
      </trkpt>
      <trkpt lat="42.26582" lon="0.15385">
        <ele>743.81</ele>
        <time>2021-08-02T12:06:36Z</time>
      </trkpt>
      <trkpt lat="42.26562" lon="0.15374">
        <ele>746.9</ele>
        <time>2021-08-02T12:06:42Z</time>
      </trkpt>
      <trkpt lat="42.26557" lon="0.15369">
        <ele>747.74</ele>
        <time>2021-08-02T12:06:44Z</time>
      </trkpt>
      <trkpt lat="42.26544" lon="0.15372">
        <ele>748.8</ele>
        <time>2021-08-02T12:06:48Z</time>
      </trkpt>
      <trkpt lat="42.26512" lon="0.15384">
        <ele>751.85</ele>
        <time>2021-08-02T12:06:56Z</time>
      </trkpt>
      <trkpt lat="42.26502" lon="0.15394">
        <ele>753.16</ele>
        <time>2021-08-02T12:06:59Z</time>
      </trkpt>
      <trkpt lat="42.26493" lon="0.15406">
        <ele>755.1</ele>
        <time>2021-08-02T12:07:02Z</time>
      </trkpt>
      <trkpt lat="42.26474" lon="0.15418">
        <ele>758.22</ele>
        <time>2021-08-02T12:07:07Z</time>
      </trkpt>
      <trkpt lat="42.26459" lon="0.1541">
        <ele>760.42</ele>
        <time>2021-08-02T12:07:11Z</time>
      </trkpt>
      <trkpt lat="42.26443" lon="0.15401">
        <ele>762.77</ele>
        <time>2021-08-02T12:07:15Z</time>
      </trkpt>
      <trkpt lat="42.26399" lon="0.15386">
        <ele>766.53</ele>
        <time>2021-08-02T12:07:22Z</time>
      </trkpt>
      <trkpt lat="42.26386" lon="0.15383">
        <ele>767.76</ele>
        <time>2021-08-02T12:07:24Z</time>
      </trkpt>
      <trkpt lat="42.26358" lon="0.15358">
        <ele>771.48</ele>
        <time>2021-08-02T12:07:29Z</time>
      </trkpt>
      <trkpt lat="42.26317" lon="0.1533">
        <ele>775.86</ele>
        <time>2021-08-02T12:07:34Z</time>
      </trkpt>
      <trkpt lat="42.26289" lon="0.15323">
        <ele>778.87</ele>
        <time>2021-08-02T12:07:38Z</time>
      </trkpt>
      <trkpt lat="42.26275" lon="0.15325">
        <ele>780.52</ele>
        <time>2021-08-02T12:07:40Z</time>
      </trkpt>
      <trkpt lat="42.26243" lon="0.15312">
        <ele>785.79</ele>
        <time>2021-08-02T12:07:45Z</time>
      </trkpt>
      <trkpt lat="42.26215" lon="0.15298">
        <ele>791.52</ele>
        <time>2021-08-02T12:07:50Z</time>
      </trkpt>
      <trkpt lat="42.262" lon="0.15305">
        <ele>794.96</ele>
        <time>2021-08-02T12:07:53Z</time>
      </trkpt>
      <trkpt lat="42.26168" lon="0.15317">
        <ele>799.82</ele>
        <time>2021-08-02T12:07:59Z</time>
      </trkpt>
      <trkpt lat="42.26139" lon="0.15304">
        <ele>803.05</ele>
        <time>2021-08-02T12:08:05Z</time>
      </trkpt>
      <trkpt lat="42.26135" lon="0.15299">
        <ele>803.54</ele>
        <time>2021-08-02T12:08:06Z</time>
      </trkpt>
      <trkpt lat="42.26102" lon="0.15309">
        <ele>808.47</ele>
        <time>2021-08-02T12:08:13Z</time>
      </trkpt>
      <trkpt lat="42.26098" lon="0.15315">
        <ele>809.23</ele>
        <time>2021-08-02T12:08:14Z</time>
      </trkpt>
      <trkpt lat="42.26084" lon="0.15327">
        <ele>812.59</ele>
        <time>2021-08-02T12:08:18Z</time>
      </trkpt>
      <trkpt lat="42.2607" lon="0.15337">
        <ele>816.24</ele>
        <time>2021-08-02T12:08:22Z</time>
      </trkpt>
      <trkpt lat="42.26047" lon="0.15334">
        <ele>820.3</ele>
        <time>2021-08-02T12:08:28Z</time>
      </trkpt>
      <trkpt lat="42.26034" lon="0.15331">
        <ele>824.08</ele>
        <time>2021-08-02T12:08:33Z</time>
      </trkpt>
      <trkpt lat="42.26027" lon="0.1533">
        <ele>824.82</ele>
        <time>2021-08-02T12:08:35Z</time>
      </trkpt>
      <trkpt lat="42.26003" lon="0.15325">
        <ele>828.18</ele>
        <time>2021-08-02T12:08:40Z</time>
      </trkpt>
      <trkpt lat="42.25998" lon="0.15324">
        <ele>828.78</ele>
        <time>2021-08-02T12:08:41Z</time>
      </trkpt>
      <trkpt lat="42.2598" lon="0.15306">
        <ele>832.03</ele>
        <time>2021-08-02T12:08:46Z</time>
      </trkpt>
      <trkpt lat="42.25948" lon="0.15242">
        <ele>835.16</ele>
        <time>2021-08-02T12:08:53Z</time>
      </trkpt>
      <trkpt lat="42.25938" lon="0.15211">
        <ele>836.7</ele>
        <time>2021-08-02T12:08:56Z</time>
      </trkpt>
      <trkpt lat="42.25917" lon="0.15162">
        <ele>839.04</ele>
        <time>2021-08-02T12:09:01Z</time>
      </trkpt>
      <trkpt lat="42.25896" lon="0.15118">
        <ele>840.7</ele>
        <time>2021-08-02T12:09:07Z</time>
      </trkpt>
      <trkpt lat="42.25873" lon="0.15054">
        <ele>840.04</ele>
        <time>2021-08-02T12:09:13Z</time>
      </trkpt>
      <trkpt lat="42.2585" lon="0.14993">
        <ele>837.94</ele>
        <time>2021-08-02T12:09:18Z</time>
      </trkpt>
      <trkpt lat="42.25815" lon="0.1496">
        <ele>836.44</ele>
        <time>2021-08-02T12:09:25Z</time>
      </trkpt>
      <trkpt lat="42.25811" lon="0.14952">
        <ele>836.72</ele>
        <time>2021-08-02T12:09:27Z</time>
      </trkpt>
      <trkpt lat="42.25804" lon="0.14913">
        <ele>838.21</ele>
        <time>2021-08-02T12:09:32Z</time>
      </trkpt>
      <trkpt lat="42.25803" lon="0.14871">
        <ele>839.88</ele>
        <time>2021-08-02T12:09:36Z</time>
      </trkpt>
      <trkpt lat="42.25807" lon="0.14843">
        <ele>840.39</ele>
        <time>2021-08-02T12:09:39Z</time>
      </trkpt>
      <trkpt lat="42.25786" lon="0.14789">
        <ele>841.87</ele>
        <time>2021-08-02T12:09:46Z</time>
      </trkpt>
      <trkpt lat="42.25774" lon="0.14782">
        <ele>842.35</ele>
        <time>2021-08-02T12:09:48Z</time>
      </trkpt>
      <trkpt lat="42.25754" lon="0.14761">
        <ele>844.24</ele>
        <time>2021-08-02T12:09:53Z</time>
      </trkpt>
      <trkpt lat="42.25736" lon="0.14735">
        <ele>845.92</ele>
        <time>2021-08-02T12:09:57Z</time>
      </trkpt>
      <trkpt lat="42.25684" lon="0.14722">
        <ele>850</ele>
        <time>2021-08-02T12:10:04Z</time>
      </trkpt>
      <trkpt lat="42.25662" lon="0.14742">
        <ele>853.56</ele>
        <time>2021-08-02T12:10:08Z</time>
      </trkpt>
      <trkpt lat="42.25654" lon="0.14749">
        <ele>856.98</ele>
        <time>2021-08-02T12:10:11Z</time>
      </trkpt>
      <trkpt lat="42.25639" lon="0.14738">
        <ele>860.83</ele>
        <time>2021-08-02T12:10:15Z</time>
      </trkpt>
      <trkpt lat="42.2562" lon="0.14702">
        <ele>865.3</ele>
        <time>2021-08-02T12:10:20Z</time>
      </trkpt>
      <trkpt lat="42.25592" lon="0.14686">
        <ele>868.03</ele>
        <time>2021-08-02T12:10:24Z</time>
      </trkpt>
      <trkpt lat="42.25557" lon="0.14658">
        <ele>871.84</ele>
        <time>2021-08-02T12:10:30Z</time>
      </trkpt>
      <trkpt lat="42.25547" lon="0.14624">
        <ele>873.46</ele>
        <time>2021-08-02T12:10:33Z</time>
      </trkpt>
      <trkpt lat="42.25528" lon="0.14584">
        <ele>876.66</ele>
        <time>2021-08-02T12:10:38Z</time>
      </trkpt>
      <trkpt lat="42.25495" lon="0.14561">
        <ele>880.2</ele>
        <time>2021-08-02T12:10:42Z</time>
      </trkpt>
      <trkpt lat="42.25471" lon="0.14533">
        <ele>883.77</ele>
        <time>2021-08-02T12:10:46Z</time>
      </trkpt>
      <trkpt lat="42.25458" lon="0.14505">
        <ele>886.95</ele>
        <time>2021-08-02T12:10:49Z</time>
      </trkpt>
      <trkpt lat="42.25444" lon="0.14472">
        <ele>891.76</ele>
        <time>2021-08-02T12:10:53Z</time>
      </trkpt>
      <trkpt lat="42.25423" lon="0.14457">
        <ele>895.12</ele>
        <time>2021-08-02T12:10:56Z</time>
      </trkpt>
      <trkpt lat="42.2539" lon="0.14442">
        <ele>899.58</ele>
        <time>2021-08-02T12:11:00Z</time>
      </trkpt>
      <trkpt lat="42.25362" lon="0.1443">
        <ele>904.07</ele>
        <time>2021-08-02T12:11:04Z</time>
      </trkpt>
      <trkpt lat="42.25356" lon="0.14427">
        <ele>905.1</ele>
        <time>2021-08-02T12:11:05Z</time>
      </trkpt>
      <trkpt lat="42.25333" lon="0.14425">
        <ele>909.8</ele>
        <time>2021-08-02T12:11:09Z</time>
      </trkpt>
      <trkpt lat="42.25311" lon="0.14426">
        <ele>914.51</ele>
        <time>2021-08-02T12:11:13Z</time>
      </trkpt>
      <trkpt lat="42.25295" lon="0.14429">
        <ele>918.86</ele>
        <time>2021-08-02T12:11:17Z</time>
      </trkpt>
      <trkpt lat="42.25293" lon="0.14432">
        <ele>922.65</ele>
        <time>2021-08-02T12:11:21Z</time>
      </trkpt>
      <trkpt lat="42.25285" lon="0.14436">
        <ele>925.66</ele>
        <time>2021-08-02T12:11:26Z</time>
      </trkpt>
      <trkpt lat="42.25278" lon="0.14438">
        <ele>926.51</ele>
        <time>2021-08-02T12:11:28Z</time>
      </trkpt>
      <trkpt lat="42.25266" lon="0.14422">
        <ele>928.92</ele>
        <time>2021-08-02T12:11:33Z</time>
      </trkpt>
      <trkpt lat="42.25252" lon="0.14399">
        <ele>932.85</ele>
        <time>2021-08-02T12:11:39Z</time>
      </trkpt>
      <trkpt lat="42.25231" lon="0.14377">
        <ele>936.13</ele>
        <time>2021-08-02T12:11:44Z</time>
      </trkpt>
      <trkpt lat="42.25227" lon="0.14373">
        <ele>936.97</ele>
        <time>2021-08-02T12:11:45Z</time>
      </trkpt>
      <trkpt lat="42.25205" lon="0.14346">
        <ele>941.2</ele>
        <time>2021-08-02T12:11:50Z</time>
      </trkpt>
      <trkpt lat="42.25185" lon="0.1432">
        <ele>944.88</ele>
        <time>2021-08-02T12:11:54Z</time>
      </trkpt>
      <trkpt lat="42.25167" lon="0.14293">
        <ele>948.55</ele>
        <time>2021-08-02T12:11:58Z</time>
      </trkpt>
      <trkpt lat="42.25156" lon="0.14273">
        <ele>953.15</ele>
        <time>2021-08-02T12:12:01Z</time>
      </trkpt>
      <trkpt lat="42.25154" lon="0.14269">
        <ele>954.38</ele>
        <time>2021-08-02T12:12:02Z</time>
      </trkpt>
      <trkpt lat="42.25145" lon="0.1427">
        <ele>959.12</ele>
        <time>2021-08-02T12:12:06Z</time>
      </trkpt>
      <trkpt lat="42.25145" lon="0.14275">
        <ele>960.32</ele>
        <time>2021-08-02T12:12:07Z</time>
      </trkpt>
      <trkpt lat="42.25144" lon="0.14313">
        <ele>966.05</ele>
        <time>2021-08-02T12:12:13Z</time>
      </trkpt>
      <trkpt lat="42.25143" lon="0.14335">
        <ele>968.99</ele>
        <time>2021-08-02T12:12:17Z</time>
      </trkpt>
      <trkpt lat="42.25123" lon="0.14357">
        <ele>973.04</ele>
        <time>2021-08-02T12:12:24Z</time>
      </trkpt>
      <trkpt lat="42.25119" lon="0.14348">
        <ele>974.07</ele>
        <time>2021-08-02T12:12:26Z</time>
      </trkpt>
      <trkpt lat="42.25115" lon="0.14336">
        <ele>975.42</ele>
        <time>2021-08-02T12:12:28Z</time>
      </trkpt>
      <trkpt lat="42.25105" lon="0.14309">
        <ele>978.57</ele>
        <time>2021-08-02T12:12:33Z</time>
      </trkpt>
      <trkpt lat="42.25096" lon="0.14286">
        <ele>983.01</ele>
        <time>2021-08-02T12:12:38Z</time>
      </trkpt>
      <trkpt lat="42.25082" lon="0.14274">
        <ele>986.74</ele>
        <time>2021-08-02T12:12:42Z</time>
      </trkpt>
      <trkpt lat="42.25067" lon="0.14261">
        <ele>990.51</ele>
        <time>2021-08-02T12:12:46Z</time>
      </trkpt>
      <trkpt lat="42.25054" lon="0.14246">
        <ele>993.84</ele>
        <time>2021-08-02T12:12:50Z</time>
      </trkpt>
      <trkpt lat="42.2504" lon="0.1423">
        <ele>997.56</ele>
        <time>2021-08-02T12:12:54Z</time>
      </trkpt>
      <trkpt lat="42.25026" lon="0.14214">
        <ele>1001.11</ele>
        <time>2021-08-02T12:12:58Z</time>
      </trkpt>
      <trkpt lat="42.2501" lon="0.14191">
        <ele>1004.8</ele>
        <time>2021-08-02T12:13:03Z</time>
      </trkpt>
      <trkpt lat="42.25002" lon="0.14177">
        <ele>1007.92</ele>
        <time>2021-08-02T12:13:06Z</time>
      </trkpt>
      <trkpt lat="42.24993" lon="0.14163">
        <ele>1010.88</ele>
        <time>2021-08-02T12:13:09Z</time>
      </trkpt>
      <trkpt lat="42.24979" lon="0.14147">
        <ele>1014.84</ele>
        <time>2021-08-02T12:13:13Z</time>
      </trkpt>
      <trkpt lat="42.24971" lon="0.14141">
        <ele>1016.78</ele>
        <time>2021-08-02T12:13:15Z</time>
      </trkpt>
      <trkpt lat="42.24951" lon="0.14133">
        <ele>1021.57</ele>
        <time>2021-08-02T12:13:20Z</time>
      </trkpt>
      <trkpt lat="42.2493" lon="0.14122">
        <ele>1026.1</ele>
        <time>2021-08-02T12:13:25Z</time>
      </trkpt>
      <trkpt lat="42.24912" lon="0.1411">
        <ele>1029.8</ele>
        <time>2021-08-02T12:13:29Z</time>
      </trkpt>
      <trkpt lat="42.24894" lon="0.14093">
        <ele>1033.17</ele>
        <time>2021-08-02T12:13:33Z</time>
      </trkpt>
      <trkpt lat="42.24881" lon="0.14084">
        <ele>1037.35</ele>
        <time>2021-08-02T12:13:38Z</time>
      </trkpt>
      <trkpt lat="42.24877" lon="0.14082">
        <ele>1037.35</ele>
        <time>2021-08-02T12:13:39Z</time>
      </trkpt>
      <trkpt lat="42.24852" lon="0.14061">
        <ele>1040.6</ele>
        <time>2021-08-02T12:13:44Z</time>
      </trkpt>
      <trkpt lat="42.24838" lon="0.14044">
        <ele>1042.3</ele>
        <time>2021-08-02T12:13:47Z</time>
      </trkpt>
      <trkpt lat="42.24834" lon="0.14037">
        <ele>1042.85</ele>
        <time>2021-08-02T12:13:48Z</time>
      </trkpt>
      <trkpt lat="42.24832" lon="0.14031">
        <ele>1043.33</ele>
        <time>2021-08-02T12:13:49Z</time>
      </trkpt>
      <trkpt lat="42.24831" lon="0.14024">
        <ele>1043.73</ele>
        <time>2021-08-02T12:13:50Z</time>
      </trkpt>
      <trkpt lat="42.24831" lon="0.14017">
        <ele>1044.08</ele>
        <time>2021-08-02T12:13:51Z</time>
      </trkpt>
      <trkpt lat="42.24831" lon="0.14007">
        <ele>1044.55</ele>
        <time>2021-08-02T12:13:53Z</time>
      </trkpt>
      <trkpt lat="42.2483" lon="0.14003">
        <ele>1045.08</ele>
        <time>2021-08-02T12:14:06Z</time>
      </trkpt>
      <trkpt lat="42.2483" lon="0.14003">
        <ele>1046.12</ele>
        <time>2021-08-02T12:14:26Z</time>
      </trkpt>
      <trkpt lat="42.24837" lon="0.1401">
        <ele>1046.4</ele>
        <time>2021-08-02T12:17:30Z</time>
      </trkpt>
      <trkpt lat="42.24833" lon="0.14003">
        <ele>1046.4</ele>
        <time>2021-08-02T12:17:43Z</time>
      </trkpt>
      <trkpt lat="42.24829" lon="0.13999">
        <ele>1045.53</ele>
        <time>2021-08-02T12:17:50Z</time>
      </trkpt>
      <trkpt lat="42.24831" lon="0.14002">
        <ele>1044.18</ele>
        <time>2021-08-02T12:17:55Z</time>
      </trkpt>
      <trkpt lat="42.24831" lon="0.14026">
        <ele>1044.22</ele>
        <time>2021-08-02T12:18:01Z</time>
      </trkpt>
      <trkpt lat="42.24833" lon="0.14063">
        <ele>1044.53</ele>
        <time>2021-08-02T12:18:05Z</time>
      </trkpt>
      <trkpt lat="42.24832" lon="0.14073">
        <ele>1044.73</ele>
        <time>2021-08-02T12:18:06Z</time>
      </trkpt>
      <trkpt lat="42.2483" lon="0.14082">
        <ele>1045.05</ele>
        <time>2021-08-02T12:18:07Z</time>
      </trkpt>
      <trkpt lat="42.24818" lon="0.14117">
        <ele>1047.07</ele>
        <time>2021-08-02T12:18:11Z</time>
      </trkpt>
      <trkpt lat="42.248" lon="0.1416">
        <ele>1050.15</ele>
        <time>2021-08-02T12:18:16Z</time>
      </trkpt>
      <trkpt lat="42.24797" lon="0.14168">
        <ele>1050.88</ele>
        <time>2021-08-02T12:18:17Z</time>
      </trkpt>
      <trkpt lat="42.24797" lon="0.14174">
        <ele>1051.64</ele>
        <time>2021-08-02T12:18:18Z</time>
      </trkpt>
      <trkpt lat="42.24796" lon="0.14178">
        <ele>1052.34</ele>
        <time>2021-08-02T12:18:19Z</time>
      </trkpt>
      <trkpt lat="42.24796" lon="0.14186">
        <ele>1055.43</ele>
        <time>2021-08-02T12:18:25Z</time>
      </trkpt>
      <trkpt lat="42.24795" lon="0.14187">
        <ele>1057.15</ele>
        <time>2021-08-02T12:18:34Z</time>
      </trkpt>
      <trkpt lat="42.24795" lon="0.14186">
        <ele>1057.23</ele>
        <time>2021-08-02T12:18:35Z</time>
      </trkpt>
      <trkpt lat="42.24796" lon="0.14184">
        <ele>1057.31</ele>
        <time>2021-08-02T12:18:36Z</time>
      </trkpt>
      <trkpt lat="42.248" lon="0.1418">
        <ele>1057.96</ele>
        <time>2021-08-02T12:18:48Z</time>
      </trkpt>
      <trkpt lat="42.24802" lon="0.14182">
        <ele>1057.96</ele>
        <time>2021-08-02T12:18:49Z</time>
      </trkpt>
      <trkpt lat="42.24804" lon="0.14182">
        <ele>1057.95</ele>
        <time>2021-08-02T12:18:50Z</time>
      </trkpt>
      <trkpt lat="42.24806" lon="0.14182">
        <ele>1057.94</ele>
        <time>2021-08-02T12:18:51Z</time>
      </trkpt>
      <trkpt lat="42.24807" lon="0.14181">
        <ele>1057.92</ele>
        <time>2021-08-02T12:18:52Z</time>
      </trkpt>
      <trkpt lat="42.24805" lon="0.14182">
        <ele>1057.91</ele>
        <time>2021-08-02T12:18:54Z</time>
      </trkpt>
      <trkpt lat="42.24803" lon="0.14182">
        <ele>1057.91</ele>
        <time>2021-08-02T12:18:55Z</time>
      </trkpt>
      <trkpt lat="42.24802" lon="0.14183">
        <ele>1057.91</ele>
        <time>2021-08-02T12:18:56Z</time>
      </trkpt>
      <trkpt lat="42.248" lon="0.14184">
        <ele>1058.25</ele>
        <time>2021-08-02T12:19:17Z</time>
      </trkpt>
      <trkpt lat="42.248" lon="0.14184">
        <ele>1061.29</ele>
        <time>2021-08-02T12:20:06Z</time>
      </trkpt>
      <trkpt lat="42.248" lon="0.14184">
        <ele>1061.97</ele>
        <time>2021-08-02T12:24:08Z</time>
      </trkpt>
      <trkpt lat="42.248" lon="0.14184">
        <ele>1061.97</ele>
        <time>2021-08-02T12:27:11Z</time>
      </trkpt>
      <trkpt lat="42.248" lon="0.14184">
        <ele>1061.97</ele>
        <time>2021-08-02T12:30:28Z</time>
      </trkpt>
      <trkpt lat="42.248" lon="0.14184">
        <ele>1061.97</ele>
        <time>2021-08-02T12:31:30Z</time>
      </trkpt>
      <trkpt lat="42.24801" lon="0.14183">
        <ele>1061.97</ele>
        <time>2021-08-02T12:32:42Z</time>
      </trkpt>
      <trkpt lat="42.24801" lon="0.14182">
        <ele>1061.97</ele>
        <time>2021-08-02T12:33:39Z</time>
      </trkpt>
      <trkpt lat="42.24801" lon="0.14182">
        <ele>1061.97</ele>
        <time>2021-08-02T12:36:50Z</time>
      </trkpt>
      <trkpt lat="42.24801" lon="0.14183">
        <ele>1061.97</ele>
        <time>2021-08-02T12:38:54Z</time>
      </trkpt>
      <trkpt lat="42.24801" lon="0.14183">
        <ele>1061.97</ele>
        <time>2021-08-02T12:40:10Z</time>
      </trkpt>
      <trkpt lat="42.24801" lon="0.14183">
        <ele>1061.97</ele>
        <time>2021-08-02T12:42:37Z</time>
      </trkpt>
      <trkpt lat="42.248" lon="0.14183">
        <ele>1061.97</ele>
        <time>2021-08-02T12:44:12Z</time>
      </trkpt>
      <trkpt lat="42.248" lon="0.14184">
        <ele>1061.97</ele>
        <time>2021-08-02T12:49:07Z</time>
      </trkpt>
      <trkpt lat="42.24801" lon="0.14184">
        <ele>1061.97</ele>
        <time>2021-08-02T12:52:45Z</time>
      </trkpt>
      <trkpt lat="42.248" lon="0.14184">
        <ele>1061.97</ele>
        <time>2021-08-02T12:53:55Z</time>
      </trkpt>
      <trkpt lat="42.248" lon="0.14184">
        <ele>1061.97</ele>
        <time>2021-08-02T12:54:41Z</time>
      </trkpt>
      <trkpt lat="42.24799" lon="0.14184">
        <ele>1061.97</ele>
        <time>2021-08-02T12:56:14Z</time>
      </trkpt>
      <trkpt lat="42.24799" lon="0.14184">
        <ele>1061.97</ele>
        <time>2021-08-02T12:57:15Z</time>
      </trkpt>
      <trkpt lat="42.24799" lon="0.14185">
        <ele>1061.97</ele>
        <time>2021-08-02T12:58:06Z</time>
      </trkpt>
      <trkpt lat="42.24799" lon="0.14184">
        <ele>1061.97</ele>
        <time>2021-08-02T12:58:55Z</time>
      </trkpt>
      <trkpt lat="42.248" lon="0.14185">
        <ele>1061.97</ele>
        <time>2021-08-02T12:59:52Z</time>
      </trkpt>
      <trkpt lat="42.24799" lon="0.14185">
        <ele>1061.97</ele>
        <time>2021-08-02T13:00:35Z</time>
      </trkpt>
      <trkpt lat="42.248" lon="0.14185">
        <ele>1061.97</ele>
        <time>2021-08-02T13:01:28Z</time>
      </trkpt>
      <trkpt lat="42.248" lon="0.14185">
        <ele>1061.97</ele>
        <time>2021-08-02T13:02:12Z</time>
      </trkpt>
      <trkpt lat="42.248" lon="0.14185">
        <ele>1061.97</ele>
        <time>2021-08-02T13:03:23Z</time>
      </trkpt>
      <trkpt lat="42.248" lon="0.14185">
        <ele>1061.97</ele>
        <time>2021-08-02T13:05:17Z</time>
      </trkpt>
      <trkpt lat="42.24799" lon="0.14184">
        <ele>1061.97</ele>
        <time>2021-08-02T13:06:10Z</time>
      </trkpt>
      <trkpt lat="42.24799" lon="0.14184">
        <ele>1061.97</ele>
        <time>2021-08-02T13:07:30Z</time>
      </trkpt>
      <trkpt lat="42.24799" lon="0.14184">
        <ele>1061.97</ele>
        <time>2021-08-02T13:08:18Z</time>
      </trkpt>
      <trkpt lat="42.24799" lon="0.14183">
        <ele>1061.97</ele>
        <time>2021-08-02T13:09:38Z</time>
      </trkpt>
      <trkpt lat="42.24799" lon="0.14183">
        <ele>1061.97</ele>
        <time>2021-08-02T13:10:48Z</time>
      </trkpt>
      <trkpt lat="42.24799" lon="0.14184">
        <ele>1061.97</ele>
        <time>2021-08-02T13:12:53Z</time>
      </trkpt>
      <trkpt lat="42.24798" lon="0.14184">
        <ele>1061.97</ele>
        <time>2021-08-02T13:14:10Z</time>
      </trkpt>
      <trkpt lat="42.24798" lon="0.14184">
        <ele>1061.97</ele>
        <time>2021-08-02T13:15:36Z</time>
      </trkpt>
      <trkpt lat="42.24798" lon="0.14184">
        <ele>1061.97</ele>
        <time>2021-08-02T13:19:29Z</time>
      </trkpt>
      <trkpt lat="42.24799" lon="0.14184">
        <ele>1061.97</ele>
        <time>2021-08-02T13:23:21Z</time>
      </trkpt>
      <trkpt lat="42.24799" lon="0.14184">
        <ele>1061.97</ele>
        <time>2021-08-02T13:26:26Z</time>
      </trkpt>
      <trkpt lat="42.24799" lon="0.14184">
        <ele>1061.97</ele>
        <time>2021-08-02T13:31:30Z</time>
      </trkpt>
      <trkpt lat="42.24799" lon="0.14184">
        <ele>1061.97</ele>
        <time>2021-08-02T13:34:34Z</time>
      </trkpt>
      <trkpt lat="42.24799" lon="0.14184">
        <ele>1061.97</ele>
        <time>2021-08-02T13:35:30Z</time>
      </trkpt>
      <trkpt lat="42.24799" lon="0.14185">
        <ele>1061.97</ele>
        <time>2021-08-02T13:36:23Z</time>
      </trkpt>
      <trkpt lat="42.24799" lon="0.14184">
        <ele>1061.97</ele>
        <time>2021-08-02T13:37:40Z</time>
      </trkpt>
      <trkpt lat="42.24799" lon="0.14184">
        <ele>1061.97</ele>
        <time>2021-08-02T13:39:13Z</time>
      </trkpt>
      <trkpt lat="42.24801" lon="0.14184">
        <ele>1061.97</ele>
        <time>2021-08-02T13:40:18Z</time>
      </trkpt>
      <trkpt lat="42.24802" lon="0.14182">
        <ele>1061.97</ele>
        <time>2021-08-02T13:40:19Z</time>
      </trkpt>
      <trkpt lat="42.24804" lon="0.14181">
        <ele>1061.97</ele>
        <time>2021-08-02T13:40:20Z</time>
      </trkpt>
      <trkpt lat="42.24804" lon="0.14179">
        <ele>1061.97</ele>
        <time>2021-08-02T13:40:21Z</time>
      </trkpt>
      <trkpt lat="42.24805" lon="0.14177">
        <ele>1062.04</ele>
        <time>2021-08-02T13:40:22Z</time>
      </trkpt>
      <trkpt lat="42.24804" lon="0.14176">
        <ele>1062.2</ele>
        <time>2021-08-02T13:40:23Z</time>
      </trkpt>
      <trkpt lat="42.24804" lon="0.14174">
        <ele>1062.33</ele>
        <time>2021-08-02T13:40:24Z</time>
      </trkpt>
      <trkpt lat="42.24804" lon="0.14178">
        <ele>1062.43</ele>
        <time>2021-08-02T13:40:28Z</time>
      </trkpt>
      <trkpt lat="42.24805" lon="0.14179">
        <ele>1062.39</ele>
        <time>2021-08-02T13:40:29Z</time>
      </trkpt>
      <trkpt lat="42.24805" lon="0.14179">
        <ele>1061.75</ele>
        <time>2021-08-02T13:40:48Z</time>
      </trkpt>
      <trkpt lat="42.24804" lon="0.14178">
        <ele>1061.59</ele>
        <time>2021-08-02T13:41:20Z</time>
      </trkpt>
      <trkpt lat="42.24798" lon="0.14177">
        <ele>1061.47</ele>
        <time>2021-08-02T13:41:24Z</time>
      </trkpt>
      <trkpt lat="42.24797" lon="0.14175">
        <ele>1061.46</ele>
        <time>2021-08-02T13:41:25Z</time>
      </trkpt>
      <trkpt lat="42.24797" lon="0.14172">
        <ele>1061.45</ele>
        <time>2021-08-02T13:41:26Z</time>
      </trkpt>
      <trkpt lat="42.24797" lon="0.14169">
        <ele>1061.45</ele>
        <time>2021-08-02T13:41:27Z</time>
      </trkpt>
      <trkpt lat="42.24797" lon="0.14166">
        <ele>1061.45</ele>
        <time>2021-08-02T13:41:28Z</time>
      </trkpt>
      <trkpt lat="42.24798" lon="0.14163">
        <ele>1061.45</ele>
        <time>2021-08-02T13:41:29Z</time>
      </trkpt>
      <trkpt lat="42.24799" lon="0.14159">
        <ele>1061.42</ele>
        <time>2021-08-02T13:41:30Z</time>
      </trkpt>
      <trkpt lat="42.24801" lon="0.14156">
        <ele>1061.35</ele>
        <time>2021-08-02T13:41:31Z</time>
      </trkpt>
      <trkpt lat="42.24802" lon="0.14152">
        <ele>1061.25</ele>
        <time>2021-08-02T13:41:32Z</time>
      </trkpt>
      <trkpt lat="42.24804" lon="0.14148">
        <ele>1061.14</ele>
        <time>2021-08-02T13:41:33Z</time>
      </trkpt>
      <trkpt lat="42.24805" lon="0.14144">
        <ele>1061.03</ele>
        <time>2021-08-02T13:41:34Z</time>
      </trkpt>
      <trkpt lat="42.24821" lon="0.14107">
        <ele>1057.89</ele>
        <time>2021-08-02T13:41:44Z</time>
      </trkpt>
      <trkpt lat="42.24833" lon="0.14061">
        <ele>1054.76</ele>
        <time>2021-08-02T13:41:54Z</time>
      </trkpt>
      <trkpt lat="42.24829" lon="0.14016">
        <ele>1051.63</ele>
        <time>2021-08-02T13:42:01Z</time>
      </trkpt>
      <trkpt lat="42.24813" lon="0.13939">
        <ele>1048.62</ele>
        <time>2021-08-02T13:42:12Z</time>
      </trkpt>
      <trkpt lat="42.24808" lon="0.13901">
        <ele>1048.23</ele>
        <time>2021-08-02T13:42:18Z</time>
      </trkpt>
      <trkpt lat="42.24799" lon="0.13878">
        <ele>1046.11</ele>
        <time>2021-08-02T13:42:26Z</time>
      </trkpt>
      <trkpt lat="42.24797" lon="0.13887">
        <ele>1045.37</ele>
        <time>2021-08-02T13:42:28Z</time>
      </trkpt>
      <trkpt lat="42.24789" lon="0.13975">
        <ele>1043.13</ele>
        <time>2021-08-02T13:42:41Z</time>
      </trkpt>
      <trkpt lat="42.2479" lon="0.13996">
        <ele>1042.57</ele>
        <time>2021-08-02T13:42:44Z</time>
      </trkpt>
      <trkpt lat="42.24775" lon="0.14048">
        <ele>1040.07</ele>
        <time>2021-08-02T13:42:51Z</time>
      </trkpt>
      <trkpt lat="42.24734" lon="0.14099">
        <ele>1037.08</ele>
        <time>2021-08-02T13:43:00Z</time>
      </trkpt>
      <trkpt lat="42.24652" lon="0.14141">
        <ele>1033.84</ele>
        <time>2021-08-02T13:43:12Z</time>
      </trkpt>
      <trkpt lat="42.24591" lon="0.14169">
        <ele>1034.92</ele>
        <time>2021-08-02T13:43:21Z</time>
      </trkpt>
      <trkpt lat="42.24576" lon="0.14184">
        <ele>1036.09</ele>
        <time>2021-08-02T13:43:24Z</time>
      </trkpt>
      <trkpt lat="42.24543" lon="0.14273">
        <ele>1036.25</ele>
        <time>2021-08-02T13:43:36Z</time>
      </trkpt>
      <trkpt lat="42.24539" lon="0.14292">
        <ele>1035.16</ele>
        <time>2021-08-02T13:43:38Z</time>
      </trkpt>
      <trkpt lat="42.24543" lon="0.14368">
        <ele>1031.32</ele>
        <time>2021-08-02T13:43:45Z</time>
      </trkpt>
      <trkpt lat="42.24548" lon="0.14386">
        <ele>1030.54</ele>
        <time>2021-08-02T13:43:47Z</time>
      </trkpt>
      <trkpt lat="42.24553" lon="0.14402">
        <ele>1029.68</ele>
        <time>2021-08-02T13:43:49Z</time>
      </trkpt>
      <trkpt lat="42.24557" lon="0.1444">
        <ele>1027.97</ele>
        <time>2021-08-02T13:43:53Z</time>
      </trkpt>
      <trkpt lat="42.24557" lon="0.14471">
        <ele>1026.4</ele>
        <time>2021-08-02T13:43:56Z</time>
      </trkpt>
      <trkpt lat="42.24544" lon="0.14519">
        <ele>1022.33</ele>
        <time>2021-08-02T13:44:02Z</time>
      </trkpt>
      <trkpt lat="42.24525" lon="0.14554">
        <ele>1017.71</ele>
        <time>2021-08-02T13:44:07Z</time>
      </trkpt>
      <trkpt lat="42.2451" lon="0.14588">
        <ele>1014.06</ele>
        <time>2021-08-02T13:44:11Z</time>
      </trkpt>
      <trkpt lat="42.24502" lon="0.14632">
        <ele>1009.49</ele>
        <time>2021-08-02T13:44:16Z</time>
      </trkpt>
      <trkpt lat="42.24502" lon="0.14641">
        <ele>1008.61</ele>
        <time>2021-08-02T13:44:17Z</time>
      </trkpt>
      <trkpt lat="42.24504" lon="0.14665">
        <ele>1005.99</ele>
        <time>2021-08-02T13:44:20Z</time>
      </trkpt>
      <trkpt lat="42.24492" lon="0.147">
        <ele>1002.35</ele>
        <time>2021-08-02T13:44:26Z</time>
      </trkpt>
      <trkpt lat="42.24482" lon="0.14703">
        <ele>1001.51</ele>
        <time>2021-08-02T13:44:28Z</time>
      </trkpt>
      <trkpt lat="42.2444" lon="0.14691">
        <ele>996.9</ele>
        <time>2021-08-02T13:44:37Z</time>
      </trkpt>
      <trkpt lat="42.24414" lon="0.14673">
        <ele>993.8</ele>
        <time>2021-08-02T13:44:42Z</time>
      </trkpt>
      <trkpt lat="42.24396" lon="0.14653">
        <ele>991.36</ele>
        <time>2021-08-02T13:44:46Z</time>
      </trkpt>
      <trkpt lat="42.24384" lon="0.14633">
        <ele>988.88</ele>
        <time>2021-08-02T13:44:50Z</time>
      </trkpt>
      <trkpt lat="42.24372" lon="0.14595">
        <ele>984.94</ele>
        <time>2021-08-02T13:44:58Z</time>
      </trkpt>
      <trkpt lat="42.24379" lon="0.14558">
        <ele>982.27</ele>
        <time>2021-08-02T13:45:07Z</time>
      </trkpt>
      <trkpt lat="42.24379" lon="0.14546">
        <ele>981.4</ele>
        <time>2021-08-02T13:45:12Z</time>
      </trkpt>
      <trkpt lat="42.24366" lon="0.14546">
        <ele>980.55</ele>
        <time>2021-08-02T13:45:17Z</time>
      </trkpt>
      <trkpt lat="42.24352" lon="0.14558">
        <ele>979.96</ele>
        <time>2021-08-02T13:45:20Z</time>
      </trkpt>
      <trkpt lat="42.24299" lon="0.146">
        <ele>976.77</ele>
        <time>2021-08-02T13:45:28Z</time>
      </trkpt>
      <trkpt lat="42.24275" lon="0.14629">
        <ele>973.56</ele>
        <time>2021-08-02T13:45:32Z</time>
      </trkpt>
      <trkpt lat="42.24254" lon="0.14662">
        <ele>969.64</ele>
        <time>2021-08-02T13:45:36Z</time>
      </trkpt>
      <trkpt lat="42.24243" lon="0.1471">
        <ele>965.02</ele>
        <time>2021-08-02T13:45:41Z</time>
      </trkpt>
      <trkpt lat="42.24245" lon="0.14718">
        <ele>964.04</ele>
        <time>2021-08-02T13:45:42Z</time>
      </trkpt>
      <trkpt lat="42.24243" lon="0.1476">
        <ele>958.98</ele>
        <time>2021-08-02T13:45:47Z</time>
      </trkpt>
      <trkpt lat="42.24229" lon="0.14785">
        <ele>954.94</ele>
        <time>2021-08-02T13:45:51Z</time>
      </trkpt>
      <trkpt lat="42.24209" lon="0.14812">
        <ele>949.34</ele>
        <time>2021-08-02T13:45:56Z</time>
      </trkpt>
      <trkpt lat="42.24196" lon="0.14831">
        <ele>945.89</ele>
        <time>2021-08-02T13:45:59Z</time>
      </trkpt>
      <trkpt lat="42.24191" lon="0.14838">
        <ele>944.76</ele>
        <time>2021-08-02T13:46:00Z</time>
      </trkpt>
      <trkpt lat="42.24176" lon="0.14871">
        <ele>940.55</ele>
        <time>2021-08-02T13:46:04Z</time>
      </trkpt>
      <trkpt lat="42.2417" lon="0.14888">
        <ele>938.4</ele>
        <time>2021-08-02T13:46:06Z</time>
      </trkpt>
      <trkpt lat="42.24155" lon="0.14906">
        <ele>934.2</ele>
        <time>2021-08-02T13:46:09Z</time>
      </trkpt>
      <trkpt lat="42.24128" lon="0.14908">
        <ele>930.54</ele>
        <time>2021-08-02T13:46:13Z</time>
      </trkpt>
      <trkpt lat="42.24121" lon="0.14906">
        <ele>929.76</ele>
        <time>2021-08-02T13:46:14Z</time>
      </trkpt>
      <trkpt lat="42.24093" lon="0.14896">
        <ele>925.59</ele>
        <time>2021-08-02T13:46:19Z</time>
      </trkpt>
      <trkpt lat="42.2409" lon="0.14875">
        <ele>921.75</ele>
        <time>2021-08-02T13:46:24Z</time>
      </trkpt>
      <trkpt lat="42.24107" lon="0.14858">
        <ele>918.44</ele>
        <time>2021-08-02T13:46:29Z</time>
      </trkpt>
      <trkpt lat="42.24087" lon="0.14827">
        <ele>915.28</ele>
        <time>2021-08-02T13:46:36Z</time>
      </trkpt>
      <trkpt lat="42.24059" lon="0.14824">
        <ele>913.33</ele>
        <time>2021-08-02T13:46:40Z</time>
      </trkpt>
      <trkpt lat="42.24018" lon="0.14798">
        <ele>909.43</ele>
        <time>2021-08-02T13:46:46Z</time>
      </trkpt>
      <trkpt lat="42.23984" lon="0.14809">
        <ele>908.05</ele>
        <time>2021-08-02T13:46:52Z</time>
      </trkpt>
      <trkpt lat="42.23961" lon="0.14792">
        <ele>907.92</ele>
        <time>2021-08-02T13:46:57Z</time>
      </trkpt>
      <trkpt lat="42.23955" lon="0.14778">
        <ele>908.1</ele>
        <time>2021-08-02T13:46:59Z</time>
      </trkpt>
      <trkpt lat="42.23911" lon="0.14765">
        <ele>908.37</ele>
        <time>2021-08-02T13:47:05Z</time>
      </trkpt>
      <trkpt lat="42.23901" lon="0.14762">
        <ele>908.36</ele>
        <time>2021-08-02T13:47:06Z</time>
      </trkpt>
      <trkpt lat="42.2388" lon="0.14754">
        <ele>908.18</ele>
        <time>2021-08-02T13:47:08Z</time>
      </trkpt>
      <trkpt lat="42.23831" lon="0.1472">
        <ele>907.31</ele>
        <time>2021-08-02T13:47:13Z</time>
      </trkpt>
      <trkpt lat="42.23815" lon="0.14696">
        <ele>907.26</ele>
        <time>2021-08-02T13:47:15Z</time>
      </trkpt>
      <trkpt lat="42.23781" lon="0.14665">
        <ele>907.63</ele>
        <time>2021-08-02T13:47:19Z</time>
      </trkpt>
      <trkpt lat="42.23766" lon="0.14652">
        <ele>907.68</ele>
        <time>2021-08-02T13:47:21Z</time>
      </trkpt>
      <trkpt lat="42.2371" lon="0.14655">
        <ele>906.08</ele>
        <time>2021-08-02T13:47:27Z</time>
      </trkpt>
      <trkpt lat="42.23666" lon="0.14644">
        <ele>903.27</ele>
        <time>2021-08-02T13:47:32Z</time>
      </trkpt>
      <trkpt lat="42.23582" lon="0.14545">
        <ele>900.46</ele>
        <time>2021-08-02T13:47:42Z</time>
      </trkpt>
      <trkpt lat="42.23538" lon="0.1448">
        <ele>900.07</ele>
        <time>2021-08-02T13:47:48Z</time>
      </trkpt>
      <trkpt lat="42.2347" lon="0.14409">
        <ele>898.27</ele>
        <time>2021-08-02T13:47:56Z</time>
      </trkpt>
      <trkpt lat="42.23427" lon="0.14383">
        <ele>893.88</ele>
        <time>2021-08-02T13:48:02Z</time>
      </trkpt>
      <trkpt lat="42.23406" lon="0.14359">
        <ele>889.31</ele>
        <time>2021-08-02T13:48:07Z</time>
      </trkpt>
      <trkpt lat="42.23398" lon="0.14351">
        <ele>887.63</ele>
        <time>2021-08-02T13:48:09Z</time>
      </trkpt>
      <trkpt lat="42.23372" lon="0.14339">
        <ele>883.26</ele>
        <time>2021-08-02T13:48:14Z</time>
      </trkpt>
      <trkpt lat="42.23352" lon="0.14335">
        <ele>881</ele>
        <time>2021-08-02T13:48:17Z</time>
      </trkpt>
      <trkpt lat="42.23333" lon="0.14336">
        <ele>878.44</ele>
        <time>2021-08-02T13:48:20Z</time>
      </trkpt>
      <trkpt lat="42.23321" lon="0.1434">
        <ele>876.52</ele>
        <time>2021-08-02T13:48:22Z</time>
      </trkpt>
      <trkpt lat="42.23291" lon="0.14361">
        <ele>873.41</ele>
        <time>2021-08-02T13:48:26Z</time>
      </trkpt>
      <trkpt lat="42.23232" lon="0.14379">
        <ele>869.51</ele>
        <time>2021-08-02T13:48:31Z</time>
      </trkpt>
      <trkpt lat="42.23206" lon="0.1438">
        <ele>868.15</ele>
        <time>2021-08-02T13:48:33Z</time>
      </trkpt>
      <trkpt lat="42.23155" lon="0.14409">
        <ele>865.2</ele>
        <time>2021-08-02T13:48:38Z</time>
      </trkpt>
      <trkpt lat="42.23068" lon="0.14432">
        <ele>861.56</ele>
        <time>2021-08-02T13:48:46Z</time>
      </trkpt>
      <trkpt lat="42.23057" lon="0.14426">
        <ele>861.18</ele>
        <time>2021-08-02T13:48:47Z</time>
      </trkpt>
      <trkpt lat="42.23033" lon="0.14414">
        <ele>860.43</ele>
        <time>2021-08-02T13:48:49Z</time>
      </trkpt>
      <trkpt lat="42.22981" lon="0.1442">
        <ele>860.04</ele>
        <time>2021-08-02T13:48:54Z</time>
      </trkpt>
      <trkpt lat="42.22956" lon="0.14434">
        <ele>860.68</ele>
        <time>2021-08-02T13:48:57Z</time>
      </trkpt>
      <trkpt lat="42.22926" lon="0.14416">
        <ele>862.95</ele>
        <time>2021-08-02T13:49:01Z</time>
      </trkpt>
      <trkpt lat="42.22902" lon="0.144">
        <ele>866</ele>
        <time>2021-08-02T13:49:06Z</time>
      </trkpt>
      <trkpt lat="42.2288" lon="0.14403">
        <ele>868.46</ele>
        <time>2021-08-02T13:49:10Z</time>
      </trkpt>
      <trkpt lat="42.22829" lon="0.14381">
        <ele>872.5</ele>
        <time>2021-08-02T13:49:17Z</time>
      </trkpt>
      <trkpt lat="42.228" lon="0.14345">
        <ele>875.34</ele>
        <time>2021-08-02T13:49:21Z</time>
      </trkpt>
      <trkpt lat="42.22779" lon="0.14328">
        <ele>876.67</ele>
        <time>2021-08-02T13:49:24Z</time>
      </trkpt>
      <trkpt lat="42.22772" lon="0.14325">
        <ele>876.86</ele>
        <time>2021-08-02T13:49:25Z</time>
      </trkpt>
      <trkpt lat="42.22757" lon="0.14318">
        <ele>876.9</ele>
        <time>2021-08-02T13:49:27Z</time>
      </trkpt>
      <trkpt lat="42.22737" lon="0.14303">
        <ele>876.16</ele>
        <time>2021-08-02T13:49:30Z</time>
      </trkpt>
      <trkpt lat="42.22685" lon="0.14307">
        <ele>872.86</ele>
        <time>2021-08-02T13:49:38Z</time>
      </trkpt>
      <trkpt lat="42.22667" lon="0.14307">
        <ele>871.8</ele>
        <time>2021-08-02T13:49:40Z</time>
      </trkpt>
      <trkpt lat="42.22648" lon="0.14303">
        <ele>870.37</ele>
        <time>2021-08-02T13:49:42Z</time>
      </trkpt>
      <trkpt lat="42.22595" lon="0.14315">
        <ele>868.01</ele>
        <time>2021-08-02T13:49:48Z</time>
      </trkpt>
      <trkpt lat="42.22536" lon="0.1435">
        <ele>865.44</ele>
        <time>2021-08-02T13:49:54Z</time>
      </trkpt>
      <trkpt lat="42.22478" lon="0.14345">
        <ele>862.51</ele>
        <time>2021-08-02T13:49:59Z</time>
      </trkpt>
      <trkpt lat="42.22456" lon="0.14336">
        <ele>861.24</ele>
        <time>2021-08-02T13:50:01Z</time>
      </trkpt>
      <trkpt lat="42.22383" lon="0.1433">
        <ele>857.17</ele>
        <time>2021-08-02T13:50:09Z</time>
      </trkpt>
      <trkpt lat="42.22375" lon="0.14328">
        <ele>856.64</ele>
        <time>2021-08-02T13:50:10Z</time>
      </trkpt>
      <trkpt lat="42.22317" lon="0.14326">
        <ele>852.24</ele>
        <time>2021-08-02T13:50:16Z</time>
      </trkpt>
      <trkpt lat="42.22272" lon="0.1433">
        <ele>848.45</ele>
        <time>2021-08-02T13:50:20Z</time>
      </trkpt>
      <trkpt lat="42.2224" lon="0.14337">
        <ele>844.83</ele>
        <time>2021-08-02T13:50:23Z</time>
      </trkpt>
      <trkpt lat="42.22208" lon="0.14351">
        <ele>841.46</ele>
        <time>2021-08-02T13:50:26Z</time>
      </trkpt>
      <trkpt lat="42.22187" lon="0.14362">
        <ele>839.2</ele>
        <time>2021-08-02T13:50:28Z</time>
      </trkpt>
      <trkpt lat="42.22142" lon="0.14378">
        <ele>834.17</ele>
        <time>2021-08-02T13:50:32Z</time>
      </trkpt>
      <trkpt lat="42.2211" lon="0.14379">
        <ele>830.82</ele>
        <time>2021-08-02T13:50:35Z</time>
      </trkpt>
      <trkpt lat="42.22064" lon="0.14359">
        <ele>827.24</ele>
        <time>2021-08-02T13:50:40Z</time>
      </trkpt>
      <trkpt lat="42.22027" lon="0.14359">
        <ele>826.51</ele>
        <time>2021-08-02T13:50:44Z</time>
      </trkpt>
      <trkpt lat="42.21936" lon="0.14381">
        <ele>827.69</ele>
        <time>2021-08-02T13:50:54Z</time>
      </trkpt>
      <trkpt lat="42.21863" lon="0.14408">
        <ele>828.92</ele>
        <time>2021-08-02T13:51:03Z</time>
      </trkpt>
      <trkpt lat="42.21842" lon="0.14439">
        <ele>827.94</ele>
        <time>2021-08-02T13:51:07Z</time>
      </trkpt>
      <trkpt lat="42.21784" lon="0.14473">
        <ele>824.1</ele>
        <time>2021-08-02T13:51:14Z</time>
      </trkpt>
      <trkpt lat="42.21754" lon="0.14473">
        <ele>822.3</ele>
        <time>2021-08-02T13:51:17Z</time>
      </trkpt>
      <trkpt lat="42.21676" lon="0.14482">
        <ele>819.22</ele>
        <time>2021-08-02T13:51:26Z</time>
      </trkpt>
      <trkpt lat="42.21563" lon="0.14407">
        <ele>818.03</ele>
        <time>2021-08-02T13:51:38Z</time>
      </trkpt>
      <trkpt lat="42.21511" lon="0.14363">
        <ele>821.02</ele>
        <time>2021-08-02T13:51:45Z</time>
      </trkpt>
      <trkpt lat="42.21496" lon="0.14353">
        <ele>821.66</ele>
        <time>2021-08-02T13:51:47Z</time>
      </trkpt>
      <trkpt lat="42.21469" lon="0.14329">
        <ele>821.97</ele>
        <time>2021-08-02T13:51:51Z</time>
      </trkpt>
      <trkpt lat="42.21427" lon="0.14317">
        <ele>821.19</ele>
        <time>2021-08-02T13:51:56Z</time>
      </trkpt>
      <trkpt lat="42.2137" lon="0.14333">
        <ele>817.59</ele>
        <time>2021-08-02T13:52:03Z</time>
      </trkpt>
      <trkpt lat="42.21335" lon="0.14346">
        <ele>814.81</ele>
        <time>2021-08-02T13:52:07Z</time>
      </trkpt>
      <trkpt lat="42.21289" lon="0.14346">
        <ele>811.01</ele>
        <time>2021-08-02T13:52:12Z</time>
      </trkpt>
      <trkpt lat="42.21254" lon="0.14342">
        <ele>807.79</ele>
        <time>2021-08-02T13:52:16Z</time>
      </trkpt>
      <trkpt lat="42.21239" lon="0.14339">
        <ele>806.16</ele>
        <time>2021-08-02T13:52:18Z</time>
      </trkpt>
      <trkpt lat="42.21203" lon="0.14319">
        <ele>802.33</ele>
        <time>2021-08-02T13:52:23Z</time>
      </trkpt>
      <trkpt lat="42.21196" lon="0.14312">
        <ele>799.33</ele>
        <time>2021-08-02T13:52:28Z</time>
      </trkpt>
      <trkpt lat="42.21188" lon="0.14293">
        <ele>796.91</ele>
        <time>2021-08-02T13:52:34Z</time>
      </trkpt>
      <trkpt lat="42.21174" lon="0.14281">
        <ele>795.79</ele>
        <time>2021-08-02T13:52:38Z</time>
      </trkpt>
      <trkpt lat="42.2116" lon="0.14276">
        <ele>794.65</ele>
        <time>2021-08-02T13:52:41Z</time>
      </trkpt>
      <trkpt lat="42.2114" lon="0.14277">
        <ele>792.24</ele>
        <time>2021-08-02T13:52:45Z</time>
      </trkpt>
      <trkpt lat="42.21131" lon="0.1428">
        <ele>791.06</ele>
        <time>2021-08-02T13:52:47Z</time>
      </trkpt>
      <trkpt lat="42.21094" lon="0.1428">
        <ele>786.4</ele>
        <time>2021-08-02T13:52:53Z</time>
      </trkpt>
      <trkpt lat="42.21053" lon="0.14273">
        <ele>782.82</ele>
        <time>2021-08-02T13:52:58Z</time>
      </trkpt>
      <trkpt lat="42.21018" lon="0.14261">
        <ele>779.73</ele>
        <time>2021-08-02T13:53:02Z</time>
      </trkpt>
      <trkpt lat="42.20986" lon="0.14248">
        <ele>776.56</ele>
        <time>2021-08-02T13:53:06Z</time>
      </trkpt>
      <trkpt lat="42.20959" lon="0.14234">
        <ele>773.4</ele>
        <time>2021-08-02T13:53:10Z</time>
      </trkpt>
      <trkpt lat="42.20927" lon="0.14232">
        <ele>769.43</ele>
        <time>2021-08-02T13:53:15Z</time>
      </trkpt>
      <trkpt lat="42.2092" lon="0.14233">
        <ele>768.82</ele>
        <time>2021-08-02T13:53:16Z</time>
      </trkpt>
      <trkpt lat="42.20888" lon="0.14245">
        <ele>764.72</ele>
        <time>2021-08-02T13:53:22Z</time>
      </trkpt>
      <trkpt lat="42.20881" lon="0.14246">
        <ele>763.5</ele>
        <time>2021-08-02T13:53:24Z</time>
      </trkpt>
      <trkpt lat="42.20865" lon="0.1426">
        <ele>759.54</ele>
        <time>2021-08-02T13:53:31Z</time>
      </trkpt>
      <trkpt lat="42.20863" lon="0.14274">
        <ele>756.38</ele>
        <time>2021-08-02T13:53:39Z</time>
      </trkpt>
      <trkpt lat="42.20878" lon="0.14309">
        <ele>753.91</ele>
        <time>2021-08-02T13:53:47Z</time>
      </trkpt>
      <trkpt lat="42.20878" lon="0.14336">
        <ele>752.46</ele>
        <time>2021-08-02T13:53:51Z</time>
      </trkpt>
      <trkpt lat="42.20882" lon="0.14377">
        <ele>750.12</ele>
        <time>2021-08-02T13:53:56Z</time>
      </trkpt>
      <trkpt lat="42.20878" lon="0.14417">
        <ele>745.59</ele>
        <time>2021-08-02T13:54:02Z</time>
      </trkpt>
      <trkpt lat="42.20871" lon="0.1442">
        <ele>744.87</ele>
        <time>2021-08-02T13:54:03Z</time>
      </trkpt>
      <trkpt lat="42.2085" lon="0.1446">
        <ele>740.43</ele>
        <time>2021-08-02T13:54:09Z</time>
      </trkpt>
      <trkpt lat="42.2084" lon="0.14499">
        <ele>737.17</ele>
        <time>2021-08-02T13:54:13Z</time>
      </trkpt>
      <trkpt lat="42.20835" lon="0.14509">
        <ele>736.41</ele>
        <time>2021-08-02T13:54:14Z</time>
      </trkpt>
      <trkpt lat="42.20801" lon="0.14573">
        <ele>731.51</ele>
        <time>2021-08-02T13:54:20Z</time>
      </trkpt>
      <trkpt lat="42.2077" lon="0.14582">
        <ele>728.18</ele>
        <time>2021-08-02T13:54:24Z</time>
      </trkpt>
      <trkpt lat="42.20726" lon="0.14572">
        <ele>724.59</ele>
        <time>2021-08-02T13:54:29Z</time>
      </trkpt>
      <trkpt lat="42.2067" lon="0.14584">
        <ele>720.23</ele>
        <time>2021-08-02T13:54:35Z</time>
      </trkpt>
      <trkpt lat="42.20631" lon="0.14602">
        <ele>716.79</ele>
        <time>2021-08-02T13:54:40Z</time>
      </trkpt>
      <trkpt lat="42.20585" lon="0.14621">
        <ele>713.31</ele>
        <time>2021-08-02T13:54:45Z</time>
      </trkpt>
      <trkpt lat="42.20548" lon="0.1464">
        <ele>710.08</ele>
        <time>2021-08-02T13:54:49Z</time>
      </trkpt>
      <trkpt lat="42.20513" lon="0.14658">
        <ele>706.25</ele>
        <time>2021-08-02T13:54:53Z</time>
      </trkpt>
      <trkpt lat="42.2048" lon="0.14671">
        <ele>702.47</ele>
        <time>2021-08-02T13:54:57Z</time>
      </trkpt>
      <trkpt lat="42.20463" lon="0.14678">
        <ele>700.8</ele>
        <time>2021-08-02T13:54:59Z</time>
      </trkpt>
      <trkpt lat="42.2043" lon="0.14708">
        <ele>696.84</ele>
        <time>2021-08-02T13:55:03Z</time>
      </trkpt>
      <trkpt lat="42.20404" lon="0.1474">
        <ele>693.63</ele>
        <time>2021-08-02T13:55:06Z</time>
      </trkpt>
      <trkpt lat="42.20375" lon="0.14773">
        <ele>690.45</ele>
        <time>2021-08-02T13:55:09Z</time>
      </trkpt>
      <trkpt lat="42.20355" lon="0.14794">
        <ele>688.07</ele>
        <time>2021-08-02T13:55:11Z</time>
      </trkpt>
      <trkpt lat="42.20332" lon="0.14806">
        <ele>683.74</ele>
        <time>2021-08-02T13:55:14Z</time>
      </trkpt>
      <trkpt lat="42.20327" lon="0.14806">
        <ele>680.63</ele>
        <time>2021-08-02T13:55:16Z</time>
      </trkpt>
      <trkpt lat="42.20325" lon="0.14805">
        <ele>677.41</ele>
        <time>2021-08-02T13:55:18Z</time>
      </trkpt>
      <trkpt lat="42.20325" lon="0.14805">
        <ele>673.94</ele>
        <time>2021-08-02T13:55:21Z</time>
      </trkpt>
      <trkpt lat="42.20325" lon="0.14805">
        <ele>670.87</ele>
        <time>2021-08-02T13:55:25Z</time>
      </trkpt>
      <trkpt lat="42.20324" lon="0.14805">
        <ele>668.15</ele>
        <time>2021-08-02T13:55:41Z</time>
      </trkpt>
      <trkpt lat="42.20298" lon="0.14779">
        <ele>667.78</ele>
        <time>2021-08-02T13:55:50Z</time>
      </trkpt>
      <trkpt lat="42.20291" lon="0.14772">
        <ele>667.81</ele>
        <time>2021-08-02T13:55:51Z</time>
      </trkpt>
      <trkpt lat="42.20258" lon="0.14736">
        <ele>668.55</ele>
        <time>2021-08-02T13:55:55Z</time>
      </trkpt>
      <trkpt lat="42.20234" lon="0.14657">
        <ele>669.96</ele>
        <time>2021-08-02T13:56:00Z</time>
      </trkpt>
      <trkpt lat="42.20269" lon="0.14601">
        <ele>671.08</ele>
        <time>2021-08-02T13:56:04Z</time>
      </trkpt>
      <trkpt lat="42.20336" lon="0.14599">
        <ele>671.12</ele>
        <time>2021-08-02T13:56:09Z</time>
      </trkpt>
      <trkpt lat="42.20365" lon="0.14552">
        <ele>670.29</ele>
        <time>2021-08-02T13:56:13Z</time>
      </trkpt>
      <trkpt lat="42.20368" lon="0.14535">
        <ele>669.95</ele>
        <time>2021-08-02T13:56:14Z</time>
      </trkpt>
      <trkpt lat="42.20388" lon="0.14388">
        <ele>666.1</ele>
        <time>2021-08-02T13:56:22Z</time>
      </trkpt>
      <trkpt lat="42.20404" lon="0.14294">
        <ele>662.25</ele>
        <time>2021-08-02T13:56:27Z</time>
      </trkpt>
      <trkpt lat="42.20423" lon="0.14217">
        <ele>658.3</ele>
        <time>2021-08-02T13:56:31Z</time>
      </trkpt>
      <trkpt lat="42.20441" lon="0.14157">
        <ele>655.15</ele>
        <time>2021-08-02T13:56:34Z</time>
      </trkpt>
      <trkpt lat="42.20464" lon="0.14093">
        <ele>651.87</ele>
        <time>2021-08-02T13:56:37Z</time>
      </trkpt>
      <trkpt lat="42.20501" lon="0.14011">
        <ele>648.03</ele>
        <time>2021-08-02T13:56:41Z</time>
      </trkpt>
      <trkpt lat="42.2051" lon="0.1399">
        <ele>647.12</ele>
        <time>2021-08-02T13:56:42Z</time>
      </trkpt>
      <trkpt lat="42.20546" lon="0.13822">
        <ele>643.29</ele>
        <time>2021-08-02T13:56:49Z</time>
      </trkpt>
      <trkpt lat="42.2059" lon="0.13637">
        <ele>640.96</ele>
        <time>2021-08-02T13:56:58Z</time>
      </trkpt>
      <trkpt lat="42.20611" lon="0.13571">
        <ele>640.48</ele>
        <time>2021-08-02T13:57:03Z</time>
      </trkpt>
      <trkpt lat="42.20674" lon="0.13498">
        <ele>639.56</ele>
        <time>2021-08-02T13:57:13Z</time>
      </trkpt>
      <trkpt lat="42.20723" lon="0.13467">
        <ele>639.44</ele>
        <time>2021-08-02T13:57:18Z</time>
      </trkpt>
      <trkpt lat="42.20753" lon="0.13392">
        <ele>638.55</ele>
        <time>2021-08-02T13:57:24Z</time>
      </trkpt>
      <trkpt lat="42.20778" lon="0.13311">
        <ele>639.37</ele>
        <time>2021-08-02T13:57:30Z</time>
      </trkpt>
      <trkpt lat="42.20802" lon="0.13295">
        <ele>640.52</ele>
        <time>2021-08-02T13:57:32Z</time>
      </trkpt>
      <trkpt lat="42.20874" lon="0.13243">
        <ele>644.77</ele>
        <time>2021-08-02T13:57:38Z</time>
      </trkpt>
      <trkpt lat="42.20924" lon="0.13203">
        <ele>648.1</ele>
        <time>2021-08-02T13:57:42Z</time>
      </trkpt>
      <trkpt lat="42.20945" lon="0.13182">
        <ele>649.76</ele>
        <time>2021-08-02T13:57:44Z</time>
      </trkpt>
      <trkpt lat="42.20964" lon="0.13133">
        <ele>652.99</ele>
        <time>2021-08-02T13:57:47Z</time>
      </trkpt>
      <trkpt lat="42.20988" lon="0.12999">
        <ele>656.79</ele>
        <time>2021-08-02T13:57:54Z</time>
      </trkpt>
      <trkpt lat="42.20995" lon="0.12922">
        <ele>657.77</ele>
        <time>2021-08-02T13:57:58Z</time>
      </trkpt>
      <trkpt lat="42.2099" lon="0.12782">
        <ele>659.78</ele>
        <time>2021-08-02T13:58:05Z</time>
      </trkpt>
      <trkpt lat="42.20995" lon="0.12765">
        <ele>660.15</ele>
        <time>2021-08-02T13:58:06Z</time>
      </trkpt>
      <trkpt lat="42.21006" lon="0.12721">
        <ele>660.98</ele>
        <time>2021-08-02T13:58:09Z</time>
      </trkpt>
      <trkpt lat="42.21007" lon="0.12705">
        <ele>661.28</ele>
        <time>2021-08-02T13:58:15Z</time>
      </trkpt>
      <trkpt lat="42.21007" lon="0.12708">
        <ele>660.84</ele>
        <time>2021-08-02T13:58:43Z</time>
      </trkpt>
      <trkpt lat="42.21007" lon="0.12708">
        <ele>661.33</ele>
        <time>2021-08-02T13:59:09Z</time>
      </trkpt>
      <trkpt lat="42.21015" lon="0.12694">
        <ele>661.47</ele>
        <time>2021-08-02T13:59:14Z</time>
      </trkpt>
      <trkpt lat="42.21038" lon="0.12623">
        <ele>662.34</ele>
        <time>2021-08-02T13:59:22Z</time>
      </trkpt>
      <trkpt lat="42.21043" lon="0.1261">
        <ele>662.83</ele>
        <time>2021-08-02T13:59:23Z</time>
      </trkpt>
      <trkpt lat="42.21082" lon="0.12538">
        <ele>664.41</ele>
        <time>2021-08-02T13:59:28Z</time>
      </trkpt>
      <trkpt lat="42.21129" lon="0.12489">
        <ele>665.87</ele>
        <time>2021-08-02T13:59:33Z</time>
      </trkpt>
      <trkpt lat="42.21159" lon="0.12413">
        <ele>667.59</ele>
        <time>2021-08-02T13:59:39Z</time>
      </trkpt>
      <trkpt lat="42.21196" lon="0.12363">
        <ele>670.16</ele>
        <time>2021-08-02T13:59:44Z</time>
      </trkpt>
      <trkpt lat="42.21197" lon="0.12353">
        <ele>672</ele>
        <time>2021-08-02T13:59:48Z</time>
      </trkpt>
      <trkpt lat="42.21196" lon="0.12352">
        <ele>672.88</ele>
        <time>2021-08-02T13:59:56Z</time>
      </trkpt>
      <trkpt lat="42.21195" lon="0.12358">
        <ele>673.33</ele>
        <time>2021-08-02T14:00:03Z</time>
      </trkpt>
      <trkpt lat="42.21204" lon="0.12338">
        <ele>673.32</ele>
        <time>2021-08-02T14:00:10Z</time>
      </trkpt>
      <trkpt lat="42.21203" lon="0.12339">
        <ele>673.16</ele>
        <time>2021-08-02T14:00:11Z</time>
      </trkpt>
      <trkpt lat="42.21202" lon="0.12341">
        <ele>673.01</ele>
        <time>2021-08-02T14:00:19Z</time>
      </trkpt>
      <trkpt lat="42.21198" lon="0.12352">
        <ele>673.06</ele>
        <time>2021-08-02T14:00:23Z</time>
      </trkpt>
      <trkpt lat="42.2119" lon="0.12366">
        <ele>673.16</ele>
        <time>2021-08-02T14:00:25Z</time>
      </trkpt>
      <trkpt lat="42.21165" lon="0.12395">
        <ele>673.63</ele>
        <time>2021-08-02T14:00:28Z</time>
      </trkpt>
      <trkpt lat="42.21135" lon="0.12484">
        <ele>673.75</ele>
        <time>2021-08-02T14:00:34Z</time>
      </trkpt>
      <trkpt lat="42.21116" lon="0.12496">
        <ele>672.88</ele>
        <time>2021-08-02T14:00:36Z</time>
      </trkpt>
      <trkpt lat="42.21076" lon="0.1254">
        <ele>670.59</ele>
        <time>2021-08-02T14:00:41Z</time>
      </trkpt>
      <trkpt lat="42.21051" lon="0.12583">
        <ele>669.38</ele>
        <time>2021-08-02T14:00:44Z</time>
      </trkpt>
      <trkpt lat="42.21012" lon="0.12681">
        <ele>667.81</ele>
        <time>2021-08-02T14:00:50Z</time>
      </trkpt>
      <trkpt lat="42.21002" lon="0.12693">
        <ele>665.13</ele>
        <time>2021-08-02T14:00:55Z</time>
      </trkpt>
      <trkpt lat="42.21008" lon="0.12694">
        <ele>662.13</ele>
        <time>2021-08-02T14:01:05Z</time>
      </trkpt>
      <trkpt lat="42.2101" lon="0.12701">
        <ele>661.76</ele>
        <time>2021-08-02T14:01:23Z</time>
      </trkpt>
      <trkpt lat="42.2101" lon="0.127">
        <ele>661.79</ele>
        <time>2021-08-02T14:02:36Z</time>
      </trkpt>
      <trkpt lat="42.21014" lon="0.12686">
        <ele>661.51</ele>
        <time>2021-08-02T14:02:49Z</time>
      </trkpt>
      <trkpt lat="42.21015" lon="0.12679">
        <ele>661.84</ele>
        <time>2021-08-02T14:03:09Z</time>
      </trkpt>
      <trkpt lat="42.21037" lon="0.12616">
        <ele>662.49</ele>
        <time>2021-08-02T14:03:15Z</time>
      </trkpt>
      <trkpt lat="42.21068" lon="0.12562">
        <ele>663.51</ele>
        <time>2021-08-02T14:03:19Z</time>
      </trkpt>
      <trkpt lat="42.21112" lon="0.12498">
        <ele>665.29</ele>
        <time>2021-08-02T14:03:24Z</time>
      </trkpt>
      <trkpt lat="42.21159" lon="0.12418">
        <ele>667.8</ele>
        <time>2021-08-02T14:03:31Z</time>
      </trkpt>
      <trkpt lat="42.21203" lon="0.12337">
        <ele>671.44</ele>
        <time>2021-08-02T14:03:37Z</time>
      </trkpt>
      <trkpt lat="42.21261" lon="0.12263">
        <ele>673.27</ele>
        <time>2021-08-02T14:03:43Z</time>
      </trkpt>
      <trkpt lat="42.21305" lon="0.12262">
        <ele>671.73</ele>
        <time>2021-08-02T14:03:48Z</time>
      </trkpt>
      <trkpt lat="42.21355" lon="0.12292">
        <ele>669.83</ele>
        <time>2021-08-02T14:03:55Z</time>
      </trkpt>
      <trkpt lat="42.21396" lon="0.12276">
        <ele>669.78</ele>
        <time>2021-08-02T14:03:59Z</time>
      </trkpt>
      <trkpt lat="42.21417" lon="0.12249">
        <ele>670.22</ele>
        <time>2021-08-02T14:04:05Z</time>
      </trkpt>
      <trkpt lat="42.21414" lon="0.12246">
        <ele>670.53</ele>
        <time>2021-08-02T14:04:11Z</time>
      </trkpt>
      <trkpt lat="42.21412" lon="0.12243">
        <ele>670.55</ele>
        <time>2021-08-02T14:04:12Z</time>
      </trkpt>
      <trkpt lat="42.21382" lon="0.12239">
        <ele>670.43</ele>
        <time>2021-08-02T14:04:18Z</time>
      </trkpt>
      <trkpt lat="42.21357" lon="0.12214">
        <ele>672.58</ele>
        <time>2021-08-02T14:04:25Z</time>
      </trkpt>
      <trkpt lat="42.21317" lon="0.12169">
        <ele>676.68</ele>
        <time>2021-08-02T14:04:32Z</time>
      </trkpt>
      <trkpt lat="42.21292" lon="0.1213">
        <ele>679.69</ele>
        <time>2021-08-02T14:04:36Z</time>
      </trkpt>
      <trkpt lat="42.21306" lon="0.12096">
        <ele>683.18</ele>
        <time>2021-08-02T14:04:40Z</time>
      </trkpt>
      <trkpt lat="42.21333" lon="0.12065">
        <ele>687.18</ele>
        <time>2021-08-02T14:04:44Z</time>
      </trkpt>
      <trkpt lat="42.21348" lon="0.12035">
        <ele>690.28</ele>
        <time>2021-08-02T14:04:47Z</time>
      </trkpt>
      <trkpt lat="42.21361" lon="0.11999">
        <ele>694.4</ele>
        <time>2021-08-02T14:04:51Z</time>
      </trkpt>
      <trkpt lat="42.21371" lon="0.11975">
        <ele>697.86</ele>
        <time>2021-08-02T14:04:54Z</time>
      </trkpt>
      <trkpt lat="42.21374" lon="0.11937">
        <ele>702.35</ele>
        <time>2021-08-02T14:04:58Z</time>
      </trkpt>
      <trkpt lat="42.21369" lon="0.11901">
        <ele>705.05</ele>
        <time>2021-08-02T14:05:01Z</time>
      </trkpt>
      <trkpt lat="42.21387" lon="0.11874">
        <ele>710.19</ele>
        <time>2021-08-02T14:05:07Z</time>
      </trkpt>
      <trkpt lat="42.21439" lon="0.11904">
        <ele>713.03</ele>
        <time>2021-08-02T14:05:12Z</time>
      </trkpt>
      <trkpt lat="42.21466" lon="0.1191">
        <ele>714.17</ele>
        <time>2021-08-02T14:05:14Z</time>
      </trkpt>
      <trkpt lat="42.21516" lon="0.1187">
        <ele>718.05</ele>
        <time>2021-08-02T14:05:20Z</time>
      </trkpt>
      <trkpt lat="42.21504" lon="0.11823">
        <ele>721.3</ele>
        <time>2021-08-02T14:05:24Z</time>
      </trkpt>
      <trkpt lat="42.21498" lon="0.11799">
        <ele>723.06</ele>
        <time>2021-08-02T14:05:26Z</time>
      </trkpt>
      <trkpt lat="42.21502" lon="0.11765">
        <ele>727.86</ele>
        <time>2021-08-02T14:05:33Z</time>
      </trkpt>
      <trkpt lat="42.21507" lon="0.11726">
        <ele>730.97</ele>
        <time>2021-08-02T14:05:40Z</time>
      </trkpt>
      <trkpt lat="42.21522" lon="0.1169">
        <ele>732</ele>
        <time>2021-08-02T14:05:43Z</time>
      </trkpt>
      <trkpt lat="42.21547" lon="0.11566">
        <ele>735.39</ele>
        <time>2021-08-02T14:05:50Z</time>
      </trkpt>
      <trkpt lat="42.21552" lon="0.11547">
        <ele>735.68</ele>
        <time>2021-08-02T14:05:51Z</time>
      </trkpt>
      <trkpt lat="42.21582" lon="0.11471">
        <ele>736.82</ele>
        <time>2021-08-02T14:05:57Z</time>
      </trkpt>
      <trkpt lat="42.21552" lon="0.11442">
        <ele>738.41</ele>
        <time>2021-08-02T14:06:01Z</time>
      </trkpt>
      <trkpt lat="42.21517" lon="0.11423">
        <ele>740.74</ele>
        <time>2021-08-02T14:06:04Z</time>
      </trkpt>
      <trkpt lat="42.21477" lon="0.11373">
        <ele>743.82</ele>
        <time>2021-08-02T14:06:08Z</time>
      </trkpt>
      <trkpt lat="42.21435" lon="0.11297">
        <ele>747.33</ele>
        <time>2021-08-02T14:06:14Z</time>
      </trkpt>
      <trkpt lat="42.21452" lon="0.11265">
        <ele>748.77</ele>
        <time>2021-08-02T14:06:17Z</time>
      </trkpt>
      <trkpt lat="42.21475" lon="0.11229">
        <ele>750.69</ele>
        <time>2021-08-02T14:06:20Z</time>
      </trkpt>
      <trkpt lat="42.21499" lon="0.11153">
        <ele>755.42</ele>
        <time>2021-08-02T14:06:25Z</time>
      </trkpt>
      <trkpt lat="42.21507" lon="0.1111">
        <ele>758.61</ele>
        <time>2021-08-02T14:06:28Z</time>
      </trkpt>
      <trkpt lat="42.21515" lon="0.11102">
        <ele>759.54</ele>
        <time>2021-08-02T14:06:29Z</time>
      </trkpt>
      <trkpt lat="42.21523" lon="0.11038">
        <ele>765.48</ele>
        <time>2021-08-02T14:06:35Z</time>
      </trkpt>
      <trkpt lat="42.21519" lon="0.11025">
        <ele>766.45</ele>
        <time>2021-08-02T14:06:36Z</time>
      </trkpt>
      <trkpt lat="42.21482" lon="0.10963">
        <ele>771.56</ele>
        <time>2021-08-02T14:06:42Z</time>
      </trkpt>
      <trkpt lat="42.21467" lon="0.10912">
        <ele>774.82</ele>
        <time>2021-08-02T14:06:46Z</time>
      </trkpt>
      <trkpt lat="42.2148" lon="0.10878">
        <ele>777.96</ele>
        <time>2021-08-02T14:06:51Z</time>
      </trkpt>
      <trkpt lat="42.2148" lon="0.10878">
        <ele>781.08</ele>
        <time>2021-08-02T14:06:59Z</time>
      </trkpt>
      <trkpt lat="42.21482" lon="0.10876">
        <ele>781.31</ele>
        <time>2021-08-02T14:07:00Z</time>
      </trkpt>
      <trkpt lat="42.21483" lon="0.10853">
        <ele>782.06</ele>
        <time>2021-08-02T14:07:05Z</time>
      </trkpt>
      <trkpt lat="42.21451" lon="0.10812">
        <ele>784.16</ele>
        <time>2021-08-02T14:07:11Z</time>
      </trkpt>
      <trkpt lat="42.21405" lon="0.10796">
        <ele>787.04</ele>
        <time>2021-08-02T14:07:17Z</time>
      </trkpt>
      <trkpt lat="42.21386" lon="0.10803">
        <ele>788.06</ele>
        <time>2021-08-02T14:07:19Z</time>
      </trkpt>
      <trkpt lat="42.21344" lon="0.10802">
        <ele>788.89</ele>
        <time>2021-08-02T14:07:23Z</time>
      </trkpt>
      <trkpt lat="42.21309" lon="0.10792">
        <ele>789.62</ele>
        <time>2021-08-02T14:07:26Z</time>
      </trkpt>
      <trkpt lat="42.21262" lon="0.10807">
        <ele>790.68</ele>
        <time>2021-08-02T14:07:31Z</time>
      </trkpt>
      <trkpt lat="42.2125" lon="0.10816">
        <ele>790.9</ele>
        <time>2021-08-02T14:07:33Z</time>
      </trkpt>
      <trkpt lat="42.21206" lon="0.10819">
        <ele>791.14</ele>
        <time>2021-08-02T14:07:38Z</time>
      </trkpt>
      <trkpt lat="42.21153" lon="0.10837">
        <ele>790.66</ele>
        <time>2021-08-02T14:07:44Z</time>
      </trkpt>
      <trkpt lat="42.21145" lon="0.10843">
        <ele>788.9</ele>
        <time>2021-08-02T14:07:50Z</time>
      </trkpt>
      <trkpt lat="42.21086" lon="0.10901">
        <ele>786.79</ele>
        <time>2021-08-02T14:08:00Z</time>
      </trkpt>
      <trkpt lat="42.21079" lon="0.1091">
        <ele>786.43</ele>
        <time>2021-08-02T14:08:01Z</time>
      </trkpt>
      <trkpt lat="42.21019" lon="0.11013">
        <ele>782.66</ele>
        <time>2021-08-02T14:08:10Z</time>
      </trkpt>
      <trkpt lat="42.21014" lon="0.11023">
        <ele>782.06</ele>
        <time>2021-08-02T14:08:11Z</time>
      </trkpt>
      <trkpt lat="42.20986" lon="0.11109">
        <ele>779.09</ele>
        <time>2021-08-02T14:08:20Z</time>
      </trkpt>
      <trkpt lat="42.20965" lon="0.11137">
        <ele>777.73</ele>
        <time>2021-08-02T14:08:26Z</time>
      </trkpt>
      <trkpt lat="42.20907" lon="0.11172">
        <ele>777.2</ele>
        <time>2021-08-02T14:08:35Z</time>
      </trkpt>
      <trkpt lat="42.2086" lon="0.11201">
        <ele>778.74</ele>
        <time>2021-08-02T14:08:43Z</time>
      </trkpt>
      <trkpt lat="42.20843" lon="0.11213">
        <ele>780.07</ele>
        <time>2021-08-02T14:08:48Z</time>
      </trkpt>
      <trkpt lat="42.20812" lon="0.11222">
        <ele>780.17</ele>
        <time>2021-08-02T14:08:54Z</time>
      </trkpt>
      <trkpt lat="42.20799" lon="0.11217">
        <ele>780.11</ele>
        <time>2021-08-02T14:08:56Z</time>
      </trkpt>
      <trkpt lat="42.20765" lon="0.11219">
        <ele>779.38</ele>
        <time>2021-08-02T14:09:01Z</time>
      </trkpt>
      <trkpt lat="42.20756" lon="0.11222">
        <ele>778.79</ele>
        <time>2021-08-02T14:09:03Z</time>
      </trkpt>
      <trkpt lat="42.20737" lon="0.11217">
        <ele>776.11</ele>
        <time>2021-08-02T14:09:12Z</time>
      </trkpt>
      <trkpt lat="42.20723" lon="0.11235">
        <ele>776</ele>
        <time>2021-08-02T14:09:17Z</time>
      </trkpt>
      <trkpt lat="42.20702" lon="0.1125">
        <ele>776.49</ele>
        <time>2021-08-02T14:09:21Z</time>
      </trkpt>
      <trkpt lat="42.20681" lon="0.11271">
        <ele>777.53</ele>
        <time>2021-08-02T14:09:24Z</time>
      </trkpt>
      <trkpt lat="42.20652" lon="0.11295">
        <ele>778.81</ele>
        <time>2021-08-02T14:09:28Z</time>
      </trkpt>
      <trkpt lat="42.20629" lon="0.11325">
        <ele>780.14</ele>
        <time>2021-08-02T14:09:32Z</time>
      </trkpt>
      <trkpt lat="42.20606" lon="0.1135">
        <ele>781.79</ele>
        <time>2021-08-02T14:09:38Z</time>
      </trkpt>
      <trkpt lat="42.20594" lon="0.11376">
        <ele>783.03</ele>
        <time>2021-08-02T14:09:43Z</time>
      </trkpt>
      <trkpt lat="42.20564" lon="0.11398">
        <ele>785.37</ele>
        <time>2021-08-02T14:09:50Z</time>
      </trkpt>
      <trkpt lat="42.20513" lon="0.11436">
        <ele>787.86</ele>
        <time>2021-08-02T14:09:58Z</time>
      </trkpt>
      <trkpt lat="42.20498" lon="0.11446">
        <ele>788.28</ele>
        <time>2021-08-02T14:10:00Z</time>
      </trkpt>
      <trkpt lat="42.20463" lon="0.11511">
        <ele>791.16</ele>
        <time>2021-08-02T14:10:09Z</time>
      </trkpt>
      <trkpt lat="42.20422" lon="0.11543">
        <ele>792.94</ele>
        <time>2021-08-02T14:10:16Z</time>
      </trkpt>
      <trkpt lat="42.2038" lon="0.11521">
        <ele>793.23</ele>
        <time>2021-08-02T14:10:22Z</time>
      </trkpt>
      <trkpt lat="42.20347" lon="0.11553">
        <ele>794.77</ele>
        <time>2021-08-02T14:10:29Z</time>
      </trkpt>
      <trkpt lat="42.20319" lon="0.11577">
        <ele>795.92</ele>
        <time>2021-08-02T14:10:33Z</time>
      </trkpt>
      <trkpt lat="42.20269" lon="0.11607">
        <ele>799.67</ele>
        <time>2021-08-02T14:10:39Z</time>
      </trkpt>
      <trkpt lat="42.20233" lon="0.11632">
        <ele>803.1</ele>
        <time>2021-08-02T14:10:43Z</time>
      </trkpt>
      <trkpt lat="42.20215" lon="0.11649">
        <ele>804.66</ele>
        <time>2021-08-02T14:10:45Z</time>
      </trkpt>
      <trkpt lat="42.20169" lon="0.11661">
        <ele>808.38</ele>
        <time>2021-08-02T14:10:50Z</time>
      </trkpt>
      <trkpt lat="42.20133" lon="0.11663">
        <ele>812.33</ele>
        <time>2021-08-02T14:10:54Z</time>
      </trkpt>
      <trkpt lat="42.20099" lon="0.11669">
        <ele>816.33</ele>
        <time>2021-08-02T14:10:58Z</time>
      </trkpt>
      <trkpt lat="42.20092" lon="0.1167">
        <ele>817.35</ele>
        <time>2021-08-02T14:10:59Z</time>
      </trkpt>
      <trkpt lat="42.20067" lon="0.11697">
        <ele>821.87</ele>
        <time>2021-08-02T14:11:03Z</time>
      </trkpt>
      <trkpt lat="42.20037" lon="0.1173">
        <ele>823.9</ele>
        <time>2021-08-02T14:11:07Z</time>
      </trkpt>
      <trkpt lat="42.19974" lon="0.11743">
        <ele>825.75</ele>
        <time>2021-08-02T14:11:16Z</time>
      </trkpt>
      <trkpt lat="42.1994" lon="0.1175">
        <ele>824.96</ele>
        <time>2021-08-02T14:11:21Z</time>
      </trkpt>
      <trkpt lat="42.19906" lon="0.11738">
        <ele>823.2</ele>
        <time>2021-08-02T14:11:27Z</time>
      </trkpt>
      <trkpt lat="42.19882" lon="0.11731">
        <ele>821.72</ele>
        <time>2021-08-02T14:11:30Z</time>
      </trkpt>
      <trkpt lat="42.1986" lon="0.11702">
        <ele>820.03</ele>
        <time>2021-08-02T14:11:35Z</time>
      </trkpt>
      <trkpt lat="42.1985" lon="0.11677">
        <ele>820.73</ele>
        <time>2021-08-02T14:11:41Z</time>
      </trkpt>
      <trkpt lat="42.19835" lon="0.1166">
        <ele>822.2</ele>
        <time>2021-08-02T14:11:45Z</time>
      </trkpt>
      <trkpt lat="42.19825" lon="0.1165">
        <ele>824.18</ele>
        <time>2021-08-02T14:11:48Z</time>
      </trkpt>
      <trkpt lat="42.19819" lon="0.11641">
        <ele>825.38</ele>
        <time>2021-08-02T14:11:50Z</time>
      </trkpt>
      <trkpt lat="42.19811" lon="0.11619">
        <ele>828.36</ele>
        <time>2021-08-02T14:11:54Z</time>
      </trkpt>
      <trkpt lat="42.19783" lon="0.11605">
        <ele>832.15</ele>
        <time>2021-08-02T14:12:00Z</time>
      </trkpt>
      <trkpt lat="42.19751" lon="0.11602">
        <ele>835.35</ele>
        <time>2021-08-02T14:12:05Z</time>
      </trkpt>
      <trkpt lat="42.1972" lon="0.11565">
        <ele>837.84</ele>
        <time>2021-08-02T14:12:10Z</time>
      </trkpt>
      <trkpt lat="42.19691" lon="0.1152">
        <ele>842.15</ele>
        <time>2021-08-02T14:12:17Z</time>
      </trkpt>
      <trkpt lat="42.19665" lon="0.11492">
        <ele>844.81</ele>
        <time>2021-08-02T14:12:22Z</time>
      </trkpt>
      <trkpt lat="42.19621" lon="0.11489">
        <ele>847.4</ele>
        <time>2021-08-02T14:12:28Z</time>
      </trkpt>
      <trkpt lat="42.19578" lon="0.11499">
        <ele>848.06</ele>
        <time>2021-08-02T14:12:33Z</time>
      </trkpt>
      <trkpt lat="42.19543" lon="0.11483">
        <ele>846.76</ele>
        <time>2021-08-02T14:12:41Z</time>
      </trkpt>
      <trkpt lat="42.19513" lon="0.11448">
        <ele>847</ele>
        <time>2021-08-02T14:12:48Z</time>
      </trkpt>
      <trkpt lat="42.19473" lon="0.11424">
        <ele>848.7</ele>
        <time>2021-08-02T14:12:53Z</time>
      </trkpt>
      <trkpt lat="42.19445" lon="0.11395">
        <ele>850.13</ele>
        <time>2021-08-02T14:12:57Z</time>
      </trkpt>
      <trkpt lat="42.19397" lon="0.11333">
        <ele>853.18</ele>
        <time>2021-08-02T14:13:05Z</time>
      </trkpt>
      <trkpt lat="42.1937" lon="0.11298">
        <ele>856.96</ele>
        <time>2021-08-02T14:13:11Z</time>
      </trkpt>
      <trkpt lat="42.19362" lon="0.11293">
        <ele>857.66</ele>
        <time>2021-08-02T14:13:12Z</time>
      </trkpt>
      <trkpt lat="42.19356" lon="0.11288">
        <ele>858.24</ele>
        <time>2021-08-02T14:13:13Z</time>
      </trkpt>
      <trkpt lat="42.19352" lon="0.1128">
        <ele>858.64</ele>
        <time>2021-08-02T14:13:14Z</time>
      </trkpt>
      <trkpt lat="42.19346" lon="0.11265">
        <ele>858.94</ele>
        <time>2021-08-02T14:13:16Z</time>
      </trkpt>
      <trkpt lat="42.1933" lon="0.11255">
        <ele>858.58</ele>
        <time>2021-08-02T14:13:20Z</time>
      </trkpt>
      <trkpt lat="42.19301" lon="0.1126">
        <ele>857.07</ele>
        <time>2021-08-02T14:13:25Z</time>
      </trkpt>
      <trkpt lat="42.19295" lon="0.11258">
        <ele>856.68</ele>
        <time>2021-08-02T14:13:26Z</time>
      </trkpt>
      <trkpt lat="42.19274" lon="0.11216">
        <ele>855.33</ele>
        <time>2021-08-02T14:13:32Z</time>
      </trkpt>
      <trkpt lat="42.19271" lon="0.11185">
        <ele>854.66</ele>
        <time>2021-08-02T14:13:35Z</time>
      </trkpt>
      <trkpt lat="42.19246" lon="0.11142">
        <ele>852.09</ele>
        <time>2021-08-02T14:13:42Z</time>
      </trkpt>
      <trkpt lat="42.19233" lon="0.11135">
        <ele>851.2</ele>
        <time>2021-08-02T14:13:44Z</time>
      </trkpt>
      <trkpt lat="42.192" lon="0.11105">
        <ele>848.03</ele>
        <time>2021-08-02T14:13:50Z</time>
      </trkpt>
      <trkpt lat="42.19192" lon="0.11101">
        <ele>846.95</ele>
        <time>2021-08-02T14:13:52Z</time>
      </trkpt>
      <trkpt lat="42.19162" lon="0.11091">
        <ele>843.36</ele>
        <time>2021-08-02T14:13:59Z</time>
      </trkpt>
      <trkpt lat="42.19156" lon="0.11131">
        <ele>839.46</ele>
        <time>2021-08-02T14:14:07Z</time>
      </trkpt>
      <trkpt lat="42.19139" lon="0.11147">
        <ele>837.92</ele>
        <time>2021-08-02T14:14:11Z</time>
      </trkpt>
      <trkpt lat="42.19106" lon="0.11142">
        <ele>834.97</ele>
        <time>2021-08-02T14:14:17Z</time>
      </trkpt>
      <trkpt lat="42.19085" lon="0.11115">
        <ele>830.95</ele>
        <time>2021-08-02T14:14:23Z</time>
      </trkpt>
      <trkpt lat="42.1906" lon="0.11081">
        <ele>827.66</ele>
        <time>2021-08-02T14:14:29Z</time>
      </trkpt>
      <trkpt lat="42.19047" lon="0.11062">
        <ele>825.8</ele>
        <time>2021-08-02T14:14:32Z</time>
      </trkpt>
      <trkpt lat="42.19026" lon="0.11017">
        <ele>821.72</ele>
        <time>2021-08-02T14:14:39Z</time>
      </trkpt>
      <trkpt lat="42.19019" lon="0.10999">
        <ele>820.22</ele>
        <time>2021-08-02T14:14:42Z</time>
      </trkpt>
      <trkpt lat="42.19014" lon="0.10963">
        <ele>818.22</ele>
        <time>2021-08-02T14:14:47Z</time>
      </trkpt>
      <trkpt lat="42.19012" lon="0.1093">
        <ele>817.01</ele>
        <time>2021-08-02T14:14:51Z</time>
      </trkpt>
      <trkpt lat="42.18998" lon="0.10887">
        <ele>815.5</ele>
        <time>2021-08-02T14:14:57Z</time>
      </trkpt>
      <trkpt lat="42.18979" lon="0.10849">
        <ele>813.12</ele>
        <time>2021-08-02T14:15:05Z</time>
      </trkpt>
      <trkpt lat="42.18971" lon="0.10834">
        <ele>812.55</ele>
        <time>2021-08-02T14:15:08Z</time>
      </trkpt>
      <trkpt lat="42.18959" lon="0.10789">
        <ele>811.71</ele>
        <time>2021-08-02T14:15:14Z</time>
      </trkpt>
      <trkpt lat="42.18955" lon="0.10744">
        <ele>811.61</ele>
        <time>2021-08-02T14:15:18Z</time>
      </trkpt>
      <trkpt lat="42.18958" lon="0.10642">
        <ele>810.38</ele>
        <time>2021-08-02T14:15:27Z</time>
      </trkpt>
      <trkpt lat="42.18939" lon="0.10596">
        <ele>809.6</ele>
        <time>2021-08-02T14:15:32Z</time>
      </trkpt>
      <trkpt lat="42.18922" lon="0.1054">
        <ele>809.51</ele>
        <time>2021-08-02T14:15:37Z</time>
      </trkpt>
      <trkpt lat="42.18912" lon="0.1046">
        <ele>809.17</ele>
        <time>2021-08-02T14:15:43Z</time>
      </trkpt>
      <trkpt lat="42.18911" lon="0.10413">
        <ele>808.07</ele>
        <time>2021-08-02T14:15:47Z</time>
      </trkpt>
      <trkpt lat="42.18922" lon="0.1036">
        <ele>806.19</ele>
        <time>2021-08-02T14:15:52Z</time>
      </trkpt>
      <trkpt lat="42.18925" lon="0.10337">
        <ele>805.21</ele>
        <time>2021-08-02T14:15:55Z</time>
      </trkpt>
      <trkpt lat="42.18927" lon="0.10316">
        <ele>804.35</ele>
        <time>2021-08-02T14:15:57Z</time>
      </trkpt>
      <trkpt lat="42.18924" lon="0.10267">
        <ele>802.31</ele>
        <time>2021-08-02T14:16:01Z</time>
      </trkpt>
      <trkpt lat="42.18884" lon="0.10197">
        <ele>799.28</ele>
        <time>2021-08-02T14:16:08Z</time>
      </trkpt>
      <trkpt lat="42.18865" lon="0.10182">
        <ele>798.92</ele>
        <time>2021-08-02T14:16:10Z</time>
      </trkpt>
      <trkpt lat="42.1885" lon="0.10165">
        <ele>798.49</ele>
        <time>2021-08-02T14:16:12Z</time>
      </trkpt>
      <trkpt lat="42.18801" lon="0.1013">
        <ele>796.16</ele>
        <time>2021-08-02T14:16:18Z</time>
      </trkpt>
      <trkpt lat="42.18782" lon="0.10101">
        <ele>794.62</ele>
        <time>2021-08-02T14:16:21Z</time>
      </trkpt>
      <trkpt lat="42.18757" lon="0.10073">
        <ele>792.75</ele>
        <time>2021-08-02T14:16:25Z</time>
      </trkpt>
      <trkpt lat="42.18732" lon="0.10012">
        <ele>789.22</ele>
        <time>2021-08-02T14:16:32Z</time>
      </trkpt>
      <trkpt lat="42.18721" lon="0.0999">
        <ele>787.05</ele>
        <time>2021-08-02T14:16:35Z</time>
      </trkpt>
      <trkpt lat="42.18706" lon="0.09966">
        <ele>785.12</ele>
        <time>2021-08-02T14:16:38Z</time>
      </trkpt>
      <trkpt lat="42.18665" lon="0.09929">
        <ele>781.17</ele>
        <time>2021-08-02T14:16:44Z</time>
      </trkpt>
      <trkpt lat="42.1864" lon="0.09902">
        <ele>778.63</ele>
        <time>2021-08-02T14:16:48Z</time>
      </trkpt>
      <trkpt lat="42.18608" lon="0.09875">
        <ele>776.63</ele>
        <time>2021-08-02T14:16:52Z</time>
      </trkpt>
      <trkpt lat="42.18557" lon="0.09867">
        <ele>773.18</ele>
        <time>2021-08-02T14:16:59Z</time>
      </trkpt>
      <trkpt lat="42.18543" lon="0.09866">
        <ele>772.06</ele>
        <time>2021-08-02T14:17:01Z</time>
      </trkpt>
      <trkpt lat="42.18505" lon="0.09862">
        <ele>768.74</ele>
        <time>2021-08-02T14:17:07Z</time>
      </trkpt>
      <trkpt lat="42.18467" lon="0.09842">
        <ele>764.98</ele>
        <time>2021-08-02T14:17:13Z</time>
      </trkpt>
      <trkpt lat="42.18452" lon="0.09829">
        <ele>763.01</ele>
        <time>2021-08-02T14:17:16Z</time>
      </trkpt>
      <trkpt lat="42.18428" lon="0.09813">
        <ele>759.49</ele>
        <time>2021-08-02T14:17:21Z</time>
      </trkpt>
      <trkpt lat="42.18403" lon="0.09785">
        <ele>756.94</ele>
        <time>2021-08-02T14:17:25Z</time>
      </trkpt>
      <trkpt lat="42.18375" lon="0.09746">
        <ele>752.95</ele>
        <time>2021-08-02T14:17:30Z</time>
      </trkpt>
      <trkpt lat="42.18366" lon="0.09728">
        <ele>751.3</ele>
        <time>2021-08-02T14:17:32Z</time>
      </trkpt>
      <trkpt lat="42.18342" lon="0.09685">
        <ele>747.2</ele>
        <time>2021-08-02T14:17:37Z</time>
      </trkpt>
      <trkpt lat="42.18319" lon="0.09662">
        <ele>742.67</ele>
        <time>2021-08-02T14:17:42Z</time>
      </trkpt>
      <trkpt lat="42.18313" lon="0.09657">
        <ele>742.06</ele>
        <time>2021-08-02T14:17:43Z</time>
      </trkpt>
      <trkpt lat="42.18278" lon="0.09615">
        <ele>738.62</ele>
        <time>2021-08-02T14:17:49Z</time>
      </trkpt>
      <trkpt lat="42.1827" lon="0.09589">
        <ele>736.38</ele>
        <time>2021-08-02T14:17:53Z</time>
      </trkpt>
      <trkpt lat="42.18267" lon="0.09573">
        <ele>735.32</ele>
        <time>2021-08-02T14:17:55Z</time>
      </trkpt>
      <trkpt lat="42.18252" lon="0.09522">
        <ele>731.69</ele>
        <time>2021-08-02T14:18:01Z</time>
      </trkpt>
      <trkpt lat="42.18249" lon="0.09514">
        <ele>730.91</ele>
        <time>2021-08-02T14:18:02Z</time>
      </trkpt>
      <trkpt lat="42.18239" lon="0.09494">
        <ele>728.07</ele>
        <time>2021-08-02T14:18:06Z</time>
      </trkpt>
      <trkpt lat="42.18224" lon="0.09473">
        <ele>723.86</ele>
        <time>2021-08-02T14:18:12Z</time>
      </trkpt>
      <trkpt lat="42.18209" lon="0.09454">
        <ele>720.72</ele>
        <time>2021-08-02T14:18:18Z</time>
      </trkpt>
      <trkpt lat="42.18202" lon="0.09453">
        <ele>719.58</ele>
        <time>2021-08-02T14:18:20Z</time>
      </trkpt>
      <trkpt lat="42.18186" lon="0.09435">
        <ele>716.89</ele>
        <time>2021-08-02T14:18:25Z</time>
      </trkpt>
      <trkpt lat="42.18176" lon="0.09425">
        <ele>715.98</ele>
        <time>2021-08-02T14:18:27Z</time>
      </trkpt>
      <trkpt lat="42.18155" lon="0.09407">
        <ele>712.37</ele>
        <time>2021-08-02T14:18:34Z</time>
      </trkpt>
      <trkpt lat="42.18142" lon="0.09387">
        <ele>710.6</ele>
        <time>2021-08-02T14:18:38Z</time>
      </trkpt>
      <trkpt lat="42.18116" lon="0.09352">
        <ele>708.43</ele>
        <time>2021-08-02T14:18:43Z</time>
      </trkpt>
      <trkpt lat="42.18104" lon="0.0932">
        <ele>706.17</ele>
        <time>2021-08-02T14:18:47Z</time>
      </trkpt>
      <trkpt lat="42.18089" lon="0.09265">
        <ele>702.24</ele>
        <time>2021-08-02T14:18:54Z</time>
      </trkpt>
      <trkpt lat="42.18073" lon="0.09235">
        <ele>699.45</ele>
        <time>2021-08-02T14:18:59Z</time>
      </trkpt>
      <trkpt lat="42.18055" lon="0.09216">
        <ele>697.35</ele>
        <time>2021-08-02T14:19:03Z</time>
      </trkpt>
      <trkpt lat="42.18036" lon="0.09204">
        <ele>695.56</ele>
        <time>2021-08-02T14:19:06Z</time>
      </trkpt>
      <trkpt lat="42.18008" lon="0.09193">
        <ele>693.44</ele>
        <time>2021-08-02T14:19:10Z</time>
      </trkpt>
      <trkpt lat="42.17977" lon="0.09174">
        <ele>690.44</ele>
        <time>2021-08-02T14:19:14Z</time>
      </trkpt>
      <trkpt lat="42.17949" lon="0.09148">
        <ele>686.01</ele>
        <time>2021-08-02T14:19:19Z</time>
      </trkpt>
      <trkpt lat="42.17924" lon="0.09136">
        <ele>681.98</ele>
        <time>2021-08-02T14:19:23Z</time>
      </trkpt>
      <trkpt lat="42.179" lon="0.09144">
        <ele>677.84</ele>
        <time>2021-08-02T14:19:29Z</time>
      </trkpt>
      <trkpt lat="42.17894" lon="0.0919">
        <ele>674.6</ele>
        <time>2021-08-02T14:19:35Z</time>
      </trkpt>
      <trkpt lat="42.17888" lon="0.09195">
        <ele>673.47</ele>
        <time>2021-08-02T14:19:37Z</time>
      </trkpt>
      <trkpt lat="42.1788" lon="0.09201">
        <ele>672.5</ele>
        <time>2021-08-02T14:19:39Z</time>
      </trkpt>
      <trkpt lat="42.17847" lon="0.09211">
        <ele>668.63</ele>
        <time>2021-08-02T14:19:46Z</time>
      </trkpt>
      <trkpt lat="42.17829" lon="0.09218">
        <ele>665.48</ele>
        <time>2021-08-02T14:19:51Z</time>
      </trkpt>
      <trkpt lat="42.17816" lon="0.09224">
        <ele>663.86</ele>
        <time>2021-08-02T14:19:54Z</time>
      </trkpt>
      <trkpt lat="42.17813" lon="0.09246">
        <ele>660.64</ele>
        <time>2021-08-02T14:19:59Z</time>
      </trkpt>
      <trkpt lat="42.17826" lon="0.09271">
        <ele>658.23</ele>
        <time>2021-08-02T14:20:03Z</time>
      </trkpt>
      <trkpt lat="42.17827" lon="0.09308">
        <ele>656.17</ele>
        <time>2021-08-02T14:20:07Z</time>
      </trkpt>
      <trkpt lat="42.17823" lon="0.09369">
        <ele>653.01</ele>
        <time>2021-08-02T14:20:17Z</time>
      </trkpt>
      <trkpt lat="42.17798" lon="0.09364">
        <ele>652.91</ele>
        <time>2021-08-02T14:20:23Z</time>
      </trkpt>
      <trkpt lat="42.17793" lon="0.09335">
        <ele>654.46</ele>
        <time>2021-08-02T14:20:29Z</time>
      </trkpt>
      <trkpt lat="42.17794" lon="0.09312">
        <ele>655.46</ele>
        <time>2021-08-02T14:20:32Z</time>
      </trkpt>
      <trkpt lat="42.17779" lon="0.09286">
        <ele>657.76</ele>
        <time>2021-08-02T14:20:38Z</time>
      </trkpt>
      <trkpt lat="42.17764" lon="0.09273">
        <ele>658.22</ele>
        <time>2021-08-02T14:20:41Z</time>
      </trkpt>
      <trkpt lat="42.17741" lon="0.09264">
        <ele>657.46</ele>
        <time>2021-08-02T14:20:45Z</time>
      </trkpt>
      <trkpt lat="42.17726" lon="0.09225">
        <ele>655.2</ele>
        <time>2021-08-02T14:20:51Z</time>
      </trkpt>
      <trkpt lat="42.17726" lon="0.09217">
        <ele>655.03</ele>
        <time>2021-08-02T14:20:52Z</time>
      </trkpt>
      <trkpt lat="42.17727" lon="0.092">
        <ele>654.86</ele>
        <time>2021-08-02T14:20:54Z</time>
      </trkpt>
      <trkpt lat="42.17738" lon="0.09169">
        <ele>654.7</ele>
        <time>2021-08-02T14:20:58Z</time>
      </trkpt>
      <trkpt lat="42.17744" lon="0.09137">
        <ele>655.07</ele>
        <time>2021-08-02T14:21:03Z</time>
      </trkpt>
      <trkpt lat="42.17743" lon="0.09116">
        <ele>655.23</ele>
        <time>2021-08-02T14:21:06Z</time>
      </trkpt>
      <trkpt lat="42.17749" lon="0.0908">
        <ele>655.26</ele>
        <time>2021-08-02T14:21:10Z</time>
      </trkpt>
      <trkpt lat="42.17748" lon="0.09054">
        <ele>654.91</ele>
        <time>2021-08-02T14:21:14Z</time>
      </trkpt>
      <trkpt lat="42.17739" lon="0.09028">
        <ele>653.94</ele>
        <time>2021-08-02T14:21:20Z</time>
      </trkpt>
      <trkpt lat="42.17733" lon="0.09011">
        <ele>652.66</ele>
        <time>2021-08-02T14:21:24Z</time>
      </trkpt>
      <trkpt lat="42.17736" lon="0.08983">
        <ele>650.71</ele>
        <time>2021-08-02T14:21:29Z</time>
      </trkpt>
      <trkpt lat="42.17744" lon="0.08936">
        <ele>647.35</ele>
        <time>2021-08-02T14:21:37Z</time>
      </trkpt>
      <trkpt lat="42.17748" lon="0.08924">
        <ele>646.34</ele>
        <time>2021-08-02T14:21:39Z</time>
      </trkpt>
      <trkpt lat="42.17736" lon="0.08884">
        <ele>644.1</ele>
        <time>2021-08-02T14:21:46Z</time>
      </trkpt>
      <trkpt lat="42.17732" lon="0.08881">
        <ele>643.88</ele>
        <time>2021-08-02T14:21:47Z</time>
      </trkpt>
      <trkpt lat="42.17726" lon="0.08878">
        <ele>643.32</ele>
        <time>2021-08-02T14:21:49Z</time>
      </trkpt>
      <trkpt lat="42.17689" lon="0.08834">
        <ele>640.68</ele>
        <time>2021-08-02T14:21:59Z</time>
      </trkpt>
      <trkpt lat="42.1769" lon="0.08812">
        <ele>640.62</ele>
        <time>2021-08-02T14:22:02Z</time>
      </trkpt>
      <trkpt lat="42.17692" lon="0.08788">
        <ele>640.74</ele>
        <time>2021-08-02T14:22:05Z</time>
      </trkpt>
      <trkpt lat="42.17681" lon="0.08765">
        <ele>640.51</ele>
        <time>2021-08-02T14:22:10Z</time>
      </trkpt>
      <trkpt lat="42.17644" lon="0.08734">
        <ele>638.45</ele>
        <time>2021-08-02T14:22:19Z</time>
      </trkpt>
      <trkpt lat="42.17621" lon="0.08706">
        <ele>637.59</ele>
        <time>2021-08-02T14:22:25Z</time>
      </trkpt>
      <trkpt lat="42.1759" lon="0.08697">
        <ele>636.81</ele>
        <time>2021-08-02T14:22:31Z</time>
      </trkpt>
      <trkpt lat="42.17581" lon="0.08706">
        <ele>636.44</ele>
        <time>2021-08-02T14:22:33Z</time>
      </trkpt>
      <trkpt lat="42.17557" lon="0.0872">
        <ele>635.06</ele>
        <time>2021-08-02T14:22:38Z</time>
      </trkpt>
      <trkpt lat="42.17548" lon="0.08711">
        <ele>634.18</ele>
        <time>2021-08-02T14:22:41Z</time>
      </trkpt>
      <trkpt lat="42.17549" lon="0.08706">
        <ele>634.06</ele>
        <time>2021-08-02T14:22:42Z</time>
      </trkpt>
      <trkpt lat="42.17551" lon="0.087">
        <ele>633.84</ele>
        <time>2021-08-02T14:22:43Z</time>
      </trkpt>
      <trkpt lat="42.17553" lon="0.08696">
        <ele>633.79</ele>
        <time>2021-08-02T14:22:44Z</time>
      </trkpt>
      <trkpt lat="42.17556" lon="0.08692">
        <ele>633.76</ele>
        <time>2021-08-02T14:22:45Z</time>
      </trkpt>
      <trkpt lat="42.17583" lon="0.08641">
        <ele>633.21</ele>
        <time>2021-08-02T14:22:56Z</time>
      </trkpt>
      <trkpt lat="42.17588" lon="0.08626">
        <ele>633.39</ele>
        <time>2021-08-02T14:23:02Z</time>
      </trkpt>
      <trkpt lat="42.17583" lon="0.08588">
        <ele>634.02</ele>
        <time>2021-08-02T14:23:08Z</time>
      </trkpt>
      <trkpt lat="42.17579" lon="0.08579">
        <ele>634.26</ele>
        <time>2021-08-02T14:23:10Z</time>
      </trkpt>
      <trkpt lat="42.17545" lon="0.08524">
        <ele>632.22</ele>
        <time>2021-08-02T14:23:24Z</time>
      </trkpt>
      <trkpt lat="42.17536" lon="0.08517">
        <ele>629.65</ele>
        <time>2021-08-02T14:23:32Z</time>
      </trkpt>
      <trkpt lat="42.1753" lon="0.08514">
        <ele>628.96</ele>
        <time>2021-08-02T14:23:36Z</time>
      </trkpt>
      <trkpt lat="42.17506" lon="0.0849">
        <ele>627.93</ele>
        <time>2021-08-02T14:23:43Z</time>
      </trkpt>
      <trkpt lat="42.1752" lon="0.08478">
        <ele>626.04</ele>
        <time>2021-08-02T14:23:49Z</time>
      </trkpt>
      <trkpt lat="42.17541" lon="0.08491">
        <ele>624.24</ele>
        <time>2021-08-02T14:23:54Z</time>
      </trkpt>
      <trkpt lat="42.17543" lon="0.08471">
        <ele>623.01</ele>
        <time>2021-08-02T14:23:59Z</time>
      </trkpt>
      <trkpt lat="42.17503" lon="0.08431">
        <ele>619.51</ele>
        <time>2021-08-02T14:24:08Z</time>
      </trkpt>
      <trkpt lat="42.17495" lon="0.08425">
        <ele>619.11</ele>
        <time>2021-08-02T14:24:09Z</time>
      </trkpt>
      <trkpt lat="42.17472" lon="0.0839">
        <ele>615.47</ele>
        <time>2021-08-02T14:24:15Z</time>
      </trkpt>
      <trkpt lat="42.17448" lon="0.08374">
        <ele>613.42</ele>
        <time>2021-08-02T14:24:19Z</time>
      </trkpt>
      <trkpt lat="42.17438" lon="0.08363">
        <ele>612.81</ele>
        <time>2021-08-02T14:24:21Z</time>
      </trkpt>
      <trkpt lat="42.17422" lon="0.08326">
        <ele>613.37</ele>
        <time>2021-08-02T14:24:28Z</time>
      </trkpt>
      <trkpt lat="42.17447" lon="0.08339">
        <ele>614.51</ele>
        <time>2021-08-02T14:24:32Z</time>
      </trkpt>
      <trkpt lat="42.1746" lon="0.08331">
        <ele>616.27</ele>
        <time>2021-08-02T14:24:37Z</time>
      </trkpt>
      <trkpt lat="42.17423" lon="0.08264">
        <ele>619.5</ele>
        <time>2021-08-02T14:24:45Z</time>
      </trkpt>
      <trkpt lat="42.1741" lon="0.08246">
        <ele>620.78</ele>
        <time>2021-08-02T14:24:48Z</time>
      </trkpt>
      <trkpt lat="42.17402" lon="0.08233">
        <ele>621.9</ele>
        <time>2021-08-02T14:24:50Z</time>
      </trkpt>
      <trkpt lat="42.17383" lon="0.08209">
        <ele>624.02</ele>
        <time>2021-08-02T14:24:54Z</time>
      </trkpt>
      <trkpt lat="42.17369" lon="0.08185">
        <ele>626.21</ele>
        <time>2021-08-02T14:24:58Z</time>
      </trkpt>
      <trkpt lat="42.17365" lon="0.08158">
        <ele>628.34</ele>
        <time>2021-08-02T14:25:02Z</time>
      </trkpt>
      <trkpt lat="42.1736" lon="0.08131">
        <ele>630.49</ele>
        <time>2021-08-02T14:25:05Z</time>
      </trkpt>
      <trkpt lat="42.17352" lon="0.08088">
        <ele>634.22</ele>
        <time>2021-08-02T14:25:11Z</time>
      </trkpt>
      <trkpt lat="42.17335" lon="0.08073">
        <ele>637.08</ele>
        <time>2021-08-02T14:25:16Z</time>
      </trkpt>
      <trkpt lat="42.17316" lon="0.08066">
        <ele>639.07</ele>
        <time>2021-08-02T14:25:20Z</time>
      </trkpt>
      <trkpt lat="42.17297" lon="0.08061">
        <ele>641.87</ele>
        <time>2021-08-02T14:25:28Z</time>
      </trkpt>
      <trkpt lat="42.17295" lon="0.0806">
        <ele>642.62</ele>
        <time>2021-08-02T14:25:34Z</time>
      </trkpt>
      <trkpt lat="42.17271" lon="0.08039">
        <ele>642.97</ele>
        <time>2021-08-02T14:25:39Z</time>
      </trkpt>
      <trkpt lat="42.17259" lon="0.08029">
        <ele>643.15</ele>
        <time>2021-08-02T14:25:41Z</time>
      </trkpt>
      <trkpt lat="42.17265" lon="0.07994">
        <ele>644.13</ele>
        <time>2021-08-02T14:25:48Z</time>
      </trkpt>
      <trkpt lat="42.17278" lon="0.07987">
        <ele>644.62</ele>
        <time>2021-08-02T14:25:50Z</time>
      </trkpt>
      <trkpt lat="42.17322" lon="0.07927">
        <ele>647.29</ele>
        <time>2021-08-02T14:25:59Z</time>
      </trkpt>
      <trkpt lat="42.17336" lon="0.07926">
        <ele>647.45</ele>
        <time>2021-08-02T14:26:02Z</time>
      </trkpt>
      <trkpt lat="42.17377" lon="0.0794">
        <ele>644.26</ele>
        <time>2021-08-02T14:26:12Z</time>
      </trkpt>
      <trkpt lat="42.17403" lon="0.07942">
        <ele>641.99</ele>
        <time>2021-08-02T14:26:18Z</time>
      </trkpt>
      <trkpt lat="42.17418" lon="0.07915">
        <ele>640.11</ele>
        <time>2021-08-02T14:26:23Z</time>
      </trkpt>
      <trkpt lat="42.1738" lon="0.07876">
        <ele>639</ele>
        <time>2021-08-02T14:26:31Z</time>
      </trkpt>
      <trkpt lat="42.17366" lon="0.07863">
        <ele>638.71</ele>
        <time>2021-08-02T14:26:34Z</time>
      </trkpt>
      <trkpt lat="42.17327" lon="0.07814">
        <ele>637.38</ele>
        <time>2021-08-02T14:26:40Z</time>
      </trkpt>
      <trkpt lat="42.17318" lon="0.07784">
        <ele>636.24</ele>
        <time>2021-08-02T14:26:44Z</time>
      </trkpt>
      <trkpt lat="42.17286" lon="0.07754">
        <ele>634.95</ele>
        <time>2021-08-02T14:26:50Z</time>
      </trkpt>
      <trkpt lat="42.17264" lon="0.07759">
        <ele>634.66</ele>
        <time>2021-08-02T14:26:53Z</time>
      </trkpt>
      <trkpt lat="42.1724" lon="0.07759">
        <ele>634.66</ele>
        <time>2021-08-02T14:26:56Z</time>
      </trkpt>
      <trkpt lat="42.17223" lon="0.0773">
        <ele>634.93</ele>
        <time>2021-08-02T14:27:01Z</time>
      </trkpt>
      <trkpt lat="42.17233" lon="0.0772">
        <ele>635.34</ele>
        <time>2021-08-02T14:27:03Z</time>
      </trkpt>
      <trkpt lat="42.1725" lon="0.07689">
        <ele>636.64</ele>
        <time>2021-08-02T14:27:07Z</time>
      </trkpt>
      <trkpt lat="42.17293" lon="0.07665">
        <ele>640.01</ele>
        <time>2021-08-02T14:27:14Z</time>
      </trkpt>
      <trkpt lat="42.17301" lon="0.07661">
        <ele>640.4</ele>
        <time>2021-08-02T14:27:15Z</time>
      </trkpt>
      <trkpt lat="42.17332" lon="0.0765">
        <ele>643.31</ele>
        <time>2021-08-02T14:27:21Z</time>
      </trkpt>
      <trkpt lat="42.17391" lon="0.07648">
        <ele>646.32</ele>
        <time>2021-08-02T14:27:29Z</time>
      </trkpt>
      <trkpt lat="42.17397" lon="0.07648">
        <ele>646.71</ele>
        <time>2021-08-02T14:27:30Z</time>
      </trkpt>
      <trkpt lat="42.17419" lon="0.07653">
        <ele>647.61</ele>
        <time>2021-08-02T14:27:33Z</time>
      </trkpt>
      <trkpt lat="42.17463" lon="0.07628">
        <ele>648.12</ele>
        <time>2021-08-02T14:27:40Z</time>
      </trkpt>
      <trkpt lat="42.17453" lon="0.07572">
        <ele>647.7</ele>
        <time>2021-08-02T14:27:45Z</time>
      </trkpt>
      <trkpt lat="42.17417" lon="0.07534">
        <ele>647.6</ele>
        <time>2021-08-02T14:27:51Z</time>
      </trkpt>
      <trkpt lat="42.17399" lon="0.07472">
        <ele>648.16</ele>
        <time>2021-08-02T14:27:58Z</time>
      </trkpt>
      <trkpt lat="42.17371" lon="0.0744">
        <ele>650.34</ele>
        <time>2021-08-02T14:28:04Z</time>
      </trkpt>
      <trkpt lat="42.17374" lon="0.07405">
        <ele>652.65</ele>
        <time>2021-08-02T14:28:08Z</time>
      </trkpt>
      <trkpt lat="42.17379" lon="0.07391">
        <ele>653.76</ele>
        <time>2021-08-02T14:28:10Z</time>
      </trkpt>
      <trkpt lat="42.17382" lon="0.07372">
        <ele>655.76</ele>
        <time>2021-08-02T14:28:13Z</time>
      </trkpt>
      <trkpt lat="42.17386" lon="0.07334">
        <ele>657.84</ele>
        <time>2021-08-02T14:28:19Z</time>
      </trkpt>
      <trkpt lat="42.17384" lon="0.07262">
        <ele>657.59</ele>
        <time>2021-08-02T14:28:28Z</time>
      </trkpt>
      <trkpt lat="42.17394" lon="0.07163">
        <ele>656.02</ele>
        <time>2021-08-02T14:28:37Z</time>
      </trkpt>
      <trkpt lat="42.17383" lon="0.07114">
        <ele>654.99</ele>
        <time>2021-08-02T14:28:41Z</time>
      </trkpt>
      <trkpt lat="42.17373" lon="0.07091">
        <ele>654.36</ele>
        <time>2021-08-02T14:28:43Z</time>
      </trkpt>
      <trkpt lat="42.17359" lon="0.07009">
        <ele>650.48</ele>
        <time>2021-08-02T14:28:50Z</time>
      </trkpt>
      <trkpt lat="42.17348" lon="0.06936">
        <ele>647.1</ele>
        <time>2021-08-02T14:28:57Z</time>
      </trkpt>
      <trkpt lat="42.1736" lon="0.06909">
        <ele>645.12</ele>
        <time>2021-08-02T14:29:02Z</time>
      </trkpt>
      <trkpt lat="42.17368" lon="0.06899">
        <ele>644.58</ele>
        <time>2021-08-02T14:29:04Z</time>
      </trkpt>
      <trkpt lat="42.17394" lon="0.06851">
        <ele>643.46</ele>
        <time>2021-08-02T14:29:10Z</time>
      </trkpt>
      <trkpt lat="42.17418" lon="0.06813">
        <ele>641.83</ele>
        <time>2021-08-02T14:29:18Z</time>
      </trkpt>
      <trkpt lat="42.17431" lon="0.06811">
        <ele>640.6</ele>
        <time>2021-08-02T14:29:22Z</time>
      </trkpt>
      <trkpt lat="42.17473" lon="0.0684">
        <ele>639.95</ele>
        <time>2021-08-02T14:29:28Z</time>
      </trkpt>
      <trkpt lat="42.17536" lon="0.06833">
        <ele>640.62</ele>
        <time>2021-08-02T14:29:34Z</time>
      </trkpt>
      <trkpt lat="42.17624" lon="0.06792">
        <ele>643.87</ele>
        <time>2021-08-02T14:29:41Z</time>
      </trkpt>
      <trkpt lat="42.17681" lon="0.06807">
        <ele>647.02</ele>
        <time>2021-08-02T14:29:46Z</time>
      </trkpt>
      <trkpt lat="42.17733" lon="0.06844">
        <ele>648.94</ele>
        <time>2021-08-02T14:29:51Z</time>
      </trkpt>
      <trkpt lat="42.17778" lon="0.06843">
        <ele>649.62</ele>
        <time>2021-08-02T14:29:55Z</time>
      </trkpt>
      <trkpt lat="42.17832" lon="0.06838">
        <ele>649.76</ele>
        <time>2021-08-02T14:30:00Z</time>
      </trkpt>
      <trkpt lat="42.17852" lon="0.06844">
        <ele>649.76</ele>
        <time>2021-08-02T14:30:02Z</time>
      </trkpt>
      <trkpt lat="42.17893" lon="0.06819">
        <ele>649.97</ele>
        <time>2021-08-02T14:30:07Z</time>
      </trkpt>
      <trkpt lat="42.1791" lon="0.06717">
        <ele>651.46</ele>
        <time>2021-08-02T14:30:14Z</time>
      </trkpt>
      <trkpt lat="42.1788" lon="0.06642">
        <ele>653.41</ele>
        <time>2021-08-02T14:30:18Z</time>
      </trkpt>
      <trkpt lat="42.17855" lon="0.06611">
        <ele>654.77</ele>
        <time>2021-08-02T14:30:20Z</time>
      </trkpt>
      <trkpt lat="42.17827" lon="0.06538">
        <ele>657.57</ele>
        <time>2021-08-02T14:30:24Z</time>
      </trkpt>
      <trkpt lat="42.1779" lon="0.06416">
        <ele>661.46</ele>
        <time>2021-08-02T14:30:30Z</time>
      </trkpt>
      <trkpt lat="42.17808" lon="0.06348">
        <ele>663.58</ele>
        <time>2021-08-02T14:30:35Z</time>
      </trkpt>
      <trkpt lat="42.17838" lon="0.06354">
        <ele>664.13</ele>
        <time>2021-08-02T14:30:37Z</time>
      </trkpt>
      <trkpt lat="42.1788" lon="0.0637">
        <ele>664.82</ele>
        <time>2021-08-02T14:30:40Z</time>
      </trkpt>
      <trkpt lat="42.17944" lon="0.06346">
        <ele>665.03</ele>
        <time>2021-08-02T14:30:45Z</time>
      </trkpt>
      <trkpt lat="42.18021" lon="0.06305">
        <ele>663.4</ele>
        <time>2021-08-02T14:30:51Z</time>
      </trkpt>
      <trkpt lat="42.18068" lon="0.06345">
        <ele>662.38</ele>
        <time>2021-08-02T14:30:55Z</time>
      </trkpt>
      <trkpt lat="42.1811" lon="0.06362">
        <ele>661.88</ele>
        <time>2021-08-02T14:30:59Z</time>
      </trkpt>
      <trkpt lat="42.18122" lon="0.0635">
        <ele>661.81</ele>
        <time>2021-08-02T14:31:00Z</time>
      </trkpt>
      <trkpt lat="42.18192" lon="0.06331">
        <ele>661.39</ele>
        <time>2021-08-02T14:31:06Z</time>
      </trkpt>
      <trkpt lat="42.18222" lon="0.06402">
        <ele>661.32</ele>
        <time>2021-08-02T14:31:10Z</time>
      </trkpt>
      <trkpt lat="42.18239" lon="0.06472">
        <ele>661.53</ele>
        <time>2021-08-02T14:31:13Z</time>
      </trkpt>
      <trkpt lat="42.18263" lon="0.06529">
        <ele>661.88</ele>
        <time>2021-08-02T14:31:16Z</time>
      </trkpt>
      <trkpt lat="42.18314" lon="0.06548">
        <ele>662.4</ele>
        <time>2021-08-02T14:31:21Z</time>
      </trkpt>
      <trkpt lat="42.18326" lon="0.06487">
        <ele>662.77</ele>
        <time>2021-08-02T14:31:25Z</time>
      </trkpt>
      <trkpt lat="42.1833" lon="0.06389">
        <ele>663.86</ele>
        <time>2021-08-02T14:31:30Z</time>
      </trkpt>
      <trkpt lat="42.18351" lon="0.06326">
        <ele>665.01</ele>
        <time>2021-08-02T14:31:33Z</time>
      </trkpt>
      <trkpt lat="42.18412" lon="0.06275">
        <ele>666.9</ele>
        <time>2021-08-02T14:31:38Z</time>
      </trkpt>
      <trkpt lat="42.18435" lon="0.06299">
        <ele>667.37</ele>
        <time>2021-08-02T14:31:40Z</time>
      </trkpt>
      <trkpt lat="42.18504" lon="0.0634">
        <ele>667.39</ele>
        <time>2021-08-02T14:31:46Z</time>
      </trkpt>
      <trkpt lat="42.18516" lon="0.0629">
        <ele>665.71</ele>
        <time>2021-08-02T14:31:50Z</time>
      </trkpt>
      <trkpt lat="42.18544" lon="0.06182">
        <ele>661.79</ele>
        <time>2021-08-02T14:31:57Z</time>
      </trkpt>
      <trkpt lat="42.186" lon="0.06169">
        <ele>658.14</ele>
        <time>2021-08-02T14:32:02Z</time>
      </trkpt>
      <trkpt lat="42.18642" lon="0.06206">
        <ele>654.69</ele>
        <time>2021-08-02T14:32:07Z</time>
      </trkpt>
      <trkpt lat="42.18691" lon="0.06296">
        <ele>650.22</ele>
        <time>2021-08-02T14:32:14Z</time>
      </trkpt>
      <trkpt lat="42.18697" lon="0.06327">
        <ele>648.99</ele>
        <time>2021-08-02T14:32:16Z</time>
      </trkpt>
      <trkpt lat="42.1873" lon="0.06361">
        <ele>646.11</ele>
        <time>2021-08-02T14:32:21Z</time>
      </trkpt>
      <trkpt lat="42.18762" lon="0.06318">
        <ele>643.56</ele>
        <time>2021-08-02T14:32:27Z</time>
      </trkpt>
      <trkpt lat="42.18761" lon="0.06289">
        <ele>643.36</ele>
        <time>2021-08-02T14:32:29Z</time>
      </trkpt>
      <trkpt lat="42.18756" lon="0.06236">
        <ele>643.49</ele>
        <time>2021-08-02T14:32:32Z</time>
      </trkpt>
      <trkpt lat="42.1873" lon="0.06167">
        <ele>644.75</ele>
        <time>2021-08-02T14:32:37Z</time>
      </trkpt>
      <trkpt lat="42.18748" lon="0.06122">
        <ele>645.41</ele>
        <time>2021-08-02T14:32:41Z</time>
      </trkpt>
      <trkpt lat="42.18788" lon="0.06132">
        <ele>645.68</ele>
        <time>2021-08-02T14:32:44Z</time>
      </trkpt>
      <trkpt lat="42.1885" lon="0.06143">
        <ele>647.28</ele>
        <time>2021-08-02T14:32:49Z</time>
      </trkpt>
      <trkpt lat="42.18932" lon="0.06118">
        <ele>648.98</ele>
        <time>2021-08-02T14:32:56Z</time>
      </trkpt>
      <trkpt lat="42.18972" lon="0.06087">
        <ele>648.3</ele>
        <time>2021-08-02T14:33:00Z</time>
      </trkpt>
      <trkpt lat="42.19023" lon="0.06059">
        <ele>645.37</ele>
        <time>2021-08-02T14:33:05Z</time>
      </trkpt>
      <trkpt lat="42.19042" lon="0.06058">
        <ele>644.1</ele>
        <time>2021-08-02T14:33:07Z</time>
      </trkpt>
      <trkpt lat="42.19063" lon="0.06034">
        <ele>641.51</ele>
        <time>2021-08-02T14:33:12Z</time>
      </trkpt>
      <trkpt lat="42.19063" lon="0.06025">
        <ele>641.28</ele>
        <time>2021-08-02T14:33:13Z</time>
      </trkpt>
      <trkpt lat="42.19062" lon="0.0598">
        <ele>640.2</ele>
        <time>2021-08-02T14:33:18Z</time>
      </trkpt>
      <trkpt lat="42.19027" lon="0.05935">
        <ele>640.21</ele>
        <time>2021-08-02T14:33:24Z</time>
      </trkpt>
      <trkpt lat="42.19017" lon="0.05927">
        <ele>640.36</ele>
        <time>2021-08-02T14:33:25Z</time>
      </trkpt>
      <trkpt lat="42.18961" lon="0.05932">
        <ele>643.18</ele>
        <time>2021-08-02T14:33:32Z</time>
      </trkpt>
      <trkpt lat="42.1891" lon="0.05973">
        <ele>645.88</ele>
        <time>2021-08-02T14:33:39Z</time>
      </trkpt>
      <trkpt lat="42.18844" lon="0.05985">
        <ele>647.55</ele>
        <time>2021-08-02T14:33:45Z</time>
      </trkpt>
      <trkpt lat="42.18792" lon="0.05977">
        <ele>648.1</ele>
        <time>2021-08-02T14:33:49Z</time>
      </trkpt>
      <trkpt lat="42.18745" lon="0.05982">
        <ele>648.78</ele>
        <time>2021-08-02T14:33:53Z</time>
      </trkpt>
      <trkpt lat="42.18668" lon="0.05956">
        <ele>650.04</ele>
        <time>2021-08-02T14:33:59Z</time>
      </trkpt>
      <trkpt lat="42.18655" lon="0.05952">
        <ele>650.34</ele>
        <time>2021-08-02T14:34:00Z</time>
      </trkpt>
      <trkpt lat="42.1861" lon="0.05896">
        <ele>652.61</ele>
        <time>2021-08-02T14:34:06Z</time>
      </trkpt>
      <trkpt lat="42.18612" lon="0.05882">
        <ele>652.98</ele>
        <time>2021-08-02T14:34:07Z</time>
      </trkpt>
      <trkpt lat="42.1862" lon="0.0583">
        <ele>654.04</ele>
        <time>2021-08-02T14:34:10Z</time>
      </trkpt>
      <trkpt lat="42.18617" lon="0.05756">
        <ele>655.95</ele>
        <time>2021-08-02T14:34:14Z</time>
      </trkpt>
      <trkpt lat="42.18588" lon="0.05716">
        <ele>657.86</ele>
        <time>2021-08-02T14:34:19Z</time>
      </trkpt>
      <trkpt lat="42.18565" lon="0.05761">
        <ele>659.05</ele>
        <time>2021-08-02T14:34:23Z</time>
      </trkpt>
      <trkpt lat="42.18548" lon="0.0582">
        <ele>660.37</ele>
        <time>2021-08-02T14:34:27Z</time>
      </trkpt>
      <trkpt lat="42.18496" lon="0.05879">
        <ele>663.79</ele>
        <time>2021-08-02T14:34:35Z</time>
      </trkpt>
      <trkpt lat="42.18465" lon="0.05853">
        <ele>665.58</ele>
        <time>2021-08-02T14:34:39Z</time>
      </trkpt>
      <trkpt lat="42.18458" lon="0.0578">
        <ele>668.16</ele>
        <time>2021-08-02T14:34:44Z</time>
      </trkpt>
      <trkpt lat="42.18418" lon="0.05762">
        <ele>670.03</ele>
        <time>2021-08-02T14:34:48Z</time>
      </trkpt>
      <trkpt lat="42.18395" lon="0.05776">
        <ele>671.2</ele>
        <time>2021-08-02T14:34:50Z</time>
      </trkpt>
      <trkpt lat="42.18363" lon="0.05802">
        <ele>672.78</ele>
        <time>2021-08-02T14:34:53Z</time>
      </trkpt>
      <trkpt lat="42.18328" lon="0.0578">
        <ele>674.98</ele>
        <time>2021-08-02T14:34:58Z</time>
      </trkpt>
      <trkpt lat="42.18345" lon="0.05718">
        <ele>677.05</ele>
        <time>2021-08-02T14:35:03Z</time>
      </trkpt>
      <trkpt lat="42.18313" lon="0.05683">
        <ele>678.89</ele>
        <time>2021-08-02T14:35:07Z</time>
      </trkpt>
      <trkpt lat="42.18276" lon="0.05689">
        <ele>680.17</ele>
        <time>2021-08-02T14:35:10Z</time>
      </trkpt>
      <trkpt lat="42.18193" lon="0.05676">
        <ele>683.89</ele>
        <time>2021-08-02T14:35:17Z</time>
      </trkpt>
      <trkpt lat="42.18176" lon="0.05617">
        <ele>686.12</ele>
        <time>2021-08-02T14:35:21Z</time>
      </trkpt>
      <trkpt lat="42.18187" lon="0.0559">
        <ele>687.05</ele>
        <time>2021-08-02T14:35:23Z</time>
      </trkpt>
      <trkpt lat="42.18254" lon="0.05502">
        <ele>690.54</ele>
        <time>2021-08-02T14:35:30Z</time>
      </trkpt>
      <trkpt lat="42.18272" lon="0.05478">
        <ele>691.64</ele>
        <time>2021-08-02T14:35:32Z</time>
      </trkpt>
      <trkpt lat="42.18276" lon="0.05406">
        <ele>693.92</ele>
        <time>2021-08-02T14:35:38Z</time>
      </trkpt>
      <trkpt lat="42.18219" lon="0.05367">
        <ele>695.7</ele>
        <time>2021-08-02T14:35:43Z</time>
      </trkpt>
      <trkpt lat="42.1819" lon="0.0537">
        <ele>696.41</ele>
        <time>2021-08-02T14:35:45Z</time>
      </trkpt>
      <trkpt lat="42.18159" lon="0.05377">
        <ele>697.25</ele>
        <time>2021-08-02T14:35:47Z</time>
      </trkpt>
      <trkpt lat="42.18116" lon="0.05346">
        <ele>698.38</ele>
        <time>2021-08-02T14:35:51Z</time>
      </trkpt>
      <trkpt lat="42.18076" lon="0.0528">
        <ele>698.9</ele>
        <time>2021-08-02T14:35:56Z</time>
      </trkpt>
      <trkpt lat="42.18037" lon="0.05216">
        <ele>699.42</ele>
        <time>2021-08-02T14:36:00Z</time>
      </trkpt>
      <trkpt lat="42.18007" lon="0.05187">
        <ele>699.97</ele>
        <time>2021-08-02T14:36:02Z</time>
      </trkpt>
      <trkpt lat="42.17961" lon="0.05148">
        <ele>701.16</ele>
        <time>2021-08-02T14:36:05Z</time>
      </trkpt>
      <trkpt lat="42.1792" lon="0.0513">
        <ele>702.32</ele>
        <time>2021-08-02T14:36:08Z</time>
      </trkpt>
      <trkpt lat="42.17903" lon="0.05065">
        <ele>703.73</ele>
        <time>2021-08-02T14:36:13Z</time>
      </trkpt>
      <trkpt lat="42.17892" lon="0.04977">
        <ele>705.92</ele>
        <time>2021-08-02T14:36:19Z</time>
      </trkpt>
      <trkpt lat="42.17885" lon="0.049">
        <ele>708.23</ele>
        <time>2021-08-02T14:36:25Z</time>
      </trkpt>
      <trkpt lat="42.17924" lon="0.04915">
        <ele>709.54</ele>
        <time>2021-08-02T14:36:28Z</time>
      </trkpt>
      <trkpt lat="42.17937" lon="0.04927">
        <ele>709.99</ele>
        <time>2021-08-02T14:36:29Z</time>
      </trkpt>
      <trkpt lat="42.17994" lon="0.04987">
        <ele>712.17</ele>
        <time>2021-08-02T14:36:33Z</time>
      </trkpt>
      <trkpt lat="42.18036" lon="0.05081">
        <ele>714.3</ele>
        <time>2021-08-02T14:36:38Z</time>
      </trkpt>
      <trkpt lat="42.18063" lon="0.05101">
        <ele>714.87</ele>
        <time>2021-08-02T14:36:40Z</time>
      </trkpt>
      <trkpt lat="42.18201" lon="0.05175">
        <ele>718.18</ele>
        <time>2021-08-02T14:36:48Z</time>
      </trkpt>
      <trkpt lat="42.18266" lon="0.05222">
        <ele>721.31</ele>
        <time>2021-08-02T14:36:52Z</time>
      </trkpt>
      <trkpt lat="42.18321" lon="0.05273">
        <ele>725.07</ele>
        <time>2021-08-02T14:36:56Z</time>
      </trkpt>
      <trkpt lat="42.18386" lon="0.05388">
        <ele>728.99</ele>
        <time>2021-08-02T14:37:03Z</time>
      </trkpt>
      <trkpt lat="42.18393" lon="0.05511">
        <ele>730.62</ele>
        <time>2021-08-02T14:37:10Z</time>
      </trkpt>
      <trkpt lat="42.18415" lon="0.05545">
        <ele>730.67</ele>
        <time>2021-08-02T14:37:14Z</time>
      </trkpt>
      <trkpt lat="42.18484" lon="0.05554">
        <ele>730.77</ele>
        <time>2021-08-02T14:37:19Z</time>
      </trkpt>
      <trkpt lat="42.18541" lon="0.05496">
        <ele>731.5</ele>
        <time>2021-08-02T14:37:25Z</time>
      </trkpt>
      <trkpt lat="42.18577" lon="0.05465">
        <ele>732.11</ele>
        <time>2021-08-02T14:37:28Z</time>
      </trkpt>
      <trkpt lat="42.18652" lon="0.05431">
        <ele>734.93</ele>
        <time>2021-08-02T14:37:33Z</time>
      </trkpt>
      <trkpt lat="42.18713" lon="0.05446">
        <ele>740.19</ele>
        <time>2021-08-02T14:37:38Z</time>
      </trkpt>
      <trkpt lat="42.18748" lon="0.05452">
        <ele>743.51</ele>
        <time>2021-08-02T14:37:42Z</time>
      </trkpt>
      <trkpt lat="42.1879" lon="0.05408">
        <ele>747.03</ele>
        <time>2021-08-02T14:37:47Z</time>
      </trkpt>
      <trkpt lat="42.18801" lon="0.05402">
        <ele>747.74</ele>
        <time>2021-08-02T14:37:48Z</time>
      </trkpt>
      <trkpt lat="42.1884" lon="0.05383">
        <ele>750.13</ele>
        <time>2021-08-02T14:37:51Z</time>
      </trkpt>
      <trkpt lat="42.18903" lon="0.0539">
        <ele>754.4</ele>
        <time>2021-08-02T14:37:56Z</time>
      </trkpt>
      <trkpt lat="42.18946" lon="0.05373">
        <ele>757.92</ele>
        <time>2021-08-02T14:38:00Z</time>
      </trkpt>
      <trkpt lat="42.18958" lon="0.05319">
        <ele>761.4</ele>
        <time>2021-08-02T14:38:04Z</time>
      </trkpt>
      <trkpt lat="42.18985" lon="0.05258">
        <ele>765.86</ele>
        <time>2021-08-02T14:38:10Z</time>
      </trkpt>
      <trkpt lat="42.19039" lon="0.05219">
        <ele>769.17</ele>
        <time>2021-08-02T14:38:16Z</time>
      </trkpt>
      <trkpt lat="42.19115" lon="0.05187">
        <ele>771.62</ele>
        <time>2021-08-02T14:38:22Z</time>
      </trkpt>
      <trkpt lat="42.19158" lon="0.05198">
        <ele>772.74</ele>
        <time>2021-08-02T14:38:25Z</time>
      </trkpt>
      <trkpt lat="42.19204" lon="0.05218">
        <ele>774.42</ele>
        <time>2021-08-02T14:38:29Z</time>
      </trkpt>
      <trkpt lat="42.19242" lon="0.05187">
        <ele>777.89</ele>
        <time>2021-08-02T14:38:35Z</time>
      </trkpt>
      <trkpt lat="42.19243" lon="0.05174">
        <ele>778.41</ele>
        <time>2021-08-02T14:38:36Z</time>
      </trkpt>
      <trkpt lat="42.19294" lon="0.05106">
        <ele>781.99</ele>
        <time>2021-08-02T14:38:43Z</time>
      </trkpt>
      <trkpt lat="42.19307" lon="0.05079">
        <ele>782.89</ele>
        <time>2021-08-02T14:38:45Z</time>
      </trkpt>
      <trkpt lat="42.19321" lon="0.05044">
        <ele>783.68</ele>
        <time>2021-08-02T14:38:47Z</time>
      </trkpt>
      <trkpt lat="42.19382" lon="0.0499">
        <ele>785.03</ele>
        <time>2021-08-02T14:38:52Z</time>
      </trkpt>
      <trkpt lat="42.19432" lon="0.04993">
        <ele>785.56</ele>
        <time>2021-08-02T14:38:55Z</time>
      </trkpt>
      <trkpt lat="42.19604" lon="0.05054">
        <ele>787.06</ele>
        <time>2021-08-02T14:39:05Z</time>
      </trkpt>
      <trkpt lat="42.19675" lon="0.05092">
        <ele>787.18</ele>
        <time>2021-08-02T14:39:10Z</time>
      </trkpt>
      <trkpt lat="42.1973" lon="0.05086">
        <ele>786.39</ele>
        <time>2021-08-02T14:39:15Z</time>
      </trkpt>
      <trkpt lat="42.19789" lon="0.05049">
        <ele>785</ele>
        <time>2021-08-02T14:39:20Z</time>
      </trkpt>
      <trkpt lat="42.19847" lon="0.05038">
        <ele>784.15</ele>
        <time>2021-08-02T14:39:24Z</time>
      </trkpt>
      <trkpt lat="42.19918" lon="0.04986">
        <ele>783.03</ele>
        <time>2021-08-02T14:39:30Z</time>
      </trkpt>
      <trkpt lat="42.19977" lon="0.04996">
        <ele>782.73</ele>
        <time>2021-08-02T14:39:36Z</time>
      </trkpt>
      <trkpt lat="42.20037" lon="0.05062">
        <ele>783.66</ele>
        <time>2021-08-02T14:39:43Z</time>
      </trkpt>
      <trkpt lat="42.20045" lon="0.05066">
        <ele>783.91</ele>
        <time>2021-08-02T14:39:44Z</time>
      </trkpt>
      <trkpt lat="42.20054" lon="0.05068">
        <ele>784.23</ele>
        <time>2021-08-02T14:39:45Z</time>
      </trkpt>
      <trkpt lat="42.20081" lon="0.05056">
        <ele>785.22</ele>
        <time>2021-08-02T14:39:48Z</time>
      </trkpt>
      <trkpt lat="42.20107" lon="0.05038">
        <ele>786.49</ele>
        <time>2021-08-02T14:39:51Z</time>
      </trkpt>
      <trkpt lat="42.2014" lon="0.04951">
        <ele>790.49</ele>
        <time>2021-08-02T14:39:58Z</time>
      </trkpt>
      <trkpt lat="42.20124" lon="0.04877">
        <ele>793.8</ele>
        <time>2021-08-02T14:40:03Z</time>
      </trkpt>
      <trkpt lat="42.20129" lon="0.04845">
        <ele>795.26</ele>
        <time>2021-08-02T14:40:05Z</time>
      </trkpt>
      <trkpt lat="42.2014" lon="0.04758">
        <ele>799.01</ele>
        <time>2021-08-02T14:40:10Z</time>
      </trkpt>
      <trkpt lat="42.20138" lon="0.04667">
        <ele>802.62</ele>
        <time>2021-08-02T14:40:15Z</time>
      </trkpt>
      <trkpt lat="42.20139" lon="0.0465">
        <ele>803.39</ele>
        <time>2021-08-02T14:40:16Z</time>
      </trkpt>
      <trkpt lat="42.20159" lon="0.0459">
        <ele>806.45</ele>
        <time>2021-08-02T14:40:20Z</time>
      </trkpt>
      <trkpt lat="42.20178" lon="0.04564">
        <ele>807.73</ele>
        <time>2021-08-02T14:40:22Z</time>
      </trkpt>
      <trkpt lat="42.20199" lon="0.04519">
        <ele>809.18</ele>
        <time>2021-08-02T14:40:25Z</time>
      </trkpt>
      <trkpt lat="42.20264" lon="0.04441">
        <ele>811.11</ele>
        <time>2021-08-02T14:40:31Z</time>
      </trkpt>
      <trkpt lat="42.2037" lon="0.04404">
        <ele>812.74</ele>
        <time>2021-08-02T14:40:38Z</time>
      </trkpt>
      <trkpt lat="42.20437" lon="0.04388">
        <ele>813.66</ele>
        <time>2021-08-02T14:40:42Z</time>
      </trkpt>
      <trkpt lat="42.20505" lon="0.04403">
        <ele>814.27</ele>
        <time>2021-08-02T14:40:46Z</time>
      </trkpt>
      <trkpt lat="42.20576" lon="0.04437">
        <ele>814.62</ele>
        <time>2021-08-02T14:40:50Z</time>
      </trkpt>
      <trkpt lat="42.2063" lon="0.04447">
        <ele>814.91</ele>
        <time>2021-08-02T14:40:53Z</time>
      </trkpt>
      <trkpt lat="42.20787" lon="0.04516">
        <ele>815.45</ele>
        <time>2021-08-02T14:41:02Z</time>
      </trkpt>
      <trkpt lat="42.20913" lon="0.04551">
        <ele>814.39</ele>
        <time>2021-08-02T14:41:10Z</time>
      </trkpt>
      <trkpt lat="42.20969" lon="0.04607">
        <ele>811.97</ele>
        <time>2021-08-02T14:41:15Z</time>
      </trkpt>
      <trkpt lat="42.20976" lon="0.04625">
        <ele>811.25</ele>
        <time>2021-08-02T14:41:16Z</time>
      </trkpt>
      <trkpt lat="42.20995" lon="0.04674">
        <ele>809.13</ele>
        <time>2021-08-02T14:41:19Z</time>
      </trkpt>
      <trkpt lat="42.2104" lon="0.04699">
        <ele>805.17</ele>
        <time>2021-08-02T14:41:24Z</time>
      </trkpt>
      <trkpt lat="42.21059" lon="0.04627">
        <ele>803.08</ele>
        <time>2021-08-02T14:41:28Z</time>
      </trkpt>
      <trkpt lat="42.21067" lon="0.04551">
        <ele>801.86</ele>
        <time>2021-08-02T14:41:32Z</time>
      </trkpt>
      <trkpt lat="42.21096" lon="0.04476">
        <ele>800.22</ele>
        <time>2021-08-02T14:41:37Z</time>
      </trkpt>
      <trkpt lat="42.21164" lon="0.04432">
        <ele>798.8</ele>
        <time>2021-08-02T14:41:43Z</time>
      </trkpt>
      <trkpt lat="42.21197" lon="0.0438">
        <ele>797.54</ele>
        <time>2021-08-02T14:41:48Z</time>
      </trkpt>
      <trkpt lat="42.21184" lon="0.04325">
        <ele>796.75</ele>
        <time>2021-08-02T14:41:52Z</time>
      </trkpt>
      <trkpt lat="42.21208" lon="0.04267">
        <ele>796.1</ele>
        <time>2021-08-02T14:41:56Z</time>
      </trkpt>
      <trkpt lat="42.21275" lon="0.04249">
        <ele>795.17</ele>
        <time>2021-08-02T14:42:01Z</time>
      </trkpt>
      <trkpt lat="42.21339" lon="0.04308">
        <ele>792.99</ele>
        <time>2021-08-02T14:42:07Z</time>
      </trkpt>
      <trkpt lat="42.21374" lon="0.0437">
        <ele>789.82</ele>
        <time>2021-08-02T14:42:12Z</time>
      </trkpt>
      <trkpt lat="42.2144" lon="0.04377">
        <ele>786.48</ele>
        <time>2021-08-02T14:42:17Z</time>
      </trkpt>
      <trkpt lat="42.21475" lon="0.04334">
        <ele>783.56</ele>
        <time>2021-08-02T14:42:21Z</time>
      </trkpt>
      <trkpt lat="42.21505" lon="0.0422">
        <ele>779.33</ele>
        <time>2021-08-02T14:42:27Z</time>
      </trkpt>
      <trkpt lat="42.21513" lon="0.04171">
        <ele>777.23</ele>
        <time>2021-08-02T14:42:30Z</time>
      </trkpt>
      <trkpt lat="42.21518" lon="0.0414">
        <ele>774.7</ele>
        <time>2021-08-02T14:42:33Z</time>
      </trkpt>
      <trkpt lat="42.2152" lon="0.04121">
        <ele>770.41</ele>
        <time>2021-08-02T14:42:37Z</time>
      </trkpt>
      <trkpt lat="42.21522" lon="0.04111">
        <ele>769.23</ele>
        <time>2021-08-02T14:42:39Z</time>
      </trkpt>
      <trkpt lat="42.21534" lon="0.0409">
        <ele>766.89</ele>
        <time>2021-08-02T14:42:45Z</time>
      </trkpt>
      <trkpt lat="42.21557" lon="0.04062">
        <ele>766.32</ele>
        <time>2021-08-02T14:42:54Z</time>
      </trkpt>
      <trkpt lat="42.21544" lon="0.04064">
        <ele>766.7</ele>
        <time>2021-08-02T14:43:02Z</time>
      </trkpt>
      <trkpt lat="42.21528" lon="0.04097">
        <ele>766.13</ele>
        <time>2021-08-02T14:43:09Z</time>
      </trkpt>
      <trkpt lat="42.21525" lon="0.04124">
        <ele>765.34</ele>
        <time>2021-08-02T14:43:17Z</time>
      </trkpt>
      <trkpt lat="42.21529" lon="0.04121">
        <ele>765.32</ele>
        <time>2021-08-02T14:43:18Z</time>
      </trkpt>
      <trkpt lat="42.21541" lon="0.04112">
        <ele>765.27</ele>
        <time>2021-08-02T14:43:20Z</time>
      </trkpt>
      <trkpt lat="42.21599" lon="0.04144">
        <ele>764.43</ele>
        <time>2021-08-02T14:43:26Z</time>
      </trkpt>
      <trkpt lat="42.21607" lon="0.04228">
        <ele>762.56</ele>
        <time>2021-08-02T14:43:31Z</time>
      </trkpt>
      <trkpt lat="42.2159" lon="0.04328">
        <ele>758.96</ele>
        <time>2021-08-02T14:43:37Z</time>
      </trkpt>
      <trkpt lat="42.21585" lon="0.04407">
        <ele>755.1</ele>
        <time>2021-08-02T14:43:42Z</time>
      </trkpt>
      <trkpt lat="42.21547" lon="0.04487">
        <ele>750.57</ele>
        <time>2021-08-02T14:43:48Z</time>
      </trkpt>
      <trkpt lat="42.21536" lon="0.04492">
        <ele>749.74</ele>
        <time>2021-08-02T14:43:49Z</time>
      </trkpt>
      <trkpt lat="42.21502" lon="0.0455">
        <ele>744.69</ele>
        <time>2021-08-02T14:43:55Z</time>
      </trkpt>
      <trkpt lat="42.21502" lon="0.04563">
        <ele>743.89</ele>
        <time>2021-08-02T14:43:56Z</time>
      </trkpt>
      <trkpt lat="42.21481" lon="0.0461">
        <ele>739.01</ele>
        <time>2021-08-02T14:44:02Z</time>
      </trkpt>
      <trkpt lat="42.21443" lon="0.0463">
        <ele>735.51</ele>
        <time>2021-08-02T14:44:07Z</time>
      </trkpt>
      <trkpt lat="42.21412" lon="0.04665">
        <ele>732.95</ele>
        <time>2021-08-02T14:44:11Z</time>
      </trkpt>
      <trkpt lat="42.21413" lon="0.04708">
        <ele>730.08</ele>
        <time>2021-08-02T14:44:16Z</time>
      </trkpt>
      <trkpt lat="42.2144" lon="0.04704">
        <ele>729.01</ele>
        <time>2021-08-02T14:44:19Z</time>
      </trkpt>
      <trkpt lat="42.2149" lon="0.04695">
        <ele>727.25</ele>
        <time>2021-08-02T14:44:23Z</time>
      </trkpt>
      <trkpt lat="42.21551" lon="0.04666">
        <ele>724.52</ele>
        <time>2021-08-02T14:44:28Z</time>
      </trkpt>
      <trkpt lat="42.21617" lon="0.04669">
        <ele>720.77</ele>
        <time>2021-08-02T14:44:33Z</time>
      </trkpt>
      <trkpt lat="42.21645" lon="0.04721">
        <ele>717.14</ele>
        <time>2021-08-02T14:44:37Z</time>
      </trkpt>
      <trkpt lat="42.21658" lon="0.04787">
        <ele>713.64</ele>
        <time>2021-08-02T14:44:41Z</time>
      </trkpt>
      <trkpt lat="42.21659" lon="0.04892">
        <ele>708.21</ele>
        <time>2021-08-02T14:44:47Z</time>
      </trkpt>
      <trkpt lat="42.2168" lon="0.04954">
        <ele>702.77</ele>
        <time>2021-08-02T14:44:53Z</time>
      </trkpt>
      <trkpt lat="42.2172" lon="0.04927">
        <ele>699.44</ele>
        <time>2021-08-02T14:44:58Z</time>
      </trkpt>
      <trkpt lat="42.21723" lon="0.0491">
        <ele>699.06</ele>
        <time>2021-08-02T14:44:59Z</time>
      </trkpt>
      <trkpt lat="42.21729" lon="0.04874">
        <ele>698.33</ele>
        <time>2021-08-02T14:45:01Z</time>
      </trkpt>
      <trkpt lat="42.21737" lon="0.04762">
        <ele>697.02</ele>
        <time>2021-08-02T14:45:07Z</time>
      </trkpt>
      <trkpt lat="42.21754" lon="0.04702">
        <ele>697.06</ele>
        <time>2021-08-02T14:45:11Z</time>
      </trkpt>
      <trkpt lat="42.21768" lon="0.04674">
        <ele>697.34</ele>
        <time>2021-08-02T14:45:13Z</time>
      </trkpt>
      <trkpt lat="42.2184" lon="0.04591">
        <ele>699.62</ele>
        <time>2021-08-02T14:45:20Z</time>
      </trkpt>
      <trkpt lat="42.21889" lon="0.04565">
        <ele>701.54</ele>
        <time>2021-08-02T14:45:24Z</time>
      </trkpt>
      <trkpt lat="42.21955" lon="0.04557">
        <ele>703.89</ele>
        <time>2021-08-02T14:45:29Z</time>
      </trkpt>
      <trkpt lat="42.21992" lon="0.04579">
        <ele>705.24</ele>
        <time>2021-08-02T14:45:33Z</time>
      </trkpt>
      <trkpt lat="42.22029" lon="0.0464">
        <ele>705.75</ele>
        <time>2021-08-02T14:45:38Z</time>
      </trkpt>
      <trkpt lat="42.22093" lon="0.04669">
        <ele>706.07</ele>
        <time>2021-08-02T14:45:44Z</time>
      </trkpt>
      <trkpt lat="42.2215" lon="0.04717">
        <ele>705.9</ele>
        <time>2021-08-02T14:45:51Z</time>
      </trkpt>
      <trkpt lat="42.22151" lon="0.04752">
        <ele>705.73</ele>
        <time>2021-08-02T14:45:53Z</time>
      </trkpt>
      <trkpt lat="42.22151" lon="0.04877">
        <ele>705.28</ele>
        <time>2021-08-02T14:46:00Z</time>
      </trkpt>
      <trkpt lat="42.22162" lon="0.04925">
        <ele>704.64</ele>
        <time>2021-08-02T14:46:03Z</time>
      </trkpt>
      <trkpt lat="42.22154" lon="0.05028">
        <ele>702.76</ele>
        <time>2021-08-02T14:46:09Z</time>
      </trkpt>
      <trkpt lat="42.22124" lon="0.05126">
        <ele>699.88</ele>
        <time>2021-08-02T14:46:15Z</time>
      </trkpt>
      <trkpt lat="42.22126" lon="0.05164">
        <ele>699.2</ele>
        <time>2021-08-02T14:46:17Z</time>
      </trkpt>
      <trkpt lat="42.22118" lon="0.05234">
        <ele>697.49</ele>
        <time>2021-08-02T14:46:21Z</time>
      </trkpt>
      <trkpt lat="42.22147" lon="0.05279">
        <ele>695.65</ele>
        <time>2021-08-02T14:46:26Z</time>
      </trkpt>
      <trkpt lat="42.22181" lon="0.05231">
        <ele>695.13</ele>
        <time>2021-08-02T14:46:30Z</time>
      </trkpt>
      <trkpt lat="42.22208" lon="0.05132">
        <ele>695.93</ele>
        <time>2021-08-02T14:46:36Z</time>
      </trkpt>
      <trkpt lat="42.22256" lon="0.05109">
        <ele>697.29</ele>
        <time>2021-08-02T14:46:40Z</time>
      </trkpt>
      <trkpt lat="42.22271" lon="0.0511">
        <ele>697.94</ele>
        <time>2021-08-02T14:46:41Z</time>
      </trkpt>
      <trkpt lat="42.22366" lon="0.05112">
        <ele>701.68</ele>
        <time>2021-08-02T14:46:47Z</time>
      </trkpt>
      <trkpt lat="42.22381" lon="0.05113">
        <ele>702.29</ele>
        <time>2021-08-02T14:46:48Z</time>
      </trkpt>
      <trkpt lat="42.22409" lon="0.05121">
        <ele>703.63</ele>
        <time>2021-08-02T14:46:50Z</time>
      </trkpt>
      <trkpt lat="42.22422" lon="0.05131">
        <ele>704.41</ele>
        <time>2021-08-02T14:46:51Z</time>
      </trkpt>
      <trkpt lat="42.22436" lon="0.05142">
        <ele>705.19</ele>
        <time>2021-08-02T14:46:52Z</time>
      </trkpt>
      <trkpt lat="42.22449" lon="0.05153">
        <ele>705.91</ele>
        <time>2021-08-02T14:46:53Z</time>
      </trkpt>
      <trkpt lat="42.22536" lon="0.05219">
        <ele>710.27</ele>
        <time>2021-08-02T14:46:59Z</time>
      </trkpt>
      <trkpt lat="42.22595" lon="0.05253">
        <ele>711.86</ele>
        <time>2021-08-02T14:47:03Z</time>
      </trkpt>
      <trkpt lat="42.22644" lon="0.05221">
        <ele>711.24</ele>
        <time>2021-08-02T14:47:09Z</time>
      </trkpt>
      <trkpt lat="42.22648" lon="0.05192">
        <ele>710.48</ele>
        <time>2021-08-02T14:47:11Z</time>
      </trkpt>
      <trkpt lat="42.22662" lon="0.05112">
        <ele>709.86</ele>
        <time>2021-08-02T14:47:16Z</time>
      </trkpt>
      <trkpt lat="42.22708" lon="0.05072">
        <ele>710</ele>
        <time>2021-08-02T14:47:21Z</time>
      </trkpt>
      <trkpt lat="42.22759" lon="0.05085">
        <ele>709.99</ele>
        <time>2021-08-02T14:47:25Z</time>
      </trkpt>
      <trkpt lat="42.22803" lon="0.05113">
        <ele>709.71</ele>
        <time>2021-08-02T14:47:29Z</time>
      </trkpt>
      <trkpt lat="42.2286" lon="0.05175">
        <ele>708.94</ele>
        <time>2021-08-02T14:47:35Z</time>
      </trkpt>
      <trkpt lat="42.2289" lon="0.05251">
        <ele>708.57</ele>
        <time>2021-08-02T14:47:40Z</time>
      </trkpt>
      <trkpt lat="42.22907" lon="0.05385">
        <ele>708.06</ele>
        <time>2021-08-02T14:47:47Z</time>
      </trkpt>
      <trkpt lat="42.22949" lon="0.05483">
        <ele>707.24</ele>
        <time>2021-08-02T14:47:53Z</time>
      </trkpt>
      <trkpt lat="42.22948" lon="0.05536">
        <ele>706.62</ele>
        <time>2021-08-02T14:47:56Z</time>
      </trkpt>
      <trkpt lat="42.22936" lon="0.05592">
        <ele>705.82</ele>
        <time>2021-08-02T14:47:59Z</time>
      </trkpt>
      <trkpt lat="42.22917" lon="0.05642">
        <ele>704.88</ele>
        <time>2021-08-02T14:48:02Z</time>
      </trkpt>
      <trkpt lat="42.22922" lon="0.05707">
        <ele>702.89</ele>
        <time>2021-08-02T14:48:07Z</time>
      </trkpt>
      <trkpt lat="42.22977" lon="0.05692">
        <ele>700.95</ele>
        <time>2021-08-02T14:48:12Z</time>
      </trkpt>
      <trkpt lat="42.23003" lon="0.0567">
        <ele>700.88</ele>
        <time>2021-08-02T14:48:14Z</time>
      </trkpt>
      <trkpt lat="42.23127" lon="0.05616">
        <ele>704.09</ele>
        <time>2021-08-02T14:48:22Z</time>
      </trkpt>
      <trkpt lat="42.23171" lon="0.056">
        <ele>705.68</ele>
        <time>2021-08-02T14:48:25Z</time>
      </trkpt>
      <trkpt lat="42.23217" lon="0.05631">
        <ele>707</ele>
        <time>2021-08-02T14:48:30Z</time>
      </trkpt>
      <trkpt lat="42.23206" lon="0.05683">
        <ele>707.29</ele>
        <time>2021-08-02T14:48:33Z</time>
      </trkpt>
      <trkpt lat="42.23188" lon="0.0574">
        <ele>707.43</ele>
        <time>2021-08-02T14:48:36Z</time>
      </trkpt>
      <trkpt lat="42.23197" lon="0.05813">
        <ele>706.41</ele>
        <time>2021-08-02T14:48:41Z</time>
      </trkpt>
      <trkpt lat="42.23247" lon="0.05921">
        <ele>705.34</ele>
        <time>2021-08-02T14:48:47Z</time>
      </trkpt>
      <trkpt lat="42.23265" lon="0.06007">
        <ele>708.16</ele>
        <time>2021-08-02T14:48:51Z</time>
      </trkpt>
      <trkpt lat="42.23287" lon="0.06086">
        <ele>710.98</ele>
        <time>2021-08-02T14:48:55Z</time>
      </trkpt>
      <trkpt lat="42.23314" lon="0.06137">
        <ele>713.54</ele>
        <time>2021-08-02T14:48:58Z</time>
      </trkpt>
      <trkpt lat="42.2332" lon="0.06228">
        <ele>717.33</ele>
        <time>2021-08-02T14:49:03Z</time>
      </trkpt>
      <trkpt lat="42.23317" lon="0.06247">
        <ele>718.36</ele>
        <time>2021-08-02T14:49:04Z</time>
      </trkpt>
      <trkpt lat="42.23313" lon="0.06284">
        <ele>720.36</ele>
        <time>2021-08-02T14:49:06Z</time>
      </trkpt>
      <trkpt lat="42.23326" lon="0.06379">
        <ele>724.02</ele>
        <time>2021-08-02T14:49:11Z</time>
      </trkpt>
      <trkpt lat="42.23344" lon="0.06458">
        <ele>727.84</ele>
        <time>2021-08-02T14:49:15Z</time>
      </trkpt>
      <trkpt lat="42.23349" lon="0.06476">
        <ele>728.79</ele>
        <time>2021-08-02T14:49:16Z</time>
      </trkpt>
      <trkpt lat="42.23381" lon="0.06542">
        <ele>732.24</ele>
        <time>2021-08-02T14:49:20Z</time>
      </trkpt>
      <trkpt lat="42.23428" lon="0.06597">
        <ele>736.02</ele>
        <time>2021-08-02T14:49:24Z</time>
      </trkpt>
      <trkpt lat="42.23501" lon="0.06641">
        <ele>740.58</ele>
        <time>2021-08-02T14:49:29Z</time>
      </trkpt>
      <trkpt lat="42.23575" lon="0.06678">
        <ele>744.25</ele>
        <time>2021-08-02T14:49:34Z</time>
      </trkpt>
      <trkpt lat="42.23651" lon="0.06714">
        <ele>747.38</ele>
        <time>2021-08-02T14:49:39Z</time>
      </trkpt>
      <trkpt lat="42.23868" lon="0.06823">
        <ele>748.14</ele>
        <time>2021-08-02T14:49:52Z</time>
      </trkpt>
      <trkpt lat="42.24026" lon="0.06902">
        <ele>748.83</ele>
        <time>2021-08-02T14:50:02Z</time>
      </trkpt>
      <trkpt lat="42.24083" lon="0.0693">
        <ele>748.56</ele>
        <time>2021-08-02T14:50:06Z</time>
      </trkpt>
      <trkpt lat="42.24123" lon="0.07002">
        <ele>747.49</ele>
        <time>2021-08-02T14:50:11Z</time>
      </trkpt>
      <trkpt lat="42.24137" lon="0.07053">
        <ele>746.78</ele>
        <time>2021-08-02T14:50:14Z</time>
      </trkpt>
      <trkpt lat="42.24177" lon="0.07089">
        <ele>743.57</ele>
        <time>2021-08-02T14:50:19Z</time>
      </trkpt>
      <trkpt lat="42.24212" lon="0.07089">
        <ele>741.6</ele>
        <time>2021-08-02T14:50:22Z</time>
      </trkpt>
      <trkpt lat="42.24259" lon="0.07124">
        <ele>739.77</ele>
        <time>2021-08-02T14:50:28Z</time>
      </trkpt>
      <trkpt lat="42.24262" lon="0.07132">
        <ele>739.66</ele>
        <time>2021-08-02T14:50:29Z</time>
      </trkpt>
      <trkpt lat="42.24293" lon="0.07214">
        <ele>740.05</ele>
        <time>2021-08-02T14:50:39Z</time>
      </trkpt>
      <trkpt lat="42.24322" lon="0.07284">
        <ele>740.52</ele>
        <time>2021-08-02T14:50:50Z</time>
      </trkpt>
      <trkpt lat="42.24335" lon="0.073">
        <ele>740.59</ele>
        <time>2021-08-02T14:50:55Z</time>
      </trkpt>
      <trkpt lat="42.24338" lon="0.07302">
        <ele>739.97</ele>
        <time>2021-08-02T14:51:09Z</time>
      </trkpt>
      <trkpt lat="42.24338" lon="0.07302">
        <ele>739.92</ele>
        <time>2021-08-02T14:51:11Z</time>
      </trkpt>
      <trkpt lat="42.24332" lon="0.07299">
        <ele>740.6</ele>
        <time>2021-08-02T14:51:25Z</time>
      </trkpt>
      <trkpt lat="42.24332" lon="0.07299">
        <ele>740.65</ele>
        <time>2021-08-02T14:51:39Z</time>
      </trkpt>
      <trkpt lat="42.24342" lon="0.07305">
        <ele>740.88</ele>
        <time>2021-08-02T14:51:43Z</time>
      </trkpt>
      <trkpt lat="42.24344" lon="0.07314">
        <ele>741.23</ele>
        <time>2021-08-02T14:51:54Z</time>
      </trkpt>
      <trkpt lat="42.24343" lon="0.07316">
        <ele>741</ele>
        <time>2021-08-02T14:52:37Z</time>
      </trkpt>
      <trkpt lat="42.24344" lon="0.07314">
        <ele>740.99</ele>
        <time>2021-08-02T14:52:39Z</time>
      </trkpt>
      <trkpt lat="42.24351" lon="0.0731">
        <ele>740.81</ele>
        <time>2021-08-02T14:52:47Z</time>
      </trkpt>
      <trkpt lat="42.24332" lon="0.07299">
        <ele>740.98</ele>
        <time>2021-08-02T14:52:52Z</time>
      </trkpt>
      <trkpt lat="42.24288" lon="0.07208">
        <ele>742.74</ele>
        <time>2021-08-02T14:53:00Z</time>
      </trkpt>
      <trkpt lat="42.24254" lon="0.07126">
        <ele>743.28</ele>
        <time>2021-08-02T14:53:06Z</time>
      </trkpt>
      <trkpt lat="42.24207" lon="0.07088">
        <ele>742.48</ele>
        <time>2021-08-02T14:53:12Z</time>
      </trkpt>
      <trkpt lat="42.24198" lon="0.07088">
        <ele>740</ele>
        <time>2021-08-02T14:53:19Z</time>
      </trkpt>
      <trkpt lat="42.24196" lon="0.07087">
        <ele>738.3</ele>
        <time>2021-08-02T14:53:28Z</time>
      </trkpt>
      <trkpt lat="42.2417" lon="0.07086">
        <ele>738.25</ele>
        <time>2021-08-02T14:53:32Z</time>
      </trkpt>
      <trkpt lat="42.24132" lon="0.07048">
        <ele>739.45</ele>
        <time>2021-08-02T14:53:37Z</time>
      </trkpt>
      <trkpt lat="42.24103" lon="0.06957">
        <ele>742.76</ele>
        <time>2021-08-02T14:53:46Z</time>
      </trkpt>
      <trkpt lat="42.24103" lon="0.06956">
        <ele>741.92</ele>
        <time>2021-08-02T14:53:56Z</time>
      </trkpt>
      <trkpt lat="42.24098" lon="0.06937">
        <ele>741.8</ele>
        <time>2021-08-02T14:54:06Z</time>
      </trkpt>
      <trkpt lat="42.24111" lon="0.06935">
        <ele>743.12</ele>
        <time>2021-08-02T14:54:18Z</time>
      </trkpt>
      <trkpt lat="42.24111" lon="0.06935">
        <ele>743.86</ele>
        <time>2021-08-02T14:55:46Z</time>
      </trkpt>
      <trkpt lat="42.24116" lon="0.0694">
        <ele>743.69</ele>
        <time>2021-08-02T14:55:57Z</time>
      </trkpt>
      <trkpt lat="42.24111" lon="0.06937">
        <ele>743.42</ele>
        <time>2021-08-02T14:56:02Z</time>
      </trkpt>
      <trkpt lat="42.24105" lon="0.06945">
        <ele>743.59</ele>
        <time>2021-08-02T14:56:05Z</time>
      </trkpt>
      <trkpt lat="42.24118" lon="0.07013">
        <ele>743.93</ele>
        <time>2021-08-02T14:56:12Z</time>
      </trkpt>
      <trkpt lat="42.24127" lon="0.07045">
        <ele>743.88</ele>
        <time>2021-08-02T14:56:14Z</time>
      </trkpt>
      <trkpt lat="42.24183" lon="0.07091">
        <ele>742.49</ele>
        <time>2021-08-02T14:56:20Z</time>
      </trkpt>
      <trkpt lat="42.2426" lon="0.0714">
        <ele>741.78</ele>
        <time>2021-08-02T14:56:26Z</time>
      </trkpt>
      <trkpt lat="42.24268" lon="0.0716">
        <ele>741.96</ele>
        <time>2021-08-02T14:56:27Z</time>
      </trkpt>
      <trkpt lat="42.2431" lon="0.07265">
        <ele>744.13</ele>
        <time>2021-08-02T14:56:32Z</time>
      </trkpt>
      <trkpt lat="42.2436" lon="0.07315">
        <ele>746.08</ele>
        <time>2021-08-02T14:56:36Z</time>
      </trkpt>
      <trkpt lat="42.2443" lon="0.073">
        <ele>746.17</ele>
        <time>2021-08-02T14:56:41Z</time>
      </trkpt>
      <trkpt lat="42.24444" lon="0.07243">
        <ele>745.67</ele>
        <time>2021-08-02T14:56:44Z</time>
      </trkpt>
      <trkpt lat="42.24464" lon="0.07054">
        <ele>747.34</ele>
        <time>2021-08-02T14:56:52Z</time>
      </trkpt>
      <trkpt lat="42.24492" lon="0.0697">
        <ele>750.15</ele>
        <time>2021-08-02T14:56:56Z</time>
      </trkpt>
      <trkpt lat="42.2452" lon="0.06916">
        <ele>752.27</ele>
        <time>2021-08-02T14:56:59Z</time>
      </trkpt>
      <trkpt lat="42.24612" lon="0.06824">
        <ele>756.47</ele>
        <time>2021-08-02T14:57:07Z</time>
      </trkpt>
      <trkpt lat="42.24658" lon="0.06783">
        <ele>760.18</ele>
        <time>2021-08-02T14:57:11Z</time>
      </trkpt>
      <trkpt lat="42.24685" lon="0.06761">
        <ele>762.49</ele>
        <time>2021-08-02T14:57:14Z</time>
      </trkpt>
      <trkpt lat="42.24738" lon="0.06747">
        <ele>765.51</ele>
        <time>2021-08-02T14:57:19Z</time>
      </trkpt>
      <trkpt lat="42.2479" lon="0.06743">
        <ele>766.06</ele>
        <time>2021-08-02T14:57:23Z</time>
      </trkpt>
      <trkpt lat="42.24834" lon="0.06768">
        <ele>765.02</ele>
        <time>2021-08-02T14:57:27Z</time>
      </trkpt>
      <trkpt lat="42.24895" lon="0.06801">
        <ele>763.39</ele>
        <time>2021-08-02T14:57:32Z</time>
      </trkpt>
      <trkpt lat="42.25033" lon="0.06821">
        <ele>761.72</ele>
        <time>2021-08-02T14:57:40Z</time>
      </trkpt>
      <trkpt lat="42.2505" lon="0.06825">
        <ele>761.58</ele>
        <time>2021-08-02T14:57:41Z</time>
      </trkpt>
      <trkpt lat="42.25119" lon="0.06822">
        <ele>760.35</ele>
        <time>2021-08-02T14:57:45Z</time>
      </trkpt>
      <trkpt lat="42.25152" lon="0.06813">
        <ele>759.73</ele>
        <time>2021-08-02T14:57:47Z</time>
      </trkpt>
      <trkpt lat="42.25268" lon="0.06831">
        <ele>757.95</ele>
        <time>2021-08-02T14:57:54Z</time>
      </trkpt>
      <trkpt lat="42.25391" lon="0.06864">
        <ele>757.76</ele>
        <time>2021-08-02T14:58:01Z</time>
      </trkpt>
      <trkpt lat="42.25435" lon="0.06928">
        <ele>755.31</ele>
        <time>2021-08-02T14:58:06Z</time>
      </trkpt>
      <trkpt lat="42.25435" lon="0.06949">
        <ele>754.66</ele>
        <time>2021-08-02T14:58:07Z</time>
      </trkpt>
      <trkpt lat="42.25433" lon="0.07013">
        <ele>753.47</ele>
        <time>2021-08-02T14:58:10Z</time>
      </trkpt>
      <trkpt lat="42.2547" lon="0.07068">
        <ele>751.18</ele>
        <time>2021-08-02T14:58:14Z</time>
      </trkpt>
      <trkpt lat="42.25566" lon="0.07124">
        <ele>747.06</ele>
        <time>2021-08-02T14:58:20Z</time>
      </trkpt>
      <trkpt lat="42.25782" lon="0.07257">
        <ele>747.77</ele>
        <time>2021-08-02T14:58:33Z</time>
      </trkpt>
      <trkpt lat="42.25814" lon="0.07276">
        <ele>748.01</ele>
        <time>2021-08-02T14:58:35Z</time>
      </trkpt>
      <trkpt lat="42.25907" lon="0.07266">
        <ele>747.41</ele>
        <time>2021-08-02T14:58:41Z</time>
      </trkpt>
      <trkpt lat="42.26076" lon="0.07164">
        <ele>746.76</ele>
        <time>2021-08-02T14:58:51Z</time>
      </trkpt>
      <trkpt lat="42.26125" lon="0.07109">
        <ele>746.74</ele>
        <time>2021-08-02T14:58:55Z</time>
      </trkpt>
      <trkpt lat="42.26202" lon="0.06951">
        <ele>748.83</ele>
        <time>2021-08-02T14:59:03Z</time>
      </trkpt>
      <trkpt lat="42.26219" lon="0.06915">
        <ele>749.59</ele>
        <time>2021-08-02T14:59:05Z</time>
      </trkpt>
      <trkpt lat="42.26239" lon="0.06803">
        <ele>753.26</ele>
        <time>2021-08-02T14:59:10Z</time>
      </trkpt>
      <trkpt lat="42.26235" lon="0.06698">
        <ele>757.1</ele>
        <time>2021-08-02T14:59:14Z</time>
      </trkpt>
      <trkpt lat="42.26227" lon="0.06617">
        <ele>760.4</ele>
        <time>2021-08-02T14:59:17Z</time>
      </trkpt>
      <trkpt lat="42.26218" lon="0.06509">
        <ele>764.51</ele>
        <time>2021-08-02T14:59:21Z</time>
      </trkpt>
      <trkpt lat="42.26206" lon="0.06402">
        <ele>768.2</ele>
        <time>2021-08-02T14:59:25Z</time>
      </trkpt>
      <trkpt lat="42.2619" lon="0.06305">
        <ele>771.48</ele>
        <time>2021-08-02T14:59:29Z</time>
      </trkpt>
      <trkpt lat="42.2616" lon="0.06237">
        <ele>774.8</ele>
        <time>2021-08-02T14:59:33Z</time>
      </trkpt>
      <trkpt lat="42.26142" lon="0.06208">
        <ele>775.86</ele>
        <time>2021-08-02T14:59:35Z</time>
      </trkpt>
      <trkpt lat="42.2613" lon="0.06117">
        <ele>778.16</ele>
        <time>2021-08-02T14:59:41Z</time>
      </trkpt>
      <trkpt lat="42.26167" lon="0.06074">
        <ele>780.21</ele>
        <time>2021-08-02T14:59:46Z</time>
      </trkpt>
      <trkpt lat="42.26195" lon="0.06089">
        <ele>781.26</ele>
        <time>2021-08-02T14:59:49Z</time>
      </trkpt>
      <trkpt lat="42.2626" lon="0.06141">
        <ele>785.09</ele>
        <time>2021-08-02T14:59:57Z</time>
      </trkpt>
      <trkpt lat="42.26312" lon="0.06188">
        <ele>788.35</ele>
        <time>2021-08-02T15:00:02Z</time>
      </trkpt>
      <trkpt lat="42.26358" lon="0.06229">
        <ele>791.79</ele>
        <time>2021-08-02T15:00:06Z</time>
      </trkpt>
      <trkpt lat="42.26393" lon="0.06265">
        <ele>794.5</ele>
        <time>2021-08-02T15:00:09Z</time>
      </trkpt>
      <trkpt lat="42.26439" lon="0.06341">
        <ele>799.09</ele>
        <time>2021-08-02T15:00:14Z</time>
      </trkpt>
      <trkpt lat="42.26495" lon="0.06354">
        <ele>803.68</ele>
        <time>2021-08-02T15:00:19Z</time>
      </trkpt>
      <trkpt lat="42.26507" lon="0.06347">
        <ele>804.46</ele>
        <time>2021-08-02T15:00:20Z</time>
      </trkpt>
      <trkpt lat="42.26546" lon="0.06319">
        <ele>806.84</ele>
        <time>2021-08-02T15:00:23Z</time>
      </trkpt>
      <trkpt lat="42.266" lon="0.06324">
        <ele>811.5</ele>
        <time>2021-08-02T15:00:28Z</time>
      </trkpt>
      <trkpt lat="42.26595" lon="0.06376">
        <ele>813.89</ele>
        <time>2021-08-02T15:00:31Z</time>
      </trkpt>
      <trkpt lat="42.266" lon="0.06492">
        <ele>819.64</ele>
        <time>2021-08-02T15:00:37Z</time>
      </trkpt>
      <trkpt lat="42.26631" lon="0.06542">
        <ele>822.53</ele>
        <time>2021-08-02T15:00:40Z</time>
      </trkpt>
      <trkpt lat="42.26692" lon="0.06617">
        <ele>827.34</ele>
        <time>2021-08-02T15:00:45Z</time>
      </trkpt>
      <trkpt lat="42.26734" lon="0.06647">
        <ele>831.64</ele>
        <time>2021-08-02T15:00:48Z</time>
      </trkpt>
      <trkpt lat="42.26776" lon="0.06647">
        <ele>835.08</ele>
        <time>2021-08-02T15:00:51Z</time>
      </trkpt>
      <trkpt lat="42.2679" lon="0.0664">
        <ele>836.11</ele>
        <time>2021-08-02T15:00:52Z</time>
      </trkpt>
      <trkpt lat="42.26831" lon="0.06617">
        <ele>839.25</ele>
        <time>2021-08-02T15:00:55Z</time>
      </trkpt>
      <trkpt lat="42.26889" lon="0.06635">
        <ele>843.48</ele>
        <time>2021-08-02T15:01:00Z</time>
      </trkpt>
      <trkpt lat="42.26917" lon="0.06669">
        <ele>845.85</ele>
        <time>2021-08-02T15:01:03Z</time>
      </trkpt>
      <trkpt lat="42.26928" lon="0.06748">
        <ele>848.71</ele>
        <time>2021-08-02T15:01:08Z</time>
      </trkpt>
      <trkpt lat="42.26942" lon="0.06849">
        <ele>853.03</ele>
        <time>2021-08-02T15:01:14Z</time>
      </trkpt>
      <trkpt lat="42.26953" lon="0.06864">
        <ele>853.91</ele>
        <time>2021-08-02T15:01:15Z</time>
      </trkpt>
      <trkpt lat="42.27013" lon="0.06929">
        <ele>858.19</ele>
        <time>2021-08-02T15:01:20Z</time>
      </trkpt>
      <trkpt lat="42.27035" lon="0.06951">
        <ele>859.71</ele>
        <time>2021-08-02T15:01:22Z</time>
      </trkpt>
      <trkpt lat="42.27086" lon="0.06962">
        <ele>862.5</ele>
        <time>2021-08-02T15:01:26Z</time>
      </trkpt>
      <trkpt lat="42.27162" lon="0.06947">
        <ele>866.28</ele>
        <time>2021-08-02T15:01:31Z</time>
      </trkpt>
      <trkpt lat="42.27222" lon="0.06952">
        <ele>869.71</ele>
        <time>2021-08-02T15:01:35Z</time>
      </trkpt>
      <trkpt lat="42.27282" lon="0.06956">
        <ele>873.13</ele>
        <time>2021-08-02T15:01:39Z</time>
      </trkpt>
      <trkpt lat="42.27351" lon="0.06998">
        <ele>876.42</ele>
        <time>2021-08-02T15:01:44Z</time>
      </trkpt>
      <trkpt lat="42.27497" lon="0.07185">
        <ele>877.57</ele>
        <time>2021-08-02T15:01:57Z</time>
      </trkpt>
      <trkpt lat="42.27505" lon="0.072">
        <ele>877.5</ele>
        <time>2021-08-02T15:01:58Z</time>
      </trkpt>
      <trkpt lat="42.2755" lon="0.07239">
        <ele>877.29</ele>
        <time>2021-08-02T15:02:02Z</time>
      </trkpt>
      <trkpt lat="42.27642" lon="0.07271">
        <ele>877.1</ele>
        <time>2021-08-02T15:02:09Z</time>
      </trkpt>
      <trkpt lat="42.27687" lon="0.07325">
        <ele>877.05</ele>
        <time>2021-08-02T15:02:14Z</time>
      </trkpt>
      <trkpt lat="42.27712" lon="0.07361">
        <ele>877.56</ele>
        <time>2021-08-02T15:02:17Z</time>
      </trkpt>
      <trkpt lat="42.27739" lon="0.07434">
        <ele>877.76</ele>
        <time>2021-08-02T15:02:23Z</time>
      </trkpt>
      <trkpt lat="42.27747" lon="0.07522">
        <ele>877.22</ele>
        <time>2021-08-02T15:02:29Z</time>
      </trkpt>
      <trkpt lat="42.27771" lon="0.0753">
        <ele>876.21</ele>
        <time>2021-08-02T15:02:31Z</time>
      </trkpt>
      <trkpt lat="42.27836" lon="0.07564">
        <ele>872.25</ele>
        <time>2021-08-02T15:02:37Z</time>
      </trkpt>
      <trkpt lat="42.27867" lon="0.07628">
        <ele>870.94</ele>
        <time>2021-08-02T15:02:42Z</time>
      </trkpt>
      <trkpt lat="42.279" lon="0.07685">
        <ele>870.92</ele>
        <time>2021-08-02T15:02:47Z</time>
      </trkpt>
      <trkpt lat="42.27957" lon="0.0773">
        <ele>870.64</ele>
        <time>2021-08-02T15:02:53Z</time>
      </trkpt>
      <trkpt lat="42.27982" lon="0.07765">
        <ele>870.29</ele>
        <time>2021-08-02T15:02:56Z</time>
      </trkpt>
      <trkpt lat="42.28013" lon="0.07846">
        <ele>868.32</ele>
        <time>2021-08-02T15:03:02Z</time>
      </trkpt>
      <trkpt lat="42.28047" lon="0.0785">
        <ele>867.08</ele>
        <time>2021-08-02T15:03:05Z</time>
      </trkpt>
      <trkpt lat="42.28085" lon="0.07844">
        <ele>865.55</ele>
        <time>2021-08-02T15:03:08Z</time>
      </trkpt>
      <trkpt lat="42.28132" lon="0.07875">
        <ele>862.13</ele>
        <time>2021-08-02T15:03:13Z</time>
      </trkpt>
      <trkpt lat="42.28122" lon="0.07919">
        <ele>859.75</ele>
        <time>2021-08-02T15:03:16Z</time>
      </trkpt>
      <trkpt lat="42.2811" lon="0.07963">
        <ele>857.56</ele>
        <time>2021-08-02T15:03:19Z</time>
      </trkpt>
      <trkpt lat="42.28127" lon="0.0803">
        <ele>854.66</ele>
        <time>2021-08-02T15:03:24Z</time>
      </trkpt>
      <trkpt lat="42.28152" lon="0.08036">
        <ele>853.37</ele>
        <time>2021-08-02T15:03:26Z</time>
      </trkpt>
      <trkpt lat="42.28224" lon="0.08049">
        <ele>849.41</ele>
        <time>2021-08-02T15:03:32Z</time>
      </trkpt>
      <trkpt lat="42.28249" lon="0.08055">
        <ele>848.16</ele>
        <time>2021-08-02T15:03:34Z</time>
      </trkpt>
      <trkpt lat="42.2833" lon="0.08032">
        <ele>845.27</ele>
        <time>2021-08-02T15:03:40Z</time>
      </trkpt>
      <trkpt lat="42.28397" lon="0.07984">
        <ele>844.6</ele>
        <time>2021-08-02T15:03:46Z</time>
      </trkpt>
      <trkpt lat="42.28496" lon="0.07956">
        <ele>848.13</ele>
        <time>2021-08-02T15:03:53Z</time>
      </trkpt>
      <trkpt lat="42.28559" lon="0.07939">
        <ele>851.46</ele>
        <time>2021-08-02T15:03:57Z</time>
      </trkpt>
      <trkpt lat="42.28626" lon="0.07922">
        <ele>854.85</ele>
        <time>2021-08-02T15:04:01Z</time>
      </trkpt>
      <trkpt lat="42.28718" lon="0.07898">
        <ele>858.07</ele>
        <time>2021-08-02T15:04:06Z</time>
      </trkpt>
      <trkpt lat="42.28781" lon="0.07854">
        <ele>859.45</ele>
        <time>2021-08-02T15:04:10Z</time>
      </trkpt>
      <trkpt lat="42.28848" lon="0.07771">
        <ele>861.02</ele>
        <time>2021-08-02T15:04:15Z</time>
      </trkpt>
      <trkpt lat="42.28881" lon="0.07674">
        <ele>861.24</ele>
        <time>2021-08-02T15:04:20Z</time>
      </trkpt>
      <trkpt lat="42.28875" lon="0.07606">
        <ele>861.09</ele>
        <time>2021-08-02T15:04:23Z</time>
      </trkpt>
      <trkpt lat="42.28865" lon="0.07541">
        <ele>860.59</ele>
        <time>2021-08-02T15:04:26Z</time>
      </trkpt>
      <trkpt lat="42.28824" lon="0.07449">
        <ele>858.76</ele>
        <time>2021-08-02T15:04:31Z</time>
      </trkpt>
      <trkpt lat="42.28803" lon="0.07422">
        <ele>857.91</ele>
        <time>2021-08-02T15:04:33Z</time>
      </trkpt>
      <trkpt lat="42.28788" lon="0.07344">
        <ele>855.1</ele>
        <time>2021-08-02T15:04:38Z</time>
      </trkpt>
      <trkpt lat="42.288" lon="0.07309">
        <ele>854.24</ele>
        <time>2021-08-02T15:04:40Z</time>
      </trkpt>
      <trkpt lat="42.28815" lon="0.07275">
        <ele>853.66</ele>
        <time>2021-08-02T15:04:42Z</time>
      </trkpt>
      <trkpt lat="42.28896" lon="0.0721">
        <ele>852.73</ele>
        <time>2021-08-02T15:04:48Z</time>
      </trkpt>
      <trkpt lat="42.29035" lon="0.0719">
        <ele>852.47</ele>
        <time>2021-08-02T15:04:56Z</time>
      </trkpt>
      <trkpt lat="42.29271" lon="0.07181">
        <ele>852.92</ele>
        <time>2021-08-02T15:05:08Z</time>
      </trkpt>
      <trkpt lat="42.29465" lon="0.07171">
        <ele>852.89</ele>
        <time>2021-08-02T15:05:18Z</time>
      </trkpt>
      <trkpt lat="42.29533" lon="0.07199">
        <ele>852.87</ele>
        <time>2021-08-02T15:05:22Z</time>
      </trkpt>
      <trkpt lat="42.29565" lon="0.07223">
        <ele>852.46</ele>
        <time>2021-08-02T15:05:24Z</time>
      </trkpt>
      <trkpt lat="42.29632" lon="0.07243">
        <ele>851.78</ele>
        <time>2021-08-02T15:05:28Z</time>
      </trkpt>
      <trkpt lat="42.29678" lon="0.07243">
        <ele>849.6</ele>
        <time>2021-08-02T15:05:33Z</time>
      </trkpt>
      <trkpt lat="42.29682" lon="0.07242">
        <ele>847.19</ele>
        <time>2021-08-02T15:05:36Z</time>
      </trkpt>
      <trkpt lat="42.29735" lon="0.07243">
        <ele>844.36</ele>
        <time>2021-08-02T15:05:43Z</time>
      </trkpt>
      <trkpt lat="42.29844" lon="0.07247">
        <ele>845.36</ele>
        <time>2021-08-02T15:05:50Z</time>
      </trkpt>
      <trkpt lat="42.29962" lon="0.07252">
        <ele>847.23</ele>
        <time>2021-08-02T15:05:58Z</time>
      </trkpt>
      <trkpt lat="42.2999" lon="0.07231">
        <ele>846.88</ele>
        <time>2021-08-02T15:06:02Z</time>
      </trkpt>
      <trkpt lat="42.30014" lon="0.07127">
        <ele>846.41</ele>
        <time>2021-08-02T15:06:11Z</time>
      </trkpt>
      <trkpt lat="42.30018" lon="0.07109">
        <ele>846.64</ele>
        <time>2021-08-02T15:06:12Z</time>
      </trkpt>
      <trkpt lat="42.30073" lon="0.0695">
        <ele>849.85</ele>
        <time>2021-08-02T15:06:20Z</time>
      </trkpt>
      <trkpt lat="42.3014" lon="0.06803">
        <ele>851.92</ele>
        <time>2021-08-02T15:06:28Z</time>
      </trkpt>
      <trkpt lat="42.30161" lon="0.06674">
        <ele>853.35</ele>
        <time>2021-08-02T15:06:35Z</time>
      </trkpt>
      <trkpt lat="42.30148" lon="0.06565">
        <ele>856.09</ele>
        <time>2021-08-02T15:06:41Z</time>
      </trkpt>
      <trkpt lat="42.3016" lon="0.06475">
        <ele>858.23</ele>
        <time>2021-08-02T15:06:46Z</time>
      </trkpt>
      <trkpt lat="42.30182" lon="0.06406">
        <ele>859.73</ele>
        <time>2021-08-02T15:06:50Z</time>
      </trkpt>
      <trkpt lat="42.30183" lon="0.06231">
        <ele>862.7</ele>
        <time>2021-08-02T15:06:59Z</time>
      </trkpt>
      <trkpt lat="42.30182" lon="0.06077">
        <ele>864.94</ele>
        <time>2021-08-02T15:07:06Z</time>
      </trkpt>
      <trkpt lat="42.30212" lon="0.05993">
        <ele>864.29</ele>
        <time>2021-08-02T15:07:11Z</time>
      </trkpt>
      <trkpt lat="42.30247" lon="0.0592">
        <ele>863.84</ele>
        <time>2021-08-02T15:07:16Z</time>
      </trkpt>
      <trkpt lat="42.30284" lon="0.05717">
        <ele>867.25</ele>
        <time>2021-08-02T15:07:26Z</time>
      </trkpt>
      <trkpt lat="42.30298" lon="0.05537">
        <ele>870.33</ele>
        <time>2021-08-02T15:07:34Z</time>
      </trkpt>
      <trkpt lat="42.30303" lon="0.05479">
        <ele>871</ele>
        <time>2021-08-02T15:07:37Z</time>
      </trkpt>
      <trkpt lat="42.30355" lon="0.05388">
        <ele>873.92</ele>
        <time>2021-08-02T15:07:44Z</time>
      </trkpt>
      <trkpt lat="42.30365" lon="0.0538">
        <ele>874.5</ele>
        <time>2021-08-02T15:07:45Z</time>
      </trkpt>
      <trkpt lat="42.30426" lon="0.05332">
        <ele>877.78</ele>
        <time>2021-08-02T15:07:50Z</time>
      </trkpt>
      <trkpt lat="42.3045" lon="0.05286">
        <ele>879.72</ele>
        <time>2021-08-02T15:07:54Z</time>
      </trkpt>
      <trkpt lat="42.30454" lon="0.05268">
        <ele>880.28</ele>
        <time>2021-08-02T15:07:56Z</time>
      </trkpt>
      <trkpt lat="42.30436" lon="0.05205">
        <ele>882.74</ele>
        <time>2021-08-02T15:08:02Z</time>
      </trkpt>
      <trkpt lat="42.30422" lon="0.0512">
        <ele>886.14</ele>
        <time>2021-08-02T15:08:10Z</time>
      </trkpt>
      <trkpt lat="42.30426" lon="0.05112">
        <ele>886.5</ele>
        <time>2021-08-02T15:08:11Z</time>
      </trkpt>
      <trkpt lat="42.30441" lon="0.05073">
        <ele>887.6</ele>
        <time>2021-08-02T15:08:16Z</time>
      </trkpt>
      <trkpt lat="42.30446" lon="0.05041">
        <ele>888.1</ele>
        <time>2021-08-02T15:08:19Z</time>
      </trkpt>
      <trkpt lat="42.30475" lon="0.05005">
        <ele>889.2</ele>
        <time>2021-08-02T15:08:24Z</time>
      </trkpt>
      <trkpt lat="42.30573" lon="0.04966">
        <ele>889.36</ele>
        <time>2021-08-02T15:08:33Z</time>
      </trkpt>
      <trkpt lat="42.30623" lon="0.04924">
        <ele>886.35</ele>
        <time>2021-08-02T15:08:38Z</time>
      </trkpt>
      <trkpt lat="42.30655" lon="0.04873">
        <ele>883.13</ele>
        <time>2021-08-02T15:08:42Z</time>
      </trkpt>
      <trkpt lat="42.30669" lon="0.04812">
        <ele>878.89</ele>
        <time>2021-08-02T15:08:46Z</time>
      </trkpt>
      <trkpt lat="42.3067" lon="0.04795">
        <ele>877.78</ele>
        <time>2021-08-02T15:08:47Z</time>
      </trkpt>
      <trkpt lat="42.30676" lon="0.04727">
        <ele>873.03</ele>
        <time>2021-08-02T15:08:51Z</time>
      </trkpt>
      <trkpt lat="42.30684" lon="0.04678">
        <ele>869.77</ele>
        <time>2021-08-02T15:08:54Z</time>
      </trkpt>
      <trkpt lat="42.30694" lon="0.04615">
        <ele>866.14</ele>
        <time>2021-08-02T15:08:58Z</time>
      </trkpt>
      <trkpt lat="42.30693" lon="0.04548">
        <ele>863.58</ele>
        <time>2021-08-02T15:09:02Z</time>
      </trkpt>
      <trkpt lat="42.30704" lon="0.04453">
        <ele>860.21</ele>
        <time>2021-08-02T15:09:10Z</time>
      </trkpt>
      <trkpt lat="42.30707" lon="0.04424">
        <ele>857.44</ele>
        <time>2021-08-02T15:09:21Z</time>
      </trkpt>
      <trkpt lat="42.30724" lon="0.04341">
        <ele>857.11</ele>
        <time>2021-08-02T15:09:29Z</time>
      </trkpt>
      <trkpt lat="42.30719" lon="0.04218">
        <ele>858.17</ele>
        <time>2021-08-02T15:09:38Z</time>
      </trkpt>
    </trkseg>
  </trk>
</gpx>